<?xml version="1.0" encoding="UTF-8" standalone="no" ?>
<gpx xmlns="http://www.topografix.com/GPX/1/1" xmlns:xsi="http://www.w3.org/2001/XMLSchema-instance" xsi:schemaLocation="http://www.topografix.com/GPX/1/1 http://www.topografix.com/GPX/1/1/gpx.xsd" version="1.1" creator="VisuGPX - https://www.visugpx.com">
  <metadata>
    <name>Grand Ballon</name>
    <desc><![CDATA[Guebwiller - Petit ballon - Markstein - Grand ballon - Guebwiller]]></desc>
  </metadata>
  <wpt lat="47.91697" lon="7.20458">
    <ele>310</ele>
    <name><![CDATA[Start]]></name>
    <desc><![CDATA[2016-07-30 07:05:05]]></desc>
  </wpt>
  <wpt lat="47.91703" lon="7.20448">
    <ele>310</ele>
    <name><![CDATA[Lap 1]]></name>
    <desc><![CDATA[46.74km, 244:47, 11.5kph]]></desc>
  </wpt>
  <trk>
    <name><![CDATA[30_07_2016 09_05_05_history]]></name>
    <desc><![CDATA[244:47 - 46.7km]]></desc>
    <trkseg>
      <trkpt lat="47.91697" lon="7.20458">
        <ele>310</ele>
        <time>2016-07-30T07:05:05Z</time>
      </trkpt>
      <trkpt lat="47.9169" lon="7.20472">
        <ele>310</ele>
        <time>2016-07-30T07:05:10Z</time>
      </trkpt>
      <trkpt lat="47.91688" lon="7.20478">
        <ele>310</ele>
        <time>2016-07-30T07:05:12Z</time>
      </trkpt>
      <trkpt lat="47.91689" lon="7.20491">
        <ele>310</ele>
        <time>2016-07-30T07:05:16Z</time>
      </trkpt>
      <trkpt lat="47.91693" lon="7.20494">
        <ele>310</ele>
        <time>2016-07-30T07:05:19Z</time>
      </trkpt>
      <trkpt lat="47.91696" lon="7.20493">
        <ele>310</ele>
        <time>2016-07-30T07:05:21Z</time>
      </trkpt>
      <trkpt lat="47.917" lon="7.20488">
        <ele>310</ele>
        <time>2016-07-30T07:05:23Z</time>
      </trkpt>
      <trkpt lat="47.91722" lon="7.20448">
        <ele>311</ele>
        <time>2016-07-30T07:05:35Z</time>
      </trkpt>
      <trkpt lat="47.91736" lon="7.20411">
        <ele>310</ele>
        <time>2016-07-30T07:05:42Z</time>
      </trkpt>
      <trkpt lat="47.91763" lon="7.20367">
        <ele>311</ele>
        <time>2016-07-30T07:05:52Z</time>
      </trkpt>
      <trkpt lat="47.91781" lon="7.20339">
        <ele>310</ele>
        <time>2016-07-30T07:05:59Z</time>
      </trkpt>
      <trkpt lat="47.91795" lon="7.20309">
        <ele>310</ele>
        <time>2016-07-30T07:06:06Z</time>
      </trkpt>
      <trkpt lat="47.91877" lon="7.20161">
        <ele>312</ele>
        <time>2016-07-30T07:06:36Z</time>
      </trkpt>
      <trkpt lat="47.91923" lon="7.20084">
        <ele>314</ele>
        <time>2016-07-30T07:06:52Z</time>
      </trkpt>
      <trkpt lat="47.91958" lon="7.20029">
        <ele>314</ele>
        <time>2016-07-30T07:07:03Z</time>
      </trkpt>
      <trkpt lat="47.91994" lon="7.19987">
        <ele>315</ele>
        <time>2016-07-30T07:07:13Z</time>
      </trkpt>
      <trkpt lat="47.92001" lon="7.1998">
        <ele>315</ele>
        <time>2016-07-30T07:07:15Z</time>
      </trkpt>
      <trkpt lat="47.92052" lon="7.19939">
        <ele>316</ele>
        <time>2016-07-30T07:07:28Z</time>
      </trkpt>
      <trkpt lat="47.92086" lon="7.19918">
        <ele>316</ele>
        <time>2016-07-30T07:07:36Z</time>
      </trkpt>
      <trkpt lat="47.921" lon="7.19912">
        <ele>317</ele>
        <time>2016-07-30T07:07:39Z</time>
      </trkpt>
      <trkpt lat="47.92208" lon="7.19856">
        <ele>320</ele>
        <time>2016-07-30T07:08:04Z</time>
      </trkpt>
      <trkpt lat="47.92238" lon="7.19837">
        <ele>320</ele>
        <time>2016-07-30T07:08:11Z</time>
      </trkpt>
      <trkpt lat="47.92256" lon="7.19823">
        <ele>322</ele>
        <time>2016-07-30T07:08:16Z</time>
      </trkpt>
      <trkpt lat="47.92268" lon="7.19816">
        <ele>324</ele>
        <time>2016-07-30T07:08:19Z</time>
      </trkpt>
      <trkpt lat="47.92305" lon="7.19788">
        <ele>326</ele>
        <time>2016-07-30T07:08:28Z</time>
      </trkpt>
      <trkpt lat="47.92342" lon="7.19756">
        <ele>332</ele>
        <time>2016-07-30T07:08:38Z</time>
      </trkpt>
      <trkpt lat="47.92349" lon="7.19753">
        <ele>333</ele>
        <time>2016-07-30T07:08:40Z</time>
      </trkpt>
      <trkpt lat="47.9237" lon="7.19755">
        <ele>338</ele>
        <time>2016-07-30T07:08:46Z</time>
      </trkpt>
      <trkpt lat="47.9239" lon="7.19726">
        <ele>333</ele>
        <time>2016-07-30T07:08:53Z</time>
      </trkpt>
      <trkpt lat="47.92423" lon="7.19687">
        <ele>340</ele>
        <time>2016-07-30T07:09:04Z</time>
      </trkpt>
      <trkpt lat="47.92435" lon="7.19675">
        <ele>340</ele>
        <time>2016-07-30T07:09:08Z</time>
      </trkpt>
      <trkpt lat="47.92458" lon="7.19666">
        <ele>338</ele>
        <time>2016-07-30T07:09:14Z</time>
      </trkpt>
      <trkpt lat="47.92471" lon="7.19657">
        <ele>340</ele>
        <time>2016-07-30T07:09:17Z</time>
      </trkpt>
      <trkpt lat="47.92489" lon="7.19622">
        <ele>338</ele>
        <time>2016-07-30T07:09:25Z</time>
      </trkpt>
      <trkpt lat="47.92511" lon="7.19593">
        <ele>345</ele>
        <time>2016-07-30T07:09:32Z</time>
      </trkpt>
      <trkpt lat="47.92525" lon="7.19572">
        <ele>340</ele>
        <time>2016-07-30T07:09:37Z</time>
      </trkpt>
      <trkpt lat="47.92531" lon="7.19565">
        <ele>341</ele>
        <time>2016-07-30T07:09:39Z</time>
      </trkpt>
      <trkpt lat="47.92579" lon="7.19515">
        <ele>341</ele>
        <time>2016-07-30T07:09:52Z</time>
      </trkpt>
      <trkpt lat="47.9261" lon="7.19493">
        <ele>343</ele>
        <time>2016-07-30T07:10:00Z</time>
      </trkpt>
      <trkpt lat="47.92633" lon="7.19472">
        <ele>345</ele>
        <time>2016-07-30T07:10:07Z</time>
      </trkpt>
      <trkpt lat="47.92649" lon="7.19461">
        <ele>345</ele>
        <time>2016-07-30T07:10:11Z</time>
      </trkpt>
      <trkpt lat="47.9266" lon="7.1945">
        <ele>343</ele>
        <time>2016-07-30T07:10:14Z</time>
      </trkpt>
      <trkpt lat="47.92676" lon="7.19421">
        <ele>345</ele>
        <time>2016-07-30T07:10:19Z</time>
      </trkpt>
      <trkpt lat="47.92689" lon="7.19392">
        <ele>341</ele>
        <time>2016-07-30T07:10:24Z</time>
      </trkpt>
      <trkpt lat="47.92694" lon="7.19381">
        <ele>341</ele>
        <time>2016-07-30T07:10:26Z</time>
      </trkpt>
      <trkpt lat="47.92699" lon="7.19375">
        <ele>341</ele>
        <time>2016-07-30T07:10:27Z</time>
      </trkpt>
      <trkpt lat="47.9274" lon="7.19293">
        <ele>336</ele>
        <time>2016-07-30T07:10:42Z</time>
      </trkpt>
      <trkpt lat="47.92742" lon="7.19286">
        <ele>336</ele>
        <time>2016-07-30T07:10:43Z</time>
      </trkpt>
      <trkpt lat="47.92754" lon="7.19266">
        <ele>337</ele>
        <time>2016-07-30T07:10:47Z</time>
      </trkpt>
      <trkpt lat="47.92779" lon="7.19218">
        <ele>336</ele>
        <time>2016-07-30T07:10:56Z</time>
      </trkpt>
      <trkpt lat="47.92785" lon="7.1921">
        <ele>336</ele>
        <time>2016-07-30T07:10:58Z</time>
      </trkpt>
      <trkpt lat="47.92815" lon="7.19177">
        <ele>336</ele>
        <time>2016-07-30T07:11:07Z</time>
      </trkpt>
      <trkpt lat="47.92885" lon="7.19086">
        <ele>338</ele>
        <time>2016-07-30T07:11:33Z</time>
      </trkpt>
      <trkpt lat="47.92923" lon="7.19045">
        <ele>338</ele>
        <time>2016-07-30T07:11:45Z</time>
      </trkpt>
      <trkpt lat="47.92955" lon="7.19004">
        <ele>338</ele>
        <time>2016-07-30T07:11:56Z</time>
      </trkpt>
      <trkpt lat="47.92961" lon="7.18995">
        <ele>338</ele>
        <time>2016-07-30T07:11:58Z</time>
      </trkpt>
      <trkpt lat="47.92972" lon="7.18981">
        <ele>339</ele>
        <time>2016-07-30T07:12:02Z</time>
      </trkpt>
      <trkpt lat="47.93003" lon="7.18959">
        <ele>341</ele>
        <time>2016-07-30T07:12:12Z</time>
      </trkpt>
      <trkpt lat="47.93009" lon="7.18962">
        <ele>341</ele>
        <time>2016-07-30T07:12:14Z</time>
      </trkpt>
      <trkpt lat="47.93014" lon="7.18969">
        <ele>341</ele>
        <time>2016-07-30T07:12:16Z</time>
      </trkpt>
      <trkpt lat="47.93048" lon="7.19053">
        <ele>344</ele>
        <time>2016-07-30T07:12:34Z</time>
      </trkpt>
      <trkpt lat="47.93051" lon="7.19055">
        <ele>344</ele>
        <time>2016-07-30T07:12:35Z</time>
      </trkpt>
      <trkpt lat="47.93056" lon="7.19057">
        <ele>345</ele>
        <time>2016-07-30T07:12:37Z</time>
      </trkpt>
      <trkpt lat="47.93065" lon="7.19053">
        <ele>345</ele>
        <time>2016-07-30T07:12:40Z</time>
      </trkpt>
      <trkpt lat="47.93086" lon="7.19034">
        <ele>351</ele>
        <time>2016-07-30T07:12:47Z</time>
      </trkpt>
      <trkpt lat="47.93111" lon="7.19007">
        <ele>350</ele>
        <time>2016-07-30T07:12:55Z</time>
      </trkpt>
      <trkpt lat="47.9312" lon="7.19">
        <ele>347</ele>
        <time>2016-07-30T07:12:58Z</time>
      </trkpt>
      <trkpt lat="47.93127" lon="7.18997">
        <ele>347</ele>
        <time>2016-07-30T07:13:01Z</time>
      </trkpt>
      <trkpt lat="47.93161" lon="7.18964">
        <ele>348</ele>
        <time>2016-07-30T07:13:13Z</time>
      </trkpt>
      <trkpt lat="47.93174" lon="7.18953">
        <ele>352</ele>
        <time>2016-07-30T07:13:17Z</time>
      </trkpt>
      <trkpt lat="47.93184" lon="7.18942">
        <ele>352</ele>
        <time>2016-07-30T07:13:21Z</time>
      </trkpt>
      <trkpt lat="47.93192" lon="7.18937">
        <ele>352</ele>
        <time>2016-07-30T07:13:24Z</time>
      </trkpt>
      <trkpt lat="47.93239" lon="7.1889">
        <ele>350</ele>
        <time>2016-07-30T07:13:44Z</time>
      </trkpt>
      <trkpt lat="47.93246" lon="7.18881">
        <ele>350</ele>
        <time>2016-07-30T07:13:47Z</time>
      </trkpt>
      <trkpt lat="47.93259" lon="7.18872">
        <ele>357</ele>
        <time>2016-07-30T07:13:53Z</time>
      </trkpt>
      <trkpt lat="47.93268" lon="7.18877">
        <ele>358</ele>
        <time>2016-07-30T07:13:57Z</time>
      </trkpt>
      <trkpt lat="47.93273" lon="7.18878">
        <ele>358</ele>
        <time>2016-07-30T07:13:59Z</time>
      </trkpt>
      <trkpt lat="47.9328" lon="7.18876">
        <ele>359</ele>
        <time>2016-07-30T07:14:01Z</time>
      </trkpt>
      <trkpt lat="47.93285" lon="7.18872">
        <ele>359</ele>
        <time>2016-07-30T07:14:03Z</time>
      </trkpt>
      <trkpt lat="47.933" lon="7.1885">
        <ele>360</ele>
        <time>2016-07-30T07:14:11Z</time>
      </trkpt>
      <trkpt lat="47.93301" lon="7.18845">
        <ele>360</ele>
        <time>2016-07-30T07:14:12Z</time>
      </trkpt>
      <trkpt lat="47.93306" lon="7.18835">
        <ele>361</ele>
        <time>2016-07-30T07:14:15Z</time>
      </trkpt>
      <trkpt lat="47.93327" lon="7.18808">
        <ele>357</ele>
        <time>2016-07-30T07:14:24Z</time>
      </trkpt>
      <trkpt lat="47.93343" lon="7.18789">
        <ele>368</ele>
        <time>2016-07-30T07:14:31Z</time>
      </trkpt>
      <trkpt lat="47.93351" lon="7.18778">
        <ele>367</ele>
        <time>2016-07-30T07:14:35Z</time>
      </trkpt>
      <trkpt lat="47.93373" lon="7.18754">
        <ele>369</ele>
        <time>2016-07-30T07:14:46Z</time>
      </trkpt>
      <trkpt lat="47.93377" lon="7.18748">
        <ele>360</ele>
        <time>2016-07-30T07:14:48Z</time>
      </trkpt>
      <trkpt lat="47.93381" lon="7.18744">
        <ele>361</ele>
        <time>2016-07-30T07:14:50Z</time>
      </trkpt>
      <trkpt lat="47.93394" lon="7.18735">
        <ele>363</ele>
        <time>2016-07-30T07:14:56Z</time>
      </trkpt>
      <trkpt lat="47.93401" lon="7.18732">
        <ele>364</ele>
        <time>2016-07-30T07:14:59Z</time>
      </trkpt>
      <trkpt lat="47.93423" lon="7.18709">
        <ele>373</ele>
        <time>2016-07-30T07:15:11Z</time>
      </trkpt>
      <trkpt lat="47.93442" lon="7.18703">
        <ele>374</ele>
        <time>2016-07-30T07:15:21Z</time>
      </trkpt>
      <trkpt lat="47.93463" lon="7.18702">
        <ele>377</ele>
        <time>2016-07-30T07:15:29Z</time>
      </trkpt>
      <trkpt lat="47.93472" lon="7.187">
        <ele>378</ele>
        <time>2016-07-30T07:15:34Z</time>
      </trkpt>
      <trkpt lat="47.93498" lon="7.18705">
        <ele>381</ele>
        <time>2016-07-30T07:15:47Z</time>
      </trkpt>
      <trkpt lat="47.9351" lon="7.18698">
        <ele>388</ele>
        <time>2016-07-30T07:15:52Z</time>
      </trkpt>
      <trkpt lat="47.9354" lon="7.18671">
        <ele>387</ele>
        <time>2016-07-30T07:16:01Z</time>
      </trkpt>
      <trkpt lat="47.93553" lon="7.18662">
        <ele>373</ele>
        <time>2016-07-30T07:16:04Z</time>
      </trkpt>
      <trkpt lat="47.93569" lon="7.18642">
        <ele>373</ele>
        <time>2016-07-30T07:16:09Z</time>
      </trkpt>
      <trkpt lat="47.93598" lon="7.18637">
        <ele>374</ele>
        <time>2016-07-30T07:16:15Z</time>
      </trkpt>
      <trkpt lat="47.93653" lon="7.18641">
        <ele>374</ele>
        <time>2016-07-30T07:16:27Z</time>
      </trkpt>
      <trkpt lat="47.93698" lon="7.18656">
        <ele>372</ele>
        <time>2016-07-30T07:16:37Z</time>
      </trkpt>
      <trkpt lat="47.93705" lon="7.18657">
        <ele>372</ele>
        <time>2016-07-30T07:16:39Z</time>
      </trkpt>
      <trkpt lat="47.93724" lon="7.18665">
        <ele>372</ele>
        <time>2016-07-30T07:16:44Z</time>
      </trkpt>
      <trkpt lat="47.93737" lon="7.18665">
        <ele>373</ele>
        <time>2016-07-30T07:16:49Z</time>
      </trkpt>
      <trkpt lat="47.93752" lon="7.18671">
        <ele>376</ele>
        <time>2016-07-30T07:16:54Z</time>
      </trkpt>
      <trkpt lat="47.93766" lon="7.18674">
        <ele>378</ele>
        <time>2016-07-30T07:16:59Z</time>
      </trkpt>
      <trkpt lat="47.93798" lon="7.18687">
        <ele>380</ele>
        <time>2016-07-30T07:17:08Z</time>
      </trkpt>
      <trkpt lat="47.93804" lon="7.18688">
        <ele>380</ele>
        <time>2016-07-30T07:17:10Z</time>
      </trkpt>
      <trkpt lat="47.9383" lon="7.187">
        <ele>380</ele>
        <time>2016-07-30T07:17:17Z</time>
      </trkpt>
      <trkpt lat="47.9385" lon="7.18702">
        <ele>380</ele>
        <time>2016-07-30T07:17:24Z</time>
      </trkpt>
      <trkpt lat="47.93868" lon="7.18712">
        <ele>381</ele>
        <time>2016-07-30T07:17:29Z</time>
      </trkpt>
      <trkpt lat="47.93919" lon="7.18735">
        <ele>386</ele>
        <time>2016-07-30T07:17:42Z</time>
      </trkpt>
      <trkpt lat="47.93969" lon="7.18748">
        <ele>387</ele>
        <time>2016-07-30T07:17:52Z</time>
      </trkpt>
      <trkpt lat="47.93978" lon="7.18752">
        <ele>392</ele>
        <time>2016-07-30T07:17:55Z</time>
      </trkpt>
      <trkpt lat="47.93998" lon="7.18756">
        <ele>392</ele>
        <time>2016-07-30T07:18:04Z</time>
      </trkpt>
      <trkpt lat="47.94" lon="7.18757">
        <ele>392</ele>
        <time>2016-07-30T07:18:06Z</time>
      </trkpt>
      <trkpt lat="47.94006" lon="7.18757">
        <ele>393</ele>
        <time>2016-07-30T07:18:09Z</time>
      </trkpt>
      <trkpt lat="47.94016" lon="7.1876">
        <ele>394</ele>
        <time>2016-07-30T07:18:14Z</time>
      </trkpt>
      <trkpt lat="47.94021" lon="7.18759">
        <ele>394</ele>
        <time>2016-07-30T07:18:16Z</time>
      </trkpt>
      <trkpt lat="47.94024" lon="7.18763">
        <ele>395</ele>
        <time>2016-07-30T07:18:17Z</time>
      </trkpt>
      <trkpt lat="47.94043" lon="7.18767">
        <ele>396</ele>
        <time>2016-07-30T07:18:24Z</time>
      </trkpt>
      <trkpt lat="47.94055" lon="7.18768">
        <ele>396</ele>
        <time>2016-07-30T07:18:30Z</time>
      </trkpt>
      <trkpt lat="47.9407" lon="7.18776">
        <ele>396</ele>
        <time>2016-07-30T07:18:35Z</time>
      </trkpt>
      <trkpt lat="47.94084" lon="7.18779">
        <ele>399</ele>
        <time>2016-07-30T07:18:41Z</time>
      </trkpt>
      <trkpt lat="47.94113" lon="7.18771">
        <ele>400</ele>
        <time>2016-07-30T07:18:49Z</time>
      </trkpt>
      <trkpt lat="47.94127" lon="7.18765">
        <ele>401</ele>
        <time>2016-07-30T07:18:55Z</time>
      </trkpt>
      <trkpt lat="47.94128" lon="7.18763">
        <ele>401</ele>
        <time>2016-07-30T07:18:56Z</time>
      </trkpt>
      <trkpt lat="47.94134" lon="7.18759">
        <ele>401</ele>
        <time>2016-07-30T07:19:01Z</time>
      </trkpt>
      <trkpt lat="47.94149" lon="7.18757">
        <ele>401</ele>
        <time>2016-07-30T07:19:11Z</time>
      </trkpt>
      <trkpt lat="47.94151" lon="7.18759">
        <ele>401</ele>
        <time>2016-07-30T07:19:12Z</time>
      </trkpt>
      <trkpt lat="47.9417" lon="7.18759">
        <ele>404</ele>
        <time>2016-07-30T07:19:23Z</time>
      </trkpt>
      <trkpt lat="47.94176" lon="7.18758">
        <ele>404</ele>
        <time>2016-07-30T07:19:26Z</time>
      </trkpt>
      <trkpt lat="47.94179" lon="7.1876">
        <ele>405</ele>
        <time>2016-07-30T07:19:27Z</time>
      </trkpt>
      <trkpt lat="47.94187" lon="7.18758">
        <ele>407</ele>
        <time>2016-07-30T07:19:30Z</time>
      </trkpt>
      <trkpt lat="47.942" lon="7.18758">
        <ele>408</ele>
        <time>2016-07-30T07:19:34Z</time>
      </trkpt>
      <trkpt lat="47.94201" lon="7.18756">
        <ele>408</ele>
        <time>2016-07-30T07:19:35Z</time>
      </trkpt>
      <trkpt lat="47.94222" lon="7.1875">
        <ele>402</ele>
        <time>2016-07-30T07:19:44Z</time>
      </trkpt>
      <trkpt lat="47.94239" lon="7.1875">
        <ele>409</ele>
        <time>2016-07-30T07:19:50Z</time>
      </trkpt>
      <trkpt lat="47.94258" lon="7.18757">
        <ele>411</ele>
        <time>2016-07-30T07:19:56Z</time>
      </trkpt>
      <trkpt lat="47.94267" lon="7.18759">
        <ele>413</ele>
        <time>2016-07-30T07:20:00Z</time>
      </trkpt>
      <trkpt lat="47.9428" lon="7.1875">
        <ele>404</ele>
        <time>2016-07-30T07:20:06Z</time>
      </trkpt>
      <trkpt lat="47.94314" lon="7.18754">
        <ele>413</ele>
        <time>2016-07-30T07:20:13Z</time>
      </trkpt>
      <trkpt lat="47.94319" lon="7.18753">
        <ele>412</ele>
        <time>2016-07-30T07:20:14Z</time>
      </trkpt>
      <trkpt lat="47.94334" lon="7.18758">
        <ele>410</ele>
        <time>2016-07-30T07:20:17Z</time>
      </trkpt>
      <trkpt lat="47.94373" lon="7.18778">
        <ele>414</ele>
        <time>2016-07-30T07:20:29Z</time>
      </trkpt>
      <trkpt lat="47.94407" lon="7.18782">
        <ele>413</ele>
        <time>2016-07-30T07:20:39Z</time>
      </trkpt>
      <trkpt lat="47.94413" lon="7.18779">
        <ele>412</ele>
        <time>2016-07-30T07:20:42Z</time>
      </trkpt>
      <trkpt lat="47.9444" lon="7.18784">
        <ele>410</ele>
        <time>2016-07-30T07:20:54Z</time>
      </trkpt>
      <trkpt lat="47.94447" lon="7.18784">
        <ele>410</ele>
        <time>2016-07-30T07:20:57Z</time>
      </trkpt>
      <trkpt lat="47.94455" lon="7.18786">
        <ele>410</ele>
        <time>2016-07-30T07:21:01Z</time>
      </trkpt>
      <trkpt lat="47.94476" lon="7.18795">
        <ele>411</ele>
        <time>2016-07-30T07:21:08Z</time>
      </trkpt>
      <trkpt lat="47.94494" lon="7.18807">
        <ele>411</ele>
        <time>2016-07-30T07:21:15Z</time>
      </trkpt>
      <trkpt lat="47.94549" lon="7.18828">
        <ele>411</ele>
        <time>2016-07-30T07:21:35Z</time>
      </trkpt>
      <trkpt lat="47.94572" lon="7.18842">
        <ele>416</ele>
        <time>2016-07-30T07:21:43Z</time>
      </trkpt>
      <trkpt lat="47.94606" lon="7.18859">
        <ele>420</ele>
        <time>2016-07-30T07:21:55Z</time>
      </trkpt>
      <trkpt lat="47.94619" lon="7.18861">
        <ele>421</ele>
        <time>2016-07-30T07:22:02Z</time>
      </trkpt>
      <trkpt lat="47.94626" lon="7.18861">
        <ele>421</ele>
        <time>2016-07-30T07:22:05Z</time>
      </trkpt>
      <trkpt lat="47.94659" lon="7.18873">
        <ele>423</ele>
        <time>2016-07-30T07:22:15Z</time>
      </trkpt>
      <trkpt lat="47.9466" lon="7.18876">
        <ele>423</ele>
        <time>2016-07-30T07:22:16Z</time>
      </trkpt>
      <trkpt lat="47.94667" lon="7.18888">
        <ele>427</ele>
        <time>2016-07-30T07:22:20Z</time>
      </trkpt>
      <trkpt lat="47.9467" lon="7.18894">
        <ele>428</ele>
        <time>2016-07-30T07:22:22Z</time>
      </trkpt>
      <trkpt lat="47.94679" lon="7.18909">
        <ele>429</ele>
        <time>2016-07-30T07:22:28Z</time>
      </trkpt>
      <trkpt lat="47.94682" lon="7.18911">
        <ele>429</ele>
        <time>2016-07-30T07:22:30Z</time>
      </trkpt>
      <trkpt lat="47.94693" lon="7.18925">
        <ele>434</ele>
        <time>2016-07-30T07:22:37Z</time>
      </trkpt>
      <trkpt lat="47.94705" lon="7.18936">
        <ele>434</ele>
        <time>2016-07-30T07:22:42Z</time>
      </trkpt>
      <trkpt lat="47.94711" lon="7.1894">
        <ele>435</ele>
        <time>2016-07-30T07:22:46Z</time>
      </trkpt>
      <trkpt lat="47.94714" lon="7.18952">
        <ele>435</ele>
        <time>2016-07-30T07:22:55Z</time>
      </trkpt>
      <trkpt lat="47.94714" lon="7.1897">
        <ele>437</ele>
        <time>2016-07-30T07:23:05Z</time>
      </trkpt>
      <trkpt lat="47.94715" lon="7.18971">
        <ele>437</ele>
        <time>2016-07-30T07:23:06Z</time>
      </trkpt>
      <trkpt lat="47.94715" lon="7.18975">
        <ele>437</ele>
        <time>2016-07-30T07:23:09Z</time>
      </trkpt>
      <trkpt lat="47.94717" lon="7.18985">
        <ele>438</ele>
        <time>2016-07-30T07:23:15Z</time>
      </trkpt>
      <trkpt lat="47.94716" lon="7.18991">
        <ele>438</ele>
        <time>2016-07-30T07:23:17Z</time>
      </trkpt>
      <trkpt lat="47.94718" lon="7.18995">
        <ele>439</ele>
        <time>2016-07-30T07:23:18Z</time>
      </trkpt>
      <trkpt lat="47.94718" lon="7.18998">
        <ele>439</ele>
        <time>2016-07-30T07:23:19Z</time>
      </trkpt>
      <trkpt lat="47.94733" lon="7.19014">
        <ele>446</ele>
        <time>2016-07-30T07:23:27Z</time>
      </trkpt>
      <trkpt lat="47.94744" lon="7.19017">
        <ele>446</ele>
        <time>2016-07-30T07:23:33Z</time>
      </trkpt>
      <trkpt lat="47.94759" lon="7.19027">
        <ele>446</ele>
        <time>2016-07-30T07:23:42Z</time>
      </trkpt>
      <trkpt lat="47.94767" lon="7.19035">
        <ele>446</ele>
        <time>2016-07-30T07:23:46Z</time>
      </trkpt>
      <trkpt lat="47.94774" lon="7.19038">
        <ele>447</ele>
        <time>2016-07-30T07:23:48Z</time>
      </trkpt>
      <trkpt lat="47.94784" lon="7.19045">
        <ele>447</ele>
        <time>2016-07-30T07:23:51Z</time>
      </trkpt>
      <trkpt lat="47.94806" lon="7.19055">
        <ele>447</ele>
        <time>2016-07-30T07:24:01Z</time>
      </trkpt>
      <trkpt lat="47.94816" lon="7.19056">
        <ele>447</ele>
        <time>2016-07-30T07:24:07Z</time>
      </trkpt>
      <trkpt lat="47.94836" lon="7.19065">
        <ele>449</ele>
        <time>2016-07-30T07:24:17Z</time>
      </trkpt>
      <trkpt lat="47.94841" lon="7.19067">
        <ele>449</ele>
        <time>2016-07-30T07:24:20Z</time>
      </trkpt>
      <trkpt lat="47.94866" lon="7.19085">
        <ele>454</ele>
        <time>2016-07-30T07:24:35Z</time>
      </trkpt>
      <trkpt lat="47.9487" lon="7.19085">
        <ele>454</ele>
        <time>2016-07-30T07:24:37Z</time>
      </trkpt>
      <trkpt lat="47.94886" lon="7.19093">
        <ele>455</ele>
        <time>2016-07-30T07:24:46Z</time>
      </trkpt>
      <trkpt lat="47.94889" lon="7.19092">
        <ele>455</ele>
        <time>2016-07-30T07:24:50Z</time>
      </trkpt>
      <trkpt lat="47.9489" lon="7.19094">
        <ele>455</ele>
        <time>2016-07-30T07:24:51Z</time>
      </trkpt>
      <trkpt lat="47.94902" lon="7.191">
        <ele>455</ele>
        <time>2016-07-30T07:25:01Z</time>
      </trkpt>
      <trkpt lat="47.94908" lon="7.19098">
        <ele>454</ele>
        <time>2016-07-30T07:25:06Z</time>
      </trkpt>
      <trkpt lat="47.94913" lon="7.19101">
        <ele>455</ele>
        <time>2016-07-30T07:25:08Z</time>
      </trkpt>
      <trkpt lat="47.94914" lon="7.191">
        <ele>454</ele>
        <time>2016-07-30T07:25:09Z</time>
      </trkpt>
      <trkpt lat="47.94928" lon="7.19104">
        <ele>458</ele>
        <time>2016-07-30T07:25:18Z</time>
      </trkpt>
      <trkpt lat="47.94932" lon="7.19106">
        <ele>459</ele>
        <time>2016-07-30T07:25:22Z</time>
      </trkpt>
      <trkpt lat="47.9494" lon="7.19104">
        <ele>460</ele>
        <time>2016-07-30T07:25:26Z</time>
      </trkpt>
      <trkpt lat="47.94951" lon="7.19107">
        <ele>461</ele>
        <time>2016-07-30T07:25:32Z</time>
      </trkpt>
      <trkpt lat="47.94965" lon="7.19116">
        <ele>462</ele>
        <time>2016-07-30T07:25:36Z</time>
      </trkpt>
      <trkpt lat="47.94976" lon="7.1912">
        <ele>463</ele>
        <time>2016-07-30T07:25:41Z</time>
      </trkpt>
      <trkpt lat="47.94981" lon="7.19128">
        <ele>464</ele>
        <time>2016-07-30T07:25:42Z</time>
      </trkpt>
      <trkpt lat="47.94983" lon="7.19129">
        <ele>464</ele>
        <time>2016-07-30T07:25:43Z</time>
      </trkpt>
      <trkpt lat="47.94989" lon="7.19127">
        <ele>464</ele>
        <time>2016-07-30T07:25:45Z</time>
      </trkpt>
      <trkpt lat="47.94995" lon="7.19128">
        <ele>464</ele>
        <time>2016-07-30T07:25:48Z</time>
      </trkpt>
      <trkpt lat="47.94996" lon="7.19131">
        <ele>464</ele>
        <time>2016-07-30T07:25:49Z</time>
      </trkpt>
      <trkpt lat="47.94999" lon="7.19133">
        <ele>464</ele>
        <time>2016-07-30T07:25:51Z</time>
      </trkpt>
      <trkpt lat="47.95021" lon="7.19141">
        <ele>470</ele>
        <time>2016-07-30T07:26:05Z</time>
      </trkpt>
      <trkpt lat="47.9503" lon="7.19148">
        <ele>471</ele>
        <time>2016-07-30T07:26:12Z</time>
      </trkpt>
      <trkpt lat="47.95032" lon="7.19146">
        <ele>471</ele>
        <time>2016-07-30T07:26:13Z</time>
      </trkpt>
      <trkpt lat="47.95038" lon="7.1915">
        <ele>471</ele>
        <time>2016-07-30T07:26:16Z</time>
      </trkpt>
      <trkpt lat="47.95046" lon="7.19154">
        <ele>472</ele>
        <time>2016-07-30T07:26:19Z</time>
      </trkpt>
      <trkpt lat="47.95055" lon="7.19155">
        <ele>472</ele>
        <time>2016-07-30T07:26:24Z</time>
      </trkpt>
      <trkpt lat="47.95061" lon="7.19159">
        <ele>473</ele>
        <time>2016-07-30T07:26:28Z</time>
      </trkpt>
      <trkpt lat="47.95075" lon="7.19158">
        <ele>474</ele>
        <time>2016-07-30T07:26:40Z</time>
      </trkpt>
      <trkpt lat="47.95081" lon="7.1916">
        <ele>474</ele>
        <time>2016-07-30T07:26:45Z</time>
      </trkpt>
      <trkpt lat="47.95087" lon="7.1916">
        <ele>476</ele>
        <time>2016-07-30T07:26:48Z</time>
      </trkpt>
      <trkpt lat="47.951" lon="7.19155">
        <ele>477</ele>
        <time>2016-07-30T07:26:54Z</time>
      </trkpt>
      <trkpt lat="47.95132" lon="7.19157">
        <ele>479</ele>
        <time>2016-07-30T07:27:06Z</time>
      </trkpt>
      <trkpt lat="47.9514" lon="7.1916">
        <ele>479</ele>
        <time>2016-07-30T07:27:08Z</time>
      </trkpt>
      <trkpt lat="47.95151" lon="7.19162">
        <ele>480</ele>
        <time>2016-07-30T07:27:12Z</time>
      </trkpt>
      <trkpt lat="47.95178" lon="7.19175">
        <ele>483</ele>
        <time>2016-07-30T07:27:28Z</time>
      </trkpt>
      <trkpt lat="47.95179" lon="7.19177">
        <ele>483</ele>
        <time>2016-07-30T07:27:29Z</time>
      </trkpt>
      <trkpt lat="47.95193" lon="7.19183">
        <ele>484</ele>
        <time>2016-07-30T07:27:38Z</time>
      </trkpt>
      <trkpt lat="47.95198" lon="7.1919">
        <ele>485</ele>
        <time>2016-07-30T07:27:41Z</time>
      </trkpt>
      <trkpt lat="47.95241" lon="7.19207">
        <ele>486</ele>
        <time>2016-07-30T07:28:02Z</time>
      </trkpt>
      <trkpt lat="47.95257" lon="7.19224">
        <ele>488</ele>
        <time>2016-07-30T07:28:11Z</time>
      </trkpt>
      <trkpt lat="47.95262" lon="7.19231">
        <ele>488</ele>
        <time>2016-07-30T07:28:14Z</time>
      </trkpt>
      <trkpt lat="47.95271" lon="7.19236">
        <ele>488</ele>
        <time>2016-07-30T07:28:19Z</time>
      </trkpt>
      <trkpt lat="47.95281" lon="7.19243">
        <ele>488</ele>
        <time>2016-07-30T07:28:25Z</time>
      </trkpt>
      <trkpt lat="47.95291" lon="7.19248">
        <ele>488</ele>
        <time>2016-07-30T07:28:31Z</time>
      </trkpt>
      <trkpt lat="47.95297" lon="7.1925">
        <ele>488</ele>
        <time>2016-07-30T07:28:34Z</time>
      </trkpt>
      <trkpt lat="47.95315" lon="7.19262">
        <ele>491</ele>
        <time>2016-07-30T07:28:42Z</time>
      </trkpt>
      <trkpt lat="47.95332" lon="7.19264">
        <ele>491</ele>
        <time>2016-07-30T07:28:50Z</time>
      </trkpt>
      <trkpt lat="47.95346" lon="7.19263">
        <ele>491</ele>
        <time>2016-07-30T07:28:57Z</time>
      </trkpt>
      <trkpt lat="47.95367" lon="7.19264">
        <ele>492</ele>
        <time>2016-07-30T07:29:10Z</time>
      </trkpt>
      <trkpt lat="47.9537" lon="7.19262">
        <ele>492</ele>
        <time>2016-07-30T07:29:13Z</time>
      </trkpt>
      <trkpt lat="47.95375" lon="7.19259">
        <ele>492</ele>
        <time>2016-07-30T07:29:15Z</time>
      </trkpt>
      <trkpt lat="47.95388" lon="7.19234">
        <ele>490</ele>
        <time>2016-07-30T07:29:22Z</time>
      </trkpt>
      <trkpt lat="47.95393" lon="7.1921">
        <ele>490</ele>
        <time>2016-07-30T07:29:30Z</time>
      </trkpt>
      <trkpt lat="47.95398" lon="7.19175">
        <ele>491</ele>
        <time>2016-07-30T07:29:42Z</time>
      </trkpt>
      <trkpt lat="47.95401" lon="7.19172">
        <ele>491</ele>
        <time>2016-07-30T07:29:44Z</time>
      </trkpt>
      <trkpt lat="47.95406" lon="7.19161">
        <ele>492</ele>
        <time>2016-07-30T07:29:49Z</time>
      </trkpt>
      <trkpt lat="47.95417" lon="7.1915">
        <ele>492</ele>
        <time>2016-07-30T07:29:56Z</time>
      </trkpt>
      <trkpt lat="47.95443" lon="7.1914">
        <ele>493</ele>
        <time>2016-07-30T07:30:06Z</time>
      </trkpt>
      <trkpt lat="47.95461" lon="7.19127">
        <ele>493</ele>
        <time>2016-07-30T07:30:11Z</time>
      </trkpt>
      <trkpt lat="47.95467" lon="7.19126">
        <ele>493</ele>
        <time>2016-07-30T07:30:12Z</time>
      </trkpt>
      <trkpt lat="47.95482" lon="7.19116">
        <ele>494</ele>
        <time>2016-07-30T07:30:15Z</time>
      </trkpt>
      <trkpt lat="47.95504" lon="7.19111">
        <ele>491</ele>
        <time>2016-07-30T07:30:19Z</time>
      </trkpt>
      <trkpt lat="47.95551" lon="7.19111">
        <ele>488</ele>
        <time>2016-07-30T07:30:28Z</time>
      </trkpt>
      <trkpt lat="47.95566" lon="7.19114">
        <ele>488</ele>
        <time>2016-07-30T07:30:31Z</time>
      </trkpt>
      <trkpt lat="47.95583" lon="7.19114">
        <ele>487</ele>
        <time>2016-07-30T07:30:36Z</time>
      </trkpt>
      <trkpt lat="47.9559" lon="7.19113">
        <ele>484</ele>
        <time>2016-07-30T07:30:39Z</time>
      </trkpt>
      <trkpt lat="47.95617" lon="7.19117">
        <ele>483</ele>
        <time>2016-07-30T07:30:44Z</time>
      </trkpt>
      <trkpt lat="47.95631" lon="7.19123">
        <ele>482</ele>
        <time>2016-07-30T07:30:46Z</time>
      </trkpt>
      <trkpt lat="47.95637" lon="7.19127">
        <ele>481</ele>
        <time>2016-07-30T07:30:47Z</time>
      </trkpt>
      <trkpt lat="47.95649" lon="7.19139">
        <ele>480</ele>
        <time>2016-07-30T07:30:49Z</time>
      </trkpt>
      <trkpt lat="47.95682" lon="7.19181">
        <ele>472</ele>
        <time>2016-07-30T07:30:54Z</time>
      </trkpt>
      <trkpt lat="47.957" lon="7.19213">
        <ele>471</ele>
        <time>2016-07-30T07:30:57Z</time>
      </trkpt>
      <trkpt lat="47.95704" lon="7.19227">
        <ele>470</ele>
        <time>2016-07-30T07:30:58Z</time>
      </trkpt>
      <trkpt lat="47.95715" lon="7.19253">
        <ele>464</ele>
        <time>2016-07-30T07:31:00Z</time>
      </trkpt>
      <trkpt lat="47.95737" lon="7.19294">
        <ele>462</ele>
        <time>2016-07-30T07:31:03Z</time>
      </trkpt>
      <trkpt lat="47.95752" lon="7.19317">
        <ele>461</ele>
        <time>2016-07-30T07:31:05Z</time>
      </trkpt>
      <trkpt lat="47.95761" lon="7.19323">
        <ele>461</ele>
        <time>2016-07-30T07:31:06Z</time>
      </trkpt>
      <trkpt lat="47.95774" lon="7.19335">
        <ele>455</ele>
        <time>2016-07-30T07:31:08Z</time>
      </trkpt>
      <trkpt lat="47.95788" lon="7.19347">
        <ele>455</ele>
        <time>2016-07-30T07:31:11Z</time>
      </trkpt>
      <trkpt lat="47.9581" lon="7.19362">
        <ele>454</ele>
        <time>2016-07-30T07:31:16Z</time>
      </trkpt>
      <trkpt lat="47.95813" lon="7.19365">
        <ele>454</ele>
        <time>2016-07-30T07:31:17Z</time>
      </trkpt>
      <trkpt lat="47.95848" lon="7.1939">
        <ele>450</ele>
        <time>2016-07-30T07:31:27Z</time>
      </trkpt>
      <trkpt lat="47.95856" lon="7.19394">
        <ele>450</ele>
        <time>2016-07-30T07:31:29Z</time>
      </trkpt>
      <trkpt lat="47.95864" lon="7.19396">
        <ele>450</ele>
        <time>2016-07-30T07:31:31Z</time>
      </trkpt>
      <trkpt lat="47.95889" lon="7.19388">
        <ele>449</ele>
        <time>2016-07-30T07:31:37Z</time>
      </trkpt>
      <trkpt lat="47.95932" lon="7.19373">
        <ele>442</ele>
        <time>2016-07-30T07:31:46Z</time>
      </trkpt>
      <trkpt lat="47.95961" lon="7.19355">
        <ele>440</ele>
        <time>2016-07-30T07:31:51Z</time>
      </trkpt>
      <trkpt lat="47.95993" lon="7.19345">
        <ele>438</ele>
        <time>2016-07-30T07:31:55Z</time>
      </trkpt>
      <trkpt lat="47.96007" lon="7.19339">
        <ele>433</ele>
        <time>2016-07-30T07:31:56Z</time>
      </trkpt>
      <trkpt lat="47.96037" lon="7.19323">
        <ele>429</ele>
        <time>2016-07-30T07:31:59Z</time>
      </trkpt>
      <trkpt lat="47.9605" lon="7.19313">
        <ele>427</ele>
        <time>2016-07-30T07:32:01Z</time>
      </trkpt>
      <trkpt lat="47.96055" lon="7.19305">
        <ele>427</ele>
        <time>2016-07-30T07:32:02Z</time>
      </trkpt>
      <trkpt lat="47.96061" lon="7.19275">
        <ele>426</ele>
        <time>2016-07-30T07:32:05Z</time>
      </trkpt>
      <trkpt lat="47.96061" lon="7.19263">
        <ele>425</ele>
        <time>2016-07-30T07:32:06Z</time>
      </trkpt>
      <trkpt lat="47.96061" lon="7.19251">
        <ele>424</ele>
        <time>2016-07-30T07:32:07Z</time>
      </trkpt>
      <trkpt lat="47.96063" lon="7.19238">
        <ele>424</ele>
        <time>2016-07-30T07:32:08Z</time>
      </trkpt>
      <trkpt lat="47.96062" lon="7.19209">
        <ele>425</ele>
        <time>2016-07-30T07:32:10Z</time>
      </trkpt>
      <trkpt lat="47.96061" lon="7.19193">
        <ele>424</ele>
        <time>2016-07-30T07:32:11Z</time>
      </trkpt>
      <trkpt lat="47.96062" lon="7.19164">
        <ele>422</ele>
        <time>2016-07-30T07:32:13Z</time>
      </trkpt>
      <trkpt lat="47.96065" lon="7.19121">
        <ele>424</ele>
        <time>2016-07-30T07:32:16Z</time>
      </trkpt>
      <trkpt lat="47.9607" lon="7.19083">
        <ele>422</ele>
        <time>2016-07-30T07:32:19Z</time>
      </trkpt>
      <trkpt lat="47.96075" lon="7.19076">
        <ele>421</ele>
        <time>2016-07-30T07:32:20Z</time>
      </trkpt>
      <trkpt lat="47.96082" lon="7.19071">
        <ele>421</ele>
        <time>2016-07-30T07:32:21Z</time>
      </trkpt>
      <trkpt lat="47.96093" lon="7.19061">
        <ele>412</ele>
        <time>2016-07-30T07:32:23Z</time>
      </trkpt>
      <trkpt lat="47.96107" lon="7.19043">
        <ele>412</ele>
        <time>2016-07-30T07:32:26Z</time>
      </trkpt>
      <trkpt lat="47.96109" lon="7.1903">
        <ele>412</ele>
        <time>2016-07-30T07:32:29Z</time>
      </trkpt>
      <trkpt lat="47.96106" lon="7.18997">
        <ele>420</ele>
        <time>2016-07-30T07:32:36Z</time>
      </trkpt>
      <trkpt lat="47.96107" lon="7.18993">
        <ele>420</ele>
        <time>2016-07-30T07:32:37Z</time>
      </trkpt>
      <trkpt lat="47.96107" lon="7.18989">
        <ele>420</ele>
        <time>2016-07-30T07:32:38Z</time>
      </trkpt>
      <trkpt lat="47.96108" lon="7.18984">
        <ele>419</ele>
        <time>2016-07-30T07:32:39Z</time>
      </trkpt>
      <trkpt lat="47.96109" lon="7.18968">
        <ele>419</ele>
        <time>2016-07-30T07:32:42Z</time>
      </trkpt>
      <trkpt lat="47.96116" lon="7.18916">
        <ele>426</ele>
        <time>2016-07-30T07:32:53Z</time>
      </trkpt>
      <trkpt lat="47.96128" lon="7.18897">
        <ele>424</ele>
        <time>2016-07-30T07:32:57Z</time>
      </trkpt>
      <trkpt lat="47.96132" lon="7.18875">
        <ele>425</ele>
        <time>2016-07-30T07:33:02Z</time>
      </trkpt>
      <trkpt lat="47.96137" lon="7.18856">
        <ele>424</ele>
        <time>2016-07-30T07:33:06Z</time>
      </trkpt>
      <trkpt lat="47.96133" lon="7.18825">
        <ele>430</ele>
        <time>2016-07-30T07:33:12Z</time>
      </trkpt>
      <trkpt lat="47.96133" lon="7.18815">
        <ele>430</ele>
        <time>2016-07-30T07:33:14Z</time>
      </trkpt>
      <trkpt lat="47.9613" lon="7.18803">
        <ele>432</ele>
        <time>2016-07-30T07:33:17Z</time>
      </trkpt>
      <trkpt lat="47.96107" lon="7.18753">
        <ele>441</ele>
        <time>2016-07-30T07:33:31Z</time>
      </trkpt>
      <trkpt lat="47.96105" lon="7.18743">
        <ele>444</ele>
        <time>2016-07-30T07:33:33Z</time>
      </trkpt>
      <trkpt lat="47.96103" lon="7.18706">
        <ele>443</ele>
        <time>2016-07-30T07:33:41Z</time>
      </trkpt>
      <trkpt lat="47.96095" lon="7.18685">
        <ele>447</ele>
        <time>2016-07-30T07:33:47Z</time>
      </trkpt>
      <trkpt lat="47.96084" lon="7.18669">
        <ele>454</ele>
        <time>2016-07-30T07:33:52Z</time>
      </trkpt>
      <trkpt lat="47.96061" lon="7.18643">
        <ele>465</ele>
        <time>2016-07-30T07:34:00Z</time>
      </trkpt>
      <trkpt lat="47.96059" lon="7.18631">
        <ele>466</ele>
        <time>2016-07-30T07:34:05Z</time>
      </trkpt>
      <trkpt lat="47.96068" lon="7.18633">
        <ele>464</ele>
        <time>2016-07-30T07:34:12Z</time>
      </trkpt>
      <trkpt lat="47.96087" lon="7.18644">
        <ele>448</ele>
        <time>2016-07-30T07:34:20Z</time>
      </trkpt>
      <trkpt lat="47.96113" lon="7.18665">
        <ele>446</ele>
        <time>2016-07-30T07:34:28Z</time>
      </trkpt>
      <trkpt lat="47.96136" lon="7.18693">
        <ele>437</ele>
        <time>2016-07-30T07:34:36Z</time>
      </trkpt>
      <trkpt lat="47.96152" lon="7.18717">
        <ele>434</ele>
        <time>2016-07-30T07:34:42Z</time>
      </trkpt>
      <trkpt lat="47.96184" lon="7.18749">
        <ele>424</ele>
        <time>2016-07-30T07:34:50Z</time>
      </trkpt>
      <trkpt lat="47.96204" lon="7.18762">
        <ele>417</ele>
        <time>2016-07-30T07:34:55Z</time>
      </trkpt>
      <trkpt lat="47.96232" lon="7.18766">
        <ele>417</ele>
        <time>2016-07-30T07:35:01Z</time>
      </trkpt>
      <trkpt lat="47.96257" lon="7.18773">
        <ele>420</ele>
        <time>2016-07-30T07:35:07Z</time>
      </trkpt>
      <trkpt lat="47.96284" lon="7.18785">
        <ele>420</ele>
        <time>2016-07-30T07:35:14Z</time>
      </trkpt>
      <trkpt lat="47.96301" lon="7.18775">
        <ele>423</ele>
        <time>2016-07-30T07:35:21Z</time>
      </trkpt>
      <trkpt lat="47.96311" lon="7.18783">
        <ele>423</ele>
        <time>2016-07-30T07:35:25Z</time>
      </trkpt>
      <trkpt lat="47.96344" lon="7.18848">
        <ele>417</ele>
        <time>2016-07-30T07:35:35Z</time>
      </trkpt>
      <trkpt lat="47.96355" lon="7.18856">
        <ele>416</ele>
        <time>2016-07-30T07:35:38Z</time>
      </trkpt>
      <trkpt lat="47.96403" lon="7.18878">
        <ele>418</ele>
        <time>2016-07-30T07:35:48Z</time>
      </trkpt>
      <trkpt lat="47.96431" lon="7.1888">
        <ele>427</ele>
        <time>2016-07-30T07:35:54Z</time>
      </trkpt>
      <trkpt lat="47.96436" lon="7.18879">
        <ele>427</ele>
        <time>2016-07-30T07:35:55Z</time>
      </trkpt>
      <trkpt lat="47.96446" lon="7.18881">
        <ele>428</ele>
        <time>2016-07-30T07:35:56Z</time>
      </trkpt>
      <trkpt lat="47.96477" lon="7.18877">
        <ele>430</ele>
        <time>2016-07-30T07:36:01Z</time>
      </trkpt>
      <trkpt lat="47.96513" lon="7.18887">
        <ele>430</ele>
        <time>2016-07-30T07:36:07Z</time>
      </trkpt>
      <trkpt lat="47.96528" lon="7.18884">
        <ele>430</ele>
        <time>2016-07-30T07:36:10Z</time>
      </trkpt>
      <trkpt lat="47.96554" lon="7.18866">
        <ele>432</ele>
        <time>2016-07-30T07:36:15Z</time>
      </trkpt>
      <trkpt lat="47.96602" lon="7.18823">
        <ele>441</ele>
        <time>2016-07-30T07:36:22Z</time>
      </trkpt>
      <trkpt lat="47.96606" lon="7.18817">
        <ele>441</ele>
        <time>2016-07-30T07:36:23Z</time>
      </trkpt>
      <trkpt lat="47.9663" lon="7.18796">
        <ele>440</ele>
        <time>2016-07-30T07:36:28Z</time>
      </trkpt>
      <trkpt lat="47.96639" lon="7.18791">
        <ele>440</ele>
        <time>2016-07-30T07:36:30Z</time>
      </trkpt>
      <trkpt lat="47.96663" lon="7.18789">
        <ele>438</ele>
        <time>2016-07-30T07:36:34Z</time>
      </trkpt>
      <trkpt lat="47.96681" lon="7.18799">
        <ele>436</ele>
        <time>2016-07-30T07:36:39Z</time>
      </trkpt>
      <trkpt lat="47.96685" lon="7.18807">
        <ele>435</ele>
        <time>2016-07-30T07:36:42Z</time>
      </trkpt>
      <trkpt lat="47.9669" lon="7.1881">
        <ele>435</ele>
        <time>2016-07-30T07:36:44Z</time>
      </trkpt>
      <trkpt lat="47.96695" lon="7.18817">
        <ele>435</ele>
        <time>2016-07-30T07:36:49Z</time>
      </trkpt>
      <trkpt lat="47.967" lon="7.18821">
        <ele>435</ele>
        <time>2016-07-30T07:36:50Z</time>
      </trkpt>
      <trkpt lat="47.96705" lon="7.18827">
        <ele>436</ele>
        <time>2016-07-30T07:36:53Z</time>
      </trkpt>
      <trkpt lat="47.96709" lon="7.1883">
        <ele>436</ele>
        <time>2016-07-30T07:36:55Z</time>
      </trkpt>
      <trkpt lat="47.96709" lon="7.18832">
        <ele>436</ele>
        <time>2016-07-30T07:36:56Z</time>
      </trkpt>
      <trkpt lat="47.96725" lon="7.1885">
        <ele>430</ele>
        <time>2016-07-30T07:37:04Z</time>
      </trkpt>
      <trkpt lat="47.96726" lon="7.18854">
        <ele>430</ele>
        <time>2016-07-30T07:37:05Z</time>
      </trkpt>
      <trkpt lat="47.9673" lon="7.1886">
        <ele>430</ele>
        <time>2016-07-30T07:37:08Z</time>
      </trkpt>
      <trkpt lat="47.96738" lon="7.18865">
        <ele>430</ele>
        <time>2016-07-30T07:37:13Z</time>
      </trkpt>
      <trkpt lat="47.96744" lon="7.18865">
        <ele>430</ele>
        <time>2016-07-30T07:37:16Z</time>
      </trkpt>
      <trkpt lat="47.96746" lon="7.18863">
        <ele>431</ele>
        <time>2016-07-30T07:37:17Z</time>
      </trkpt>
      <trkpt lat="47.9677" lon="7.18848">
        <ele>431</ele>
        <time>2016-07-30T07:37:29Z</time>
      </trkpt>
      <trkpt lat="47.96773" lon="7.18833">
        <ele>439</ele>
        <time>2016-07-30T07:37:39Z</time>
      </trkpt>
      <trkpt lat="47.96775" lon="7.18828">
        <ele>439</ele>
        <time>2016-07-30T07:37:41Z</time>
      </trkpt>
      <trkpt lat="47.96779" lon="7.18799">
        <ele>441</ele>
        <time>2016-07-30T07:37:58Z</time>
      </trkpt>
      <trkpt lat="47.96781" lon="7.1879">
        <ele>442</ele>
        <time>2016-07-30T07:38:01Z</time>
      </trkpt>
      <trkpt lat="47.96783" lon="7.18784">
        <ele>442</ele>
        <time>2016-07-30T07:38:04Z</time>
      </trkpt>
      <trkpt lat="47.96802" lon="7.18764">
        <ele>443</ele>
        <time>2016-07-30T07:38:15Z</time>
      </trkpt>
      <trkpt lat="47.96811" lon="7.18756">
        <ele>444</ele>
        <time>2016-07-30T07:38:19Z</time>
      </trkpt>
      <trkpt lat="47.96821" lon="7.18742">
        <ele>452</ele>
        <time>2016-07-30T07:38:24Z</time>
      </trkpt>
      <trkpt lat="47.96839" lon="7.18713">
        <ele>448</ele>
        <time>2016-07-30T07:38:34Z</time>
      </trkpt>
      <trkpt lat="47.96854" lon="7.18691">
        <ele>450</ele>
        <time>2016-07-30T07:38:44Z</time>
      </trkpt>
      <trkpt lat="47.96856" lon="7.18688">
        <ele>450</ele>
        <time>2016-07-30T07:38:46Z</time>
      </trkpt>
      <trkpt lat="47.96856" lon="7.18677">
        <ele>452</ele>
        <time>2016-07-30T07:38:52Z</time>
      </trkpt>
      <trkpt lat="47.9685" lon="7.18639">
        <ele>461</ele>
        <time>2016-07-30T07:39:07Z</time>
      </trkpt>
      <trkpt lat="47.9685" lon="7.18617">
        <ele>462</ele>
        <time>2016-07-30T07:39:16Z</time>
      </trkpt>
      <trkpt lat="47.96852" lon="7.18598">
        <ele>464</ele>
        <time>2016-07-30T07:39:23Z</time>
      </trkpt>
      <trkpt lat="47.96852" lon="7.18581">
        <ele>470</ele>
        <time>2016-07-30T07:39:30Z</time>
      </trkpt>
      <trkpt lat="47.96852" lon="7.18579">
        <ele>470</ele>
        <time>2016-07-30T07:39:31Z</time>
      </trkpt>
      <trkpt lat="47.96854" lon="7.18561">
        <ele>470</ele>
        <time>2016-07-30T07:39:39Z</time>
      </trkpt>
      <trkpt lat="47.9685" lon="7.1854">
        <ele>471</ele>
        <time>2016-07-30T07:39:47Z</time>
      </trkpt>
      <trkpt lat="47.96847" lon="7.18513">
        <ele>474</ele>
        <time>2016-07-30T07:39:55Z</time>
      </trkpt>
      <trkpt lat="47.96857" lon="7.18481">
        <ele>481</ele>
        <time>2016-07-30T07:40:05Z</time>
      </trkpt>
      <trkpt lat="47.96881" lon="7.18459">
        <ele>481</ele>
        <time>2016-07-30T07:40:11Z</time>
      </trkpt>
      <trkpt lat="47.96889" lon="7.18445">
        <ele>482</ele>
        <time>2016-07-30T07:40:18Z</time>
      </trkpt>
      <trkpt lat="47.96894" lon="7.18443">
        <ele>481</ele>
        <time>2016-07-30T07:40:20Z</time>
      </trkpt>
      <trkpt lat="47.96909" lon="7.18446">
        <ele>480</ele>
        <time>2016-07-30T07:40:25Z</time>
      </trkpt>
      <trkpt lat="47.96918" lon="7.18455">
        <ele>474</ele>
        <time>2016-07-30T07:40:30Z</time>
      </trkpt>
      <trkpt lat="47.96947" lon="7.18469">
        <ele>472</ele>
        <time>2016-07-30T07:40:41Z</time>
      </trkpt>
      <trkpt lat="47.96954" lon="7.18469">
        <ele>472</ele>
        <time>2016-07-30T07:40:47Z</time>
      </trkpt>
      <trkpt lat="47.96966" lon="7.18462">
        <ele>473</ele>
        <time>2016-07-30T07:40:53Z</time>
      </trkpt>
      <trkpt lat="47.96966" lon="7.1843">
        <ele>474</ele>
        <time>2016-07-30T07:41:05Z</time>
      </trkpt>
      <trkpt lat="47.96971" lon="7.18409">
        <ele>480</ele>
        <time>2016-07-30T07:41:13Z</time>
      </trkpt>
      <trkpt lat="47.96979" lon="7.18394">
        <ele>480</ele>
        <time>2016-07-30T07:41:20Z</time>
      </trkpt>
      <trkpt lat="47.96981" lon="7.18376">
        <ele>481</ele>
        <time>2016-07-30T07:41:29Z</time>
      </trkpt>
      <trkpt lat="47.96979" lon="7.18369">
        <ele>482</ele>
        <time>2016-07-30T07:41:32Z</time>
      </trkpt>
      <trkpt lat="47.9698" lon="7.18366">
        <ele>482</ele>
        <time>2016-07-30T07:41:33Z</time>
      </trkpt>
      <trkpt lat="47.96981" lon="7.18348">
        <ele>482</ele>
        <time>2016-07-30T07:41:41Z</time>
      </trkpt>
      <trkpt lat="47.96976" lon="7.18342">
        <ele>482</ele>
        <time>2016-07-30T07:41:45Z</time>
      </trkpt>
      <trkpt lat="47.96974" lon="7.18333">
        <ele>487</ele>
        <time>2016-07-30T07:41:48Z</time>
      </trkpt>
      <trkpt lat="47.9697" lon="7.18327">
        <ele>488</ele>
        <time>2016-07-30T07:41:51Z</time>
      </trkpt>
      <trkpt lat="47.96975" lon="7.18309">
        <ele>488</ele>
        <time>2016-07-30T07:41:58Z</time>
      </trkpt>
      <trkpt lat="47.96985" lon="7.18294">
        <ele>488</ele>
        <time>2016-07-30T07:42:04Z</time>
      </trkpt>
      <trkpt lat="47.96987" lon="7.18275">
        <ele>488</ele>
        <time>2016-07-30T07:42:10Z</time>
      </trkpt>
      <trkpt lat="47.96988" lon="7.18241">
        <ele>490</ele>
        <time>2016-07-30T07:42:18Z</time>
      </trkpt>
      <trkpt lat="47.96989" lon="7.18231">
        <ele>492</ele>
        <time>2016-07-30T07:42:21Z</time>
      </trkpt>
      <trkpt lat="47.96988" lon="7.18219">
        <ele>495</ele>
        <time>2016-07-30T07:42:25Z</time>
      </trkpt>
      <trkpt lat="47.96984" lon="7.18207">
        <ele>497</ele>
        <time>2016-07-30T07:42:30Z</time>
      </trkpt>
      <trkpt lat="47.96982" lon="7.1819">
        <ele>497</ele>
        <time>2016-07-30T07:42:36Z</time>
      </trkpt>
      <trkpt lat="47.96997" lon="7.18155">
        <ele>498</ele>
        <time>2016-07-30T07:42:50Z</time>
      </trkpt>
      <trkpt lat="47.9701" lon="7.18094">
        <ele>494</ele>
        <time>2016-07-30T07:43:02Z</time>
      </trkpt>
      <trkpt lat="47.97012" lon="7.18065">
        <ele>497</ele>
        <time>2016-07-30T07:43:08Z</time>
      </trkpt>
      <trkpt lat="47.97018" lon="7.18026">
        <ele>497</ele>
        <time>2016-07-30T07:43:16Z</time>
      </trkpt>
      <trkpt lat="47.97027" lon="7.17994">
        <ele>502</ele>
        <time>2016-07-30T07:43:24Z</time>
      </trkpt>
      <trkpt lat="47.97034" lon="7.17957">
        <ele>501</ele>
        <time>2016-07-30T07:43:31Z</time>
      </trkpt>
      <trkpt lat="47.97048" lon="7.17924">
        <ele>499</ele>
        <time>2016-07-30T07:43:38Z</time>
      </trkpt>
      <trkpt lat="47.97052" lon="7.17903">
        <ele>504</ele>
        <time>2016-07-30T07:43:43Z</time>
      </trkpt>
      <trkpt lat="47.97062" lon="7.17892">
        <ele>503</ele>
        <time>2016-07-30T07:43:47Z</time>
      </trkpt>
      <trkpt lat="47.97071" lon="7.17887">
        <ele>502</ele>
        <time>2016-07-30T07:43:49Z</time>
      </trkpt>
      <trkpt lat="47.97076" lon="7.17886">
        <ele>501</ele>
        <time>2016-07-30T07:43:51Z</time>
      </trkpt>
      <trkpt lat="47.97094" lon="7.17876">
        <ele>496</ele>
        <time>2016-07-30T07:43:54Z</time>
      </trkpt>
      <trkpt lat="47.97098" lon="7.17871">
        <ele>496</ele>
        <time>2016-07-30T07:43:57Z</time>
      </trkpt>
      <trkpt lat="47.97097" lon="7.17866">
        <ele>497</ele>
        <time>2016-07-30T07:44:02Z</time>
      </trkpt>
      <trkpt lat="47.97101" lon="7.17847">
        <ele>498</ele>
        <time>2016-07-30T07:44:17Z</time>
      </trkpt>
      <trkpt lat="47.97103" lon="7.17842">
        <ele>499</ele>
        <time>2016-07-30T07:44:19Z</time>
      </trkpt>
      <trkpt lat="47.97106" lon="7.17838">
        <ele>499</ele>
        <time>2016-07-30T07:44:21Z</time>
      </trkpt>
      <trkpt lat="47.97114" lon="7.17815">
        <ele>510</ele>
        <time>2016-07-30T07:44:29Z</time>
      </trkpt>
      <trkpt lat="47.97113" lon="7.17812">
        <ele>510</ele>
        <time>2016-07-30T07:44:31Z</time>
      </trkpt>
      <trkpt lat="47.97114" lon="7.17809">
        <ele>510</ele>
        <time>2016-07-30T07:44:32Z</time>
      </trkpt>
      <trkpt lat="47.97112" lon="7.17805">
        <ele>511</ele>
        <time>2016-07-30T07:44:36Z</time>
      </trkpt>
      <trkpt lat="47.97115" lon="7.17796">
        <ele>512</ele>
        <time>2016-07-30T07:44:42Z</time>
      </trkpt>
      <trkpt lat="47.97121" lon="7.17785">
        <ele>514</ele>
        <time>2016-07-30T07:44:49Z</time>
      </trkpt>
      <trkpt lat="47.97129" lon="7.17778">
        <ele>515</ele>
        <time>2016-07-30T07:44:57Z</time>
      </trkpt>
      <trkpt lat="47.97147" lon="7.17769">
        <ele>518</ele>
        <time>2016-07-30T07:45:09Z</time>
      </trkpt>
      <trkpt lat="47.97151" lon="7.1777">
        <ele>519</ele>
        <time>2016-07-30T07:45:11Z</time>
      </trkpt>
      <trkpt lat="47.9716" lon="7.17768">
        <ele>520</ele>
        <time>2016-07-30T07:45:17Z</time>
      </trkpt>
      <trkpt lat="47.97161" lon="7.1777">
        <ele>520</ele>
        <time>2016-07-30T07:45:19Z</time>
      </trkpt>
      <trkpt lat="47.97166" lon="7.17768">
        <ele>521</ele>
        <time>2016-07-30T07:45:27Z</time>
      </trkpt>
      <trkpt lat="47.97167" lon="7.17765">
        <ele>530</ele>
        <time>2016-07-30T07:45:29Z</time>
      </trkpt>
      <trkpt lat="47.97165" lon="7.17763">
        <ele>523</ele>
        <time>2016-07-30T07:45:31Z</time>
      </trkpt>
      <trkpt lat="47.97166" lon="7.17758">
        <ele>525</ele>
        <time>2016-07-30T07:45:37Z</time>
      </trkpt>
      <trkpt lat="47.97155" lon="7.17687">
        <ele>533</ele>
        <time>2016-07-30T07:46:58Z</time>
      </trkpt>
      <trkpt lat="47.97152" lon="7.17684">
        <ele>533</ele>
        <time>2016-07-30T07:47:02Z</time>
      </trkpt>
      <trkpt lat="47.97146" lon="7.17683">
        <ele>532</ele>
        <time>2016-07-30T07:47:10Z</time>
      </trkpt>
      <trkpt lat="47.97147" lon="7.17683">
        <ele>532</ele>
        <time>2016-07-30T07:47:12Z</time>
      </trkpt>
      <trkpt lat="47.97138" lon="7.17675">
        <ele>531</ele>
        <time>2016-07-30T07:47:22Z</time>
      </trkpt>
      <trkpt lat="47.97133" lon="7.17663">
        <ele>536</ele>
        <time>2016-07-30T07:47:29Z</time>
      </trkpt>
      <trkpt lat="47.97132" lon="7.1765">
        <ele>536</ele>
        <time>2016-07-30T07:47:37Z</time>
      </trkpt>
      <trkpt lat="47.97148" lon="7.1755">
        <ele>545</ele>
        <time>2016-07-30T07:48:50Z</time>
      </trkpt>
      <trkpt lat="47.97149" lon="7.17546">
        <ele>546</ele>
        <time>2016-07-30T07:48:52Z</time>
      </trkpt>
      <trkpt lat="47.97143" lon="7.17517">
        <ele>548</ele>
        <time>2016-07-30T07:49:07Z</time>
      </trkpt>
      <trkpt lat="47.97143" lon="7.1751">
        <ele>548</ele>
        <time>2016-07-30T07:49:13Z</time>
      </trkpt>
      <trkpt lat="47.97139" lon="7.17325">
        <ele>571</ele>
        <time>2016-07-30T07:50:39Z</time>
      </trkpt>
      <trkpt lat="47.97141" lon="7.17319">
        <ele>572</ele>
        <time>2016-07-30T07:50:42Z</time>
      </trkpt>
      <trkpt lat="47.97143" lon="7.17299">
        <ele>573</ele>
        <time>2016-07-30T07:50:52Z</time>
      </trkpt>
      <trkpt lat="47.97144" lon="7.17294">
        <ele>573</ele>
        <time>2016-07-30T07:50:55Z</time>
      </trkpt>
      <trkpt lat="47.97153" lon="7.17275">
        <ele>576</ele>
        <time>2016-07-30T07:51:07Z</time>
      </trkpt>
      <trkpt lat="47.97165" lon="7.17256">
        <ele>581</ele>
        <time>2016-07-30T07:51:15Z</time>
      </trkpt>
      <trkpt lat="47.97169" lon="7.1724">
        <ele>591</ele>
        <time>2016-07-30T07:51:23Z</time>
      </trkpt>
      <trkpt lat="47.97169" lon="7.17235">
        <ele>593</ele>
        <time>2016-07-30T07:51:26Z</time>
      </trkpt>
      <trkpt lat="47.97168" lon="7.17228">
        <ele>595</ele>
        <time>2016-07-30T07:51:28Z</time>
      </trkpt>
      <trkpt lat="47.97169" lon="7.17207">
        <ele>598</ele>
        <time>2016-07-30T07:51:37Z</time>
      </trkpt>
      <trkpt lat="47.9717" lon="7.172">
        <ele>598</ele>
        <time>2016-07-30T07:51:40Z</time>
      </trkpt>
      <trkpt lat="47.9717" lon="7.17187">
        <ele>597</ele>
        <time>2016-07-30T07:51:46Z</time>
      </trkpt>
      <trkpt lat="47.97171" lon="7.1718">
        <ele>595</ele>
        <time>2016-07-30T07:51:49Z</time>
      </trkpt>
      <trkpt lat="47.9717" lon="7.17155">
        <ele>598</ele>
        <time>2016-07-30T07:52:02Z</time>
      </trkpt>
      <trkpt lat="47.9717" lon="7.17153">
        <ele>599</ele>
        <time>2016-07-30T07:52:03Z</time>
      </trkpt>
      <trkpt lat="47.9717" lon="7.1713">
        <ele>605</ele>
        <time>2016-07-30T07:52:14Z</time>
      </trkpt>
      <trkpt lat="47.97175" lon="7.17096">
        <ele>605</ele>
        <time>2016-07-30T07:52:30Z</time>
      </trkpt>
      <trkpt lat="47.97174" lon="7.17079">
        <ele>605</ele>
        <time>2016-07-30T07:52:38Z</time>
      </trkpt>
      <trkpt lat="47.97173" lon="7.1708">
        <ele>604</ele>
        <time>2016-07-30T07:52:39Z</time>
      </trkpt>
      <trkpt lat="47.97174" lon="7.17076">
        <ele>606</ele>
        <time>2016-07-30T07:52:40Z</time>
      </trkpt>
      <trkpt lat="47.97177" lon="7.17034">
        <ele>614</ele>
        <time>2016-07-30T07:53:00Z</time>
      </trkpt>
      <trkpt lat="47.97178" lon="7.17">
        <ele>611</ele>
        <time>2016-07-30T07:53:16Z</time>
      </trkpt>
      <trkpt lat="47.97181" lon="7.16975">
        <ele>616</ele>
        <time>2016-07-30T07:53:28Z</time>
      </trkpt>
      <trkpt lat="47.97186" lon="7.16953">
        <ele>619</ele>
        <time>2016-07-30T07:53:38Z</time>
      </trkpt>
      <trkpt lat="47.97194" lon="7.16929">
        <ele>620</ele>
        <time>2016-07-30T07:53:50Z</time>
      </trkpt>
      <trkpt lat="47.97212" lon="7.169">
        <ele>624</ele>
        <time>2016-07-30T07:54:09Z</time>
      </trkpt>
      <trkpt lat="47.97217" lon="7.16893">
        <ele>625</ele>
        <time>2016-07-30T07:54:13Z</time>
      </trkpt>
      <trkpt lat="47.97229" lon="7.16881">
        <ele>625</ele>
        <time>2016-07-30T07:54:23Z</time>
      </trkpt>
      <trkpt lat="47.97231" lon="7.1688">
        <ele>625</ele>
        <time>2016-07-30T07:54:26Z</time>
      </trkpt>
      <trkpt lat="47.97232" lon="7.16881">
        <ele>625</ele>
        <time>2016-07-30T07:54:27Z</time>
      </trkpt>
      <trkpt lat="47.97248" lon="7.16864">
        <ele>625</ele>
        <time>2016-07-30T07:54:43Z</time>
      </trkpt>
      <trkpt lat="47.97255" lon="7.1686">
        <ele>636</ele>
        <time>2016-07-30T07:54:47Z</time>
      </trkpt>
      <trkpt lat="47.97265" lon="7.16857">
        <ele>637</ele>
        <time>2016-07-30T07:54:54Z</time>
      </trkpt>
      <trkpt lat="47.97268" lon="7.16855">
        <ele>638</ele>
        <time>2016-07-30T07:54:56Z</time>
      </trkpt>
      <trkpt lat="47.97273" lon="7.16845">
        <ele>637</ele>
        <time>2016-07-30T07:55:03Z</time>
      </trkpt>
      <trkpt lat="47.97279" lon="7.16836">
        <ele>639</ele>
        <time>2016-07-30T07:55:10Z</time>
      </trkpt>
      <trkpt lat="47.97289" lon="7.16828">
        <ele>641</ele>
        <time>2016-07-30T07:55:16Z</time>
      </trkpt>
      <trkpt lat="47.97301" lon="7.1681">
        <ele>644</ele>
        <time>2016-07-30T07:55:29Z</time>
      </trkpt>
      <trkpt lat="47.97303" lon="7.16809">
        <ele>644</ele>
        <time>2016-07-30T07:55:30Z</time>
      </trkpt>
      <trkpt lat="47.97309" lon="7.16794">
        <ele>645</ele>
        <time>2016-07-30T07:55:38Z</time>
      </trkpt>
      <trkpt lat="47.97311" lon="7.16775">
        <ele>647</ele>
        <time>2016-07-30T07:55:47Z</time>
      </trkpt>
      <trkpt lat="47.97324" lon="7.1673">
        <ele>656</ele>
        <time>2016-07-30T07:56:10Z</time>
      </trkpt>
      <trkpt lat="47.97324" lon="7.16713">
        <ele>657</ele>
        <time>2016-07-30T07:56:19Z</time>
      </trkpt>
      <trkpt lat="47.97324" lon="7.16711">
        <ele>657</ele>
        <time>2016-07-30T07:56:20Z</time>
      </trkpt>
      <trkpt lat="47.97325" lon="7.16706">
        <ele>657</ele>
        <time>2016-07-30T07:56:24Z</time>
      </trkpt>
      <trkpt lat="47.97326" lon="7.16694">
        <ele>659</ele>
        <time>2016-07-30T07:56:32Z</time>
      </trkpt>
      <trkpt lat="47.97321" lon="7.1668">
        <ele>660</ele>
        <time>2016-07-30T07:56:39Z</time>
      </trkpt>
      <trkpt lat="47.97321" lon="7.16671">
        <ele>661</ele>
        <time>2016-07-30T07:56:43Z</time>
      </trkpt>
      <trkpt lat="47.97319" lon="7.16657">
        <ele>667</ele>
        <time>2016-07-30T07:56:50Z</time>
      </trkpt>
      <trkpt lat="47.97319" lon="7.16643">
        <ele>668</ele>
        <time>2016-07-30T07:56:59Z</time>
      </trkpt>
      <trkpt lat="47.97319" lon="7.16638">
        <ele>668</ele>
        <time>2016-07-30T07:57:02Z</time>
      </trkpt>
      <trkpt lat="47.97319" lon="7.16626">
        <ele>669</ele>
        <time>2016-07-30T07:57:10Z</time>
      </trkpt>
      <trkpt lat="47.97317" lon="7.16625">
        <ele>669</ele>
        <time>2016-07-30T07:57:11Z</time>
      </trkpt>
      <trkpt lat="47.97316" lon="7.16622">
        <ele>669</ele>
        <time>2016-07-30T07:57:13Z</time>
      </trkpt>
      <trkpt lat="47.97318" lon="7.16611">
        <ele>670</ele>
        <time>2016-07-30T07:57:21Z</time>
      </trkpt>
      <trkpt lat="47.97323" lon="7.16604">
        <ele>669</ele>
        <time>2016-07-30T07:57:25Z</time>
      </trkpt>
      <trkpt lat="47.97327" lon="7.16592">
        <ele>669</ele>
        <time>2016-07-30T07:57:33Z</time>
      </trkpt>
      <trkpt lat="47.97334" lon="7.16582">
        <ele>668</ele>
        <time>2016-07-30T07:57:41Z</time>
      </trkpt>
      <trkpt lat="47.97337" lon="7.16581">
        <ele>670</ele>
        <time>2016-07-30T07:57:42Z</time>
      </trkpt>
      <trkpt lat="47.97339" lon="7.16575">
        <ele>674</ele>
        <time>2016-07-30T07:57:45Z</time>
      </trkpt>
      <trkpt lat="47.97343" lon="7.16561">
        <ele>680</ele>
        <time>2016-07-30T07:57:53Z</time>
      </trkpt>
      <trkpt lat="47.97343" lon="7.16545">
        <ele>683</ele>
        <time>2016-07-30T07:58:03Z</time>
      </trkpt>
      <trkpt lat="47.97346" lon="7.16545">
        <ele>684</ele>
        <time>2016-07-30T07:58:04Z</time>
      </trkpt>
      <trkpt lat="47.9735" lon="7.1654">
        <ele>685</ele>
        <time>2016-07-30T07:58:07Z</time>
      </trkpt>
      <trkpt lat="47.97351" lon="7.16535">
        <ele>685</ele>
        <time>2016-07-30T07:58:11Z</time>
      </trkpt>
      <trkpt lat="47.97353" lon="7.16534">
        <ele>685</ele>
        <time>2016-07-30T07:58:12Z</time>
      </trkpt>
      <trkpt lat="47.9736" lon="7.1652">
        <ele>687</ele>
        <time>2016-07-30T07:58:22Z</time>
      </trkpt>
      <trkpt lat="47.97359" lon="7.16501">
        <ele>686</ele>
        <time>2016-07-30T07:58:31Z</time>
      </trkpt>
      <trkpt lat="47.97366" lon="7.16485">
        <ele>693</ele>
        <time>2016-07-30T07:58:43Z</time>
      </trkpt>
      <trkpt lat="47.97372" lon="7.16479">
        <ele>694</ele>
        <time>2016-07-30T07:58:49Z</time>
      </trkpt>
      <trkpt lat="47.97376" lon="7.16476">
        <ele>695</ele>
        <time>2016-07-30T07:58:53Z</time>
      </trkpt>
      <trkpt lat="47.9738" lon="7.16476">
        <ele>695</ele>
        <time>2016-07-30T07:58:55Z</time>
      </trkpt>
      <trkpt lat="47.97385" lon="7.16474">
        <ele>696</ele>
        <time>2016-07-30T07:59:01Z</time>
      </trkpt>
      <trkpt lat="47.97389" lon="7.16475">
        <ele>696</ele>
        <time>2016-07-30T07:59:05Z</time>
      </trkpt>
      <trkpt lat="47.97396" lon="7.16481">
        <ele>697</ele>
        <time>2016-07-30T07:59:14Z</time>
      </trkpt>
      <trkpt lat="47.97397" lon="7.16488">
        <ele>697</ele>
        <time>2016-07-30T07:59:17Z</time>
      </trkpt>
      <trkpt lat="47.97394" lon="7.165">
        <ele>697</ele>
        <time>2016-07-30T07:59:22Z</time>
      </trkpt>
      <trkpt lat="47.9739" lon="7.16524">
        <ele>692</ele>
        <time>2016-07-30T07:59:34Z</time>
      </trkpt>
      <trkpt lat="47.97388" lon="7.1654">
        <ele>691</ele>
        <time>2016-07-30T07:59:42Z</time>
      </trkpt>
      <trkpt lat="47.97386" lon="7.16548">
        <ele>691</ele>
        <time>2016-07-30T07:59:46Z</time>
      </trkpt>
      <trkpt lat="47.97386" lon="7.16561">
        <ele>691</ele>
        <time>2016-07-30T07:59:52Z</time>
      </trkpt>
      <trkpt lat="47.9738" lon="7.16583">
        <ele>690</ele>
        <time>2016-07-30T08:00:01Z</time>
      </trkpt>
      <trkpt lat="47.97378" lon="7.16616">
        <ele>687</ele>
        <time>2016-07-30T08:00:18Z</time>
      </trkpt>
      <trkpt lat="47.9738" lon="7.16633">
        <ele>687</ele>
        <time>2016-07-30T08:00:26Z</time>
      </trkpt>
      <trkpt lat="47.97382" lon="7.16638">
        <ele>688</ele>
        <time>2016-07-30T08:00:30Z</time>
      </trkpt>
      <trkpt lat="47.97381" lon="7.16643">
        <ele>688</ele>
        <time>2016-07-30T08:00:33Z</time>
      </trkpt>
      <trkpt lat="47.97384" lon="7.16648">
        <ele>689</ele>
        <time>2016-07-30T08:00:36Z</time>
      </trkpt>
      <trkpt lat="47.97388" lon="7.16669">
        <ele>689</ele>
        <time>2016-07-30T08:00:47Z</time>
      </trkpt>
      <trkpt lat="47.97396" lon="7.16688">
        <ele>689</ele>
        <time>2016-07-30T08:00:54Z</time>
      </trkpt>
      <trkpt lat="47.97398" lon="7.16707">
        <ele>688</ele>
        <time>2016-07-30T08:01:02Z</time>
      </trkpt>
      <trkpt lat="47.974" lon="7.16731">
        <ele>690</ele>
        <time>2016-07-30T08:01:16Z</time>
      </trkpt>
      <trkpt lat="47.97399" lon="7.16764">
        <ele>689</ele>
        <time>2016-07-30T08:01:31Z</time>
      </trkpt>
      <trkpt lat="47.97398" lon="7.16766">
        <ele>688</ele>
        <time>2016-07-30T08:01:32Z</time>
      </trkpt>
      <trkpt lat="47.97398" lon="7.16774">
        <ele>687</ele>
        <time>2016-07-30T08:01:36Z</time>
      </trkpt>
      <trkpt lat="47.97402" lon="7.1678">
        <ele>687</ele>
        <time>2016-07-30T08:01:41Z</time>
      </trkpt>
      <trkpt lat="47.97406" lon="7.16762">
        <ele>692</ele>
        <time>2016-07-30T08:01:50Z</time>
      </trkpt>
      <trkpt lat="47.97405" lon="7.16756">
        <ele>693</ele>
        <time>2016-07-30T08:01:53Z</time>
      </trkpt>
      <trkpt lat="47.97408" lon="7.16749">
        <ele>697</ele>
        <time>2016-07-30T08:01:55Z</time>
      </trkpt>
      <trkpt lat="47.97405" lon="7.16729">
        <ele>691</ele>
        <time>2016-07-30T08:02:04Z</time>
      </trkpt>
      <trkpt lat="47.97407" lon="7.16693">
        <ele>691</ele>
        <time>2016-07-30T08:02:20Z</time>
      </trkpt>
      <trkpt lat="47.9741" lon="7.16684">
        <ele>694</ele>
        <time>2016-07-30T08:02:24Z</time>
      </trkpt>
      <trkpt lat="47.97409" lon="7.16672">
        <ele>699</ele>
        <time>2016-07-30T08:02:31Z</time>
      </trkpt>
      <trkpt lat="47.97411" lon="7.16664">
        <ele>702</ele>
        <time>2016-07-30T08:02:34Z</time>
      </trkpt>
      <trkpt lat="47.97409" lon="7.16648">
        <ele>696</ele>
        <time>2016-07-30T08:02:42Z</time>
      </trkpt>
      <trkpt lat="47.9741" lon="7.16644">
        <ele>695</ele>
        <time>2016-07-30T08:02:44Z</time>
      </trkpt>
      <trkpt lat="47.9741" lon="7.16641">
        <ele>694</ele>
        <time>2016-07-30T08:02:46Z</time>
      </trkpt>
      <trkpt lat="47.97411" lon="7.1663">
        <ele>693</ele>
        <time>2016-07-30T08:02:52Z</time>
      </trkpt>
      <trkpt lat="47.97411" lon="7.16619">
        <ele>693</ele>
        <time>2016-07-30T08:02:57Z</time>
      </trkpt>
      <trkpt lat="47.97413" lon="7.16616">
        <ele>694</ele>
        <time>2016-07-30T08:02:59Z</time>
      </trkpt>
      <trkpt lat="47.97417" lon="7.16598">
        <ele>717</ele>
        <time>2016-07-30T08:03:08Z</time>
      </trkpt>
      <trkpt lat="47.97419" lon="7.16596">
        <ele>716</ele>
        <time>2016-07-30T08:03:09Z</time>
      </trkpt>
      <trkpt lat="47.9742" lon="7.16588">
        <ele>712</ele>
        <time>2016-07-30T08:03:13Z</time>
      </trkpt>
      <trkpt lat="47.97425" lon="7.16578">
        <ele>714</ele>
        <time>2016-07-30T08:03:18Z</time>
      </trkpt>
      <trkpt lat="47.97427" lon="7.16575">
        <ele>716</ele>
        <time>2016-07-30T08:03:20Z</time>
      </trkpt>
      <trkpt lat="47.97428" lon="7.16568">
        <ele>718</ele>
        <time>2016-07-30T08:03:24Z</time>
      </trkpt>
      <trkpt lat="47.97431" lon="7.16558">
        <ele>720</ele>
        <time>2016-07-30T08:03:28Z</time>
      </trkpt>
      <trkpt lat="47.97437" lon="7.16543">
        <ele>722</ele>
        <time>2016-07-30T08:03:35Z</time>
      </trkpt>
      <trkpt lat="47.9744" lon="7.16541">
        <ele>723</ele>
        <time>2016-07-30T08:03:36Z</time>
      </trkpt>
      <trkpt lat="47.97443" lon="7.16536">
        <ele>723</ele>
        <time>2016-07-30T08:03:39Z</time>
      </trkpt>
      <trkpt lat="47.97445" lon="7.16526">
        <ele>723</ele>
        <time>2016-07-30T08:03:44Z</time>
      </trkpt>
      <trkpt lat="47.97445" lon="7.16524">
        <ele>723</ele>
        <time>2016-07-30T08:03:45Z</time>
      </trkpt>
      <trkpt lat="47.97447" lon="7.16518">
        <ele>723</ele>
        <time>2016-07-30T08:03:49Z</time>
      </trkpt>
      <trkpt lat="47.97449" lon="7.16514">
        <ele>723</ele>
        <time>2016-07-30T08:03:53Z</time>
      </trkpt>
      <trkpt lat="47.97448" lon="7.16511">
        <ele>723</ele>
        <time>2016-07-30T08:03:54Z</time>
      </trkpt>
      <trkpt lat="47.97449" lon="7.16484">
        <ele>721</ele>
        <time>2016-07-30T08:04:06Z</time>
      </trkpt>
      <trkpt lat="47.97455" lon="7.16466">
        <ele>723</ele>
        <time>2016-07-30T08:04:15Z</time>
      </trkpt>
      <trkpt lat="47.97458" lon="7.16458">
        <ele>724</ele>
        <time>2016-07-30T08:04:21Z</time>
      </trkpt>
      <trkpt lat="47.9746" lon="7.16428">
        <ele>724</ele>
        <time>2016-07-30T08:04:37Z</time>
      </trkpt>
      <trkpt lat="47.97462" lon="7.16426">
        <ele>725</ele>
        <time>2016-07-30T08:04:38Z</time>
      </trkpt>
      <trkpt lat="47.97463" lon="7.16409">
        <ele>726</ele>
        <time>2016-07-30T08:04:47Z</time>
      </trkpt>
      <trkpt lat="47.97465" lon="7.164">
        <ele>726</ele>
        <time>2016-07-30T08:04:51Z</time>
      </trkpt>
      <trkpt lat="47.97467" lon="7.16376">
        <ele>726</ele>
        <time>2016-07-30T08:05:03Z</time>
      </trkpt>
      <trkpt lat="47.97469" lon="7.16371">
        <ele>727</ele>
        <time>2016-07-30T08:05:04Z</time>
      </trkpt>
      <trkpt lat="47.97475" lon="7.16347">
        <ele>729</ele>
        <time>2016-07-30T08:05:14Z</time>
      </trkpt>
      <trkpt lat="47.97477" lon="7.16344">
        <ele>730</ele>
        <time>2016-07-30T08:05:15Z</time>
      </trkpt>
      <trkpt lat="47.97478" lon="7.16334">
        <ele>731</ele>
        <time>2016-07-30T08:05:20Z</time>
      </trkpt>
      <trkpt lat="47.97481" lon="7.16326">
        <ele>734</ele>
        <time>2016-07-30T08:05:25Z</time>
      </trkpt>
      <trkpt lat="47.97483" lon="7.16323">
        <ele>734</ele>
        <time>2016-07-30T08:05:27Z</time>
      </trkpt>
      <trkpt lat="47.97492" lon="7.16291">
        <ele>734</ele>
        <time>2016-07-30T08:05:40Z</time>
      </trkpt>
      <trkpt lat="47.97493" lon="7.1629">
        <ele>734</ele>
        <time>2016-07-30T08:05:41Z</time>
      </trkpt>
      <trkpt lat="47.97498" lon="7.16272">
        <ele>735</ele>
        <time>2016-07-30T08:05:52Z</time>
      </trkpt>
      <trkpt lat="47.97502" lon="7.16249">
        <ele>741</ele>
        <time>2016-07-30T08:06:06Z</time>
      </trkpt>
      <trkpt lat="47.97507" lon="7.16232">
        <ele>751</ele>
        <time>2016-07-30T08:06:13Z</time>
      </trkpt>
      <trkpt lat="47.97506" lon="7.16212">
        <ele>755</ele>
        <time>2016-07-30T08:06:23Z</time>
      </trkpt>
      <trkpt lat="47.97507" lon="7.16187">
        <ele>754</ele>
        <time>2016-07-30T08:06:34Z</time>
      </trkpt>
      <trkpt lat="47.97509" lon="7.16182">
        <ele>754</ele>
        <time>2016-07-30T08:06:36Z</time>
      </trkpt>
      <trkpt lat="47.97509" lon="7.16177">
        <ele>753</ele>
        <time>2016-07-30T08:06:38Z</time>
      </trkpt>
      <trkpt lat="47.97515" lon="7.16163">
        <ele>756</ele>
        <time>2016-07-30T08:06:45Z</time>
      </trkpt>
      <trkpt lat="47.97515" lon="7.16153">
        <ele>757</ele>
        <time>2016-07-30T08:06:52Z</time>
      </trkpt>
      <trkpt lat="47.97517" lon="7.16144">
        <ele>760</ele>
        <time>2016-07-30T08:06:58Z</time>
      </trkpt>
      <trkpt lat="47.97518" lon="7.16142">
        <ele>760</ele>
        <time>2016-07-30T08:06:59Z</time>
      </trkpt>
      <trkpt lat="47.97518" lon="7.16139">
        <ele>761</ele>
        <time>2016-07-30T08:07:01Z</time>
      </trkpt>
      <trkpt lat="47.97523" lon="7.16126">
        <ele>763</ele>
        <time>2016-07-30T08:07:13Z</time>
      </trkpt>
      <trkpt lat="47.97528" lon="7.16122">
        <ele>764</ele>
        <time>2016-07-30T08:07:16Z</time>
      </trkpt>
      <trkpt lat="47.9753" lon="7.16115">
        <ele>764</ele>
        <time>2016-07-30T08:07:21Z</time>
      </trkpt>
      <trkpt lat="47.97531" lon="7.16108">
        <ele>765</ele>
        <time>2016-07-30T08:07:25Z</time>
      </trkpt>
      <trkpt lat="47.97534" lon="7.16108">
        <ele>765</ele>
        <time>2016-07-30T08:07:26Z</time>
      </trkpt>
      <trkpt lat="47.97535" lon="7.16107">
        <ele>765</ele>
        <time>2016-07-30T08:07:27Z</time>
      </trkpt>
      <trkpt lat="47.97629" lon="7.16065">
        <ele>803</ele>
        <time>2016-07-30T08:12:15Z</time>
      </trkpt>
      <trkpt lat="47.97631" lon="7.16073">
        <ele>804</ele>
        <time>2016-07-30T08:12:19Z</time>
      </trkpt>
      <trkpt lat="47.9763" lon="7.16089">
        <ele>806</ele>
        <time>2016-07-30T08:12:28Z</time>
      </trkpt>
      <trkpt lat="47.97631" lon="7.16106">
        <ele>807</ele>
        <time>2016-07-30T08:12:40Z</time>
      </trkpt>
      <trkpt lat="47.97631" lon="7.16123">
        <ele>806</ele>
        <time>2016-07-30T08:12:47Z</time>
      </trkpt>
      <trkpt lat="47.97634" lon="7.16152">
        <ele>809</ele>
        <time>2016-07-30T08:13:05Z</time>
      </trkpt>
      <trkpt lat="47.97632" lon="7.16157">
        <ele>808</ele>
        <time>2016-07-30T08:13:11Z</time>
      </trkpt>
      <trkpt lat="47.97634" lon="7.16161">
        <ele>809</ele>
        <time>2016-07-30T08:13:16Z</time>
      </trkpt>
      <trkpt lat="47.97635" lon="7.162">
        <ele>811</ele>
        <time>2016-07-30T08:15:14Z</time>
      </trkpt>
      <trkpt lat="47.97634" lon="7.16249">
        <ele>813</ele>
        <time>2016-07-30T08:15:30Z</time>
      </trkpt>
      <trkpt lat="47.97635" lon="7.16251">
        <ele>817</ele>
        <time>2016-07-30T08:15:31Z</time>
      </trkpt>
      <trkpt lat="47.97632" lon="7.16287">
        <ele>815</ele>
        <time>2016-07-30T08:15:44Z</time>
      </trkpt>
      <trkpt lat="47.97631" lon="7.1629">
        <ele>814</ele>
        <time>2016-07-30T08:15:45Z</time>
      </trkpt>
      <trkpt lat="47.9763" lon="7.16304">
        <ele>814</ele>
        <time>2016-07-30T08:15:51Z</time>
      </trkpt>
      <trkpt lat="47.97631" lon="7.16334">
        <ele>818</ele>
        <time>2016-07-30T08:16:03Z</time>
      </trkpt>
      <trkpt lat="47.9763" lon="7.16342">
        <ele>817</ele>
        <time>2016-07-30T08:16:07Z</time>
      </trkpt>
      <trkpt lat="47.97627" lon="7.1635">
        <ele>816</ele>
        <time>2016-07-30T08:16:12Z</time>
      </trkpt>
      <trkpt lat="47.97619" lon="7.16378">
        <ele>813</ele>
        <time>2016-07-30T08:16:22Z</time>
      </trkpt>
      <trkpt lat="47.97615" lon="7.16413">
        <ele>811</ele>
        <time>2016-07-30T08:16:35Z</time>
      </trkpt>
      <trkpt lat="47.9762" lon="7.16424">
        <ele>813</ele>
        <time>2016-07-30T08:16:40Z</time>
      </trkpt>
      <trkpt lat="47.97625" lon="7.16441">
        <ele>815</ele>
        <time>2016-07-30T08:16:49Z</time>
      </trkpt>
      <trkpt lat="47.9763" lon="7.16452">
        <ele>816</ele>
        <time>2016-07-30T08:16:55Z</time>
      </trkpt>
      <trkpt lat="47.97633" lon="7.16462">
        <ele>817</ele>
        <time>2016-07-30T08:17:00Z</time>
      </trkpt>
      <trkpt lat="47.97634" lon="7.16466">
        <ele>817</ele>
        <time>2016-07-30T08:17:01Z</time>
      </trkpt>
      <trkpt lat="47.97636" lon="7.16471">
        <ele>818</ele>
        <time>2016-07-30T08:17:03Z</time>
      </trkpt>
      <trkpt lat="47.97644" lon="7.16524">
        <ele>818</ele>
        <time>2016-07-30T08:17:20Z</time>
      </trkpt>
      <trkpt lat="47.97657" lon="7.16563">
        <ele>818</ele>
        <time>2016-07-30T08:17:35Z</time>
      </trkpt>
      <trkpt lat="47.9766" lon="7.16575">
        <ele>820</ele>
        <time>2016-07-30T08:17:41Z</time>
      </trkpt>
      <trkpt lat="47.97662" lon="7.16566">
        <ele>819</ele>
        <time>2016-07-30T08:17:46Z</time>
      </trkpt>
      <trkpt lat="47.97662" lon="7.16557">
        <ele>818</ele>
        <time>2016-07-30T08:17:51Z</time>
      </trkpt>
      <trkpt lat="47.97662" lon="7.16547">
        <ele>818</ele>
        <time>2016-07-30T08:17:55Z</time>
      </trkpt>
      <trkpt lat="47.9766" lon="7.16534">
        <ele>819</ele>
        <time>2016-07-30T08:18:03Z</time>
      </trkpt>
      <trkpt lat="47.97659" lon="7.16518">
        <ele>822</ele>
        <time>2016-07-30T08:18:10Z</time>
      </trkpt>
      <trkpt lat="47.97656" lon="7.16494">
        <ele>825</ele>
        <time>2016-07-30T08:18:19Z</time>
      </trkpt>
      <trkpt lat="47.97657" lon="7.16491">
        <ele>825</ele>
        <time>2016-07-30T08:18:20Z</time>
      </trkpt>
      <trkpt lat="47.97657" lon="7.16487">
        <ele>824</ele>
        <time>2016-07-30T08:18:21Z</time>
      </trkpt>
      <trkpt lat="47.97649" lon="7.16459">
        <ele>820</ele>
        <time>2016-07-30T08:18:34Z</time>
      </trkpt>
      <trkpt lat="47.97646" lon="7.16453">
        <ele>820</ele>
        <time>2016-07-30T08:18:37Z</time>
      </trkpt>
      <trkpt lat="47.97647" lon="7.1645">
        <ele>820</ele>
        <time>2016-07-30T08:18:39Z</time>
      </trkpt>
      <trkpt lat="47.97644" lon="7.16441">
        <ele>820</ele>
        <time>2016-07-30T08:18:45Z</time>
      </trkpt>
      <trkpt lat="47.97643" lon="7.16419">
        <ele>822</ele>
        <time>2016-07-30T08:18:52Z</time>
      </trkpt>
      <trkpt lat="47.97646" lon="7.1641">
        <ele>823</ele>
        <time>2016-07-30T08:18:56Z</time>
      </trkpt>
      <trkpt lat="47.97646" lon="7.16406">
        <ele>823</ele>
        <time>2016-07-30T08:18:59Z</time>
      </trkpt>
      <trkpt lat="47.9765" lon="7.1639">
        <ele>822</ele>
        <time>2016-07-30T08:19:07Z</time>
      </trkpt>
      <trkpt lat="47.97651" lon="7.16387">
        <ele>822</ele>
        <time>2016-07-30T08:19:08Z</time>
      </trkpt>
      <trkpt lat="47.97652" lon="7.16382">
        <ele>821</ele>
        <time>2016-07-30T08:19:10Z</time>
      </trkpt>
      <trkpt lat="47.97656" lon="7.16369">
        <ele>822</ele>
        <time>2016-07-30T08:19:17Z</time>
      </trkpt>
      <trkpt lat="47.97658" lon="7.16363">
        <ele>823</ele>
        <time>2016-07-30T08:19:21Z</time>
      </trkpt>
      <trkpt lat="47.9766" lon="7.1636">
        <ele>824</ele>
        <time>2016-07-30T08:19:22Z</time>
      </trkpt>
      <trkpt lat="47.97662" lon="7.16354">
        <ele>825</ele>
        <time>2016-07-30T08:19:24Z</time>
      </trkpt>
      <trkpt lat="47.97665" lon="7.16332">
        <ele>835</ele>
        <time>2016-07-30T08:19:32Z</time>
      </trkpt>
      <trkpt lat="47.97665" lon="7.16321">
        <ele>828</ele>
        <time>2016-07-30T08:19:38Z</time>
      </trkpt>
      <trkpt lat="47.97668" lon="7.16305">
        <ele>846</ele>
        <time>2016-07-30T08:19:45Z</time>
      </trkpt>
      <trkpt lat="47.9768" lon="7.16263">
        <ele>845</ele>
        <time>2016-07-30T08:20:03Z</time>
      </trkpt>
      <trkpt lat="47.97684" lon="7.16242">
        <ele>846</ele>
        <time>2016-07-30T08:20:12Z</time>
      </trkpt>
      <trkpt lat="47.97692" lon="7.16209">
        <ele>850</ele>
        <time>2016-07-30T08:20:25Z</time>
      </trkpt>
      <trkpt lat="47.97694" lon="7.16205">
        <ele>851</ele>
        <time>2016-07-30T08:20:26Z</time>
      </trkpt>
      <trkpt lat="47.97695" lon="7.16198">
        <ele>850</ele>
        <time>2016-07-30T08:20:31Z</time>
      </trkpt>
      <trkpt lat="47.97696" lon="7.1619">
        <ele>850</ele>
        <time>2016-07-30T08:20:36Z</time>
      </trkpt>
      <trkpt lat="47.97698" lon="7.16173">
        <ele>850</ele>
        <time>2016-07-30T08:20:43Z</time>
      </trkpt>
      <trkpt lat="47.97702" lon="7.16156">
        <ele>848</ele>
        <time>2016-07-30T08:20:50Z</time>
      </trkpt>
      <trkpt lat="47.97705" lon="7.16139">
        <ele>848</ele>
        <time>2016-07-30T08:20:56Z</time>
      </trkpt>
      <trkpt lat="47.97709" lon="7.16132">
        <ele>849</ele>
        <time>2016-07-30T08:20:59Z</time>
      </trkpt>
      <trkpt lat="47.97717" lon="7.16106">
        <ele>850</ele>
        <time>2016-07-30T08:21:11Z</time>
      </trkpt>
      <trkpt lat="47.97717" lon="7.16099">
        <ele>850</ele>
        <time>2016-07-30T08:21:14Z</time>
      </trkpt>
      <trkpt lat="47.97722" lon="7.16085">
        <ele>851</ele>
        <time>2016-07-30T08:21:20Z</time>
      </trkpt>
      <trkpt lat="47.97727" lon="7.16064">
        <ele>845</ele>
        <time>2016-07-30T08:21:29Z</time>
      </trkpt>
      <trkpt lat="47.9773" lon="7.16058">
        <ele>844</ele>
        <time>2016-07-30T08:21:32Z</time>
      </trkpt>
      <trkpt lat="47.97758" lon="7.1603">
        <ele>861</ele>
        <time>2016-07-30T08:21:51Z</time>
      </trkpt>
      <trkpt lat="47.97759" lon="7.16024">
        <ele>860</ele>
        <time>2016-07-30T08:21:54Z</time>
      </trkpt>
      <trkpt lat="47.97759" lon="7.16018">
        <ele>858</ele>
        <time>2016-07-30T08:21:58Z</time>
      </trkpt>
      <trkpt lat="47.97759" lon="7.16005">
        <ele>854</ele>
        <time>2016-07-30T08:22:04Z</time>
      </trkpt>
      <trkpt lat="47.97762" lon="7.15982">
        <ele>858</ele>
        <time>2016-07-30T08:22:11Z</time>
      </trkpt>
      <trkpt lat="47.97763" lon="7.15962">
        <ele>860</ele>
        <time>2016-07-30T08:22:19Z</time>
      </trkpt>
      <trkpt lat="47.9776" lon="7.15912">
        <ele>856</ele>
        <time>2016-07-30T08:22:38Z</time>
      </trkpt>
      <trkpt lat="47.97759" lon="7.15907">
        <ele>857</ele>
        <time>2016-07-30T08:22:40Z</time>
      </trkpt>
      <trkpt lat="47.97759" lon="7.15898">
        <ele>860</ele>
        <time>2016-07-30T08:22:43Z</time>
      </trkpt>
      <trkpt lat="47.9776" lon="7.15892">
        <ele>863</ele>
        <time>2016-07-30T08:22:46Z</time>
      </trkpt>
      <trkpt lat="47.97761" lon="7.15872">
        <ele>865</ele>
        <time>2016-07-30T08:22:53Z</time>
      </trkpt>
      <trkpt lat="47.97761" lon="7.15852">
        <ele>864</ele>
        <time>2016-07-30T08:23:00Z</time>
      </trkpt>
      <trkpt lat="47.9776" lon="7.15846">
        <ele>862</ele>
        <time>2016-07-30T08:23:02Z</time>
      </trkpt>
      <trkpt lat="47.97761" lon="7.15842">
        <ele>862</ele>
        <time>2016-07-30T08:23:04Z</time>
      </trkpt>
      <trkpt lat="47.97762" lon="7.1581">
        <ele>871</ele>
        <time>2016-07-30T08:23:14Z</time>
      </trkpt>
      <trkpt lat="47.97761" lon="7.15809">
        <ele>871</ele>
        <time>2016-07-30T08:23:15Z</time>
      </trkpt>
      <trkpt lat="47.97761" lon="7.158">
        <ele>873</ele>
        <time>2016-07-30T08:23:19Z</time>
      </trkpt>
      <trkpt lat="47.97764" lon="7.15782">
        <ele>874</ele>
        <time>2016-07-30T08:23:28Z</time>
      </trkpt>
      <trkpt lat="47.97764" lon="7.15775">
        <ele>874</ele>
        <time>2016-07-30T08:23:30Z</time>
      </trkpt>
      <trkpt lat="47.97763" lon="7.15772">
        <ele>873</ele>
        <time>2016-07-30T08:23:31Z</time>
      </trkpt>
      <trkpt lat="47.97761" lon="7.15748">
        <ele>872</ele>
        <time>2016-07-30T08:23:40Z</time>
      </trkpt>
      <trkpt lat="47.97761" lon="7.15735">
        <ele>876</ele>
        <time>2016-07-30T08:23:45Z</time>
      </trkpt>
      <trkpt lat="47.9776" lon="7.15731">
        <ele>877</ele>
        <time>2016-07-30T08:23:47Z</time>
      </trkpt>
      <trkpt lat="47.97758" lon="7.15708">
        <ele>882</ele>
        <time>2016-07-30T08:23:57Z</time>
      </trkpt>
      <trkpt lat="47.97753" lon="7.15693">
        <ele>881</ele>
        <time>2016-07-30T08:24:04Z</time>
      </trkpt>
      <trkpt lat="47.97755" lon="7.15679">
        <ele>879</ele>
        <time>2016-07-30T08:24:09Z</time>
      </trkpt>
      <trkpt lat="47.97756" lon="7.15668">
        <ele>875</ele>
        <time>2016-07-30T08:24:13Z</time>
      </trkpt>
      <trkpt lat="47.97751" lon="7.15637">
        <ele>887</ele>
        <time>2016-07-30T08:24:24Z</time>
      </trkpt>
      <trkpt lat="47.9775" lon="7.15635">
        <ele>868</ele>
        <time>2016-07-30T08:24:25Z</time>
      </trkpt>
      <trkpt lat="47.97749" lon="7.15627">
        <ele>868</ele>
        <time>2016-07-30T08:24:28Z</time>
      </trkpt>
      <trkpt lat="47.97751" lon="7.15615">
        <ele>889</ele>
        <time>2016-07-30T08:24:31Z</time>
      </trkpt>
      <trkpt lat="47.97749" lon="7.15603">
        <ele>872</ele>
        <time>2016-07-30T08:24:36Z</time>
      </trkpt>
      <trkpt lat="47.97751" lon="7.15597">
        <ele>887</ele>
        <time>2016-07-30T08:24:39Z</time>
      </trkpt>
      <trkpt lat="47.97754" lon="7.15581">
        <ele>884</ele>
        <time>2016-07-30T08:24:44Z</time>
      </trkpt>
      <trkpt lat="47.97754" lon="7.15566">
        <ele>890</ele>
        <time>2016-07-30T08:24:51Z</time>
      </trkpt>
      <trkpt lat="47.97751" lon="7.15556">
        <ele>892</ele>
        <time>2016-07-30T08:24:55Z</time>
      </trkpt>
      <trkpt lat="47.97751" lon="7.15539">
        <ele>894</ele>
        <time>2016-07-30T08:25:01Z</time>
      </trkpt>
      <trkpt lat="47.97754" lon="7.1552">
        <ele>893</ele>
        <time>2016-07-30T08:25:07Z</time>
      </trkpt>
      <trkpt lat="47.97765" lon="7.15487">
        <ele>893</ele>
        <time>2016-07-30T08:25:15Z</time>
      </trkpt>
      <trkpt lat="47.97768" lon="7.15473">
        <ele>894</ele>
        <time>2016-07-30T08:25:18Z</time>
      </trkpt>
      <trkpt lat="47.97766" lon="7.15463">
        <ele>894</ele>
        <time>2016-07-30T08:25:19Z</time>
      </trkpt>
      <trkpt lat="47.97772" lon="7.1545">
        <ele>894</ele>
        <time>2016-07-30T08:25:22Z</time>
      </trkpt>
      <trkpt lat="47.97771" lon="7.15443">
        <ele>894</ele>
        <time>2016-07-30T08:25:25Z</time>
      </trkpt>
      <trkpt lat="47.9777" lon="7.15435">
        <ele>894</ele>
        <time>2016-07-30T08:25:29Z</time>
      </trkpt>
      <trkpt lat="47.97773" lon="7.15426">
        <ele>894</ele>
        <time>2016-07-30T08:25:34Z</time>
      </trkpt>
      <trkpt lat="47.97772" lon="7.15407">
        <ele>888</ele>
        <time>2016-07-30T08:25:41Z</time>
      </trkpt>
      <trkpt lat="47.97772" lon="7.15406">
        <ele>888</ele>
        <time>2016-07-30T08:25:43Z</time>
      </trkpt>
      <trkpt lat="47.97771" lon="7.15401">
        <ele>888</ele>
        <time>2016-07-30T08:25:56Z</time>
      </trkpt>
      <trkpt lat="47.97768" lon="7.15396">
        <ele>888</ele>
        <time>2016-07-30T08:25:57Z</time>
      </trkpt>
      <trkpt lat="47.97759" lon="7.15368">
        <ele>885</ele>
        <time>2016-07-30T08:26:03Z</time>
      </trkpt>
      <trkpt lat="47.97756" lon="7.15349">
        <ele>884</ele>
        <time>2016-07-30T08:26:06Z</time>
      </trkpt>
      <trkpt lat="47.97749" lon="7.15331">
        <ele>883</ele>
        <time>2016-07-30T08:26:09Z</time>
      </trkpt>
      <trkpt lat="47.97735" lon="7.15304">
        <ele>887</ele>
        <time>2016-07-30T08:26:15Z</time>
      </trkpt>
      <trkpt lat="47.97707" lon="7.15255">
        <ele>888</ele>
        <time>2016-07-30T08:26:23Z</time>
      </trkpt>
      <trkpt lat="47.97696" lon="7.15233">
        <ele>883</ele>
        <time>2016-07-30T08:26:26Z</time>
      </trkpt>
      <trkpt lat="47.97687" lon="7.15207">
        <ele>882</ele>
        <time>2016-07-30T08:26:29Z</time>
      </trkpt>
      <trkpt lat="47.97686" lon="7.15188">
        <ele>883</ele>
        <time>2016-07-30T08:26:31Z</time>
      </trkpt>
      <trkpt lat="47.97683" lon="7.15169">
        <ele>886</ele>
        <time>2016-07-30T08:26:33Z</time>
      </trkpt>
      <trkpt lat="47.9768" lon="7.15139">
        <ele>877</ele>
        <time>2016-07-30T08:26:36Z</time>
      </trkpt>
      <trkpt lat="47.97681" lon="7.15095">
        <ele>878</ele>
        <time>2016-07-30T08:26:40Z</time>
      </trkpt>
      <trkpt lat="47.9768" lon="7.15063">
        <ele>873</ele>
        <time>2016-07-30T08:26:43Z</time>
      </trkpt>
      <trkpt lat="47.9768" lon="7.14982">
        <ele>869</ele>
        <time>2016-07-30T08:26:50Z</time>
      </trkpt>
      <trkpt lat="47.97678" lon="7.14937">
        <ele>866</ele>
        <time>2016-07-30T08:26:54Z</time>
      </trkpt>
      <trkpt lat="47.97669" lon="7.14888">
        <ele>863</ele>
        <time>2016-07-30T08:26:59Z</time>
      </trkpt>
      <trkpt lat="47.97662" lon="7.14865">
        <ele>878</ele>
        <time>2016-07-30T08:27:03Z</time>
      </trkpt>
      <trkpt lat="47.97657" lon="7.1485">
        <ele>876</ele>
        <time>2016-07-30T08:27:08Z</time>
      </trkpt>
      <trkpt lat="47.97654" lon="7.14848">
        <ele>876</ele>
        <time>2016-07-30T08:27:11Z</time>
      </trkpt>
      <trkpt lat="47.97645" lon="7.14837">
        <ele>877</ele>
        <time>2016-07-30T08:34:34Z</time>
      </trkpt>
      <trkpt lat="47.97639" lon="7.1482">
        <ele>875</ele>
        <time>2016-07-30T08:34:42Z</time>
      </trkpt>
      <trkpt lat="47.97638" lon="7.14798">
        <ele>876</ele>
        <time>2016-07-30T08:34:49Z</time>
      </trkpt>
      <trkpt lat="47.97647" lon="7.14779">
        <ele>877</ele>
        <time>2016-07-30T08:34:57Z</time>
      </trkpt>
      <trkpt lat="47.97661" lon="7.14766">
        <ele>877</ele>
        <time>2016-07-30T08:35:06Z</time>
      </trkpt>
      <trkpt lat="47.97674" lon="7.14757">
        <ele>872</ele>
        <time>2016-07-30T08:35:15Z</time>
      </trkpt>
      <trkpt lat="47.97686" lon="7.1475">
        <ele>878</ele>
        <time>2016-07-30T08:35:22Z</time>
      </trkpt>
      <trkpt lat="47.97694" lon="7.14743">
        <ele>878</ele>
        <time>2016-07-30T08:35:29Z</time>
      </trkpt>
      <trkpt lat="47.977" lon="7.14735">
        <ele>878</ele>
        <time>2016-07-30T08:35:34Z</time>
      </trkpt>
      <trkpt lat="47.97723" lon="7.14711">
        <ele>879</ele>
        <time>2016-07-30T08:35:51Z</time>
      </trkpt>
      <trkpt lat="47.97726" lon="7.14707">
        <ele>879</ele>
        <time>2016-07-30T08:35:53Z</time>
      </trkpt>
      <trkpt lat="47.97738" lon="7.14698">
        <ele>880</ele>
        <time>2016-07-30T08:36:02Z</time>
      </trkpt>
      <trkpt lat="47.97739" lon="7.14694">
        <ele>881</ele>
        <time>2016-07-30T08:36:04Z</time>
      </trkpt>
      <trkpt lat="47.97738" lon="7.14691">
        <ele>881</ele>
        <time>2016-07-30T08:36:05Z</time>
      </trkpt>
      <trkpt lat="47.9774" lon="7.14687">
        <ele>882</ele>
        <time>2016-07-30T08:36:07Z</time>
      </trkpt>
      <trkpt lat="47.97739" lon="7.14687">
        <ele>882</ele>
        <time>2016-07-30T08:36:08Z</time>
      </trkpt>
      <trkpt lat="47.97729" lon="7.14696">
        <ele>881</ele>
        <time>2016-07-30T08:36:16Z</time>
      </trkpt>
      <trkpt lat="47.97719" lon="7.14703">
        <ele>880</ele>
        <time>2016-07-30T08:36:24Z</time>
      </trkpt>
      <trkpt lat="47.9771" lon="7.14707">
        <ele>880</ele>
        <time>2016-07-30T08:36:31Z</time>
      </trkpt>
      <trkpt lat="47.97694" lon="7.14707">
        <ele>882</ele>
        <time>2016-07-30T08:36:41Z</time>
      </trkpt>
      <trkpt lat="47.97684" lon="7.14712">
        <ele>882</ele>
        <time>2016-07-30T08:36:50Z</time>
      </trkpt>
      <trkpt lat="47.97675" lon="7.1471">
        <ele>883</ele>
        <time>2016-07-30T08:36:56Z</time>
      </trkpt>
      <trkpt lat="47.97673" lon="7.14703">
        <ele>884</ele>
        <time>2016-07-30T08:37:01Z</time>
      </trkpt>
      <trkpt lat="47.97675" lon="7.14688">
        <ele>887</ele>
        <time>2016-07-30T08:37:09Z</time>
      </trkpt>
      <trkpt lat="47.9768" lon="7.1468">
        <ele>889</ele>
        <time>2016-07-30T08:37:15Z</time>
      </trkpt>
      <trkpt lat="47.9769" lon="7.14673">
        <ele>888</ele>
        <time>2016-07-30T08:37:25Z</time>
      </trkpt>
      <trkpt lat="47.97697" lon="7.14663">
        <ele>902</ele>
        <time>2016-07-30T08:37:32Z</time>
      </trkpt>
      <trkpt lat="47.97719" lon="7.14639">
        <ele>903</ele>
        <time>2016-07-30T08:37:58Z</time>
      </trkpt>
      <trkpt lat="47.97721" lon="7.14636">
        <ele>903</ele>
        <time>2016-07-30T08:38:00Z</time>
      </trkpt>
      <trkpt lat="47.97728" lon="7.14628">
        <ele>904</ele>
        <time>2016-07-30T08:38:05Z</time>
      </trkpt>
      <trkpt lat="47.97735" lon="7.14616">
        <ele>907</ele>
        <time>2016-07-30T08:38:12Z</time>
      </trkpt>
      <trkpt lat="47.97754" lon="7.14604">
        <ele>900</ele>
        <time>2016-07-30T08:38:24Z</time>
      </trkpt>
      <trkpt lat="47.97763" lon="7.14602">
        <ele>899</ele>
        <time>2016-07-30T08:38:28Z</time>
      </trkpt>
      <trkpt lat="47.97771" lon="7.14592">
        <ele>899</ele>
        <time>2016-07-30T08:38:33Z</time>
      </trkpt>
      <trkpt lat="47.97776" lon="7.14584">
        <ele>898</ele>
        <time>2016-07-30T08:38:38Z</time>
      </trkpt>
      <trkpt lat="47.9778" lon="7.14572">
        <ele>910</ele>
        <time>2016-07-30T08:38:43Z</time>
      </trkpt>
      <trkpt lat="47.97786" lon="7.14564">
        <ele>910</ele>
        <time>2016-07-30T08:38:47Z</time>
      </trkpt>
      <trkpt lat="47.97788" lon="7.1456">
        <ele>910</ele>
        <time>2016-07-30T08:38:49Z</time>
      </trkpt>
      <trkpt lat="47.97791" lon="7.14546">
        <ele>911</ele>
        <time>2016-07-30T08:38:58Z</time>
      </trkpt>
      <trkpt lat="47.9779" lon="7.14543">
        <ele>911</ele>
        <time>2016-07-30T08:38:59Z</time>
      </trkpt>
      <trkpt lat="47.9779" lon="7.14541">
        <ele>912</ele>
        <time>2016-07-30T08:39:00Z</time>
      </trkpt>
      <trkpt lat="47.97789" lon="7.14538">
        <ele>912</ele>
        <time>2016-07-30T08:39:03Z</time>
      </trkpt>
      <trkpt lat="47.9779" lon="7.14536">
        <ele>912</ele>
        <time>2016-07-30T08:39:04Z</time>
      </trkpt>
      <trkpt lat="47.97792" lon="7.14499">
        <ele>926</ele>
        <time>2016-07-30T08:39:22Z</time>
      </trkpt>
      <trkpt lat="47.97792" lon="7.14497">
        <ele>926</ele>
        <time>2016-07-30T08:39:23Z</time>
      </trkpt>
      <trkpt lat="47.97792" lon="7.14496">
        <ele>926</ele>
        <time>2016-07-30T08:39:24Z</time>
      </trkpt>
      <trkpt lat="47.97793" lon="7.14486">
        <ele>926</ele>
        <time>2016-07-30T08:39:28Z</time>
      </trkpt>
      <trkpt lat="47.97797" lon="7.14472">
        <ele>927</ele>
        <time>2016-07-30T08:39:37Z</time>
      </trkpt>
      <trkpt lat="47.978" lon="7.14466">
        <ele>927</ele>
        <time>2016-07-30T08:39:40Z</time>
      </trkpt>
      <trkpt lat="47.97804" lon="7.1445">
        <ele>928</ele>
        <time>2016-07-30T08:39:48Z</time>
      </trkpt>
      <trkpt lat="47.9781" lon="7.14441">
        <ele>928</ele>
        <time>2016-07-30T08:39:54Z</time>
      </trkpt>
      <trkpt lat="47.97819" lon="7.14433">
        <ele>927</ele>
        <time>2016-07-30T08:40:00Z</time>
      </trkpt>
      <trkpt lat="47.97825" lon="7.14425">
        <ele>926</ele>
        <time>2016-07-30T08:40:09Z</time>
      </trkpt>
      <trkpt lat="47.97839" lon="7.14413">
        <ele>926</ele>
        <time>2016-07-30T08:40:19Z</time>
      </trkpt>
      <trkpt lat="47.97842" lon="7.14409">
        <ele>926</ele>
        <time>2016-07-30T08:40:22Z</time>
      </trkpt>
      <trkpt lat="47.97856" lon="7.14399">
        <ele>927</ele>
        <time>2016-07-30T08:40:37Z</time>
      </trkpt>
      <trkpt lat="47.97871" lon="7.14394">
        <ele>927</ele>
        <time>2016-07-30T08:40:45Z</time>
      </trkpt>
      <trkpt lat="47.97892" lon="7.14391">
        <ele>926</ele>
        <time>2016-07-30T08:40:54Z</time>
      </trkpt>
      <trkpt lat="47.97903" lon="7.14387">
        <ele>926</ele>
        <time>2016-07-30T08:41:01Z</time>
      </trkpt>
      <trkpt lat="47.97909" lon="7.14377">
        <ele>927</ele>
        <time>2016-07-30T08:41:08Z</time>
      </trkpt>
      <trkpt lat="47.97911" lon="7.14367">
        <ele>927</ele>
        <time>2016-07-30T08:41:11Z</time>
      </trkpt>
      <trkpt lat="47.97908" lon="7.14361">
        <ele>928</ele>
        <time>2016-07-30T08:41:14Z</time>
      </trkpt>
      <trkpt lat="47.97892" lon="7.14359">
        <ele>929</ele>
        <time>2016-07-30T08:41:26Z</time>
      </trkpt>
      <trkpt lat="47.97883" lon="7.14359">
        <ele>929</ele>
        <time>2016-07-30T08:41:33Z</time>
      </trkpt>
      <trkpt lat="47.97867" lon="7.14353">
        <ele>931</ele>
        <time>2016-07-30T08:41:48Z</time>
      </trkpt>
      <trkpt lat="47.97865" lon="7.14348">
        <ele>932</ele>
        <time>2016-07-30T08:41:52Z</time>
      </trkpt>
      <trkpt lat="47.97854" lon="7.14339">
        <ele>934</ele>
        <time>2016-07-30T08:42:03Z</time>
      </trkpt>
      <trkpt lat="47.9785" lon="7.14338">
        <ele>935</ele>
        <time>2016-07-30T08:42:07Z</time>
      </trkpt>
      <trkpt lat="47.97839" lon="7.14331">
        <ele>942</ele>
        <time>2016-07-30T08:42:16Z</time>
      </trkpt>
      <trkpt lat="47.97822" lon="7.14323">
        <ele>949</ele>
        <time>2016-07-30T08:42:27Z</time>
      </trkpt>
      <trkpt lat="47.97802" lon="7.14323">
        <ele>953</ele>
        <time>2016-07-30T08:42:42Z</time>
      </trkpt>
      <trkpt lat="47.97799" lon="7.14324">
        <ele>954</ele>
        <time>2016-07-30T08:42:44Z</time>
      </trkpt>
      <trkpt lat="47.97787" lon="7.14323">
        <ele>956</ele>
        <time>2016-07-30T08:42:51Z</time>
      </trkpt>
      <trkpt lat="47.97776" lon="7.14319">
        <ele>957</ele>
        <time>2016-07-30T08:42:56Z</time>
      </trkpt>
      <trkpt lat="47.97776" lon="7.14318">
        <ele>957</ele>
        <time>2016-07-30T08:42:57Z</time>
      </trkpt>
      <trkpt lat="47.97798" lon="7.14298">
        <ele>956</ele>
        <time>2016-07-30T08:43:17Z</time>
      </trkpt>
      <trkpt lat="47.97816" lon="7.14284">
        <ele>956</ele>
        <time>2016-07-30T08:43:29Z</time>
      </trkpt>
      <trkpt lat="47.97832" lon="7.14262">
        <ele>957</ele>
        <time>2016-07-30T08:43:43Z</time>
      </trkpt>
      <trkpt lat="47.97833" lon="7.14258">
        <ele>952</ele>
        <time>2016-07-30T08:43:45Z</time>
      </trkpt>
      <trkpt lat="47.97834" lon="7.14242">
        <ele>955</ele>
        <time>2016-07-30T08:43:52Z</time>
      </trkpt>
      <trkpt lat="47.97838" lon="7.14229">
        <ele>954</ele>
        <time>2016-07-30T08:43:57Z</time>
      </trkpt>
      <trkpt lat="47.97837" lon="7.14226">
        <ele>954</ele>
        <time>2016-07-30T08:43:58Z</time>
      </trkpt>
      <trkpt lat="47.9784" lon="7.14189">
        <ele>958</ele>
        <time>2016-07-30T08:44:19Z</time>
      </trkpt>
      <trkpt lat="47.97839" lon="7.14165">
        <ele>967</ele>
        <time>2016-07-30T08:44:32Z</time>
      </trkpt>
      <trkpt lat="47.97841" lon="7.14152">
        <ele>965</ele>
        <time>2016-07-30T08:44:40Z</time>
      </trkpt>
      <trkpt lat="47.9784" lon="7.14145">
        <ele>965</ele>
        <time>2016-07-30T08:44:44Z</time>
      </trkpt>
      <trkpt lat="47.9784" lon="7.14135">
        <ele>965</ele>
        <time>2016-07-30T08:44:50Z</time>
      </trkpt>
      <trkpt lat="47.97839" lon="7.14127">
        <ele>965</ele>
        <time>2016-07-30T08:44:54Z</time>
      </trkpt>
      <trkpt lat="47.97841" lon="7.14115">
        <ele>967</ele>
        <time>2016-07-30T08:45:00Z</time>
      </trkpt>
      <trkpt lat="47.97842" lon="7.14102">
        <ele>970</ele>
        <time>2016-07-30T08:45:07Z</time>
      </trkpt>
      <trkpt lat="47.97841" lon="7.14097">
        <ele>972</ele>
        <time>2016-07-30T08:45:10Z</time>
      </trkpt>
      <trkpt lat="47.97842" lon="7.14081">
        <ele>978</ele>
        <time>2016-07-30T08:45:18Z</time>
      </trkpt>
      <trkpt lat="47.9784" lon="7.14071">
        <ele>977</ele>
        <time>2016-07-30T08:45:25Z</time>
      </trkpt>
      <trkpt lat="47.97839" lon="7.14065">
        <ele>976</ele>
        <time>2016-07-30T08:45:28Z</time>
      </trkpt>
      <trkpt lat="47.97843" lon="7.14041">
        <ele>976</ele>
        <time>2016-07-30T08:45:40Z</time>
      </trkpt>
      <trkpt lat="47.97842" lon="7.14036">
        <ele>977</ele>
        <time>2016-07-30T08:45:43Z</time>
      </trkpt>
      <trkpt lat="47.97843" lon="7.14025">
        <ele>979</ele>
        <time>2016-07-30T08:45:49Z</time>
      </trkpt>
      <trkpt lat="47.97845" lon="7.14022">
        <ele>979</ele>
        <time>2016-07-30T08:45:51Z</time>
      </trkpt>
      <trkpt lat="47.97847" lon="7.14009">
        <ele>982</ele>
        <time>2016-07-30T08:45:57Z</time>
      </trkpt>
      <trkpt lat="47.9785" lon="7.13962">
        <ele>989</ele>
        <time>2016-07-30T08:46:20Z</time>
      </trkpt>
      <trkpt lat="47.97853" lon="7.13949">
        <ele>990</ele>
        <time>2016-07-30T08:46:27Z</time>
      </trkpt>
      <trkpt lat="47.97852" lon="7.13944">
        <ele>992</ele>
        <time>2016-07-30T08:46:30Z</time>
      </trkpt>
      <trkpt lat="47.97852" lon="7.13937">
        <ele>993</ele>
        <time>2016-07-30T08:46:34Z</time>
      </trkpt>
      <trkpt lat="47.97856" lon="7.13918">
        <ele>995</ele>
        <time>2016-07-30T08:46:45Z</time>
      </trkpt>
      <trkpt lat="47.97863" lon="7.13898">
        <ele>1003</ele>
        <time>2016-07-30T08:46:55Z</time>
      </trkpt>
      <trkpt lat="47.97867" lon="7.13884">
        <ele>1003</ele>
        <time>2016-07-30T08:47:02Z</time>
      </trkpt>
      <trkpt lat="47.97875" lon="7.13871">
        <ele>1002</ele>
        <time>2016-07-30T08:47:10Z</time>
      </trkpt>
      <trkpt lat="47.97885" lon="7.13858">
        <ele>1002</ele>
        <time>2016-07-30T08:47:19Z</time>
      </trkpt>
      <trkpt lat="47.97888" lon="7.13855">
        <ele>1001</ele>
        <time>2016-07-30T08:47:22Z</time>
      </trkpt>
      <trkpt lat="47.97895" lon="7.13847">
        <ele>1000</ele>
        <time>2016-07-30T08:47:29Z</time>
      </trkpt>
      <trkpt lat="47.97899" lon="7.13839">
        <ele>999</ele>
        <time>2016-07-30T08:47:34Z</time>
      </trkpt>
      <trkpt lat="47.97908" lon="7.13816">
        <ele>1011</ele>
        <time>2016-07-30T08:47:46Z</time>
      </trkpt>
      <trkpt lat="47.97912" lon="7.13796">
        <ele>1018</ele>
        <time>2016-07-30T08:47:58Z</time>
      </trkpt>
      <trkpt lat="47.97913" lon="7.13793">
        <ele>1019</ele>
        <time>2016-07-30T08:48:00Z</time>
      </trkpt>
      <trkpt lat="47.97915" lon="7.13787">
        <ele>1020</ele>
        <time>2016-07-30T08:48:03Z</time>
      </trkpt>
      <trkpt lat="47.97914" lon="7.1378">
        <ele>1021</ele>
        <time>2016-07-30T08:48:06Z</time>
      </trkpt>
      <trkpt lat="47.97917" lon="7.13771">
        <ele>1004</ele>
        <time>2016-07-30T08:48:11Z</time>
      </trkpt>
      <trkpt lat="47.97919" lon="7.13769">
        <ele>1006</ele>
        <time>2016-07-30T08:48:13Z</time>
      </trkpt>
      <trkpt lat="47.9792" lon="7.13752">
        <ele>1017</ele>
        <time>2016-07-30T08:48:22Z</time>
      </trkpt>
      <trkpt lat="47.97922" lon="7.13747">
        <ele>1020</ele>
        <time>2016-07-30T08:48:24Z</time>
      </trkpt>
      <trkpt lat="47.97925" lon="7.13728">
        <ele>1018</ele>
        <time>2016-07-30T08:48:34Z</time>
      </trkpt>
      <trkpt lat="47.97927" lon="7.13711">
        <ele>1019</ele>
        <time>2016-07-30T08:48:43Z</time>
      </trkpt>
      <trkpt lat="47.9793" lon="7.13695">
        <ele>1023</ele>
        <time>2016-07-30T08:48:52Z</time>
      </trkpt>
      <trkpt lat="47.97934" lon="7.13684">
        <ele>1025</ele>
        <time>2016-07-30T08:48:57Z</time>
      </trkpt>
      <trkpt lat="47.97938" lon="7.13676">
        <ele>1026</ele>
        <time>2016-07-30T08:49:01Z</time>
      </trkpt>
      <trkpt lat="47.97946" lon="7.1365">
        <ele>1039</ele>
        <time>2016-07-30T08:49:15Z</time>
      </trkpt>
      <trkpt lat="47.9795" lon="7.1363">
        <ele>1040</ele>
        <time>2016-07-30T08:49:28Z</time>
      </trkpt>
      <trkpt lat="47.97957" lon="7.1361">
        <ele>1042</ele>
        <time>2016-07-30T08:49:38Z</time>
      </trkpt>
      <trkpt lat="47.97955" lon="7.13606">
        <ele>1043</ele>
        <time>2016-07-30T08:49:40Z</time>
      </trkpt>
      <trkpt lat="47.97961" lon="7.136">
        <ele>1042</ele>
        <time>2016-07-30T08:49:46Z</time>
      </trkpt>
      <trkpt lat="47.97962" lon="7.13599">
        <ele>1042</ele>
        <time>2016-07-30T08:49:47Z</time>
      </trkpt>
      <trkpt lat="47.97976" lon="7.13592">
        <ele>1039</ele>
        <time>2016-07-30T08:49:59Z</time>
      </trkpt>
      <trkpt lat="47.97996" lon="7.13571">
        <ele>1046</ele>
        <time>2016-07-30T08:50:11Z</time>
      </trkpt>
      <trkpt lat="47.97996" lon="7.13569">
        <ele>1047</ele>
        <time>2016-07-30T08:50:12Z</time>
      </trkpt>
      <trkpt lat="47.98" lon="7.13564">
        <ele>1049</ele>
        <time>2016-07-30T08:50:16Z</time>
      </trkpt>
      <trkpt lat="47.98005" lon="7.13561">
        <ele>1037</ele>
        <time>2016-07-30T08:50:20Z</time>
      </trkpt>
      <trkpt lat="47.9801" lon="7.13553">
        <ele>1038</ele>
        <time>2016-07-30T08:50:26Z</time>
      </trkpt>
      <trkpt lat="47.98013" lon="7.13545">
        <ele>1038</ele>
        <time>2016-07-30T08:50:32Z</time>
      </trkpt>
      <trkpt lat="47.98017" lon="7.13539">
        <ele>1039</ele>
        <time>2016-07-30T08:50:36Z</time>
      </trkpt>
      <trkpt lat="47.98019" lon="7.13522">
        <ele>1042</ele>
        <time>2016-07-30T08:50:47Z</time>
      </trkpt>
      <trkpt lat="47.98017" lon="7.13517">
        <ele>1044</ele>
        <time>2016-07-30T08:50:51Z</time>
      </trkpt>
      <trkpt lat="47.9802" lon="7.13506">
        <ele>1045</ele>
        <time>2016-07-30T08:50:58Z</time>
      </trkpt>
      <trkpt lat="47.98022" lon="7.13501">
        <ele>1045</ele>
        <time>2016-07-30T08:51:00Z</time>
      </trkpt>
      <trkpt lat="47.98026" lon="7.13497">
        <ele>1054</ele>
        <time>2016-07-30T08:51:02Z</time>
      </trkpt>
      <trkpt lat="47.98034" lon="7.13484">
        <ele>1053</ele>
        <time>2016-07-30T08:51:10Z</time>
      </trkpt>
      <trkpt lat="47.98035" lon="7.13478">
        <ele>1053</ele>
        <time>2016-07-30T08:51:13Z</time>
      </trkpt>
      <trkpt lat="47.98043" lon="7.1346">
        <ele>1054</ele>
        <time>2016-07-30T08:51:20Z</time>
      </trkpt>
      <trkpt lat="47.98046" lon="7.13455">
        <ele>1054</ele>
        <time>2016-07-30T08:51:23Z</time>
      </trkpt>
      <trkpt lat="47.98049" lon="7.13447">
        <ele>1054</ele>
        <time>2016-07-30T08:51:27Z</time>
      </trkpt>
      <trkpt lat="47.98049" lon="7.13444">
        <ele>1054</ele>
        <time>2016-07-30T08:51:29Z</time>
      </trkpt>
      <trkpt lat="47.98055" lon="7.13434">
        <ele>1054</ele>
        <time>2016-07-30T08:51:35Z</time>
      </trkpt>
      <trkpt lat="47.98064" lon="7.13432">
        <ele>1054</ele>
        <time>2016-07-30T08:51:42Z</time>
      </trkpt>
      <trkpt lat="47.98086" lon="7.13439">
        <ele>1051</ele>
        <time>2016-07-30T08:52:00Z</time>
      </trkpt>
      <trkpt lat="47.98089" lon="7.13441">
        <ele>1050</ele>
        <time>2016-07-30T08:52:02Z</time>
      </trkpt>
      <trkpt lat="47.98111" lon="7.13446">
        <ele>1050</ele>
        <time>2016-07-30T08:52:18Z</time>
      </trkpt>
      <trkpt lat="47.98119" lon="7.13449">
        <ele>1050</ele>
        <time>2016-07-30T08:52:23Z</time>
      </trkpt>
      <trkpt lat="47.98127" lon="7.1345">
        <ele>1051</ele>
        <time>2016-07-30T08:52:29Z</time>
      </trkpt>
      <trkpt lat="47.98143" lon="7.13447">
        <ele>1052</ele>
        <time>2016-07-30T08:52:41Z</time>
      </trkpt>
      <trkpt lat="47.98151" lon="7.13447">
        <ele>1053</ele>
        <time>2016-07-30T08:52:47Z</time>
      </trkpt>
      <trkpt lat="47.98161" lon="7.13444">
        <ele>1054</ele>
        <time>2016-07-30T08:52:56Z</time>
      </trkpt>
      <trkpt lat="47.98168" lon="7.13439">
        <ele>1055</ele>
        <time>2016-07-30T08:53:02Z</time>
      </trkpt>
      <trkpt lat="47.98181" lon="7.13435">
        <ele>1055</ele>
        <time>2016-07-30T08:53:11Z</time>
      </trkpt>
      <trkpt lat="47.98186" lon="7.1343">
        <ele>1055</ele>
        <time>2016-07-30T08:53:15Z</time>
      </trkpt>
      <trkpt lat="47.98186" lon="7.13428">
        <ele>1055</ele>
        <time>2016-07-30T08:53:16Z</time>
      </trkpt>
      <trkpt lat="47.982" lon="7.13414">
        <ele>1065</ele>
        <time>2016-07-30T08:53:28Z</time>
      </trkpt>
      <trkpt lat="47.98207" lon="7.13402">
        <ele>1065</ele>
        <time>2016-07-30T08:53:35Z</time>
      </trkpt>
      <trkpt lat="47.98212" lon="7.13392">
        <ele>1065</ele>
        <time>2016-07-30T08:53:41Z</time>
      </trkpt>
      <trkpt lat="47.98215" lon="7.13383">
        <ele>1066</ele>
        <time>2016-07-30T08:53:46Z</time>
      </trkpt>
      <trkpt lat="47.98217" lon="7.13383">
        <ele>1066</ele>
        <time>2016-07-30T08:53:47Z</time>
      </trkpt>
      <trkpt lat="47.9822" lon="7.13379">
        <ele>1066</ele>
        <time>2016-07-30T08:53:50Z</time>
      </trkpt>
      <trkpt lat="47.98226" lon="7.13365">
        <ele>1067</ele>
        <time>2016-07-30T08:53:58Z</time>
      </trkpt>
      <trkpt lat="47.98229" lon="7.13361">
        <ele>1067</ele>
        <time>2016-07-30T08:54:01Z</time>
      </trkpt>
      <trkpt lat="47.98233" lon="7.13351">
        <ele>1068</ele>
        <time>2016-07-30T08:54:07Z</time>
      </trkpt>
      <trkpt lat="47.98255" lon="7.13313">
        <ele>1080</ele>
        <time>2016-07-30T08:54:33Z</time>
      </trkpt>
      <trkpt lat="47.98258" lon="7.13309">
        <ele>1081</ele>
        <time>2016-07-30T08:54:36Z</time>
      </trkpt>
      <trkpt lat="47.9827" lon="7.13287">
        <ele>1086</ele>
        <time>2016-07-30T08:54:51Z</time>
      </trkpt>
      <trkpt lat="47.98273" lon="7.13284">
        <ele>1087</ele>
        <time>2016-07-30T08:54:54Z</time>
      </trkpt>
      <trkpt lat="47.98279" lon="7.13273">
        <ele>1088</ele>
        <time>2016-07-30T08:55:02Z</time>
      </trkpt>
      <trkpt lat="47.98295" lon="7.13271">
        <ele>1090</ele>
        <time>2016-07-30T08:55:13Z</time>
      </trkpt>
      <trkpt lat="47.98302" lon="7.13272">
        <ele>1091</ele>
        <time>2016-07-30T08:55:18Z</time>
      </trkpt>
      <trkpt lat="47.98305" lon="7.1327">
        <ele>1092</ele>
        <time>2016-07-30T08:55:24Z</time>
      </trkpt>
      <trkpt lat="47.98306" lon="7.13281">
        <ele>1090</ele>
        <time>2016-07-30T08:57:32Z</time>
      </trkpt>
      <trkpt lat="47.98287" lon="7.13284">
        <ele>1088</ele>
        <time>2016-07-30T08:57:37Z</time>
      </trkpt>
      <trkpt lat="47.98277" lon="7.13284">
        <ele>1087</ele>
        <time>2016-07-30T08:57:39Z</time>
      </trkpt>
      <trkpt lat="47.98272" lon="7.13282">
        <ele>1087</ele>
        <time>2016-07-30T08:57:40Z</time>
      </trkpt>
      <trkpt lat="47.98266" lon="7.13278">
        <ele>1087</ele>
        <time>2016-07-30T08:57:42Z</time>
      </trkpt>
      <trkpt lat="47.98257" lon="7.13265">
        <ele>1089</ele>
        <time>2016-07-30T08:57:48Z</time>
      </trkpt>
      <trkpt lat="47.98255" lon="7.13263">
        <ele>1089</ele>
        <time>2016-07-30T08:57:50Z</time>
      </trkpt>
      <trkpt lat="47.98244" lon="7.13259">
        <ele>1088</ele>
        <time>2016-07-30T08:57:57Z</time>
      </trkpt>
      <trkpt lat="47.98229" lon="7.13251">
        <ele>1087</ele>
        <time>2016-07-30T08:58:07Z</time>
      </trkpt>
      <trkpt lat="47.98216" lon="7.13249">
        <ele>1101</ele>
        <time>2016-07-30T08:58:15Z</time>
      </trkpt>
      <trkpt lat="47.98208" lon="7.13249">
        <ele>1101</ele>
        <time>2016-07-30T08:58:20Z</time>
      </trkpt>
      <trkpt lat="47.98196" lon="7.13245">
        <ele>1101</ele>
        <time>2016-07-30T08:58:29Z</time>
      </trkpt>
      <trkpt lat="47.98163" lon="7.1324">
        <ele>1096</ele>
        <time>2016-07-30T08:58:53Z</time>
      </trkpt>
      <trkpt lat="47.98154" lon="7.13238">
        <ele>1098</ele>
        <time>2016-07-30T08:58:59Z</time>
      </trkpt>
      <trkpt lat="47.98144" lon="7.13238">
        <ele>1099</ele>
        <time>2016-07-30T08:59:06Z</time>
      </trkpt>
      <trkpt lat="47.98141" lon="7.13236">
        <ele>1099</ele>
        <time>2016-07-30T08:59:59Z</time>
      </trkpt>
      <trkpt lat="47.98128" lon="7.13226">
        <ele>1100</ele>
        <time>2016-07-30T09:00:03Z</time>
      </trkpt>
      <trkpt lat="47.98098" lon="7.13209">
        <ele>1102</ele>
        <time>2016-07-30T09:00:11Z</time>
      </trkpt>
      <trkpt lat="47.98049" lon="7.132">
        <ele>1107</ele>
        <time>2016-07-30T09:00:24Z</time>
      </trkpt>
      <trkpt lat="47.98026" lon="7.13204">
        <ele>1108</ele>
        <time>2016-07-30T09:00:32Z</time>
      </trkpt>
      <trkpt lat="47.98007" lon="7.1321">
        <ele>1108</ele>
        <time>2016-07-30T09:00:40Z</time>
      </trkpt>
      <trkpt lat="47.97989" lon="7.13214">
        <ele>1122</ele>
        <time>2016-07-30T09:00:49Z</time>
      </trkpt>
      <trkpt lat="47.97978" lon="7.13217">
        <ele>1123</ele>
        <time>2016-07-30T09:00:55Z</time>
      </trkpt>
      <trkpt lat="47.97963" lon="7.13226">
        <ele>1125</ele>
        <time>2016-07-30T09:01:02Z</time>
      </trkpt>
      <trkpt lat="47.97955" lon="7.13235">
        <ele>1127</ele>
        <time>2016-07-30T09:01:06Z</time>
      </trkpt>
      <trkpt lat="47.97952" lon="7.13239">
        <ele>1127</ele>
        <time>2016-07-30T09:01:09Z</time>
      </trkpt>
      <trkpt lat="47.97944" lon="7.13256">
        <ele>1117</ele>
        <time>2016-07-30T09:01:17Z</time>
      </trkpt>
      <trkpt lat="47.97938" lon="7.13288">
        <ele>1114</ele>
        <time>2016-07-30T09:01:27Z</time>
      </trkpt>
      <trkpt lat="47.97934" lon="7.13302">
        <ele>1113</ele>
        <time>2016-07-30T09:01:33Z</time>
      </trkpt>
      <trkpt lat="47.97924" lon="7.13322">
        <ele>1115</ele>
        <time>2016-07-30T09:01:44Z</time>
      </trkpt>
      <trkpt lat="47.9791" lon="7.13334">
        <ele>1120</ele>
        <time>2016-07-30T09:01:55Z</time>
      </trkpt>
      <trkpt lat="47.97896" lon="7.13344">
        <ele>1124</ele>
        <time>2016-07-30T09:02:05Z</time>
      </trkpt>
      <trkpt lat="47.97875" lon="7.13373">
        <ele>1126</ele>
        <time>2016-07-30T09:02:28Z</time>
      </trkpt>
      <trkpt lat="47.97865" lon="7.13376">
        <ele>1128</ele>
        <time>2016-07-30T09:02:35Z</time>
      </trkpt>
      <trkpt lat="47.97863" lon="7.13378">
        <ele>1128</ele>
        <time>2016-07-30T09:02:37Z</time>
      </trkpt>
      <trkpt lat="47.97846" lon="7.13391">
        <ele>1129</ele>
        <time>2016-07-30T09:02:51Z</time>
      </trkpt>
      <trkpt lat="47.97817" lon="7.13407">
        <ele>1138</ele>
        <time>2016-07-30T09:03:09Z</time>
      </trkpt>
      <trkpt lat="47.9781" lon="7.13409">
        <ele>1139</ele>
        <time>2016-07-30T09:03:13Z</time>
      </trkpt>
      <trkpt lat="47.97783" lon="7.13426">
        <ele>1136</ele>
        <time>2016-07-30T09:03:30Z</time>
      </trkpt>
      <trkpt lat="47.97766" lon="7.13432">
        <ele>1138</ele>
        <time>2016-07-30T09:03:40Z</time>
      </trkpt>
      <trkpt lat="47.97757" lon="7.13433">
        <ele>1139</ele>
        <time>2016-07-30T09:03:46Z</time>
      </trkpt>
      <trkpt lat="47.97747" lon="7.13435">
        <ele>1145</ele>
        <time>2016-07-30T09:03:52Z</time>
      </trkpt>
      <trkpt lat="47.97726" lon="7.13444">
        <ele>1145</ele>
        <time>2016-07-30T09:04:04Z</time>
      </trkpt>
      <trkpt lat="47.97714" lon="7.13447">
        <ele>1146</ele>
        <time>2016-07-30T09:04:11Z</time>
      </trkpt>
      <trkpt lat="47.97685" lon="7.13465">
        <ele>1146</ele>
        <time>2016-07-30T09:04:33Z</time>
      </trkpt>
      <trkpt lat="47.97681" lon="7.13464">
        <ele>1146</ele>
        <time>2016-07-30T09:04:37Z</time>
      </trkpt>
      <trkpt lat="47.97662" lon="7.13464">
        <ele>1146</ele>
        <time>2016-07-30T09:04:54Z</time>
      </trkpt>
      <trkpt lat="47.97633" lon="7.13463">
        <ele>1145</ele>
        <time>2016-07-30T09:05:06Z</time>
      </trkpt>
      <trkpt lat="47.97617" lon="7.13461">
        <ele>1144</ele>
        <time>2016-07-30T09:05:09Z</time>
      </trkpt>
      <trkpt lat="47.976" lon="7.1346">
        <ele>1143</ele>
        <time>2016-07-30T09:05:11Z</time>
      </trkpt>
      <trkpt lat="47.97588" lon="7.13463">
        <ele>1142</ele>
        <time>2016-07-30T09:05:13Z</time>
      </trkpt>
      <trkpt lat="47.97571" lon="7.13462">
        <ele>1137</ele>
        <time>2016-07-30T09:05:15Z</time>
      </trkpt>
      <trkpt lat="47.97548" lon="7.13459">
        <ele>1136</ele>
        <time>2016-07-30T09:05:18Z</time>
      </trkpt>
      <trkpt lat="47.97521" lon="7.13458">
        <ele>1135</ele>
        <time>2016-07-30T09:05:22Z</time>
      </trkpt>
      <trkpt lat="47.97503" lon="7.13461">
        <ele>1134</ele>
        <time>2016-07-30T09:05:24Z</time>
      </trkpt>
      <trkpt lat="47.97465" lon="7.1345">
        <ele>1128</ele>
        <time>2016-07-30T09:05:29Z</time>
      </trkpt>
      <trkpt lat="47.97449" lon="7.13434">
        <ele>1128</ele>
        <time>2016-07-30T09:05:32Z</time>
      </trkpt>
      <trkpt lat="47.97444" lon="7.13425">
        <ele>1128</ele>
        <time>2016-07-30T09:05:34Z</time>
      </trkpt>
      <trkpt lat="47.97439" lon="7.13409">
        <ele>1135</ele>
        <time>2016-07-30T09:05:36Z</time>
      </trkpt>
      <trkpt lat="47.97427" lon="7.13385">
        <ele>1137</ele>
        <time>2016-07-30T09:05:41Z</time>
      </trkpt>
      <trkpt lat="47.97423" lon="7.13369">
        <ele>1138</ele>
        <time>2016-07-30T09:05:44Z</time>
      </trkpt>
      <trkpt lat="47.97419" lon="7.13334">
        <ele>1140</ele>
        <time>2016-07-30T09:05:56Z</time>
      </trkpt>
      <trkpt lat="47.97427" lon="7.13315">
        <ele>1142</ele>
        <time>2016-07-30T09:06:03Z</time>
      </trkpt>
      <trkpt lat="47.97437" lon="7.13301">
        <ele>1143</ele>
        <time>2016-07-30T09:06:09Z</time>
      </trkpt>
      <trkpt lat="47.97452" lon="7.13276">
        <ele>1144</ele>
        <time>2016-07-30T09:06:20Z</time>
      </trkpt>
      <trkpt lat="47.97462" lon="7.13264">
        <ele>1145</ele>
        <time>2016-07-30T09:06:25Z</time>
      </trkpt>
      <trkpt lat="47.97489" lon="7.13237">
        <ele>1144</ele>
        <time>2016-07-30T09:06:38Z</time>
      </trkpt>
      <trkpt lat="47.97524" lon="7.13208">
        <ele>1144</ele>
        <time>2016-07-30T09:06:52Z</time>
      </trkpt>
      <trkpt lat="47.97543" lon="7.132">
        <ele>1143</ele>
        <time>2016-07-30T09:07:01Z</time>
      </trkpt>
      <trkpt lat="47.97571" lon="7.132">
        <ele>1143</ele>
        <time>2016-07-30T09:07:17Z</time>
      </trkpt>
      <trkpt lat="47.976" lon="7.13196">
        <ele>1146</ele>
        <time>2016-07-30T09:07:34Z</time>
      </trkpt>
      <trkpt lat="47.97622" lon="7.13191">
        <ele>1148</ele>
        <time>2016-07-30T09:07:48Z</time>
      </trkpt>
      <trkpt lat="47.97639" lon="7.13191">
        <ele>1149</ele>
        <time>2016-07-30T09:07:59Z</time>
      </trkpt>
      <trkpt lat="47.97662" lon="7.13183">
        <ele>1150</ele>
        <time>2016-07-30T09:08:14Z</time>
      </trkpt>
      <trkpt lat="47.97705" lon="7.13163">
        <ele>1153</ele>
        <time>2016-07-30T09:08:40Z</time>
      </trkpt>
      <trkpt lat="47.97718" lon="7.13156">
        <ele>1154</ele>
        <time>2016-07-30T09:08:48Z</time>
      </trkpt>
      <trkpt lat="47.97722" lon="7.13152">
        <ele>1154</ele>
        <time>2016-07-30T09:08:54Z</time>
      </trkpt>
      <trkpt lat="47.97727" lon="7.13147">
        <ele>1155</ele>
        <time>2016-07-30T09:09:33Z</time>
      </trkpt>
      <trkpt lat="47.97739" lon="7.13135">
        <ele>1154</ele>
        <time>2016-07-30T09:09:39Z</time>
      </trkpt>
      <trkpt lat="47.97744" lon="7.13129">
        <ele>1154</ele>
        <time>2016-07-30T09:09:42Z</time>
      </trkpt>
      <trkpt lat="47.97757" lon="7.13102">
        <ele>1160</ele>
        <time>2016-07-30T09:09:56Z</time>
      </trkpt>
      <trkpt lat="47.97767" lon="7.13077">
        <ele>1161</ele>
        <time>2016-07-30T09:10:08Z</time>
      </trkpt>
      <trkpt lat="47.97774" lon="7.13024">
        <ele>1164</ele>
        <time>2016-07-30T09:10:32Z</time>
      </trkpt>
      <trkpt lat="47.97773" lon="7.13013">
        <ele>1164</ele>
        <time>2016-07-30T09:10:38Z</time>
      </trkpt>
      <trkpt lat="47.97776" lon="7.12991">
        <ele>1168</ele>
        <time>2016-07-30T09:10:49Z</time>
      </trkpt>
      <trkpt lat="47.97776" lon="7.12983">
        <ele>1168</ele>
        <time>2016-07-30T09:10:53Z</time>
      </trkpt>
      <trkpt lat="47.97778" lon="7.12977">
        <ele>1169</ele>
        <time>2016-07-30T09:10:56Z</time>
      </trkpt>
      <trkpt lat="47.9778" lon="7.12945">
        <ele>1170</ele>
        <time>2016-07-30T09:11:13Z</time>
      </trkpt>
      <trkpt lat="47.97782" lon="7.12937">
        <ele>1171</ele>
        <time>2016-07-30T09:11:18Z</time>
      </trkpt>
      <trkpt lat="47.97785" lon="7.12917">
        <ele>1172</ele>
        <time>2016-07-30T09:11:28Z</time>
      </trkpt>
      <trkpt lat="47.97789" lon="7.12907">
        <ele>1176</ele>
        <time>2016-07-30T09:11:34Z</time>
      </trkpt>
      <trkpt lat="47.97792" lon="7.12901">
        <ele>1177</ele>
        <time>2016-07-30T09:11:38Z</time>
      </trkpt>
      <trkpt lat="47.97796" lon="7.12884">
        <ele>1178</ele>
        <time>2016-07-30T09:11:47Z</time>
      </trkpt>
      <trkpt lat="47.978" lon="7.12858">
        <ele>1180</ele>
        <time>2016-07-30T09:12:01Z</time>
      </trkpt>
      <trkpt lat="47.97814" lon="7.12807">
        <ele>1185</ele>
        <time>2016-07-30T09:12:30Z</time>
      </trkpt>
      <trkpt lat="47.97818" lon="7.12798">
        <ele>1186</ele>
        <time>2016-07-30T09:12:37Z</time>
      </trkpt>
      <trkpt lat="47.97819" lon="7.12787">
        <ele>1186</ele>
        <time>2016-07-30T09:12:42Z</time>
      </trkpt>
      <trkpt lat="47.97821" lon="7.12774">
        <ele>1187</ele>
        <time>2016-07-30T09:12:49Z</time>
      </trkpt>
      <trkpt lat="47.97823" lon="7.12767">
        <ele>1189</ele>
        <time>2016-07-30T09:12:53Z</time>
      </trkpt>
      <trkpt lat="47.97826" lon="7.12754">
        <ele>1192</ele>
        <time>2016-07-30T09:13:00Z</time>
      </trkpt>
      <trkpt lat="47.97832" lon="7.12737">
        <ele>1192</ele>
        <time>2016-07-30T09:13:10Z</time>
      </trkpt>
      <trkpt lat="47.97832" lon="7.12733">
        <ele>1191</ele>
        <time>2016-07-30T09:13:12Z</time>
      </trkpt>
      <trkpt lat="47.97835" lon="7.12725">
        <ele>1205</ele>
        <time>2016-07-30T09:13:17Z</time>
      </trkpt>
      <trkpt lat="47.97838" lon="7.12711">
        <ele>1206</ele>
        <time>2016-07-30T09:13:24Z</time>
      </trkpt>
      <trkpt lat="47.9784" lon="7.12704">
        <ele>1206</ele>
        <time>2016-07-30T09:13:28Z</time>
      </trkpt>
      <trkpt lat="47.97843" lon="7.12687">
        <ele>1205</ele>
        <time>2016-07-30T09:13:36Z</time>
      </trkpt>
      <trkpt lat="47.97852" lon="7.12663">
        <ele>1205</ele>
        <time>2016-07-30T09:13:50Z</time>
      </trkpt>
      <trkpt lat="47.97855" lon="7.1265">
        <ele>1207</ele>
        <time>2016-07-30T09:13:57Z</time>
      </trkpt>
      <trkpt lat="47.97861" lon="7.12635">
        <ele>1209</ele>
        <time>2016-07-30T09:14:05Z</time>
      </trkpt>
      <trkpt lat="47.97868" lon="7.12619">
        <ele>1211</ele>
        <time>2016-07-30T09:14:14Z</time>
      </trkpt>
      <trkpt lat="47.97871" lon="7.12608">
        <ele>1211</ele>
        <time>2016-07-30T09:14:20Z</time>
      </trkpt>
      <trkpt lat="47.97874" lon="7.12599">
        <ele>1212</ele>
        <time>2016-07-30T09:14:25Z</time>
      </trkpt>
      <trkpt lat="47.97879" lon="7.12592">
        <ele>1213</ele>
        <time>2016-07-30T09:14:30Z</time>
      </trkpt>
      <trkpt lat="47.97881" lon="7.12585">
        <ele>1213</ele>
        <time>2016-07-30T09:14:34Z</time>
      </trkpt>
      <trkpt lat="47.97881" lon="7.12585">
        <ele>1213</ele>
        <time>2016-07-30T09:14:35Z</time>
      </trkpt>
      <trkpt lat="47.97888" lon="7.12589">
        <ele>1215</ele>
        <time>2016-07-30T09:15:06Z</time>
      </trkpt>
      <trkpt lat="47.97891" lon="7.12594">
        <ele>1216</ele>
        <time>2016-07-30T09:15:08Z</time>
      </trkpt>
      <trkpt lat="47.97901" lon="7.12626">
        <ele>1216</ele>
        <time>2016-07-30T09:15:22Z</time>
      </trkpt>
      <trkpt lat="47.97906" lon="7.12636">
        <ele>1216</ele>
        <time>2016-07-30T09:15:28Z</time>
      </trkpt>
      <trkpt lat="47.97912" lon="7.12655">
        <ele>1220</ele>
        <time>2016-07-30T09:15:37Z</time>
      </trkpt>
      <trkpt lat="47.97915" lon="7.12674">
        <ele>1221</ele>
        <time>2016-07-30T09:15:47Z</time>
      </trkpt>
      <trkpt lat="47.97921" lon="7.12694">
        <ele>1233</ele>
        <time>2016-07-30T09:15:58Z</time>
      </trkpt>
      <trkpt lat="47.97924" lon="7.127">
        <ele>1234</ele>
        <time>2016-07-30T09:16:01Z</time>
      </trkpt>
      <trkpt lat="47.97933" lon="7.12725">
        <ele>1234</ele>
        <time>2016-07-30T09:16:15Z</time>
      </trkpt>
      <trkpt lat="47.97935" lon="7.12729">
        <ele>1234</ele>
        <time>2016-07-30T09:16:18Z</time>
      </trkpt>
      <trkpt lat="47.97941" lon="7.12744">
        <ele>1234</ele>
        <time>2016-07-30T09:16:27Z</time>
      </trkpt>
      <trkpt lat="47.97941" lon="7.12747">
        <ele>1234</ele>
        <time>2016-07-30T09:16:29Z</time>
      </trkpt>
      <trkpt lat="47.97944" lon="7.12756">
        <ele>1234</ele>
        <time>2016-07-30T09:16:35Z</time>
      </trkpt>
      <trkpt lat="47.97949" lon="7.12764">
        <ele>1235</ele>
        <time>2016-07-30T09:16:41Z</time>
      </trkpt>
      <trkpt lat="47.9795" lon="7.12764">
        <ele>1235</ele>
        <time>2016-07-30T09:16:43Z</time>
      </trkpt>
      <trkpt lat="47.97959" lon="7.12779">
        <ele>1237</ele>
        <time>2016-07-30T09:17:11Z</time>
      </trkpt>
      <trkpt lat="47.97963" lon="7.12798">
        <ele>1237</ele>
        <time>2016-07-30T09:17:19Z</time>
      </trkpt>
      <trkpt lat="47.97973" lon="7.12816">
        <ele>1238</ele>
        <time>2016-07-30T09:17:30Z</time>
      </trkpt>
      <trkpt lat="47.97983" lon="7.12826">
        <ele>1240</ele>
        <time>2016-07-30T09:17:39Z</time>
      </trkpt>
      <trkpt lat="47.97992" lon="7.12833">
        <ele>1242</ele>
        <time>2016-07-30T09:17:48Z</time>
      </trkpt>
      <trkpt lat="47.98011" lon="7.12842">
        <ele>1242</ele>
        <time>2016-07-30T09:18:01Z</time>
      </trkpt>
      <trkpt lat="47.98018" lon="7.12843">
        <ele>1242</ele>
        <time>2016-07-30T09:18:05Z</time>
      </trkpt>
      <trkpt lat="47.98029" lon="7.12839">
        <ele>1242</ele>
        <time>2016-07-30T09:18:12Z</time>
      </trkpt>
      <trkpt lat="47.9804" lon="7.1283">
        <ele>1250</ele>
        <time>2016-07-30T09:18:22Z</time>
      </trkpt>
      <trkpt lat="47.98043" lon="7.12826">
        <ele>1251</ele>
        <time>2016-07-30T09:18:25Z</time>
      </trkpt>
      <trkpt lat="47.98058" lon="7.12761">
        <ele>1254</ele>
        <time>2016-07-30T09:18:57Z</time>
      </trkpt>
      <trkpt lat="47.98061" lon="7.12731">
        <ele>1256</ele>
        <time>2016-07-30T09:19:11Z</time>
      </trkpt>
      <trkpt lat="47.98062" lon="7.12646">
        <ele>1257</ele>
        <time>2016-07-30T09:19:40Z</time>
      </trkpt>
      <trkpt lat="47.98064" lon="7.12635">
        <ele>1257</ele>
        <time>2016-07-30T09:19:45Z</time>
      </trkpt>
      <trkpt lat="47.98063" lon="7.12627">
        <ele>1258</ele>
        <time>2016-07-30T09:19:51Z</time>
      </trkpt>
      <trkpt lat="47.98062" lon="7.12627">
        <ele>1258</ele>
        <time>2016-07-30T09:19:53Z</time>
      </trkpt>
      <trkpt lat="47.98062" lon="7.12626">
        <ele>1258</ele>
        <time>2016-07-30T09:19:54Z</time>
      </trkpt>
      <trkpt lat="47.98063" lon="7.12616">
        <ele>1258</ele>
        <time>2016-07-30T09:27:45Z</time>
      </trkpt>
      <trkpt lat="47.9806" lon="7.12607">
        <ele>1258</ele>
        <time>2016-07-30T09:27:52Z</time>
      </trkpt>
      <trkpt lat="47.98059" lon="7.12592">
        <ele>1259</ele>
        <time>2016-07-30T09:28:41Z</time>
      </trkpt>
      <trkpt lat="47.98061" lon="7.12566">
        <ele>1258</ele>
        <time>2016-07-30T09:28:52Z</time>
      </trkpt>
      <trkpt lat="47.98058" lon="7.12545">
        <ele>1257</ele>
        <time>2016-07-30T09:28:58Z</time>
      </trkpt>
      <trkpt lat="47.98062" lon="7.12527">
        <ele>1256</ele>
        <time>2016-07-30T09:29:02Z</time>
      </trkpt>
      <trkpt lat="47.98066" lon="7.12508">
        <ele>1257</ele>
        <time>2016-07-30T09:29:05Z</time>
      </trkpt>
      <trkpt lat="47.98065" lon="7.12502">
        <ele>1256</ele>
        <time>2016-07-30T09:29:06Z</time>
      </trkpt>
      <trkpt lat="47.9806" lon="7.12483">
        <ele>1250</ele>
        <time>2016-07-30T09:29:08Z</time>
      </trkpt>
      <trkpt lat="47.98051" lon="7.12462">
        <ele>1247</ele>
        <time>2016-07-30T09:29:10Z</time>
      </trkpt>
      <trkpt lat="47.98048" lon="7.12451">
        <ele>1246</ele>
        <time>2016-07-30T09:29:11Z</time>
      </trkpt>
      <trkpt lat="47.98033" lon="7.12382">
        <ele>1231</ele>
        <time>2016-07-30T09:29:17Z</time>
      </trkpt>
      <trkpt lat="47.98029" lon="7.12345">
        <ele>1227</ele>
        <time>2016-07-30T09:29:20Z</time>
      </trkpt>
      <trkpt lat="47.98019" lon="7.12287">
        <ele>1215</ele>
        <time>2016-07-30T09:29:25Z</time>
      </trkpt>
      <trkpt lat="47.98014" lon="7.12241">
        <ele>1206</ele>
        <time>2016-07-30T09:29:29Z</time>
      </trkpt>
      <trkpt lat="47.98009" lon="7.12218">
        <ele>1204</ele>
        <time>2016-07-30T09:29:32Z</time>
      </trkpt>
      <trkpt lat="47.9801" lon="7.12203">
        <ele>1202</ele>
        <time>2016-07-30T09:29:34Z</time>
      </trkpt>
      <trkpt lat="47.98009" lon="7.12193">
        <ele>1201</ele>
        <time>2016-07-30T09:29:36Z</time>
      </trkpt>
      <trkpt lat="47.98007" lon="7.12189">
        <ele>1201</ele>
        <time>2016-07-30T09:29:38Z</time>
      </trkpt>
      <trkpt lat="47.98007" lon="7.12189">
        <ele>1201</ele>
        <time>2016-07-30T09:29:39Z</time>
      </trkpt>
      <trkpt lat="47.98007" lon="7.12193">
        <ele>1202</ele>
        <time>2016-07-30T09:37:52Z</time>
      </trkpt>
      <trkpt lat="47.98007" lon="7.12189">
        <ele>1201</ele>
        <time>2016-07-30T09:37:53Z</time>
      </trkpt>
      <trkpt lat="47.97996" lon="7.12158">
        <ele>1200</ele>
        <time>2016-07-30T09:37:57Z</time>
      </trkpt>
      <trkpt lat="47.97975" lon="7.12104">
        <ele>1199</ele>
        <time>2016-07-30T09:38:04Z</time>
      </trkpt>
      <trkpt lat="47.97957" lon="7.1206">
        <ele>1196</ele>
        <time>2016-07-30T09:38:14Z</time>
      </trkpt>
      <trkpt lat="47.97902" lon="7.11961">
        <ele>1201</ele>
        <time>2016-07-30T09:38:32Z</time>
      </trkpt>
      <trkpt lat="47.97877" lon="7.11923">
        <ele>1202</ele>
        <time>2016-07-30T09:38:38Z</time>
      </trkpt>
      <trkpt lat="47.97855" lon="7.11877">
        <ele>1198</ele>
        <time>2016-07-30T09:38:45Z</time>
      </trkpt>
      <trkpt lat="47.97852" lon="7.11836">
        <ele>1198</ele>
        <time>2016-07-30T09:38:50Z</time>
      </trkpt>
      <trkpt lat="47.97858" lon="7.11791">
        <ele>1194</ele>
        <time>2016-07-30T09:38:56Z</time>
      </trkpt>
      <trkpt lat="47.97874" lon="7.11705">
        <ele>1195</ele>
        <time>2016-07-30T09:39:07Z</time>
      </trkpt>
      <trkpt lat="47.9788" lon="7.11666">
        <ele>1199</ele>
        <time>2016-07-30T09:39:13Z</time>
      </trkpt>
      <trkpt lat="47.97886" lon="7.11636">
        <ele>1199</ele>
        <time>2016-07-30T09:39:19Z</time>
      </trkpt>
      <trkpt lat="47.97895" lon="7.11598">
        <ele>1197</ele>
        <time>2016-07-30T09:39:26Z</time>
      </trkpt>
      <trkpt lat="47.97896" lon="7.11542">
        <ele>1199</ele>
        <time>2016-07-30T09:39:35Z</time>
      </trkpt>
      <trkpt lat="47.97899" lon="7.11531">
        <ele>1198</ele>
        <time>2016-07-30T09:39:37Z</time>
      </trkpt>
      <trkpt lat="47.979" lon="7.11522">
        <ele>1196</ele>
        <time>2016-07-30T09:39:38Z</time>
      </trkpt>
      <trkpt lat="47.97896" lon="7.1148">
        <ele>1193</ele>
        <time>2016-07-30T09:39:42Z</time>
      </trkpt>
      <trkpt lat="47.97897" lon="7.1147">
        <ele>1194</ele>
        <time>2016-07-30T09:39:43Z</time>
      </trkpt>
      <trkpt lat="47.97895" lon="7.11447">
        <ele>1193</ele>
        <time>2016-07-30T09:39:45Z</time>
      </trkpt>
      <trkpt lat="47.97887" lon="7.11405">
        <ele>1187</ele>
        <time>2016-07-30T09:39:49Z</time>
      </trkpt>
      <trkpt lat="47.97877" lon="7.11363">
        <ele>1188</ele>
        <time>2016-07-30T09:39:53Z</time>
      </trkpt>
      <trkpt lat="47.97872" lon="7.11331">
        <ele>1183</ele>
        <time>2016-07-30T09:39:56Z</time>
      </trkpt>
      <trkpt lat="47.97866" lon="7.11314">
        <ele>1184</ele>
        <time>2016-07-30T09:39:58Z</time>
      </trkpt>
      <trkpt lat="47.97855" lon="7.11293">
        <ele>1185</ele>
        <time>2016-07-30T09:40:01Z</time>
      </trkpt>
      <trkpt lat="47.97851" lon="7.11279">
        <ele>1185</ele>
        <time>2016-07-30T09:40:03Z</time>
      </trkpt>
      <trkpt lat="47.97849" lon="7.11258">
        <ele>1187</ele>
        <time>2016-07-30T09:40:06Z</time>
      </trkpt>
      <trkpt lat="47.97844" lon="7.11237">
        <ele>1184</ele>
        <time>2016-07-30T09:40:09Z</time>
      </trkpt>
      <trkpt lat="47.97836" lon="7.11186">
        <ele>1180</ele>
        <time>2016-07-30T09:40:16Z</time>
      </trkpt>
      <trkpt lat="47.97839" lon="7.11179">
        <ele>1181</ele>
        <time>2016-07-30T09:40:17Z</time>
      </trkpt>
      <trkpt lat="47.97836" lon="7.11166">
        <ele>1184</ele>
        <time>2016-07-30T09:40:20Z</time>
      </trkpt>
      <trkpt lat="47.97822" lon="7.11146">
        <ele>1193</ele>
        <time>2016-07-30T09:40:30Z</time>
      </trkpt>
      <trkpt lat="47.97809" lon="7.1112">
        <ele>1194</ele>
        <time>2016-07-30T09:40:39Z</time>
      </trkpt>
      <trkpt lat="47.97804" lon="7.11106">
        <ele>1194</ele>
        <time>2016-07-30T09:40:43Z</time>
      </trkpt>
      <trkpt lat="47.97792" lon="7.11081">
        <ele>1190</ele>
        <time>2016-07-30T09:40:50Z</time>
      </trkpt>
      <trkpt lat="47.97787" lon="7.1106">
        <ele>1190</ele>
        <time>2016-07-30T09:40:56Z</time>
      </trkpt>
      <trkpt lat="47.97786" lon="7.11052">
        <ele>1190</ele>
        <time>2016-07-30T09:40:58Z</time>
      </trkpt>
      <trkpt lat="47.97781" lon="7.11032">
        <ele>1189</ele>
        <time>2016-07-30T09:41:03Z</time>
      </trkpt>
      <trkpt lat="47.97777" lon="7.11008">
        <ele>1189</ele>
        <time>2016-07-30T09:41:07Z</time>
      </trkpt>
      <trkpt lat="47.97767" lon="7.10953">
        <ele>1185</ele>
        <time>2016-07-30T09:41:16Z</time>
      </trkpt>
      <trkpt lat="47.97758" lon="7.10928">
        <ele>1188</ele>
        <time>2016-07-30T09:41:20Z</time>
      </trkpt>
      <trkpt lat="47.97741" lon="7.10892">
        <ele>1193</ele>
        <time>2016-07-30T09:41:29Z</time>
      </trkpt>
      <trkpt lat="47.9773" lon="7.10863">
        <ele>1192</ele>
        <time>2016-07-30T09:41:37Z</time>
      </trkpt>
      <trkpt lat="47.9772" lon="7.10833">
        <ele>1189</ele>
        <time>2016-07-30T09:41:44Z</time>
      </trkpt>
      <trkpt lat="47.97716" lon="7.10814">
        <ele>1190</ele>
        <time>2016-07-30T09:41:49Z</time>
      </trkpt>
      <trkpt lat="47.97711" lon="7.10805">
        <ele>1191</ele>
        <time>2016-07-30T09:41:53Z</time>
      </trkpt>
      <trkpt lat="47.97708" lon="7.10795">
        <ele>1191</ele>
        <time>2016-07-30T09:41:57Z</time>
      </trkpt>
      <trkpt lat="47.97701" lon="7.10786">
        <ele>1192</ele>
        <time>2016-07-30T09:42:03Z</time>
      </trkpt>
      <trkpt lat="47.97702" lon="7.10783">
        <ele>1192</ele>
        <time>2016-07-30T09:42:05Z</time>
      </trkpt>
      <trkpt lat="47.97697" lon="7.1077">
        <ele>1193</ele>
        <time>2016-07-30T09:42:12Z</time>
      </trkpt>
      <trkpt lat="47.97692" lon="7.10763">
        <ele>1194</ele>
        <time>2016-07-30T09:42:16Z</time>
      </trkpt>
      <trkpt lat="47.97691" lon="7.10761">
        <ele>1195</ele>
        <time>2016-07-30T09:42:17Z</time>
      </trkpt>
      <trkpt lat="47.9768" lon="7.10748">
        <ele>1196</ele>
        <time>2016-07-30T09:42:24Z</time>
      </trkpt>
      <trkpt lat="47.97678" lon="7.10742">
        <ele>1196</ele>
        <time>2016-07-30T09:42:27Z</time>
      </trkpt>
      <trkpt lat="47.97647" lon="7.10671">
        <ele>1201</ele>
        <time>2016-07-30T09:42:56Z</time>
      </trkpt>
      <trkpt lat="47.97631" lon="7.10647">
        <ele>1197</ele>
        <time>2016-07-30T09:43:05Z</time>
      </trkpt>
      <trkpt lat="47.97626" lon="7.10648">
        <ele>1197</ele>
        <time>2016-07-30T09:43:08Z</time>
      </trkpt>
      <trkpt lat="47.97613" lon="7.10639">
        <ele>1199</ele>
        <time>2016-07-30T09:43:15Z</time>
      </trkpt>
      <trkpt lat="47.97603" lon="7.10629">
        <ele>1199</ele>
        <time>2016-07-30T09:43:20Z</time>
      </trkpt>
      <trkpt lat="47.97596" lon="7.10624">
        <ele>1199</ele>
        <time>2016-07-30T09:43:24Z</time>
      </trkpt>
      <trkpt lat="47.97585" lon="7.10614">
        <ele>1199</ele>
        <time>2016-07-30T09:43:29Z</time>
      </trkpt>
      <trkpt lat="47.97565" lon="7.10602">
        <ele>1206</ele>
        <time>2016-07-30T09:43:37Z</time>
      </trkpt>
      <trkpt lat="47.97552" lon="7.1059">
        <ele>1207</ele>
        <time>2016-07-30T09:43:43Z</time>
      </trkpt>
      <trkpt lat="47.97524" lon="7.10575">
        <ele>1203</ele>
        <time>2016-07-30T09:43:56Z</time>
      </trkpt>
      <trkpt lat="47.97524" lon="7.10575">
        <ele>1203</ele>
        <time>2016-07-30T09:43:57Z</time>
      </trkpt>
      <trkpt lat="47.97518" lon="7.1057">
        <ele>1203</ele>
        <time>2016-07-30T09:44:34Z</time>
      </trkpt>
      <trkpt lat="47.97488" lon="7.10549">
        <ele>1205</ele>
        <time>2016-07-30T09:44:41Z</time>
      </trkpt>
      <trkpt lat="47.97474" lon="7.10542">
        <ele>1205</ele>
        <time>2016-07-30T09:44:47Z</time>
      </trkpt>
      <trkpt lat="47.97449" lon="7.10519">
        <ele>1203</ele>
        <time>2016-07-30T09:44:56Z</time>
      </trkpt>
      <trkpt lat="47.97431" lon="7.10513">
        <ele>1202</ele>
        <time>2016-07-30T09:45:05Z</time>
      </trkpt>
      <trkpt lat="47.97427" lon="7.10513">
        <ele>1202</ele>
        <time>2016-07-30T09:45:08Z</time>
      </trkpt>
      <trkpt lat="47.97426" lon="7.10514">
        <ele>1202</ele>
        <time>2016-07-30T09:45:10Z</time>
      </trkpt>
      <trkpt lat="47.9742" lon="7.1051">
        <ele>1201</ele>
        <time>2016-07-30T09:45:24Z</time>
      </trkpt>
      <trkpt lat="47.974" lon="7.10497">
        <ele>1198</ele>
        <time>2016-07-30T09:45:32Z</time>
      </trkpt>
      <trkpt lat="47.97389" lon="7.10486">
        <ele>1198</ele>
        <time>2016-07-30T09:45:38Z</time>
      </trkpt>
      <trkpt lat="47.97383" lon="7.10483">
        <ele>1198</ele>
        <time>2016-07-30T09:45:44Z</time>
      </trkpt>
      <trkpt lat="47.97359" lon="7.10461">
        <ele>1198</ele>
        <time>2016-07-30T09:46:34Z</time>
      </trkpt>
      <trkpt lat="47.97355" lon="7.10457">
        <ele>1198</ele>
        <time>2016-07-30T09:46:37Z</time>
      </trkpt>
      <trkpt lat="47.97353" lon="7.10456">
        <ele>1198</ele>
        <time>2016-07-30T09:46:40Z</time>
      </trkpt>
      <trkpt lat="47.97341" lon="7.10446">
        <ele>1197</ele>
        <time>2016-07-30T09:47:36Z</time>
      </trkpt>
      <trkpt lat="47.97338" lon="7.10442">
        <ele>1197</ele>
        <time>2016-07-30T09:47:40Z</time>
      </trkpt>
      <trkpt lat="47.97326" lon="7.10431">
        <ele>1196</ele>
        <time>2016-07-30T09:48:15Z</time>
      </trkpt>
      <trkpt lat="47.97323" lon="7.1043">
        <ele>1196</ele>
        <time>2016-07-30T09:48:18Z</time>
      </trkpt>
      <trkpt lat="47.97318" lon="7.10428">
        <ele>1195</ele>
        <time>2016-07-30T09:48:23Z</time>
      </trkpt>
      <trkpt lat="47.97305" lon="7.10426">
        <ele>1195</ele>
        <time>2016-07-30T09:48:29Z</time>
      </trkpt>
      <trkpt lat="47.97299" lon="7.10429">
        <ele>1195</ele>
        <time>2016-07-30T09:48:33Z</time>
      </trkpt>
      <trkpt lat="47.97289" lon="7.10427">
        <ele>1194</ele>
        <time>2016-07-30T09:48:47Z</time>
      </trkpt>
      <trkpt lat="47.97282" lon="7.10429">
        <ele>1193</ele>
        <time>2016-07-30T09:48:51Z</time>
      </trkpt>
      <trkpt lat="47.97272" lon="7.10428">
        <ele>1192</ele>
        <time>2016-07-30T09:48:55Z</time>
      </trkpt>
      <trkpt lat="47.9727" lon="7.10428">
        <ele>1191</ele>
        <time>2016-07-30T09:48:58Z</time>
      </trkpt>
      <trkpt lat="47.97238" lon="7.10436">
        <ele>1181</ele>
        <time>2016-07-30T09:50:55Z</time>
      </trkpt>
      <trkpt lat="47.97219" lon="7.10441">
        <ele>1179</ele>
        <time>2016-07-30T09:51:06Z</time>
      </trkpt>
      <trkpt lat="47.97219" lon="7.10442">
        <ele>1179</ele>
        <time>2016-07-30T09:51:08Z</time>
      </trkpt>
      <trkpt lat="47.97205" lon="7.10413">
        <ele>1170</ele>
        <time>2016-07-30T09:52:05Z</time>
      </trkpt>
      <trkpt lat="47.97204" lon="7.10404">
        <ele>1169</ele>
        <time>2016-07-30T09:52:07Z</time>
      </trkpt>
      <trkpt lat="47.97204" lon="7.10399">
        <ele>1169</ele>
        <time>2016-07-30T09:52:08Z</time>
      </trkpt>
      <trkpt lat="47.97206" lon="7.10379">
        <ele>1168</ele>
        <time>2016-07-30T09:52:12Z</time>
      </trkpt>
      <trkpt lat="47.97207" lon="7.10377">
        <ele>1168</ele>
        <time>2016-07-30T09:52:13Z</time>
      </trkpt>
      <trkpt lat="47.97205" lon="7.10363">
        <ele>1167</ele>
        <time>2016-07-30T09:52:17Z</time>
      </trkpt>
      <trkpt lat="47.97209" lon="7.10351">
        <ele>1166</ele>
        <time>2016-07-30T09:52:20Z</time>
      </trkpt>
      <trkpt lat="47.97209" lon="7.10347">
        <ele>1166</ele>
        <time>2016-07-30T09:52:21Z</time>
      </trkpt>
      <trkpt lat="47.97206" lon="7.10342">
        <ele>1165</ele>
        <time>2016-07-30T09:52:23Z</time>
      </trkpt>
      <trkpt lat="47.97202" lon="7.1034">
        <ele>1165</ele>
        <time>2016-07-30T09:52:26Z</time>
      </trkpt>
      <trkpt lat="47.97196" lon="7.10321">
        <ele>1157</ele>
        <time>2016-07-30T09:52:33Z</time>
      </trkpt>
      <trkpt lat="47.97192" lon="7.10314">
        <ele>1157</ele>
        <time>2016-07-30T09:52:35Z</time>
      </trkpt>
      <trkpt lat="47.97192" lon="7.10307">
        <ele>1156</ele>
        <time>2016-07-30T09:52:37Z</time>
      </trkpt>
      <trkpt lat="47.97185" lon="7.10292">
        <ele>1155</ele>
        <time>2016-07-30T09:52:42Z</time>
      </trkpt>
      <trkpt lat="47.97183" lon="7.1029">
        <ele>1155</ele>
        <time>2016-07-30T09:52:44Z</time>
      </trkpt>
      <trkpt lat="47.97178" lon="7.10285">
        <ele>1155</ele>
        <time>2016-07-30T09:53:15Z</time>
      </trkpt>
      <trkpt lat="47.97172" lon="7.10273">
        <ele>1154</ele>
        <time>2016-07-30T09:53:17Z</time>
      </trkpt>
      <trkpt lat="47.97163" lon="7.10263">
        <ele>1148</ele>
        <time>2016-07-30T09:53:19Z</time>
      </trkpt>
      <trkpt lat="47.9715" lon="7.10241">
        <ele>1145</ele>
        <time>2016-07-30T09:53:23Z</time>
      </trkpt>
      <trkpt lat="47.97138" lon="7.10214">
        <ele>1142</ele>
        <time>2016-07-30T09:53:27Z</time>
      </trkpt>
      <trkpt lat="47.97134" lon="7.10201">
        <ele>1142</ele>
        <time>2016-07-30T09:53:29Z</time>
      </trkpt>
      <trkpt lat="47.97106" lon="7.10144">
        <ele>1137</ele>
        <time>2016-07-30T09:53:40Z</time>
      </trkpt>
      <trkpt lat="47.97103" lon="7.10136">
        <ele>1137</ele>
        <time>2016-07-30T09:53:42Z</time>
      </trkpt>
      <trkpt lat="47.97094" lon="7.1012">
        <ele>1137</ele>
        <time>2016-07-30T09:53:45Z</time>
      </trkpt>
      <trkpt lat="47.97076" lon="7.10078">
        <ele>1131</ele>
        <time>2016-07-30T09:53:50Z</time>
      </trkpt>
      <trkpt lat="47.97066" lon="7.10053">
        <ele>1127</ele>
        <time>2016-07-30T09:53:53Z</time>
      </trkpt>
      <trkpt lat="47.97052" lon="7.10029">
        <ele>1125</ele>
        <time>2016-07-30T09:53:56Z</time>
      </trkpt>
      <trkpt lat="47.97044" lon="7.10011">
        <ele>1125</ele>
        <time>2016-07-30T09:53:58Z</time>
      </trkpt>
      <trkpt lat="47.9703" lon="7.09982">
        <ele>1122</ele>
        <time>2016-07-30T09:54:01Z</time>
      </trkpt>
      <trkpt lat="47.97014" lon="7.09946">
        <ele>1122</ele>
        <time>2016-07-30T09:54:05Z</time>
      </trkpt>
      <trkpt lat="47.97009" lon="7.09923">
        <ele>1123</ele>
        <time>2016-07-30T09:54:08Z</time>
      </trkpt>
      <trkpt lat="47.96999" lon="7.09901">
        <ele>1121</ele>
        <time>2016-07-30T09:54:13Z</time>
      </trkpt>
      <trkpt lat="47.96983" lon="7.09879">
        <ele>1120</ele>
        <time>2016-07-30T09:54:18Z</time>
      </trkpt>
      <trkpt lat="47.96978" lon="7.09862">
        <ele>1120</ele>
        <time>2016-07-30T09:54:21Z</time>
      </trkpt>
      <trkpt lat="47.96963" lon="7.09835">
        <ele>1120</ele>
        <time>2016-07-30T09:54:25Z</time>
      </trkpt>
      <trkpt lat="47.9696" lon="7.09827">
        <ele>1120</ele>
        <time>2016-07-30T09:54:26Z</time>
      </trkpt>
      <trkpt lat="47.96945" lon="7.09798">
        <ele>1120</ele>
        <time>2016-07-30T09:54:30Z</time>
      </trkpt>
      <trkpt lat="47.96937" lon="7.09787">
        <ele>1120</ele>
        <time>2016-07-30T09:54:32Z</time>
      </trkpt>
      <trkpt lat="47.9693" lon="7.09773">
        <ele>1120</ele>
        <time>2016-07-30T09:54:36Z</time>
      </trkpt>
      <trkpt lat="47.96926" lon="7.09756">
        <ele>1121</ele>
        <time>2016-07-30T09:54:43Z</time>
      </trkpt>
      <trkpt lat="47.96924" lon="7.09748">
        <ele>1121</ele>
        <time>2016-07-30T09:55:57Z</time>
      </trkpt>
      <trkpt lat="47.96912" lon="7.09727">
        <ele>1124</ele>
        <time>2016-07-30T09:56:02Z</time>
      </trkpt>
      <trkpt lat="47.96909" lon="7.09716">
        <ele>1124</ele>
        <time>2016-07-30T09:56:06Z</time>
      </trkpt>
      <trkpt lat="47.96896" lon="7.0969">
        <ele>1125</ele>
        <time>2016-07-30T09:56:18Z</time>
      </trkpt>
      <trkpt lat="47.96892" lon="7.09688">
        <ele>1125</ele>
        <time>2016-07-30T09:56:20Z</time>
      </trkpt>
      <trkpt lat="47.96879" lon="7.09655">
        <ele>1131</ele>
        <time>2016-07-30T09:56:34Z</time>
      </trkpt>
      <trkpt lat="47.96876" lon="7.09649">
        <ele>1131</ele>
        <time>2016-07-30T09:56:37Z</time>
      </trkpt>
      <trkpt lat="47.96873" lon="7.0964">
        <ele>1131</ele>
        <time>2016-07-30T09:56:43Z</time>
      </trkpt>
      <trkpt lat="47.96866" lon="7.09622">
        <ele>1133</ele>
        <time>2016-07-30T09:56:52Z</time>
      </trkpt>
      <trkpt lat="47.96861" lon="7.09615">
        <ele>1133</ele>
        <time>2016-07-30T09:56:57Z</time>
      </trkpt>
      <trkpt lat="47.96858" lon="7.09612">
        <ele>1134</ele>
        <time>2016-07-30T09:57:01Z</time>
      </trkpt>
      <trkpt lat="47.96857" lon="7.09607">
        <ele>1134</ele>
        <time>2016-07-30T09:57:06Z</time>
      </trkpt>
      <trkpt lat="47.96853" lon="7.09602">
        <ele>1135</ele>
        <time>2016-07-30T09:57:13Z</time>
      </trkpt>
      <trkpt lat="47.96848" lon="7.09588">
        <ele>1137</ele>
        <time>2016-07-30T09:57:30Z</time>
      </trkpt>
      <trkpt lat="47.96837" lon="7.09571">
        <ele>1140</ele>
        <time>2016-07-30T09:57:54Z</time>
      </trkpt>
      <trkpt lat="47.96828" lon="7.09548">
        <ele>1145</ele>
        <time>2016-07-30T09:58:10Z</time>
      </trkpt>
      <trkpt lat="47.96824" lon="7.09539">
        <ele>1146</ele>
        <time>2016-07-30T09:58:18Z</time>
      </trkpt>
      <trkpt lat="47.96823" lon="7.09535">
        <ele>1146</ele>
        <time>2016-07-30T09:58:23Z</time>
      </trkpt>
      <trkpt lat="47.96818" lon="7.09533">
        <ele>1146</ele>
        <time>2016-07-30T09:58:29Z</time>
      </trkpt>
      <trkpt lat="47.96815" lon="7.09527">
        <ele>1147</ele>
        <time>2016-07-30T09:58:37Z</time>
      </trkpt>
      <trkpt lat="47.96811" lon="7.09525">
        <ele>1147</ele>
        <time>2016-07-30T09:58:45Z</time>
      </trkpt>
      <trkpt lat="47.96804" lon="7.09516">
        <ele>1147</ele>
        <time>2016-07-30T09:58:51Z</time>
      </trkpt>
      <trkpt lat="47.96797" lon="7.09506">
        <ele>1148</ele>
        <time>2016-07-30T09:58:57Z</time>
      </trkpt>
      <trkpt lat="47.96786" lon="7.09491">
        <ele>1153</ele>
        <time>2016-07-30T09:59:06Z</time>
      </trkpt>
      <trkpt lat="47.96783" lon="7.09484">
        <ele>1154</ele>
        <time>2016-07-30T09:59:09Z</time>
      </trkpt>
      <trkpt lat="47.96776" lon="7.09477">
        <ele>1154</ele>
        <time>2016-07-30T09:59:13Z</time>
      </trkpt>
      <trkpt lat="47.96774" lon="7.09473">
        <ele>1154</ele>
        <time>2016-07-30T09:59:15Z</time>
      </trkpt>
      <trkpt lat="47.96768" lon="7.09467">
        <ele>1154</ele>
        <time>2016-07-30T09:59:19Z</time>
      </trkpt>
      <trkpt lat="47.96758" lon="7.09455">
        <ele>1155</ele>
        <time>2016-07-30T09:59:26Z</time>
      </trkpt>
      <trkpt lat="47.96756" lon="7.09448">
        <ele>1156</ele>
        <time>2016-07-30T09:59:29Z</time>
      </trkpt>
      <trkpt lat="47.96752" lon="7.09446">
        <ele>1156</ele>
        <time>2016-07-30T09:59:32Z</time>
      </trkpt>
      <trkpt lat="47.9675" lon="7.09441">
        <ele>1156</ele>
        <time>2016-07-30T09:59:35Z</time>
      </trkpt>
      <trkpt lat="47.96743" lon="7.09429">
        <ele>1158</ele>
        <time>2016-07-30T09:59:42Z</time>
      </trkpt>
      <trkpt lat="47.96739" lon="7.09426">
        <ele>1158</ele>
        <time>2016-07-30T09:59:45Z</time>
      </trkpt>
      <trkpt lat="47.9673" lon="7.09405">
        <ele>1162</ele>
        <time>2016-07-30T09:59:55Z</time>
      </trkpt>
      <trkpt lat="47.96728" lon="7.09403">
        <ele>1163</ele>
        <time>2016-07-30T09:59:57Z</time>
      </trkpt>
      <trkpt lat="47.96725" lon="7.09402">
        <ele>1163</ele>
        <time>2016-07-30T10:00:01Z</time>
      </trkpt>
      <trkpt lat="47.96685" lon="7.09339">
        <ele>1168</ele>
        <time>2016-07-30T10:01:17Z</time>
      </trkpt>
      <trkpt lat="47.96675" lon="7.09318">
        <ele>1170</ele>
        <time>2016-07-30T10:01:25Z</time>
      </trkpt>
      <trkpt lat="47.9667" lon="7.09302">
        <ele>1170</ele>
        <time>2016-07-30T10:01:33Z</time>
      </trkpt>
      <trkpt lat="47.96669" lon="7.09297">
        <ele>1170</ele>
        <time>2016-07-30T10:01:35Z</time>
      </trkpt>
      <trkpt lat="47.96666" lon="7.09291">
        <ele>1174</ele>
        <time>2016-07-30T10:01:38Z</time>
      </trkpt>
      <trkpt lat="47.9666" lon="7.09276">
        <ele>1175</ele>
        <time>2016-07-30T10:01:46Z</time>
      </trkpt>
      <trkpt lat="47.96657" lon="7.09273">
        <ele>1175</ele>
        <time>2016-07-30T10:01:48Z</time>
      </trkpt>
      <trkpt lat="47.96656" lon="7.09263">
        <ele>1176</ele>
        <time>2016-07-30T10:01:50Z</time>
      </trkpt>
      <trkpt lat="47.96656" lon="7.09246">
        <ele>1180</ele>
        <time>2016-07-30T10:01:58Z</time>
      </trkpt>
      <trkpt lat="47.96653" lon="7.09238">
        <ele>1181</ele>
        <time>2016-07-30T10:02:01Z</time>
      </trkpt>
      <trkpt lat="47.96649" lon="7.09235">
        <ele>1181</ele>
        <time>2016-07-30T10:02:05Z</time>
      </trkpt>
      <trkpt lat="47.96649" lon="7.09234">
        <ele>1181</ele>
        <time>2016-07-30T10:02:06Z</time>
      </trkpt>
      <trkpt lat="47.9658" lon="7.09025">
        <ele>1211</ele>
        <time>2016-07-30T10:05:44Z</time>
      </trkpt>
      <trkpt lat="47.96579" lon="7.09022">
        <ele>1211</ele>
        <time>2016-07-30T10:05:46Z</time>
      </trkpt>
      <trkpt lat="47.96577" lon="7.09022">
        <ele>1211</ele>
        <time>2016-07-30T10:05:50Z</time>
      </trkpt>
      <trkpt lat="47.9656" lon="7.08962">
        <ele>1218</ele>
        <time>2016-07-30T10:06:43Z</time>
      </trkpt>
      <trkpt lat="47.9656" lon="7.0896">
        <ele>1218</ele>
        <time>2016-07-30T10:06:44Z</time>
      </trkpt>
      <trkpt lat="47.96549" lon="7.08939">
        <ele>1219</ele>
        <time>2016-07-30T10:06:54Z</time>
      </trkpt>
      <trkpt lat="47.96545" lon="7.08937">
        <ele>1220</ele>
        <time>2016-07-30T10:06:58Z</time>
      </trkpt>
      <trkpt lat="47.96539" lon="7.08928">
        <ele>1220</ele>
        <time>2016-07-30T10:07:06Z</time>
      </trkpt>
      <trkpt lat="47.96533" lon="7.08915">
        <ele>1227</ele>
        <time>2016-07-30T10:07:15Z</time>
      </trkpt>
      <trkpt lat="47.96526" lon="7.08907">
        <ele>1227</ele>
        <time>2016-07-30T10:07:22Z</time>
      </trkpt>
      <trkpt lat="47.96521" lon="7.08905">
        <ele>1227</ele>
        <time>2016-07-30T10:07:25Z</time>
      </trkpt>
      <trkpt lat="47.96512" lon="7.08897">
        <ele>1228</ele>
        <time>2016-07-30T10:07:32Z</time>
      </trkpt>
      <trkpt lat="47.96505" lon="7.08896">
        <ele>1228</ele>
        <time>2016-07-30T10:07:38Z</time>
      </trkpt>
      <trkpt lat="47.96503" lon="7.08896">
        <ele>1228</ele>
        <time>2016-07-30T10:07:39Z</time>
      </trkpt>
      <trkpt lat="47.96495" lon="7.08887">
        <ele>1231</ele>
        <time>2016-07-30T10:07:44Z</time>
      </trkpt>
      <trkpt lat="47.96489" lon="7.08886">
        <ele>1231</ele>
        <time>2016-07-30T10:07:47Z</time>
      </trkpt>
      <trkpt lat="47.96474" lon="7.08881">
        <ele>1231</ele>
        <time>2016-07-30T10:07:55Z</time>
      </trkpt>
      <trkpt lat="47.96471" lon="7.08882">
        <ele>1231</ele>
        <time>2016-07-30T10:07:56Z</time>
      </trkpt>
      <trkpt lat="47.96464" lon="7.08879">
        <ele>1231</ele>
        <time>2016-07-30T10:08:01Z</time>
      </trkpt>
      <trkpt lat="47.96456" lon="7.08871">
        <ele>1232</ele>
        <time>2016-07-30T10:08:08Z</time>
      </trkpt>
      <trkpt lat="47.96455" lon="7.08868">
        <ele>1232</ele>
        <time>2016-07-30T10:08:10Z</time>
      </trkpt>
      <trkpt lat="47.96455" lon="7.08866">
        <ele>1232</ele>
        <time>2016-07-30T10:08:13Z</time>
      </trkpt>
      <trkpt lat="47.96419" lon="7.08799">
        <ele>1245</ele>
        <time>2016-07-30T10:09:46Z</time>
      </trkpt>
      <trkpt lat="47.96407" lon="7.08785">
        <ele>1241</ele>
        <time>2016-07-30T10:09:54Z</time>
      </trkpt>
      <trkpt lat="47.96404" lon="7.0878">
        <ele>1241</ele>
        <time>2016-07-30T10:09:56Z</time>
      </trkpt>
      <trkpt lat="47.96393" lon="7.08769">
        <ele>1242</ele>
        <time>2016-07-30T10:10:03Z</time>
      </trkpt>
      <trkpt lat="47.96381" lon="7.08754">
        <ele>1241</ele>
        <time>2016-07-30T10:10:11Z</time>
      </trkpt>
      <trkpt lat="47.96375" lon="7.08743">
        <ele>1248</ele>
        <time>2016-07-30T10:10:18Z</time>
      </trkpt>
      <trkpt lat="47.9637" lon="7.08738">
        <ele>1248</ele>
        <time>2016-07-30T10:10:24Z</time>
      </trkpt>
      <trkpt lat="47.96363" lon="7.08729">
        <ele>1248</ele>
        <time>2016-07-30T10:10:28Z</time>
      </trkpt>
      <trkpt lat="47.96353" lon="7.08711">
        <ele>1249</ele>
        <time>2016-07-30T10:10:35Z</time>
      </trkpt>
      <trkpt lat="47.96348" lon="7.08707">
        <ele>1249</ele>
        <time>2016-07-30T10:10:37Z</time>
      </trkpt>
      <trkpt lat="47.9631" lon="7.08658">
        <ele>1250</ele>
        <time>2016-07-30T10:10:55Z</time>
      </trkpt>
      <trkpt lat="47.96305" lon="7.08654">
        <ele>1249</ele>
        <time>2016-07-30T10:10:57Z</time>
      </trkpt>
      <trkpt lat="47.96279" lon="7.08617">
        <ele>1249</ele>
        <time>2016-07-30T10:11:11Z</time>
      </trkpt>
      <trkpt lat="47.96271" lon="7.08604">
        <ele>1250</ele>
        <time>2016-07-30T10:11:15Z</time>
      </trkpt>
      <trkpt lat="47.96256" lon="7.08572">
        <ele>1252</ele>
        <time>2016-07-30T10:11:25Z</time>
      </trkpt>
      <trkpt lat="47.96248" lon="7.08543">
        <ele>1245</ele>
        <time>2016-07-30T10:11:33Z</time>
      </trkpt>
      <trkpt lat="47.9624" lon="7.08518">
        <ele>1247</ele>
        <time>2016-07-30T10:11:40Z</time>
      </trkpt>
      <trkpt lat="47.96219" lon="7.08474">
        <ele>1247</ele>
        <time>2016-07-30T10:11:47Z</time>
      </trkpt>
      <trkpt lat="47.96215" lon="7.0847">
        <ele>1247</ele>
        <time>2016-07-30T10:11:48Z</time>
      </trkpt>
      <trkpt lat="47.9619" lon="7.08437">
        <ele>1246</ele>
        <time>2016-07-30T10:11:55Z</time>
      </trkpt>
      <trkpt lat="47.96167" lon="7.08403">
        <ele>1245</ele>
        <time>2016-07-30T10:12:03Z</time>
      </trkpt>
      <trkpt lat="47.96121" lon="7.08357">
        <ele>1245</ele>
        <time>2016-07-30T10:12:19Z</time>
      </trkpt>
      <trkpt lat="47.96107" lon="7.08349">
        <ele>1246</ele>
        <time>2016-07-30T10:12:25Z</time>
      </trkpt>
      <trkpt lat="47.96089" lon="7.08344">
        <ele>1248</ele>
        <time>2016-07-30T10:12:31Z</time>
      </trkpt>
      <trkpt lat="47.96052" lon="7.0834">
        <ele>1247</ele>
        <time>2016-07-30T10:12:43Z</time>
      </trkpt>
      <trkpt lat="47.96023" lon="7.08329">
        <ele>1249</ele>
        <time>2016-07-30T10:12:51Z</time>
      </trkpt>
      <trkpt lat="47.96004" lon="7.08323">
        <ele>1248</ele>
        <time>2016-07-30T10:12:55Z</time>
      </trkpt>
      <trkpt lat="47.95992" lon="7.08319">
        <ele>1249</ele>
        <time>2016-07-30T10:12:58Z</time>
      </trkpt>
      <trkpt lat="47.95979" lon="7.08317">
        <ele>1250</ele>
        <time>2016-07-30T10:13:01Z</time>
      </trkpt>
      <trkpt lat="47.95962" lon="7.08308">
        <ele>1250</ele>
        <time>2016-07-30T10:13:06Z</time>
      </trkpt>
      <trkpt lat="47.95954" lon="7.08308">
        <ele>1250</ele>
        <time>2016-07-30T10:13:09Z</time>
      </trkpt>
      <trkpt lat="47.95908" lon="7.08287">
        <ele>1254</ele>
        <time>2016-07-30T10:13:33Z</time>
      </trkpt>
      <trkpt lat="47.95903" lon="7.08287">
        <ele>1254</ele>
        <time>2016-07-30T10:13:36Z</time>
      </trkpt>
      <trkpt lat="47.95894" lon="7.08288">
        <ele>1254</ele>
        <time>2016-07-30T10:13:41Z</time>
      </trkpt>
      <trkpt lat="47.95877" lon="7.08281">
        <ele>1255</ele>
        <time>2016-07-30T10:13:52Z</time>
      </trkpt>
      <trkpt lat="47.95875" lon="7.08282">
        <ele>1255</ele>
        <time>2016-07-30T10:13:53Z</time>
      </trkpt>
      <trkpt lat="47.95871" lon="7.08279">
        <ele>1255</ele>
        <time>2016-07-30T10:13:56Z</time>
      </trkpt>
      <trkpt lat="47.95855" lon="7.08271">
        <ele>1256</ele>
        <time>2016-07-30T10:14:05Z</time>
      </trkpt>
      <trkpt lat="47.9584" lon="7.08271">
        <ele>1257</ele>
        <time>2016-07-30T10:14:12Z</time>
      </trkpt>
      <trkpt lat="47.95822" lon="7.08269">
        <ele>1259</ele>
        <time>2016-07-30T10:14:19Z</time>
      </trkpt>
      <trkpt lat="47.95808" lon="7.08265">
        <ele>1260</ele>
        <time>2016-07-30T10:14:25Z</time>
      </trkpt>
      <trkpt lat="47.9578" lon="7.08266">
        <ele>1260</ele>
        <time>2016-07-30T10:14:35Z</time>
      </trkpt>
      <trkpt lat="47.9577" lon="7.08264">
        <ele>1261</ele>
        <time>2016-07-30T10:14:39Z</time>
      </trkpt>
      <trkpt lat="47.95742" lon="7.08265">
        <ele>1263</ele>
        <time>2016-07-30T10:14:49Z</time>
      </trkpt>
      <trkpt lat="47.95721" lon="7.08268">
        <ele>1262</ele>
        <time>2016-07-30T10:14:56Z</time>
      </trkpt>
      <trkpt lat="47.95714" lon="7.08266">
        <ele>1262</ele>
        <time>2016-07-30T10:14:58Z</time>
      </trkpt>
      <trkpt lat="47.95708" lon="7.08262">
        <ele>1263</ele>
        <time>2016-07-30T10:15:00Z</time>
      </trkpt>
      <trkpt lat="47.95697" lon="7.08258">
        <ele>1263</ele>
        <time>2016-07-30T10:15:03Z</time>
      </trkpt>
      <trkpt lat="47.95643" lon="7.08268">
        <ele>1265</ele>
        <time>2016-07-30T10:15:16Z</time>
      </trkpt>
      <trkpt lat="47.95604" lon="7.08285">
        <ele>1265</ele>
        <time>2016-07-30T10:15:26Z</time>
      </trkpt>
      <trkpt lat="47.95599" lon="7.08285">
        <ele>1265</ele>
        <time>2016-07-30T10:15:32Z</time>
      </trkpt>
      <trkpt lat="47.95589" lon="7.08286">
        <ele>1265</ele>
        <time>2016-07-30T10:16:42Z</time>
      </trkpt>
      <trkpt lat="47.95589" lon="7.08288">
        <ele>1265</ele>
        <time>2016-07-30T10:16:43Z</time>
      </trkpt>
      <trkpt lat="47.95581" lon="7.08296">
        <ele>1267</ele>
        <time>2016-07-30T10:16:52Z</time>
      </trkpt>
      <trkpt lat="47.95566" lon="7.08311">
        <ele>1266</ele>
        <time>2016-07-30T10:36:27Z</time>
      </trkpt>
      <trkpt lat="47.95556" lon="7.08332">
        <ele>1265</ele>
        <time>2016-07-30T10:36:31Z</time>
      </trkpt>
      <trkpt lat="47.95553" lon="7.08343">
        <ele>1259</ele>
        <time>2016-07-30T10:36:35Z</time>
      </trkpt>
      <trkpt lat="47.95549" lon="7.0835">
        <ele>1259</ele>
        <time>2016-07-30T10:36:40Z</time>
      </trkpt>
      <trkpt lat="47.95542" lon="7.08361">
        <ele>1259</ele>
        <time>2016-07-30T10:36:44Z</time>
      </trkpt>
      <trkpt lat="47.95539" lon="7.08371">
        <ele>1258</ele>
        <time>2016-07-30T10:36:48Z</time>
      </trkpt>
      <trkpt lat="47.95528" lon="7.08386">
        <ele>1257</ele>
        <time>2016-07-30T10:36:58Z</time>
      </trkpt>
      <trkpt lat="47.95515" lon="7.08394">
        <ele>1257</ele>
        <time>2016-07-30T10:38:27Z</time>
      </trkpt>
      <trkpt lat="47.95511" lon="7.08395">
        <ele>1257</ele>
        <time>2016-07-30T10:38:28Z</time>
      </trkpt>
      <trkpt lat="47.95488" lon="7.08404">
        <ele>1255</ele>
        <time>2016-07-30T10:38:32Z</time>
      </trkpt>
      <trkpt lat="47.95467" lon="7.08403">
        <ele>1255</ele>
        <time>2016-07-30T10:38:36Z</time>
      </trkpt>
      <trkpt lat="47.95455" lon="7.08398">
        <ele>1255</ele>
        <time>2016-07-30T10:38:39Z</time>
      </trkpt>
      <trkpt lat="47.95449" lon="7.08392">
        <ele>1255</ele>
        <time>2016-07-30T10:38:41Z</time>
      </trkpt>
      <trkpt lat="47.95439" lon="7.08373">
        <ele>1255</ele>
        <time>2016-07-30T10:38:46Z</time>
      </trkpt>
      <trkpt lat="47.95423" lon="7.08349">
        <ele>1256</ele>
        <time>2016-07-30T10:38:54Z</time>
      </trkpt>
      <trkpt lat="47.95409" lon="7.08314">
        <ele>1249</ele>
        <time>2016-07-30T10:39:01Z</time>
      </trkpt>
      <trkpt lat="47.95402" lon="7.08287">
        <ele>1248</ele>
        <time>2016-07-30T10:39:07Z</time>
      </trkpt>
      <trkpt lat="47.95402" lon="7.08261">
        <ele>1252</ele>
        <time>2016-07-30T10:39:13Z</time>
      </trkpt>
      <trkpt lat="47.95405" lon="7.08228">
        <ele>1253</ele>
        <time>2016-07-30T10:39:20Z</time>
      </trkpt>
      <trkpt lat="47.954" lon="7.08203">
        <ele>1251</ele>
        <time>2016-07-30T10:39:26Z</time>
      </trkpt>
      <trkpt lat="47.95396" lon="7.0817">
        <ele>1254</ele>
        <time>2016-07-30T10:39:32Z</time>
      </trkpt>
      <trkpt lat="47.95388" lon="7.08129">
        <ele>1251</ele>
        <time>2016-07-30T10:39:40Z</time>
      </trkpt>
      <trkpt lat="47.95381" lon="7.08112">
        <ele>1250</ele>
        <time>2016-07-30T10:39:42Z</time>
      </trkpt>
      <trkpt lat="47.9537" lon="7.08091">
        <ele>1248</ele>
        <time>2016-07-30T10:39:44Z</time>
      </trkpt>
      <trkpt lat="47.95354" lon="7.0805">
        <ele>1246</ele>
        <time>2016-07-30T10:39:48Z</time>
      </trkpt>
      <trkpt lat="47.95346" lon="7.08038">
        <ele>1245</ele>
        <time>2016-07-30T10:39:49Z</time>
      </trkpt>
      <trkpt lat="47.95334" lon="7.08012">
        <ele>1242</ele>
        <time>2016-07-30T10:39:51Z</time>
      </trkpt>
      <trkpt lat="47.9532" lon="7.07988">
        <ele>1232</ele>
        <time>2016-07-30T10:39:53Z</time>
      </trkpt>
      <trkpt lat="47.95311" lon="7.07977">
        <ele>1230</ele>
        <time>2016-07-30T10:39:54Z</time>
      </trkpt>
      <trkpt lat="47.95305" lon="7.07967">
        <ele>1229</ele>
        <time>2016-07-30T10:39:55Z</time>
      </trkpt>
      <trkpt lat="47.95291" lon="7.07951">
        <ele>1228</ele>
        <time>2016-07-30T10:39:57Z</time>
      </trkpt>
      <trkpt lat="47.95274" lon="7.07934">
        <ele>1225</ele>
        <time>2016-07-30T10:39:59Z</time>
      </trkpt>
      <trkpt lat="47.95257" lon="7.0792">
        <ele>1221</ele>
        <time>2016-07-30T10:40:01Z</time>
      </trkpt>
      <trkpt lat="47.95243" lon="7.07905">
        <ele>1215</ele>
        <time>2016-07-30T10:40:03Z</time>
      </trkpt>
      <trkpt lat="47.95229" lon="7.07888">
        <ele>1211</ele>
        <time>2016-07-30T10:40:05Z</time>
      </trkpt>
      <trkpt lat="47.95215" lon="7.07868">
        <ele>1210</ele>
        <time>2016-07-30T10:40:07Z</time>
      </trkpt>
      <trkpt lat="47.95212" lon="7.07853">
        <ele>1211</ele>
        <time>2016-07-30T10:40:08Z</time>
      </trkpt>
      <trkpt lat="47.95205" lon="7.07831">
        <ele>1214</ele>
        <time>2016-07-30T10:40:10Z</time>
      </trkpt>
      <trkpt lat="47.952" lon="7.07792">
        <ele>1214</ele>
        <time>2016-07-30T10:40:13Z</time>
      </trkpt>
      <trkpt lat="47.952" lon="7.07781">
        <ele>1214</ele>
        <time>2016-07-30T10:40:14Z</time>
      </trkpt>
      <trkpt lat="47.95203" lon="7.07772">
        <ele>1215</ele>
        <time>2016-07-30T10:40:15Z</time>
      </trkpt>
      <trkpt lat="47.95204" lon="7.07757">
        <ele>1215</ele>
        <time>2016-07-30T10:40:17Z</time>
      </trkpt>
      <trkpt lat="47.95203" lon="7.07734">
        <ele>1217</ele>
        <time>2016-07-30T10:40:21Z</time>
      </trkpt>
      <trkpt lat="47.95203" lon="7.07707">
        <ele>1218</ele>
        <time>2016-07-30T10:40:26Z</time>
      </trkpt>
      <trkpt lat="47.95204" lon="7.077">
        <ele>1218</ele>
        <time>2016-07-30T10:40:27Z</time>
      </trkpt>
      <trkpt lat="47.95202" lon="7.07686">
        <ele>1217</ele>
        <time>2016-07-30T10:40:30Z</time>
      </trkpt>
      <trkpt lat="47.95205" lon="7.07638">
        <ele>1221</ele>
        <time>2016-07-30T10:40:41Z</time>
      </trkpt>
      <trkpt lat="47.95208" lon="7.07627">
        <ele>1222</ele>
        <time>2016-07-30T10:40:43Z</time>
      </trkpt>
      <trkpt lat="47.95208" lon="7.07588">
        <ele>1223</ele>
        <time>2016-07-30T10:40:54Z</time>
      </trkpt>
      <trkpt lat="47.95206" lon="7.07583">
        <ele>1225</ele>
        <time>2016-07-30T10:40:55Z</time>
      </trkpt>
      <trkpt lat="47.95202" lon="7.07562">
        <ele>1225</ele>
        <time>2016-07-30T10:41:00Z</time>
      </trkpt>
      <trkpt lat="47.95204" lon="7.07552">
        <ele>1226</ele>
        <time>2016-07-30T10:41:02Z</time>
      </trkpt>
      <trkpt lat="47.95204" lon="7.07547">
        <ele>1226</ele>
        <time>2016-07-30T10:41:03Z</time>
      </trkpt>
      <trkpt lat="47.95196" lon="7.07512">
        <ele>1225</ele>
        <time>2016-07-30T10:41:11Z</time>
      </trkpt>
      <trkpt lat="47.95199" lon="7.07504">
        <ele>1226</ele>
        <time>2016-07-30T10:41:12Z</time>
      </trkpt>
      <trkpt lat="47.95197" lon="7.07488">
        <ele>1229</ele>
        <time>2016-07-30T10:41:15Z</time>
      </trkpt>
      <trkpt lat="47.95192" lon="7.07471">
        <ele>1230</ele>
        <time>2016-07-30T10:41:19Z</time>
      </trkpt>
      <trkpt lat="47.95178" lon="7.07443">
        <ele>1230</ele>
        <time>2016-07-30T10:41:25Z</time>
      </trkpt>
      <trkpt lat="47.95165" lon="7.07395">
        <ele>1227</ele>
        <time>2016-07-30T10:41:31Z</time>
      </trkpt>
      <trkpt lat="47.9516" lon="7.07381">
        <ele>1228</ele>
        <time>2016-07-30T10:41:33Z</time>
      </trkpt>
      <trkpt lat="47.95156" lon="7.07374">
        <ele>1229</ele>
        <time>2016-07-30T10:41:34Z</time>
      </trkpt>
      <trkpt lat="47.95149" lon="7.0736">
        <ele>1231</ele>
        <time>2016-07-30T10:41:36Z</time>
      </trkpt>
      <trkpt lat="47.95136" lon="7.07342">
        <ele>1231</ele>
        <time>2016-07-30T10:41:39Z</time>
      </trkpt>
      <trkpt lat="47.95125" lon="7.07332">
        <ele>1242</ele>
        <time>2016-07-30T10:41:41Z</time>
      </trkpt>
      <trkpt lat="47.95088" lon="7.0731">
        <ele>1238</ele>
        <time>2016-07-30T10:41:48Z</time>
      </trkpt>
      <trkpt lat="47.95058" lon="7.07303">
        <ele>1227</ele>
        <time>2016-07-30T10:41:55Z</time>
      </trkpt>
      <trkpt lat="47.95042" lon="7.07304">
        <ele>1225</ele>
        <time>2016-07-30T10:41:58Z</time>
      </trkpt>
      <trkpt lat="47.95036" lon="7.07303">
        <ele>1225</ele>
        <time>2016-07-30T10:41:59Z</time>
      </trkpt>
      <trkpt lat="47.9503" lon="7.07299">
        <ele>1224</ele>
        <time>2016-07-30T10:42:00Z</time>
      </trkpt>
      <trkpt lat="47.95019" lon="7.07289">
        <ele>1225</ele>
        <time>2016-07-30T10:42:02Z</time>
      </trkpt>
      <trkpt lat="47.95012" lon="7.07285">
        <ele>1225</ele>
        <time>2016-07-30T10:42:03Z</time>
      </trkpt>
      <trkpt lat="47.94989" lon="7.07259">
        <ele>1216</ele>
        <time>2016-07-30T10:42:07Z</time>
      </trkpt>
      <trkpt lat="47.94977" lon="7.07243">
        <ele>1219</ele>
        <time>2016-07-30T10:42:09Z</time>
      </trkpt>
      <trkpt lat="47.94923" lon="7.07147">
        <ele>1217</ele>
        <time>2016-07-30T10:42:20Z</time>
      </trkpt>
      <trkpt lat="47.94914" lon="7.07128">
        <ele>1203</ele>
        <time>2016-07-30T10:42:22Z</time>
      </trkpt>
      <trkpt lat="47.94911" lon="7.07109">
        <ele>1205</ele>
        <time>2016-07-30T10:42:24Z</time>
      </trkpt>
      <trkpt lat="47.94907" lon="7.07073">
        <ele>1208</ele>
        <time>2016-07-30T10:42:28Z</time>
      </trkpt>
      <trkpt lat="47.94908" lon="7.07032">
        <ele>1203</ele>
        <time>2016-07-30T10:42:33Z</time>
      </trkpt>
      <trkpt lat="47.94922" lon="7.06988">
        <ele>1218</ele>
        <time>2016-07-30T10:42:39Z</time>
      </trkpt>
      <trkpt lat="47.9493" lon="7.06956">
        <ele>1219</ele>
        <time>2016-07-30T10:42:43Z</time>
      </trkpt>
      <trkpt lat="47.94941" lon="7.0693">
        <ele>1217</ele>
        <time>2016-07-30T10:42:46Z</time>
      </trkpt>
      <trkpt lat="47.94949" lon="7.06908">
        <ele>1212</ele>
        <time>2016-07-30T10:42:49Z</time>
      </trkpt>
      <trkpt lat="47.94952" lon="7.06888">
        <ele>1212</ele>
        <time>2016-07-30T10:42:51Z</time>
      </trkpt>
      <trkpt lat="47.94981" lon="7.06801">
        <ele>1207</ele>
        <time>2016-07-30T10:43:02Z</time>
      </trkpt>
      <trkpt lat="47.94984" lon="7.06769">
        <ele>1206</ele>
        <time>2016-07-30T10:43:06Z</time>
      </trkpt>
      <trkpt lat="47.94983" lon="7.06758">
        <ele>1206</ele>
        <time>2016-07-30T10:43:07Z</time>
      </trkpt>
      <trkpt lat="47.94991" lon="7.06715">
        <ele>1197</ele>
        <time>2016-07-30T10:43:12Z</time>
      </trkpt>
      <trkpt lat="47.94994" lon="7.06686">
        <ele>1197</ele>
        <time>2016-07-30T10:43:15Z</time>
      </trkpt>
      <trkpt lat="47.94994" lon="7.06675">
        <ele>1199</ele>
        <time>2016-07-30T10:43:16Z</time>
      </trkpt>
      <trkpt lat="47.95" lon="7.06625">
        <ele>1190</ele>
        <time>2016-07-30T10:43:22Z</time>
      </trkpt>
      <trkpt lat="47.94999" lon="7.06594">
        <ele>1193</ele>
        <time>2016-07-30T10:43:26Z</time>
      </trkpt>
      <trkpt lat="47.95" lon="7.06585">
        <ele>1196</ele>
        <time>2016-07-30T10:43:27Z</time>
      </trkpt>
      <trkpt lat="47.95002" lon="7.06575">
        <ele>1195</ele>
        <time>2016-07-30T10:43:28Z</time>
      </trkpt>
      <trkpt lat="47.95005" lon="7.06544">
        <ele>1193</ele>
        <time>2016-07-30T10:43:32Z</time>
      </trkpt>
      <trkpt lat="47.95005" lon="7.06534">
        <ele>1193</ele>
        <time>2016-07-30T10:43:33Z</time>
      </trkpt>
      <trkpt lat="47.95004" lon="7.06525">
        <ele>1193</ele>
        <time>2016-07-30T10:43:34Z</time>
      </trkpt>
      <trkpt lat="47.94997" lon="7.06503">
        <ele>1194</ele>
        <time>2016-07-30T10:43:38Z</time>
      </trkpt>
      <trkpt lat="47.94985" lon="7.06473">
        <ele>1193</ele>
        <time>2016-07-30T10:43:45Z</time>
      </trkpt>
      <trkpt lat="47.9497" lon="7.06444">
        <ele>1193</ele>
        <time>2016-07-30T10:43:52Z</time>
      </trkpt>
      <trkpt lat="47.94963" lon="7.06435">
        <ele>1193</ele>
        <time>2016-07-30T10:43:55Z</time>
      </trkpt>
      <trkpt lat="47.94959" lon="7.0642">
        <ele>1193</ele>
        <time>2016-07-30T10:43:58Z</time>
      </trkpt>
      <trkpt lat="47.9496" lon="7.06416">
        <ele>1203</ele>
        <time>2016-07-30T10:43:59Z</time>
      </trkpt>
      <trkpt lat="47.94968" lon="7.06403">
        <ele>1205</ele>
        <time>2016-07-30T10:44:03Z</time>
      </trkpt>
      <trkpt lat="47.94967" lon="7.064">
        <ele>1205</ele>
        <time>2016-07-30T10:44:04Z</time>
      </trkpt>
      <trkpt lat="47.94969" lon="7.06387">
        <ele>1206</ele>
        <time>2016-07-30T10:44:06Z</time>
      </trkpt>
      <trkpt lat="47.94972" lon="7.06373">
        <ele>1208</ele>
        <time>2016-07-30T10:44:07Z</time>
      </trkpt>
      <trkpt lat="47.94969" lon="7.06366">
        <ele>1209</ele>
        <time>2016-07-30T10:44:08Z</time>
      </trkpt>
      <trkpt lat="47.94956" lon="7.06343">
        <ele>1209</ele>
        <time>2016-07-30T10:44:16Z</time>
      </trkpt>
      <trkpt lat="47.94947" lon="7.06333">
        <ele>1209</ele>
        <time>2016-07-30T10:44:21Z</time>
      </trkpt>
      <trkpt lat="47.94939" lon="7.06329">
        <ele>1219</ele>
        <time>2016-07-30T10:44:24Z</time>
      </trkpt>
      <trkpt lat="47.94922" lon="7.06311">
        <ele>1219</ele>
        <time>2016-07-30T10:44:32Z</time>
      </trkpt>
      <trkpt lat="47.94913" lon="7.06298">
        <ele>1212</ele>
        <time>2016-07-30T10:44:37Z</time>
      </trkpt>
      <trkpt lat="47.94911" lon="7.06293">
        <ele>1212</ele>
        <time>2016-07-30T10:44:38Z</time>
      </trkpt>
      <trkpt lat="47.94901" lon="7.06282">
        <ele>1214</ele>
        <time>2016-07-30T10:44:41Z</time>
      </trkpt>
      <trkpt lat="47.94879" lon="7.06251">
        <ele>1214</ele>
        <time>2016-07-30T10:44:52Z</time>
      </trkpt>
      <trkpt lat="47.9487" lon="7.06242">
        <ele>1224</ele>
        <time>2016-07-30T10:44:56Z</time>
      </trkpt>
      <trkpt lat="47.94848" lon="7.06201">
        <ele>1224</ele>
        <time>2016-07-30T10:45:08Z</time>
      </trkpt>
      <trkpt lat="47.94831" lon="7.06144">
        <ele>1212</ele>
        <time>2016-07-30T10:45:20Z</time>
      </trkpt>
      <trkpt lat="47.94825" lon="7.06114">
        <ele>1213</ele>
        <time>2016-07-30T10:45:28Z</time>
      </trkpt>
      <trkpt lat="47.94825" lon="7.0609">
        <ele>1221</ele>
        <time>2016-07-30T10:45:33Z</time>
      </trkpt>
      <trkpt lat="47.94827" lon="7.0608">
        <ele>1225</ele>
        <time>2016-07-30T10:45:35Z</time>
      </trkpt>
      <trkpt lat="47.94827" lon="7.06072">
        <ele>1222</ele>
        <time>2016-07-30T10:45:37Z</time>
      </trkpt>
      <trkpt lat="47.9482" lon="7.06018">
        <ele>1220</ele>
        <time>2016-07-30T10:45:49Z</time>
      </trkpt>
      <trkpt lat="47.9482" lon="7.0601">
        <ele>1222</ele>
        <time>2016-07-30T10:45:51Z</time>
      </trkpt>
      <trkpt lat="47.9482" lon="7.06006">
        <ele>1222</ele>
        <time>2016-07-30T10:45:52Z</time>
      </trkpt>
      <trkpt lat="47.94819" lon="7.05985">
        <ele>1222</ele>
        <time>2016-07-30T10:45:58Z</time>
      </trkpt>
      <trkpt lat="47.94815" lon="7.05928">
        <ele>1223</ele>
        <time>2016-07-30T10:46:10Z</time>
      </trkpt>
      <trkpt lat="47.94817" lon="7.05915">
        <ele>1226</ele>
        <time>2016-07-30T10:46:13Z</time>
      </trkpt>
      <trkpt lat="47.94819" lon="7.05906">
        <ele>1226</ele>
        <time>2016-07-30T10:46:14Z</time>
      </trkpt>
      <trkpt lat="47.9482" lon="7.05863">
        <ele>1224</ele>
        <time>2016-07-30T10:46:23Z</time>
      </trkpt>
      <trkpt lat="47.9482" lon="7.05851">
        <ele>1227</ele>
        <time>2016-07-30T10:46:26Z</time>
      </trkpt>
      <trkpt lat="47.94818" lon="7.05831">
        <ele>1231</ele>
        <time>2016-07-30T10:46:30Z</time>
      </trkpt>
      <trkpt lat="47.94815" lon="7.05823">
        <ele>1229</ele>
        <time>2016-07-30T10:46:32Z</time>
      </trkpt>
      <trkpt lat="47.94812" lon="7.05767">
        <ele>1229</ele>
        <time>2016-07-30T10:46:45Z</time>
      </trkpt>
      <trkpt lat="47.94815" lon="7.05763">
        <ele>1231</ele>
        <time>2016-07-30T10:46:46Z</time>
      </trkpt>
      <trkpt lat="47.94814" lon="7.05758">
        <ele>1231</ele>
        <time>2016-07-30T10:46:47Z</time>
      </trkpt>
      <trkpt lat="47.9481" lon="7.05678">
        <ele>1239</ele>
        <time>2016-07-30T10:47:05Z</time>
      </trkpt>
      <trkpt lat="47.94807" lon="7.0565">
        <ele>1250</ele>
        <time>2016-07-30T10:47:11Z</time>
      </trkpt>
      <trkpt lat="47.948" lon="7.0563">
        <ele>1250</ele>
        <time>2016-07-30T10:47:15Z</time>
      </trkpt>
      <trkpt lat="47.94782" lon="7.05609">
        <ele>1249</ele>
        <time>2016-07-30T10:47:20Z</time>
      </trkpt>
      <trkpt lat="47.9478" lon="7.05605">
        <ele>1249</ele>
        <time>2016-07-30T10:47:21Z</time>
      </trkpt>
      <trkpt lat="47.94774" lon="7.05603">
        <ele>1248</ele>
        <time>2016-07-30T10:47:22Z</time>
      </trkpt>
      <trkpt lat="47.94766" lon="7.05598">
        <ele>1247</ele>
        <time>2016-07-30T10:47:24Z</time>
      </trkpt>
      <trkpt lat="47.94761" lon="7.05597">
        <ele>1246</ele>
        <time>2016-07-30T10:47:25Z</time>
      </trkpt>
      <trkpt lat="47.94734" lon="7.05584">
        <ele>1231</ele>
        <time>2016-07-30T10:47:31Z</time>
      </trkpt>
      <trkpt lat="47.9473" lon="7.05579">
        <ele>1247</ele>
        <time>2016-07-30T10:47:32Z</time>
      </trkpt>
      <trkpt lat="47.9472" lon="7.05572">
        <ele>1247</ele>
        <time>2016-07-30T10:47:34Z</time>
      </trkpt>
      <trkpt lat="47.94711" lon="7.05564">
        <ele>1247</ele>
        <time>2016-07-30T10:47:36Z</time>
      </trkpt>
      <trkpt lat="47.94691" lon="7.05554">
        <ele>1246</ele>
        <time>2016-07-30T10:47:40Z</time>
      </trkpt>
      <trkpt lat="47.94663" lon="7.05544">
        <ele>1236</ele>
        <time>2016-07-30T10:47:46Z</time>
      </trkpt>
      <trkpt lat="47.94638" lon="7.05524">
        <ele>1240</ele>
        <time>2016-07-30T10:47:54Z</time>
      </trkpt>
      <trkpt lat="47.94613" lon="7.05512">
        <ele>1239</ele>
        <time>2016-07-30T10:48:03Z</time>
      </trkpt>
      <trkpt lat="47.94606" lon="7.05505">
        <ele>1239</ele>
        <time>2016-07-30T10:48:05Z</time>
      </trkpt>
      <trkpt lat="47.94598" lon="7.05502">
        <ele>1240</ele>
        <time>2016-07-30T10:48:07Z</time>
      </trkpt>
      <trkpt lat="47.94594" lon="7.05503">
        <ele>1241</ele>
        <time>2016-07-30T10:48:08Z</time>
      </trkpt>
      <trkpt lat="47.94556" lon="7.05502">
        <ele>1229</ele>
        <time>2016-07-30T10:48:18Z</time>
      </trkpt>
      <trkpt lat="47.94535" lon="7.05509">
        <ele>1225</ele>
        <time>2016-07-30T10:48:25Z</time>
      </trkpt>
      <trkpt lat="47.94512" lon="7.05519">
        <ele>1224</ele>
        <time>2016-07-30T10:48:33Z</time>
      </trkpt>
      <trkpt lat="47.94506" lon="7.05518">
        <ele>1224</ele>
        <time>2016-07-30T10:48:34Z</time>
      </trkpt>
      <trkpt lat="47.94503" lon="7.05519">
        <ele>1224</ele>
        <time>2016-07-30T10:48:35Z</time>
      </trkpt>
      <trkpt lat="47.94495" lon="7.05518">
        <ele>1220</ele>
        <time>2016-07-30T10:48:37Z</time>
      </trkpt>
      <trkpt lat="47.94485" lon="7.05513">
        <ele>1219</ele>
        <time>2016-07-30T10:48:40Z</time>
      </trkpt>
      <trkpt lat="47.94474" lon="7.055">
        <ele>1218</ele>
        <time>2016-07-30T10:48:45Z</time>
      </trkpt>
      <trkpt lat="47.94473" lon="7.05492">
        <ele>1223</ele>
        <time>2016-07-30T10:48:47Z</time>
      </trkpt>
      <trkpt lat="47.94475" lon="7.05476">
        <ele>1223</ele>
        <time>2016-07-30T10:48:52Z</time>
      </trkpt>
      <trkpt lat="47.94502" lon="7.05398">
        <ele>1239</ele>
        <time>2016-07-30T10:49:13Z</time>
      </trkpt>
      <trkpt lat="47.94515" lon="7.05363">
        <ele>1239</ele>
        <time>2016-07-30T10:49:21Z</time>
      </trkpt>
      <trkpt lat="47.94525" lon="7.0534">
        <ele>1238</ele>
        <time>2016-07-30T10:49:27Z</time>
      </trkpt>
      <trkpt lat="47.94537" lon="7.05298">
        <ele>1235</ele>
        <time>2016-07-30T10:49:35Z</time>
      </trkpt>
      <trkpt lat="47.94545" lon="7.05264">
        <ele>1234</ele>
        <time>2016-07-30T10:49:41Z</time>
      </trkpt>
      <trkpt lat="47.94548" lon="7.05229">
        <ele>1228</ele>
        <time>2016-07-30T10:49:47Z</time>
      </trkpt>
      <trkpt lat="47.9455" lon="7.052">
        <ele>1227</ele>
        <time>2016-07-30T10:49:53Z</time>
      </trkpt>
      <trkpt lat="47.94553" lon="7.05173">
        <ele>1227</ele>
        <time>2016-07-30T10:49:58Z</time>
      </trkpt>
      <trkpt lat="47.94553" lon="7.05149">
        <ele>1222</ele>
        <time>2016-07-30T10:50:02Z</time>
      </trkpt>
      <trkpt lat="47.94554" lon="7.05137">
        <ele>1222</ele>
        <time>2016-07-30T10:50:04Z</time>
      </trkpt>
      <trkpt lat="47.94553" lon="7.05113">
        <ele>1221</ele>
        <time>2016-07-30T10:50:07Z</time>
      </trkpt>
      <trkpt lat="47.94556" lon="7.05083">
        <ele>1220</ele>
        <time>2016-07-30T10:50:10Z</time>
      </trkpt>
      <trkpt lat="47.94556" lon="7.05062">
        <ele>1218</ele>
        <time>2016-07-30T10:50:12Z</time>
      </trkpt>
      <trkpt lat="47.94557" lon="7.05015">
        <ele>1218</ele>
        <time>2016-07-30T10:50:16Z</time>
      </trkpt>
      <trkpt lat="47.94559" lon="7.0499">
        <ele>1216</ele>
        <time>2016-07-30T10:50:18Z</time>
      </trkpt>
      <trkpt lat="47.94566" lon="7.04941">
        <ele>1214</ele>
        <time>2016-07-30T10:50:22Z</time>
      </trkpt>
      <trkpt lat="47.94572" lon="7.04914">
        <ele>1215</ele>
        <time>2016-07-30T10:50:24Z</time>
      </trkpt>
      <trkpt lat="47.94578" lon="7.04899">
        <ele>1212</ele>
        <time>2016-07-30T10:50:25Z</time>
      </trkpt>
      <trkpt lat="47.94582" lon="7.04883">
        <ele>1209</ele>
        <time>2016-07-30T10:50:26Z</time>
      </trkpt>
      <trkpt lat="47.94597" lon="7.04841">
        <ele>1220</ele>
        <time>2016-07-30T10:50:29Z</time>
      </trkpt>
      <trkpt lat="47.9461" lon="7.04808">
        <ele>1217</ele>
        <time>2016-07-30T10:50:32Z</time>
      </trkpt>
      <trkpt lat="47.94621" lon="7.04789">
        <ele>1217</ele>
        <time>2016-07-30T10:50:34Z</time>
      </trkpt>
      <trkpt lat="47.94646" lon="7.04737">
        <ele>1212</ele>
        <time>2016-07-30T10:50:40Z</time>
      </trkpt>
      <trkpt lat="47.94671" lon="7.047">
        <ele>1216</ele>
        <time>2016-07-30T10:50:45Z</time>
      </trkpt>
      <trkpt lat="47.94676" lon="7.04691">
        <ele>1215</ele>
        <time>2016-07-30T10:50:46Z</time>
      </trkpt>
      <trkpt lat="47.94682" lon="7.04683">
        <ele>1214</ele>
        <time>2016-07-30T10:50:47Z</time>
      </trkpt>
      <trkpt lat="47.94693" lon="7.04665">
        <ele>1207</ele>
        <time>2016-07-30T10:50:49Z</time>
      </trkpt>
      <trkpt lat="47.94698" lon="7.04654">
        <ele>1206</ele>
        <time>2016-07-30T10:50:50Z</time>
      </trkpt>
      <trkpt lat="47.94707" lon="7.0464">
        <ele>1206</ele>
        <time>2016-07-30T10:50:52Z</time>
      </trkpt>
      <trkpt lat="47.94714" lon="7.04626">
        <ele>1205</ele>
        <time>2016-07-30T10:50:55Z</time>
      </trkpt>
      <trkpt lat="47.94731" lon="7.046">
        <ele>1205</ele>
        <time>2016-07-30T10:51:01Z</time>
      </trkpt>
      <trkpt lat="47.94746" lon="7.04574">
        <ele>1202</ele>
        <time>2016-07-30T10:51:07Z</time>
      </trkpt>
      <trkpt lat="47.94768" lon="7.04548">
        <ele>1204</ele>
        <time>2016-07-30T10:51:16Z</time>
      </trkpt>
      <trkpt lat="47.94789" lon="7.04517">
        <ele>1204</ele>
        <time>2016-07-30T10:51:28Z</time>
      </trkpt>
      <trkpt lat="47.94791" lon="7.04512">
        <ele>1204</ele>
        <time>2016-07-30T10:51:30Z</time>
      </trkpt>
      <trkpt lat="47.94802" lon="7.04497">
        <ele>1205</ele>
        <time>2016-07-30T10:51:36Z</time>
      </trkpt>
      <trkpt lat="47.94808" lon="7.04485">
        <ele>1205</ele>
        <time>2016-07-30T10:51:40Z</time>
      </trkpt>
      <trkpt lat="47.94818" lon="7.04454">
        <ele>1207</ele>
        <time>2016-07-30T10:51:49Z</time>
      </trkpt>
      <trkpt lat="47.94818" lon="7.04444">
        <ele>1207</ele>
        <time>2016-07-30T10:51:52Z</time>
      </trkpt>
      <trkpt lat="47.94829" lon="7.04403">
        <ele>1211</ele>
        <time>2016-07-30T10:52:03Z</time>
      </trkpt>
      <trkpt lat="47.94833" lon="7.04387">
        <ele>1210</ele>
        <time>2016-07-30T10:52:07Z</time>
      </trkpt>
      <trkpt lat="47.94835" lon="7.04381">
        <ele>1209</ele>
        <time>2016-07-30T10:52:09Z</time>
      </trkpt>
      <trkpt lat="47.9484" lon="7.04362">
        <ele>1210</ele>
        <time>2016-07-30T10:52:14Z</time>
      </trkpt>
      <trkpt lat="47.94841" lon="7.04357">
        <ele>1211</ele>
        <time>2016-07-30T10:52:16Z</time>
      </trkpt>
      <trkpt lat="47.94848" lon="7.04327">
        <ele>1217</ele>
        <time>2016-07-30T10:52:25Z</time>
      </trkpt>
      <trkpt lat="47.94853" lon="7.04302">
        <ele>1216</ele>
        <time>2016-07-30T10:52:32Z</time>
      </trkpt>
      <trkpt lat="47.94863" lon="7.04268">
        <ele>1217</ele>
        <time>2016-07-30T10:52:42Z</time>
      </trkpt>
      <trkpt lat="47.94865" lon="7.04263">
        <ele>1217</ele>
        <time>2016-07-30T10:52:44Z</time>
      </trkpt>
      <trkpt lat="47.94865" lon="7.04257">
        <ele>1218</ele>
        <time>2016-07-30T10:52:45Z</time>
      </trkpt>
      <trkpt lat="47.94871" lon="7.04216">
        <ele>1222</ele>
        <time>2016-07-30T10:52:56Z</time>
      </trkpt>
      <trkpt lat="47.94878" lon="7.04196">
        <ele>1222</ele>
        <time>2016-07-30T10:53:01Z</time>
      </trkpt>
      <trkpt lat="47.9488" lon="7.04184">
        <ele>1223</ele>
        <time>2016-07-30T10:53:03Z</time>
      </trkpt>
      <trkpt lat="47.94894" lon="7.04144">
        <ele>1226</ele>
        <time>2016-07-30T10:53:11Z</time>
      </trkpt>
      <trkpt lat="47.94902" lon="7.04094">
        <ele>1229</ele>
        <time>2016-07-30T10:53:26Z</time>
      </trkpt>
      <trkpt lat="47.94903" lon="7.04087">
        <ele>1230</ele>
        <time>2016-07-30T10:53:28Z</time>
      </trkpt>
      <trkpt lat="47.94904" lon="7.04083">
        <ele>1230</ele>
        <time>2016-07-30T10:53:29Z</time>
      </trkpt>
      <trkpt lat="47.94906" lon="7.04069">
        <ele>1229</ele>
        <time>2016-07-30T10:53:32Z</time>
      </trkpt>
      <trkpt lat="47.94917" lon="7.04028">
        <ele>1236</ele>
        <time>2016-07-30T10:53:40Z</time>
      </trkpt>
      <trkpt lat="47.94918" lon="7.04021">
        <ele>1236</ele>
        <time>2016-07-30T10:53:42Z</time>
      </trkpt>
      <trkpt lat="47.94921" lon="7.04018">
        <ele>1235</ele>
        <time>2016-07-30T10:53:43Z</time>
      </trkpt>
      <trkpt lat="47.94922" lon="7.04015">
        <ele>1235</ele>
        <time>2016-07-30T10:53:44Z</time>
      </trkpt>
      <trkpt lat="47.94933" lon="7.03995">
        <ele>1236</ele>
        <time>2016-07-30T10:53:51Z</time>
      </trkpt>
      <trkpt lat="47.94935" lon="7.03993">
        <ele>1236</ele>
        <time>2016-07-30T10:53:52Z</time>
      </trkpt>
      <trkpt lat="47.94949" lon="7.03959">
        <ele>1238</ele>
        <time>2016-07-30T10:54:02Z</time>
      </trkpt>
      <trkpt lat="47.94951" lon="7.0395">
        <ele>1239</ele>
        <time>2016-07-30T10:54:04Z</time>
      </trkpt>
      <trkpt lat="47.94961" lon="7.03924">
        <ele>1240</ele>
        <time>2016-07-30T10:54:11Z</time>
      </trkpt>
      <trkpt lat="47.94973" lon="7.03907">
        <ele>1240</ele>
        <time>2016-07-30T10:54:18Z</time>
      </trkpt>
      <trkpt lat="47.94993" lon="7.03867">
        <ele>1240</ele>
        <time>2016-07-30T10:54:31Z</time>
      </trkpt>
      <trkpt lat="47.95012" lon="7.03832">
        <ele>1244</ele>
        <time>2016-07-30T10:54:41Z</time>
      </trkpt>
      <trkpt lat="47.95014" lon="7.03823">
        <ele>1245</ele>
        <time>2016-07-30T10:54:43Z</time>
      </trkpt>
      <trkpt lat="47.95043" lon="7.03775">
        <ele>1246</ele>
        <time>2016-07-30T10:54:57Z</time>
      </trkpt>
      <trkpt lat="47.95053" lon="7.03762">
        <ele>1247</ele>
        <time>2016-07-30T10:55:01Z</time>
      </trkpt>
      <trkpt lat="47.95057" lon="7.0375">
        <ele>1243</ele>
        <time>2016-07-30T10:55:04Z</time>
      </trkpt>
      <trkpt lat="47.95057" lon="7.03744">
        <ele>1243</ele>
        <time>2016-07-30T10:55:05Z</time>
      </trkpt>
      <trkpt lat="47.95066" lon="7.03725">
        <ele>1243</ele>
        <time>2016-07-30T10:55:10Z</time>
      </trkpt>
      <trkpt lat="47.95068" lon="7.03722">
        <ele>1243</ele>
        <time>2016-07-30T10:55:11Z</time>
      </trkpt>
      <trkpt lat="47.95071" lon="7.03714">
        <ele>1242</ele>
        <time>2016-07-30T10:55:13Z</time>
      </trkpt>
      <trkpt lat="47.95084" lon="7.03687">
        <ele>1248</ele>
        <time>2016-07-30T10:55:21Z</time>
      </trkpt>
      <trkpt lat="47.95094" lon="7.03671">
        <ele>1246</ele>
        <time>2016-07-30T10:55:25Z</time>
      </trkpt>
      <trkpt lat="47.9512" lon="7.03626">
        <ele>1247</ele>
        <time>2016-07-30T10:55:38Z</time>
      </trkpt>
      <trkpt lat="47.95122" lon="7.03616">
        <ele>1247</ele>
        <time>2016-07-30T10:55:40Z</time>
      </trkpt>
      <trkpt lat="47.95138" lon="7.03576">
        <ele>1247</ele>
        <time>2016-07-30T10:55:51Z</time>
      </trkpt>
      <trkpt lat="47.95143" lon="7.03561">
        <ele>1246</ele>
        <time>2016-07-30T10:55:54Z</time>
      </trkpt>
      <trkpt lat="47.95145" lon="7.03545">
        <ele>1246</ele>
        <time>2016-07-30T10:55:57Z</time>
      </trkpt>
      <trkpt lat="47.95152" lon="7.03527">
        <ele>1246</ele>
        <time>2016-07-30T10:56:03Z</time>
      </trkpt>
      <trkpt lat="47.95153" lon="7.03501">
        <ele>1247</ele>
        <time>2016-07-30T10:56:10Z</time>
      </trkpt>
      <trkpt lat="47.95158" lon="7.03475">
        <ele>1245</ele>
        <time>2016-07-30T10:56:18Z</time>
      </trkpt>
      <trkpt lat="47.95168" lon="7.0344">
        <ele>1248</ele>
        <time>2016-07-30T10:56:24Z</time>
      </trkpt>
      <trkpt lat="47.9518" lon="7.03363">
        <ele>1248</ele>
        <time>2016-07-30T10:56:40Z</time>
      </trkpt>
      <trkpt lat="47.95179" lon="7.0334">
        <ele>1249</ele>
        <time>2016-07-30T10:56:47Z</time>
      </trkpt>
      <trkpt lat="47.95176" lon="7.03334">
        <ele>1250</ele>
        <time>2016-07-30T10:56:50Z</time>
      </trkpt>
      <trkpt lat="47.95173" lon="7.03332">
        <ele>1250</ele>
        <time>2016-07-30T10:56:52Z</time>
      </trkpt>
      <trkpt lat="47.95169" lon="7.03325">
        <ele>1250</ele>
        <time>2016-07-30T10:56:58Z</time>
      </trkpt>
      <trkpt lat="47.95163" lon="7.0332">
        <ele>1252</ele>
        <time>2016-07-30T10:57:03Z</time>
      </trkpt>
      <trkpt lat="47.95141" lon="7.03281">
        <ele>1254</ele>
        <time>2016-07-30T10:57:20Z</time>
      </trkpt>
      <trkpt lat="47.95134" lon="7.03272">
        <ele>1254</ele>
        <time>2016-07-30T10:57:24Z</time>
      </trkpt>
      <trkpt lat="47.95118" lon="7.03246">
        <ele>1256</ele>
        <time>2016-07-30T10:57:34Z</time>
      </trkpt>
      <trkpt lat="47.95113" lon="7.03244">
        <ele>1257</ele>
        <time>2016-07-30T10:57:37Z</time>
      </trkpt>
      <trkpt lat="47.95109" lon="7.0324">
        <ele>1257</ele>
        <time>2016-07-30T10:57:40Z</time>
      </trkpt>
      <trkpt lat="47.95099" lon="7.03237">
        <ele>1258</ele>
        <time>2016-07-30T10:57:47Z</time>
      </trkpt>
      <trkpt lat="47.95085" lon="7.03224">
        <ele>1258</ele>
        <time>2016-07-30T10:57:57Z</time>
      </trkpt>
      <trkpt lat="47.95074" lon="7.03217">
        <ele>1262</ele>
        <time>2016-07-30T10:58:03Z</time>
      </trkpt>
      <trkpt lat="47.95062" lon="7.03206">
        <ele>1262</ele>
        <time>2016-07-30T10:58:10Z</time>
      </trkpt>
      <trkpt lat="47.95054" lon="7.03196">
        <ele>1262</ele>
        <time>2016-07-30T10:58:15Z</time>
      </trkpt>
      <trkpt lat="47.95037" lon="7.0316">
        <ele>1265</ele>
        <time>2016-07-30T10:58:30Z</time>
      </trkpt>
      <trkpt lat="47.9503" lon="7.03149">
        <ele>1265</ele>
        <time>2016-07-30T10:58:34Z</time>
      </trkpt>
      <trkpt lat="47.95029" lon="7.03144">
        <ele>1265</ele>
        <time>2016-07-30T10:58:36Z</time>
      </trkpt>
      <trkpt lat="47.95007" lon="7.03114">
        <ele>1266</ele>
        <time>2016-07-30T10:58:51Z</time>
      </trkpt>
      <trkpt lat="47.95" lon="7.03107">
        <ele>1269</ele>
        <time>2016-07-30T10:58:55Z</time>
      </trkpt>
      <trkpt lat="47.94981" lon="7.03091">
        <ele>1270</ele>
        <time>2016-07-30T10:59:06Z</time>
      </trkpt>
      <trkpt lat="47.94956" lon="7.03064">
        <ele>1272</ele>
        <time>2016-07-30T10:59:21Z</time>
      </trkpt>
      <trkpt lat="47.94947" lon="7.03051">
        <ele>1273</ele>
        <time>2016-07-30T10:59:27Z</time>
      </trkpt>
      <trkpt lat="47.94921" lon="7.03007">
        <ele>1274</ele>
        <time>2016-07-30T10:59:47Z</time>
      </trkpt>
      <trkpt lat="47.94915" lon="7.02992">
        <ele>1275</ele>
        <time>2016-07-30T10:59:52Z</time>
      </trkpt>
      <trkpt lat="47.94902" lon="7.02968">
        <ele>1275</ele>
        <time>2016-07-30T11:00:01Z</time>
      </trkpt>
      <trkpt lat="47.94887" lon="7.02939">
        <ele>1276</ele>
        <time>2016-07-30T11:00:11Z</time>
      </trkpt>
      <trkpt lat="47.94861" lon="7.02895">
        <ele>1276</ele>
        <time>2016-07-30T11:00:27Z</time>
      </trkpt>
      <trkpt lat="47.94845" lon="7.02865">
        <ele>1276</ele>
        <time>2016-07-30T11:00:39Z</time>
      </trkpt>
      <trkpt lat="47.94839" lon="7.02859">
        <ele>1276</ele>
        <time>2016-07-30T11:00:42Z</time>
      </trkpt>
      <trkpt lat="47.94835" lon="7.02857">
        <ele>1276</ele>
        <time>2016-07-30T11:00:44Z</time>
      </trkpt>
      <trkpt lat="47.94823" lon="7.02862">
        <ele>1276</ele>
        <time>2016-07-30T11:00:51Z</time>
      </trkpt>
      <trkpt lat="47.94807" lon="7.02848">
        <ele>1276</ele>
        <time>2016-07-30T11:00:59Z</time>
      </trkpt>
      <trkpt lat="47.9476" lon="7.02794">
        <ele>1276</ele>
        <time>2016-07-30T11:01:21Z</time>
      </trkpt>
      <trkpt lat="47.94739" lon="7.02766">
        <ele>1275</ele>
        <time>2016-07-30T11:01:30Z</time>
      </trkpt>
      <trkpt lat="47.94716" lon="7.02734">
        <ele>1277</ele>
        <time>2016-07-30T11:01:38Z</time>
      </trkpt>
      <trkpt lat="47.94712" lon="7.02731">
        <ele>1277</ele>
        <time>2016-07-30T11:01:39Z</time>
      </trkpt>
      <trkpt lat="47.94668" lon="7.02673">
        <ele>1276</ele>
        <time>2016-07-30T11:01:53Z</time>
      </trkpt>
      <trkpt lat="47.94654" lon="7.02652">
        <ele>1273</ele>
        <time>2016-07-30T11:01:57Z</time>
      </trkpt>
      <trkpt lat="47.94634" lon="7.02619">
        <ele>1271</ele>
        <time>2016-07-30T11:02:03Z</time>
      </trkpt>
      <trkpt lat="47.94626" lon="7.02602">
        <ele>1271</ele>
        <time>2016-07-30T11:02:06Z</time>
      </trkpt>
      <trkpt lat="47.94617" lon="7.02568">
        <ele>1270</ele>
        <time>2016-07-30T11:02:11Z</time>
      </trkpt>
      <trkpt lat="47.94599" lon="7.02472">
        <ele>1268</ele>
        <time>2016-07-30T11:02:25Z</time>
      </trkpt>
      <trkpt lat="47.94582" lon="7.02397">
        <ele>1262</ele>
        <time>2016-07-30T11:02:35Z</time>
      </trkpt>
      <trkpt lat="47.94579" lon="7.02378">
        <ele>1262</ele>
        <time>2016-07-30T11:02:37Z</time>
      </trkpt>
      <trkpt lat="47.94567" lon="7.02334">
        <ele>1261</ele>
        <time>2016-07-30T11:02:42Z</time>
      </trkpt>
      <trkpt lat="47.94559" lon="7.02318">
        <ele>1260</ele>
        <time>2016-07-30T11:02:45Z</time>
      </trkpt>
      <trkpt lat="47.94549" lon="7.02311">
        <ele>1259</ele>
        <time>2016-07-30T11:02:50Z</time>
      </trkpt>
      <trkpt lat="47.94533" lon="7.02309">
        <ele>1259</ele>
        <time>2016-07-30T11:02:57Z</time>
      </trkpt>
      <trkpt lat="47.94521" lon="7.02314">
        <ele>1259</ele>
        <time>2016-07-30T11:03:01Z</time>
      </trkpt>
      <trkpt lat="47.94493" lon="7.02326">
        <ele>1258</ele>
        <time>2016-07-30T11:03:09Z</time>
      </trkpt>
      <trkpt lat="47.94476" lon="7.02317">
        <ele>1257</ele>
        <time>2016-07-30T11:03:12Z</time>
      </trkpt>
      <trkpt lat="47.94464" lon="7.02317">
        <ele>1256</ele>
        <time>2016-07-30T11:03:14Z</time>
      </trkpt>
      <trkpt lat="47.94459" lon="7.02318">
        <ele>1256</ele>
        <time>2016-07-30T11:03:15Z</time>
      </trkpt>
      <trkpt lat="47.94435" lon="7.02334">
        <ele>1253</ele>
        <time>2016-07-30T11:03:19Z</time>
      </trkpt>
      <trkpt lat="47.94427" lon="7.02338">
        <ele>1253</ele>
        <time>2016-07-30T11:03:20Z</time>
      </trkpt>
      <trkpt lat="47.94419" lon="7.02339">
        <ele>1253</ele>
        <time>2016-07-30T11:03:21Z</time>
      </trkpt>
      <trkpt lat="47.94412" lon="7.02339">
        <ele>1250</ele>
        <time>2016-07-30T11:03:22Z</time>
      </trkpt>
      <trkpt lat="47.94393" lon="7.02329">
        <ele>1249</ele>
        <time>2016-07-30T11:03:25Z</time>
      </trkpt>
      <trkpt lat="47.94374" lon="7.02326">
        <ele>1248</ele>
        <time>2016-07-30T11:03:28Z</time>
      </trkpt>
      <trkpt lat="47.9434" lon="7.02323">
        <ele>1245</ele>
        <time>2016-07-30T11:03:33Z</time>
      </trkpt>
      <trkpt lat="47.94307" lon="7.02331">
        <ele>1237</ele>
        <time>2016-07-30T11:03:39Z</time>
      </trkpt>
      <trkpt lat="47.94282" lon="7.02332">
        <ele>1234</ele>
        <time>2016-07-30T11:03:43Z</time>
      </trkpt>
      <trkpt lat="47.94273" lon="7.02339">
        <ele>1232</ele>
        <time>2016-07-30T11:03:45Z</time>
      </trkpt>
      <trkpt lat="47.94265" lon="7.02349">
        <ele>1231</ele>
        <time>2016-07-30T11:03:47Z</time>
      </trkpt>
      <trkpt lat="47.9426" lon="7.02352">
        <ele>1231</ele>
        <time>2016-07-30T11:03:48Z</time>
      </trkpt>
      <trkpt lat="47.94243" lon="7.02352">
        <ele>1224</ele>
        <time>2016-07-30T11:03:51Z</time>
      </trkpt>
      <trkpt lat="47.94219" lon="7.02348">
        <ele>1222</ele>
        <time>2016-07-30T11:03:56Z</time>
      </trkpt>
      <trkpt lat="47.94175" lon="7.02348">
        <ele>1218</ele>
        <time>2016-07-30T11:04:06Z</time>
      </trkpt>
      <trkpt lat="47.94142" lon="7.02345">
        <ele>1215</ele>
        <time>2016-07-30T11:04:14Z</time>
      </trkpt>
      <trkpt lat="47.94118" lon="7.02341">
        <ele>1215</ele>
        <time>2016-07-30T11:04:21Z</time>
      </trkpt>
      <trkpt lat="47.94099" lon="7.02336">
        <ele>1215</ele>
        <time>2016-07-30T11:04:28Z</time>
      </trkpt>
      <trkpt lat="47.94076" lon="7.02334">
        <ele>1216</ele>
        <time>2016-07-30T11:04:37Z</time>
      </trkpt>
      <trkpt lat="47.94036" lon="7.02327">
        <ele>1217</ele>
        <time>2016-07-30T11:04:52Z</time>
      </trkpt>
      <trkpt lat="47.94018" lon="7.02326">
        <ele>1218</ele>
        <time>2016-07-30T11:05:01Z</time>
      </trkpt>
      <trkpt lat="47.93999" lon="7.02324">
        <ele>1218</ele>
        <time>2016-07-30T11:05:08Z</time>
      </trkpt>
      <trkpt lat="47.93973" lon="7.0232">
        <ele>1217</ele>
        <time>2016-07-30T11:05:14Z</time>
      </trkpt>
      <trkpt lat="47.93956" lon="7.02314">
        <ele>1216</ele>
        <time>2016-07-30T11:05:17Z</time>
      </trkpt>
      <trkpt lat="47.93905" lon="7.02301">
        <ele>1212</ele>
        <time>2016-07-30T11:05:26Z</time>
      </trkpt>
      <trkpt lat="47.93855" lon="7.02281">
        <ele>1211</ele>
        <time>2016-07-30T11:05:34Z</time>
      </trkpt>
      <trkpt lat="47.9373" lon="7.02226">
        <ele>1207</ele>
        <time>2016-07-30T11:05:54Z</time>
      </trkpt>
      <trkpt lat="47.93669" lon="7.02197">
        <ele>1209</ele>
        <time>2016-07-30T11:06:11Z</time>
      </trkpt>
      <trkpt lat="47.93642" lon="7.02182">
        <ele>1210</ele>
        <time>2016-07-30T11:06:20Z</time>
      </trkpt>
      <trkpt lat="47.93625" lon="7.02165">
        <ele>1210</ele>
        <time>2016-07-30T11:06:26Z</time>
      </trkpt>
      <trkpt lat="47.93592" lon="7.02122">
        <ele>1209</ele>
        <time>2016-07-30T11:06:36Z</time>
      </trkpt>
      <trkpt lat="47.93541" lon="7.02068">
        <ele>1208</ele>
        <time>2016-07-30T11:06:53Z</time>
      </trkpt>
      <trkpt lat="47.93524" lon="7.02053">
        <ele>1208</ele>
        <time>2016-07-30T11:07:00Z</time>
      </trkpt>
      <trkpt lat="47.93517" lon="7.0205">
        <ele>1209</ele>
        <time>2016-07-30T11:07:03Z</time>
      </trkpt>
      <trkpt lat="47.93515" lon="7.0205">
        <ele>1209</ele>
        <time>2016-07-30T11:07:04Z</time>
      </trkpt>
      <trkpt lat="47.93497" lon="7.02065">
        <ele>1211</ele>
        <time>2016-07-30T11:07:12Z</time>
      </trkpt>
      <trkpt lat="47.93494" lon="7.02065">
        <ele>1211</ele>
        <time>2016-07-30T11:07:13Z</time>
      </trkpt>
      <trkpt lat="47.93489" lon="7.0206">
        <ele>1211</ele>
        <time>2016-07-30T11:07:16Z</time>
      </trkpt>
      <trkpt lat="47.93464" lon="7.02042">
        <ele>1212</ele>
        <time>2016-07-30T11:07:26Z</time>
      </trkpt>
      <trkpt lat="47.93449" lon="7.0202">
        <ele>1212</ele>
        <time>2016-07-30T11:07:33Z</time>
      </trkpt>
      <trkpt lat="47.93438" lon="7.02008">
        <ele>1213</ele>
        <time>2016-07-30T11:07:38Z</time>
      </trkpt>
      <trkpt lat="47.93431" lon="7.02004">
        <ele>1213</ele>
        <time>2016-07-30T11:07:41Z</time>
      </trkpt>
      <trkpt lat="47.93415" lon="7.02001">
        <ele>1214</ele>
        <time>2016-07-30T11:07:47Z</time>
      </trkpt>
      <trkpt lat="47.93369" lon="7.01984">
        <ele>1211</ele>
        <time>2016-07-30T11:08:04Z</time>
      </trkpt>
      <trkpt lat="47.93345" lon="7.01982">
        <ele>1211</ele>
        <time>2016-07-30T11:08:09Z</time>
      </trkpt>
      <trkpt lat="47.93324" lon="7.01978">
        <ele>1210</ele>
        <time>2016-07-30T11:08:13Z</time>
      </trkpt>
      <trkpt lat="47.93282" lon="7.01979">
        <ele>1208</ele>
        <time>2016-07-30T11:08:20Z</time>
      </trkpt>
      <trkpt lat="47.93218" lon="7.01997">
        <ele>1208</ele>
        <time>2016-07-30T11:08:32Z</time>
      </trkpt>
      <trkpt lat="47.93213" lon="7.01995">
        <ele>1208</ele>
        <time>2016-07-30T11:08:35Z</time>
      </trkpt>
      <trkpt lat="47.93214" lon="7.01979">
        <ele>1208</ele>
        <time>2016-07-30T11:08:42Z</time>
      </trkpt>
      <trkpt lat="47.93215" lon="7.01973">
        <ele>1208</ele>
        <time>2016-07-30T11:08:44Z</time>
      </trkpt>
      <trkpt lat="47.93213" lon="7.01968">
        <ele>1208</ele>
        <time>2016-07-30T11:08:46Z</time>
      </trkpt>
      <trkpt lat="47.93193" lon="7.01965">
        <ele>1208</ele>
        <time>2016-07-30T11:09:00Z</time>
      </trkpt>
      <trkpt lat="47.93187" lon="7.01961">
        <ele>1208</ele>
        <time>2016-07-30T11:09:04Z</time>
      </trkpt>
      <trkpt lat="47.93179" lon="7.01957">
        <ele>1208</ele>
        <time>2016-07-30T11:09:10Z</time>
      </trkpt>
      <trkpt lat="47.93137" lon="7.01946">
        <ele>1210</ele>
        <time>2016-07-30T11:09:29Z</time>
      </trkpt>
      <trkpt lat="47.93054" lon="7.01938">
        <ele>1215</ele>
        <time>2016-07-30T11:10:07Z</time>
      </trkpt>
      <trkpt lat="47.93006" lon="7.01944">
        <ele>1216</ele>
        <time>2016-07-30T11:10:27Z</time>
      </trkpt>
      <trkpt lat="47.92976" lon="7.01945">
        <ele>1219</ele>
        <time>2016-07-30T11:10:40Z</time>
      </trkpt>
      <trkpt lat="47.92957" lon="7.01948">
        <ele>1219</ele>
        <time>2016-07-30T11:10:48Z</time>
      </trkpt>
      <trkpt lat="47.92933" lon="7.01957">
        <ele>1219</ele>
        <time>2016-07-30T11:10:59Z</time>
      </trkpt>
      <trkpt lat="47.92921" lon="7.01957">
        <ele>1220</ele>
        <time>2016-07-30T11:11:06Z</time>
      </trkpt>
      <trkpt lat="47.9291" lon="7.01954">
        <ele>1221</ele>
        <time>2016-07-30T11:11:11Z</time>
      </trkpt>
      <trkpt lat="47.92884" lon="7.01942">
        <ele>1222</ele>
        <time>2016-07-30T11:11:20Z</time>
      </trkpt>
      <trkpt lat="47.92869" lon="7.01937">
        <ele>1223</ele>
        <time>2016-07-30T11:11:24Z</time>
      </trkpt>
      <trkpt lat="47.92856" lon="7.01935">
        <ele>1223</ele>
        <time>2016-07-30T11:11:27Z</time>
      </trkpt>
      <trkpt lat="47.92791" lon="7.01946">
        <ele>1228</ele>
        <time>2016-07-30T11:11:40Z</time>
      </trkpt>
      <trkpt lat="47.92773" lon="7.01953">
        <ele>1229</ele>
        <time>2016-07-30T11:11:43Z</time>
      </trkpt>
      <trkpt lat="47.92765" lon="7.01966">
        <ele>1229</ele>
        <time>2016-07-30T11:11:45Z</time>
      </trkpt>
      <trkpt lat="47.92766" lon="7.01992">
        <ele>1229</ele>
        <time>2016-07-30T11:11:48Z</time>
      </trkpt>
      <trkpt lat="47.92771" lon="7.0201">
        <ele>1224</ele>
        <time>2016-07-30T11:11:50Z</time>
      </trkpt>
      <trkpt lat="47.92796" lon="7.02094">
        <ele>1217</ele>
        <time>2016-07-30T11:11:59Z</time>
      </trkpt>
      <trkpt lat="47.92803" lon="7.02122">
        <ele>1217</ele>
        <time>2016-07-30T11:12:02Z</time>
      </trkpt>
      <trkpt lat="47.92805" lon="7.0214">
        <ele>1217</ele>
        <time>2016-07-30T11:12:04Z</time>
      </trkpt>
      <trkpt lat="47.92804" lon="7.02156">
        <ele>1217</ele>
        <time>2016-07-30T11:12:06Z</time>
      </trkpt>
      <trkpt lat="47.928" lon="7.02169">
        <ele>1219</ele>
        <time>2016-07-30T11:12:08Z</time>
      </trkpt>
      <trkpt lat="47.92796" lon="7.02194">
        <ele>1220</ele>
        <time>2016-07-30T11:12:14Z</time>
      </trkpt>
      <trkpt lat="47.92798" lon="7.02212">
        <ele>1221</ele>
        <time>2016-07-30T11:12:20Z</time>
      </trkpt>
      <trkpt lat="47.92808" lon="7.02227">
        <ele>1219</ele>
        <time>2016-07-30T11:12:24Z</time>
      </trkpt>
      <trkpt lat="47.92813" lon="7.02241">
        <ele>1218</ele>
        <time>2016-07-30T11:12:26Z</time>
      </trkpt>
      <trkpt lat="47.92814" lon="7.0225">
        <ele>1218</ele>
        <time>2016-07-30T11:12:27Z</time>
      </trkpt>
      <trkpt lat="47.92811" lon="7.02355">
        <ele>1221</ele>
        <time>2016-07-30T11:12:38Z</time>
      </trkpt>
      <trkpt lat="47.92798" lon="7.02458">
        <ele>1219</ele>
        <time>2016-07-30T11:12:48Z</time>
      </trkpt>
      <trkpt lat="47.92783" lon="7.02521">
        <ele>1216</ele>
        <time>2016-07-30T11:12:54Z</time>
      </trkpt>
      <trkpt lat="47.9278" lon="7.02531">
        <ele>1215</ele>
        <time>2016-07-30T11:12:55Z</time>
      </trkpt>
      <trkpt lat="47.92771" lon="7.02549">
        <ele>1215</ele>
        <time>2016-07-30T11:12:57Z</time>
      </trkpt>
      <trkpt lat="47.92757" lon="7.0259">
        <ele>1213</ele>
        <time>2016-07-30T11:13:01Z</time>
      </trkpt>
      <trkpt lat="47.92751" lon="7.02598">
        <ele>1211</ele>
        <time>2016-07-30T11:13:02Z</time>
      </trkpt>
      <trkpt lat="47.92743" lon="7.02603">
        <ele>1219</ele>
        <time>2016-07-30T11:13:03Z</time>
      </trkpt>
      <trkpt lat="47.92732" lon="7.0261">
        <ele>1219</ele>
        <time>2016-07-30T11:13:05Z</time>
      </trkpt>
      <trkpt lat="47.92729" lon="7.02613">
        <ele>1219</ele>
        <time>2016-07-30T11:13:06Z</time>
      </trkpt>
      <trkpt lat="47.92727" lon="7.02627">
        <ele>1219</ele>
        <time>2016-07-30T11:13:10Z</time>
      </trkpt>
      <trkpt lat="47.92705" lon="7.02664">
        <ele>1219</ele>
        <time>2016-07-30T11:13:18Z</time>
      </trkpt>
      <trkpt lat="47.92685" lon="7.02717">
        <ele>1214</ele>
        <time>2016-07-30T11:13:27Z</time>
      </trkpt>
      <trkpt lat="47.92678" lon="7.02743">
        <ele>1216</ele>
        <time>2016-07-30T11:13:34Z</time>
      </trkpt>
      <trkpt lat="47.9267" lon="7.02769">
        <ele>1213</ele>
        <time>2016-07-30T11:13:40Z</time>
      </trkpt>
      <trkpt lat="47.92656" lon="7.028">
        <ele>1216</ele>
        <time>2016-07-30T11:13:47Z</time>
      </trkpt>
      <trkpt lat="47.92647" lon="7.0281">
        <ele>1216</ele>
        <time>2016-07-30T11:13:50Z</time>
      </trkpt>
      <trkpt lat="47.92633" lon="7.02822">
        <ele>1216</ele>
        <time>2016-07-30T11:13:53Z</time>
      </trkpt>
      <trkpt lat="47.92622" lon="7.02834">
        <ele>1210</ele>
        <time>2016-07-30T11:13:55Z</time>
      </trkpt>
      <trkpt lat="47.92589" lon="7.02863">
        <ele>1209</ele>
        <time>2016-07-30T11:14:00Z</time>
      </trkpt>
      <trkpt lat="47.92541" lon="7.02901">
        <ele>1206</ele>
        <time>2016-07-30T11:14:06Z</time>
      </trkpt>
      <trkpt lat="47.92522" lon="7.02914">
        <ele>1205</ele>
        <time>2016-07-30T11:14:08Z</time>
      </trkpt>
      <trkpt lat="47.92502" lon="7.02924">
        <ele>1200</ele>
        <time>2016-07-30T11:14:10Z</time>
      </trkpt>
      <trkpt lat="47.92491" lon="7.02927">
        <ele>1199</ele>
        <time>2016-07-30T11:14:11Z</time>
      </trkpt>
      <trkpt lat="47.92453" lon="7.02934">
        <ele>1195</ele>
        <time>2016-07-30T11:14:15Z</time>
      </trkpt>
      <trkpt lat="47.92445" lon="7.02937">
        <ele>1195</ele>
        <time>2016-07-30T11:14:16Z</time>
      </trkpt>
      <trkpt lat="47.92439" lon="7.02942">
        <ele>1195</ele>
        <time>2016-07-30T11:14:17Z</time>
      </trkpt>
      <trkpt lat="47.92434" lon="7.02947">
        <ele>1195</ele>
        <time>2016-07-30T11:14:18Z</time>
      </trkpt>
      <trkpt lat="47.9243" lon="7.02953">
        <ele>1194</ele>
        <time>2016-07-30T11:14:19Z</time>
      </trkpt>
      <trkpt lat="47.9243" lon="7.02968">
        <ele>1193</ele>
        <time>2016-07-30T11:14:21Z</time>
      </trkpt>
      <trkpt lat="47.92434" lon="7.02996">
        <ele>1192</ele>
        <time>2016-07-30T11:14:26Z</time>
      </trkpt>
      <trkpt lat="47.92432" lon="7.03003">
        <ele>1188</ele>
        <time>2016-07-30T11:14:28Z</time>
      </trkpt>
      <trkpt lat="47.92423" lon="7.03008">
        <ele>1189</ele>
        <time>2016-07-30T11:14:31Z</time>
      </trkpt>
      <trkpt lat="47.92422" lon="7.0301">
        <ele>1188</ele>
        <time>2016-07-30T11:14:33Z</time>
      </trkpt>
      <trkpt lat="47.92423" lon="7.03021">
        <ele>1187</ele>
        <time>2016-07-30T11:22:22Z</time>
      </trkpt>
      <trkpt lat="47.92421" lon="7.03026">
        <ele>1187</ele>
        <time>2016-07-30T11:22:24Z</time>
      </trkpt>
      <trkpt lat="47.92409" lon="7.03033">
        <ele>1188</ele>
        <time>2016-07-30T11:22:27Z</time>
      </trkpt>
      <trkpt lat="47.92371" lon="7.03074">
        <ele>1187</ele>
        <time>2016-07-30T11:22:34Z</time>
      </trkpt>
      <trkpt lat="47.92341" lon="7.03115">
        <ele>1183</ele>
        <time>2016-07-30T11:22:40Z</time>
      </trkpt>
      <trkpt lat="47.92328" lon="7.03138">
        <ele>1184</ele>
        <time>2016-07-30T11:22:43Z</time>
      </trkpt>
      <trkpt lat="47.9232" lon="7.03162">
        <ele>1183</ele>
        <time>2016-07-30T11:22:46Z</time>
      </trkpt>
      <trkpt lat="47.9231" lon="7.03182">
        <ele>1182</ele>
        <time>2016-07-30T11:22:51Z</time>
      </trkpt>
      <trkpt lat="47.9231" lon="7.03185">
        <ele>1182</ele>
        <time>2016-07-30T11:22:57Z</time>
      </trkpt>
      <trkpt lat="47.923" lon="7.03254">
        <ele>1180</ele>
        <time>2016-07-30T11:23:09Z</time>
      </trkpt>
      <trkpt lat="47.92296" lon="7.03266">
        <ele>1180</ele>
        <time>2016-07-30T11:23:11Z</time>
      </trkpt>
      <trkpt lat="47.92277" lon="7.03359">
        <ele>1176</ele>
        <time>2016-07-30T11:23:23Z</time>
      </trkpt>
      <trkpt lat="47.9227" lon="7.03405">
        <ele>1173</ele>
        <time>2016-07-30T11:23:27Z</time>
      </trkpt>
      <trkpt lat="47.9227" lon="7.03417">
        <ele>1170</ele>
        <time>2016-07-30T11:23:28Z</time>
      </trkpt>
      <trkpt lat="47.92272" lon="7.03426">
        <ele>1170</ele>
        <time>2016-07-30T11:23:29Z</time>
      </trkpt>
      <trkpt lat="47.92276" lon="7.03431">
        <ele>1170</ele>
        <time>2016-07-30T11:23:30Z</time>
      </trkpt>
      <trkpt lat="47.92284" lon="7.03434">
        <ele>1171</ele>
        <time>2016-07-30T11:23:33Z</time>
      </trkpt>
      <trkpt lat="47.92283" lon="7.03474">
        <ele>1169</ele>
        <time>2016-07-30T11:23:45Z</time>
      </trkpt>
      <trkpt lat="47.92291" lon="7.03548">
        <ele>1167</ele>
        <time>2016-07-30T11:23:58Z</time>
      </trkpt>
      <trkpt lat="47.92295" lon="7.03618">
        <ele>1170</ele>
        <time>2016-07-30T11:24:11Z</time>
      </trkpt>
      <trkpt lat="47.92295" lon="7.0364">
        <ele>1171</ele>
        <time>2016-07-30T11:24:15Z</time>
      </trkpt>
      <trkpt lat="47.92291" lon="7.03662">
        <ele>1172</ele>
        <time>2016-07-30T11:24:20Z</time>
      </trkpt>
      <trkpt lat="47.92289" lon="7.03669">
        <ele>1177</ele>
        <time>2016-07-30T11:24:22Z</time>
      </trkpt>
      <trkpt lat="47.92279" lon="7.03692">
        <ele>1176</ele>
        <time>2016-07-30T11:24:29Z</time>
      </trkpt>
      <trkpt lat="47.92268" lon="7.03709">
        <ele>1177</ele>
        <time>2016-07-30T11:24:33Z</time>
      </trkpt>
      <trkpt lat="47.92233" lon="7.03792">
        <ele>1175</ele>
        <time>2016-07-30T11:24:55Z</time>
      </trkpt>
      <trkpt lat="47.92222" lon="7.03809">
        <ele>1176</ele>
        <time>2016-07-30T11:25:00Z</time>
      </trkpt>
      <trkpt lat="47.9219" lon="7.03846">
        <ele>1182</ele>
        <time>2016-07-30T11:25:12Z</time>
      </trkpt>
      <trkpt lat="47.92169" lon="7.03876">
        <ele>1185</ele>
        <time>2016-07-30T11:25:20Z</time>
      </trkpt>
      <trkpt lat="47.92153" lon="7.03897">
        <ele>1175</ele>
        <time>2016-07-30T11:25:27Z</time>
      </trkpt>
      <trkpt lat="47.92145" lon="7.0391">
        <ele>1175</ele>
        <time>2016-07-30T11:25:31Z</time>
      </trkpt>
      <trkpt lat="47.92134" lon="7.03937">
        <ele>1187</ele>
        <time>2016-07-30T11:25:38Z</time>
      </trkpt>
      <trkpt lat="47.92119" lon="7.03959">
        <ele>1188</ele>
        <time>2016-07-30T11:25:43Z</time>
      </trkpt>
      <trkpt lat="47.92099" lon="7.03973">
        <ele>1189</ele>
        <time>2016-07-30T11:25:48Z</time>
      </trkpt>
      <trkpt lat="47.92067" lon="7.03988">
        <ele>1181</ele>
        <time>2016-07-30T11:25:57Z</time>
      </trkpt>
      <trkpt lat="47.9206" lon="7.03993">
        <ele>1180</ele>
        <time>2016-07-30T11:26:01Z</time>
      </trkpt>
      <trkpt lat="47.9205" lon="7.03997">
        <ele>1178</ele>
        <time>2016-07-30T11:26:05Z</time>
      </trkpt>
      <trkpt lat="47.92042" lon="7.04003">
        <ele>1193</ele>
        <time>2016-07-30T11:26:09Z</time>
      </trkpt>
      <trkpt lat="47.92036" lon="7.04011">
        <ele>1193</ele>
        <time>2016-07-30T11:26:15Z</time>
      </trkpt>
      <trkpt lat="47.9203" lon="7.04014">
        <ele>1192</ele>
        <time>2016-07-30T11:26:19Z</time>
      </trkpt>
      <trkpt lat="47.92022" lon="7.04021">
        <ele>1192</ele>
        <time>2016-07-30T11:26:28Z</time>
      </trkpt>
      <trkpt lat="47.92019" lon="7.0402">
        <ele>1191</ele>
        <time>2016-07-30T11:26:40Z</time>
      </trkpt>
      <trkpt lat="47.92013" lon="7.04022">
        <ele>1191</ele>
        <time>2016-07-30T11:26:42Z</time>
      </trkpt>
      <trkpt lat="47.91977" lon="7.04048">
        <ele>1185</ele>
        <time>2016-07-30T11:26:49Z</time>
      </trkpt>
      <trkpt lat="47.91971" lon="7.04055">
        <ele>1186</ele>
        <time>2016-07-30T11:26:50Z</time>
      </trkpt>
      <trkpt lat="47.9195" lon="7.04074">
        <ele>1185</ele>
        <time>2016-07-30T11:26:58Z</time>
      </trkpt>
      <trkpt lat="47.91928" lon="7.04087">
        <ele>1194</ele>
        <time>2016-07-30T11:27:03Z</time>
      </trkpt>
      <trkpt lat="47.91911" lon="7.04091">
        <ele>1188</ele>
        <time>2016-07-30T11:27:07Z</time>
      </trkpt>
      <trkpt lat="47.91898" lon="7.04096">
        <ele>1189</ele>
        <time>2016-07-30T11:27:11Z</time>
      </trkpt>
      <trkpt lat="47.91862" lon="7.04122">
        <ele>1190</ele>
        <time>2016-07-30T11:27:20Z</time>
      </trkpt>
      <trkpt lat="47.91827" lon="7.04138">
        <ele>1181</ele>
        <time>2016-07-30T11:27:27Z</time>
      </trkpt>
      <trkpt lat="47.91804" lon="7.0415">
        <ele>1180</ele>
        <time>2016-07-30T11:27:33Z</time>
      </trkpt>
      <trkpt lat="47.9177" lon="7.04176">
        <ele>1187</ele>
        <time>2016-07-30T11:27:41Z</time>
      </trkpt>
      <trkpt lat="47.91766" lon="7.04182">
        <ele>1187</ele>
        <time>2016-07-30T11:27:45Z</time>
      </trkpt>
      <trkpt lat="47.91764" lon="7.04183">
        <ele>1187</ele>
        <time>2016-07-30T11:28:00Z</time>
      </trkpt>
      <trkpt lat="47.91762" lon="7.04185">
        <ele>1187</ele>
        <time>2016-07-30T11:28:01Z</time>
      </trkpt>
      <trkpt lat="47.91752" lon="7.04195">
        <ele>1189</ele>
        <time>2016-07-30T11:28:03Z</time>
      </trkpt>
      <trkpt lat="47.91742" lon="7.042">
        <ele>1174</ele>
        <time>2016-07-30T11:28:07Z</time>
      </trkpt>
      <trkpt lat="47.91733" lon="7.04207">
        <ele>1175</ele>
        <time>2016-07-30T11:28:11Z</time>
      </trkpt>
      <trkpt lat="47.91729" lon="7.04216">
        <ele>1176</ele>
        <time>2016-07-30T11:28:14Z</time>
      </trkpt>
      <trkpt lat="47.91714" lon="7.04245">
        <ele>1176</ele>
        <time>2016-07-30T11:28:26Z</time>
      </trkpt>
      <trkpt lat="47.91713" lon="7.04249">
        <ele>1176</ele>
        <time>2016-07-30T11:28:28Z</time>
      </trkpt>
      <trkpt lat="47.91704" lon="7.04266">
        <ele>1189</ele>
        <time>2016-07-30T11:28:33Z</time>
      </trkpt>
      <trkpt lat="47.91689" lon="7.0429">
        <ele>1190</ele>
        <time>2016-07-30T11:28:45Z</time>
      </trkpt>
      <trkpt lat="47.91683" lon="7.04307">
        <ele>1192</ele>
        <time>2016-07-30T11:28:53Z</time>
      </trkpt>
      <trkpt lat="47.9168" lon="7.0431">
        <ele>1192</ele>
        <time>2016-07-30T11:28:56Z</time>
      </trkpt>
      <trkpt lat="47.91672" lon="7.04328">
        <ele>1193</ele>
        <time>2016-07-30T11:29:05Z</time>
      </trkpt>
      <trkpt lat="47.91669" lon="7.04333">
        <ele>1193</ele>
        <time>2016-07-30T11:29:07Z</time>
      </trkpt>
      <trkpt lat="47.91666" lon="7.04335">
        <ele>1193</ele>
        <time>2016-07-30T11:29:08Z</time>
      </trkpt>
      <trkpt lat="47.91662" lon="7.04341">
        <ele>1194</ele>
        <time>2016-07-30T11:29:10Z</time>
      </trkpt>
      <trkpt lat="47.91634" lon="7.04365">
        <ele>1194</ele>
        <time>2016-07-30T11:29:22Z</time>
      </trkpt>
      <trkpt lat="47.9162" lon="7.04372">
        <ele>1194</ele>
        <time>2016-07-30T11:29:27Z</time>
      </trkpt>
      <trkpt lat="47.91592" lon="7.04391">
        <ele>1195</ele>
        <time>2016-07-30T11:29:32Z</time>
      </trkpt>
      <trkpt lat="47.91563" lon="7.04407">
        <ele>1188</ele>
        <time>2016-07-30T11:29:37Z</time>
      </trkpt>
      <trkpt lat="47.91548" lon="7.04414">
        <ele>1186</ele>
        <time>2016-07-30T11:29:40Z</time>
      </trkpt>
      <trkpt lat="47.91531" lon="7.04419">
        <ele>1196</ele>
        <time>2016-07-30T11:29:44Z</time>
      </trkpt>
      <trkpt lat="47.91508" lon="7.04423">
        <ele>1191</ele>
        <time>2016-07-30T11:29:49Z</time>
      </trkpt>
      <trkpt lat="47.91457" lon="7.04426">
        <ele>1188</ele>
        <time>2016-07-30T11:29:59Z</time>
      </trkpt>
      <trkpt lat="47.91434" lon="7.04436">
        <ele>1187</ele>
        <time>2016-07-30T11:30:04Z</time>
      </trkpt>
      <trkpt lat="47.91416" lon="7.0444">
        <ele>1177</ele>
        <time>2016-07-30T11:30:07Z</time>
      </trkpt>
      <trkpt lat="47.91407" lon="7.04451">
        <ele>1177</ele>
        <time>2016-07-30T11:30:09Z</time>
      </trkpt>
      <trkpt lat="47.914" lon="7.04464">
        <ele>1178</ele>
        <time>2016-07-30T11:30:11Z</time>
      </trkpt>
      <trkpt lat="47.91395" lon="7.04469">
        <ele>1178</ele>
        <time>2016-07-30T11:30:12Z</time>
      </trkpt>
      <trkpt lat="47.91385" lon="7.04484">
        <ele>1177</ele>
        <time>2016-07-30T11:30:15Z</time>
      </trkpt>
      <trkpt lat="47.9137" lon="7.04514">
        <ele>1183</ele>
        <time>2016-07-30T11:30:20Z</time>
      </trkpt>
      <trkpt lat="47.9136" lon="7.04532">
        <ele>1182</ele>
        <time>2016-07-30T11:30:24Z</time>
      </trkpt>
      <trkpt lat="47.91308" lon="7.04644">
        <ele>1176</ele>
        <time>2016-07-30T11:30:43Z</time>
      </trkpt>
      <trkpt lat="47.91298" lon="7.04672">
        <ele>1180</ele>
        <time>2016-07-30T11:30:49Z</time>
      </trkpt>
      <trkpt lat="47.91294" lon="7.04694">
        <ele>1179</ele>
        <time>2016-07-30T11:30:55Z</time>
      </trkpt>
      <trkpt lat="47.91292" lon="7.047">
        <ele>1179</ele>
        <time>2016-07-30T11:30:58Z</time>
      </trkpt>
      <trkpt lat="47.91284" lon="7.04703">
        <ele>1178</ele>
        <time>2016-07-30T11:31:03Z</time>
      </trkpt>
      <trkpt lat="47.91277" lon="7.04697">
        <ele>1176</ele>
        <time>2016-07-30T11:31:10Z</time>
      </trkpt>
      <trkpt lat="47.91278" lon="7.04701">
        <ele>1177</ele>
        <time>2016-07-30T11:32:28Z</time>
      </trkpt>
      <trkpt lat="47.91284" lon="7.04718">
        <ele>1178</ele>
        <time>2016-07-30T11:32:32Z</time>
      </trkpt>
      <trkpt lat="47.91284" lon="7.0473">
        <ele>1178</ele>
        <time>2016-07-30T11:32:34Z</time>
      </trkpt>
      <trkpt lat="47.91255" lon="7.04841">
        <ele>1173</ele>
        <time>2016-07-30T11:32:47Z</time>
      </trkpt>
      <trkpt lat="47.91251" lon="7.04848">
        <ele>1173</ele>
        <time>2016-07-30T11:32:48Z</time>
      </trkpt>
      <trkpt lat="47.91238" lon="7.0486">
        <ele>1169</ele>
        <time>2016-07-30T11:32:51Z</time>
      </trkpt>
      <trkpt lat="47.91203" lon="7.04909">
        <ele>1167</ele>
        <time>2016-07-30T11:33:01Z</time>
      </trkpt>
      <trkpt lat="47.91202" lon="7.04916">
        <ele>1167</ele>
        <time>2016-07-30T11:33:04Z</time>
      </trkpt>
      <trkpt lat="47.91203" lon="7.04922">
        <ele>1170</ele>
        <time>2016-07-30T11:33:06Z</time>
      </trkpt>
      <trkpt lat="47.91201" lon="7.04927">
        <ele>1170</ele>
        <time>2016-07-30T11:33:08Z</time>
      </trkpt>
      <trkpt lat="47.91198" lon="7.04926">
        <ele>1170</ele>
        <time>2016-07-30T11:33:09Z</time>
      </trkpt>
      <trkpt lat="47.91182" lon="7.04936">
        <ele>1170</ele>
        <time>2016-07-30T11:33:16Z</time>
      </trkpt>
      <trkpt lat="47.91173" lon="7.0495">
        <ele>1170</ele>
        <time>2016-07-30T11:33:21Z</time>
      </trkpt>
      <trkpt lat="47.91161" lon="7.04962">
        <ele>1172</ele>
        <time>2016-07-30T11:33:27Z</time>
      </trkpt>
      <trkpt lat="47.91133" lon="7.04996">
        <ele>1175</ele>
        <time>2016-07-30T11:33:44Z</time>
      </trkpt>
      <trkpt lat="47.91126" lon="7.05009">
        <ele>1180</ele>
        <time>2016-07-30T11:33:51Z</time>
      </trkpt>
      <trkpt lat="47.91119" lon="7.05017">
        <ele>1181</ele>
        <time>2016-07-30T11:33:57Z</time>
      </trkpt>
      <trkpt lat="47.91113" lon="7.05031">
        <ele>1181</ele>
        <time>2016-07-30T11:34:02Z</time>
      </trkpt>
      <trkpt lat="47.9111" lon="7.05035">
        <ele>1181</ele>
        <time>2016-07-30T11:34:04Z</time>
      </trkpt>
      <trkpt lat="47.91104" lon="7.0504">
        <ele>1181</ele>
        <time>2016-07-30T11:34:08Z</time>
      </trkpt>
      <trkpt lat="47.91086" lon="7.05062">
        <ele>1182</ele>
        <time>2016-07-30T11:34:18Z</time>
      </trkpt>
      <trkpt lat="47.91073" lon="7.05097">
        <ele>1182</ele>
        <time>2016-07-30T11:34:29Z</time>
      </trkpt>
      <trkpt lat="47.91072" lon="7.05129">
        <ele>1180</ele>
        <time>2016-07-30T11:34:35Z</time>
      </trkpt>
      <trkpt lat="47.91066" lon="7.05224">
        <ele>1179</ele>
        <time>2016-07-30T11:34:43Z</time>
      </trkpt>
      <trkpt lat="47.91067" lon="7.05266">
        <ele>1182</ele>
        <time>2016-07-30T11:34:47Z</time>
      </trkpt>
      <trkpt lat="47.91066" lon="7.05276">
        <ele>1183</ele>
        <time>2016-07-30T11:34:49Z</time>
      </trkpt>
      <trkpt lat="47.91068" lon="7.05288">
        <ele>1184</ele>
        <time>2016-07-30T11:34:54Z</time>
      </trkpt>
      <trkpt lat="47.91071" lon="7.05296">
        <ele>1185</ele>
        <time>2016-07-30T11:35:01Z</time>
      </trkpt>
      <trkpt lat="47.91072" lon="7.05302">
        <ele>1185</ele>
        <time>2016-07-30T11:35:04Z</time>
      </trkpt>
      <trkpt lat="47.91071" lon="7.05313">
        <ele>1187</ele>
        <time>2016-07-30T11:35:09Z</time>
      </trkpt>
      <trkpt lat="47.91073" lon="7.05317">
        <ele>1187</ele>
        <time>2016-07-30T11:35:12Z</time>
      </trkpt>
      <trkpt lat="47.91073" lon="7.05319">
        <ele>1188</ele>
        <time>2016-07-30T11:35:14Z</time>
      </trkpt>
      <trkpt lat="47.91073" lon="7.0532">
        <ele>1188</ele>
        <time>2016-07-30T11:35:15Z</time>
      </trkpt>
      <trkpt lat="47.91071" lon="7.05326">
        <ele>1189</ele>
        <time>2016-07-30T11:35:18Z</time>
      </trkpt>
      <trkpt lat="47.91071" lon="7.05328">
        <ele>1189</ele>
        <time>2016-07-30T11:35:19Z</time>
      </trkpt>
      <trkpt lat="47.91072" lon="7.0535">
        <ele>1192</ele>
        <time>2016-07-30T11:35:28Z</time>
      </trkpt>
      <trkpt lat="47.91071" lon="7.05369">
        <ele>1193</ele>
        <time>2016-07-30T11:35:36Z</time>
      </trkpt>
      <trkpt lat="47.91072" lon="7.05378">
        <ele>1194</ele>
        <time>2016-07-30T11:35:40Z</time>
      </trkpt>
      <trkpt lat="47.91074" lon="7.05387">
        <ele>1195</ele>
        <time>2016-07-30T11:35:46Z</time>
      </trkpt>
      <trkpt lat="47.91073" lon="7.05403">
        <ele>1198</ele>
        <time>2016-07-30T11:35:55Z</time>
      </trkpt>
      <trkpt lat="47.91076" lon="7.05419">
        <ele>1202</ele>
        <time>2016-07-30T11:36:03Z</time>
      </trkpt>
      <trkpt lat="47.91076" lon="7.0543">
        <ele>1201</ele>
        <time>2016-07-30T11:36:07Z</time>
      </trkpt>
      <trkpt lat="47.91075" lon="7.05442">
        <ele>1199</ele>
        <time>2016-07-30T11:36:12Z</time>
      </trkpt>
      <trkpt lat="47.91075" lon="7.05467">
        <ele>1199</ele>
        <time>2016-07-30T11:36:22Z</time>
      </trkpt>
      <trkpt lat="47.91078" lon="7.05478">
        <ele>1199</ele>
        <time>2016-07-30T11:36:27Z</time>
      </trkpt>
      <trkpt lat="47.91082" lon="7.05508">
        <ele>1202</ele>
        <time>2016-07-30T11:36:37Z</time>
      </trkpt>
      <trkpt lat="47.91084" lon="7.05529">
        <ele>1207</ele>
        <time>2016-07-30T11:36:42Z</time>
      </trkpt>
      <trkpt lat="47.91087" lon="7.05557">
        <ele>1208</ele>
        <time>2016-07-30T11:36:47Z</time>
      </trkpt>
      <trkpt lat="47.91085" lon="7.05576">
        <ele>1208</ele>
        <time>2016-07-30T11:36:50Z</time>
      </trkpt>
      <trkpt lat="47.9108" lon="7.05622">
        <ele>1200</ele>
        <time>2016-07-30T11:37:00Z</time>
      </trkpt>
      <trkpt lat="47.91081" lon="7.05637">
        <ele>1201</ele>
        <time>2016-07-30T11:37:04Z</time>
      </trkpt>
      <trkpt lat="47.91083" lon="7.05645">
        <ele>1203</ele>
        <time>2016-07-30T11:37:06Z</time>
      </trkpt>
      <trkpt lat="47.91083" lon="7.05667">
        <ele>1211</ele>
        <time>2016-07-30T11:37:10Z</time>
      </trkpt>
      <trkpt lat="47.91081" lon="7.05674">
        <ele>1206</ele>
        <time>2016-07-30T11:37:13Z</time>
      </trkpt>
      <trkpt lat="47.91079" lon="7.05696">
        <ele>1196</ele>
        <time>2016-07-30T11:37:25Z</time>
      </trkpt>
      <trkpt lat="47.91079" lon="7.05712">
        <ele>1194</ele>
        <time>2016-07-30T11:37:29Z</time>
      </trkpt>
      <trkpt lat="47.91081" lon="7.05727">
        <ele>1195</ele>
        <time>2016-07-30T11:37:34Z</time>
      </trkpt>
      <trkpt lat="47.91082" lon="7.05754">
        <ele>1201</ele>
        <time>2016-07-30T11:37:40Z</time>
      </trkpt>
      <trkpt lat="47.91082" lon="7.05755">
        <ele>1200</ele>
        <time>2016-07-30T11:37:41Z</time>
      </trkpt>
      <trkpt lat="47.91084" lon="7.05768">
        <ele>1206</ele>
        <time>2016-07-30T11:37:50Z</time>
      </trkpt>
      <trkpt lat="47.91084" lon="7.05772">
        <ele>1206</ele>
        <time>2016-07-30T11:37:51Z</time>
      </trkpt>
      <trkpt lat="47.91086" lon="7.05777">
        <ele>1206</ele>
        <time>2016-07-30T11:37:53Z</time>
      </trkpt>
      <trkpt lat="47.91089" lon="7.05793">
        <ele>1205</ele>
        <time>2016-07-30T11:37:57Z</time>
      </trkpt>
      <trkpt lat="47.91095" lon="7.05846">
        <ele>1198</ele>
        <time>2016-07-30T11:38:06Z</time>
      </trkpt>
      <trkpt lat="47.91119" lon="7.0589">
        <ele>1197</ele>
        <time>2016-07-30T11:38:14Z</time>
      </trkpt>
      <trkpt lat="47.91126" lon="7.05899">
        <ele>1196</ele>
        <time>2016-07-30T11:38:15Z</time>
      </trkpt>
      <trkpt lat="47.91136" lon="7.05917">
        <ele>1196</ele>
        <time>2016-07-30T11:38:17Z</time>
      </trkpt>
      <trkpt lat="47.91138" lon="7.05928">
        <ele>1193</ele>
        <time>2016-07-30T11:38:18Z</time>
      </trkpt>
      <trkpt lat="47.91138" lon="7.0594">
        <ele>1193</ele>
        <time>2016-07-30T11:38:19Z</time>
      </trkpt>
      <trkpt lat="47.91141" lon="7.0595">
        <ele>1193</ele>
        <time>2016-07-30T11:38:20Z</time>
      </trkpt>
      <trkpt lat="47.91147" lon="7.05969">
        <ele>1193</ele>
        <time>2016-07-30T11:38:22Z</time>
      </trkpt>
      <trkpt lat="47.9115" lon="7.0598">
        <ele>1194</ele>
        <time>2016-07-30T11:38:23Z</time>
      </trkpt>
      <trkpt lat="47.91153" lon="7.06009">
        <ele>1195</ele>
        <time>2016-07-30T11:38:28Z</time>
      </trkpt>
      <trkpt lat="47.91153" lon="7.06012">
        <ele>1195</ele>
        <time>2016-07-30T11:39:05Z</time>
      </trkpt>
      <trkpt lat="47.91154" lon="7.06058">
        <ele>1196</ele>
        <time>2016-07-30T11:39:13Z</time>
      </trkpt>
      <trkpt lat="47.91154" lon="7.06077">
        <ele>1198</ele>
        <time>2016-07-30T11:39:20Z</time>
      </trkpt>
      <trkpt lat="47.91151" lon="7.06087">
        <ele>1200</ele>
        <time>2016-07-30T11:39:24Z</time>
      </trkpt>
      <trkpt lat="47.91151" lon="7.06102">
        <ele>1198</ele>
        <time>2016-07-30T11:39:28Z</time>
      </trkpt>
      <trkpt lat="47.91147" lon="7.06116">
        <ele>1197</ele>
        <time>2016-07-30T11:39:32Z</time>
      </trkpt>
      <trkpt lat="47.91145" lon="7.06118">
        <ele>1197</ele>
        <time>2016-07-30T11:39:33Z</time>
      </trkpt>
      <trkpt lat="47.91144" lon="7.06121">
        <ele>1197</ele>
        <time>2016-07-30T11:39:35Z</time>
      </trkpt>
      <trkpt lat="47.91141" lon="7.06132">
        <ele>1197</ele>
        <time>2016-07-30T11:39:47Z</time>
      </trkpt>
      <trkpt lat="47.91131" lon="7.06161">
        <ele>1196</ele>
        <time>2016-07-30T11:39:55Z</time>
      </trkpt>
      <trkpt lat="47.91125" lon="7.0618">
        <ele>1197</ele>
        <time>2016-07-30T11:40:01Z</time>
      </trkpt>
      <trkpt lat="47.9112" lon="7.06207">
        <ele>1197</ele>
        <time>2016-07-30T11:40:08Z</time>
      </trkpt>
      <trkpt lat="47.9112" lon="7.06233">
        <ele>1197</ele>
        <time>2016-07-30T11:40:14Z</time>
      </trkpt>
      <trkpt lat="47.91118" lon="7.0625">
        <ele>1196</ele>
        <time>2016-07-30T11:40:18Z</time>
      </trkpt>
      <trkpt lat="47.91117" lon="7.06282">
        <ele>1200</ele>
        <time>2016-07-30T11:40:23Z</time>
      </trkpt>
      <trkpt lat="47.91118" lon="7.06287">
        <ele>1200</ele>
        <time>2016-07-30T11:40:24Z</time>
      </trkpt>
      <trkpt lat="47.91119" lon="7.06295">
        <ele>1200</ele>
        <time>2016-07-30T11:40:26Z</time>
      </trkpt>
      <trkpt lat="47.91116" lon="7.06315">
        <ele>1200</ele>
        <time>2016-07-30T11:40:31Z</time>
      </trkpt>
      <trkpt lat="47.91109" lon="7.06353">
        <ele>1203</ele>
        <time>2016-07-30T11:40:39Z</time>
      </trkpt>
      <trkpt lat="47.91099" lon="7.06378">
        <ele>1204</ele>
        <time>2016-07-30T11:40:45Z</time>
      </trkpt>
      <trkpt lat="47.91082" lon="7.06423">
        <ele>1198</ele>
        <time>2016-07-30T11:40:53Z</time>
      </trkpt>
      <trkpt lat="47.91066" lon="7.06463">
        <ele>1195</ele>
        <time>2016-07-30T11:41:00Z</time>
      </trkpt>
      <trkpt lat="47.91042" lon="7.06516">
        <ele>1199</ele>
        <time>2016-07-30T11:41:12Z</time>
      </trkpt>
      <trkpt lat="47.91025" lon="7.06544">
        <ele>1198</ele>
        <time>2016-07-30T11:41:19Z</time>
      </trkpt>
      <trkpt lat="47.91001" lon="7.06591">
        <ele>1197</ele>
        <time>2016-07-30T11:41:29Z</time>
      </trkpt>
      <trkpt lat="47.90983" lon="7.06621">
        <ele>1192</ele>
        <time>2016-07-30T11:41:36Z</time>
      </trkpt>
      <trkpt lat="47.90971" lon="7.06639">
        <ele>1192</ele>
        <time>2016-07-30T11:41:39Z</time>
      </trkpt>
      <trkpt lat="47.90953" lon="7.06657">
        <ele>1191</ele>
        <time>2016-07-30T11:41:46Z</time>
      </trkpt>
      <trkpt lat="47.9095" lon="7.06663">
        <ele>1191</ele>
        <time>2016-07-30T11:42:40Z</time>
      </trkpt>
      <trkpt lat="47.90936" lon="7.06683">
        <ele>1192</ele>
        <time>2016-07-30T11:42:47Z</time>
      </trkpt>
      <trkpt lat="47.9092" lon="7.06702">
        <ele>1192</ele>
        <time>2016-07-30T11:42:52Z</time>
      </trkpt>
      <trkpt lat="47.90882" lon="7.06733">
        <ele>1188</ele>
        <time>2016-07-30T11:43:04Z</time>
      </trkpt>
      <trkpt lat="47.90836" lon="7.06777">
        <ele>1188</ele>
        <time>2016-07-30T11:43:20Z</time>
      </trkpt>
      <trkpt lat="47.90806" lon="7.06818">
        <ele>1192</ele>
        <time>2016-07-30T11:43:34Z</time>
      </trkpt>
      <trkpt lat="47.90791" lon="7.06844">
        <ele>1195</ele>
        <time>2016-07-30T11:43:42Z</time>
      </trkpt>
      <trkpt lat="47.9078" lon="7.06878">
        <ele>1195</ele>
        <time>2016-07-30T11:43:51Z</time>
      </trkpt>
      <trkpt lat="47.90783" lon="7.06891">
        <ele>1195</ele>
        <time>2016-07-30T11:43:57Z</time>
      </trkpt>
      <trkpt lat="47.90783" lon="7.06891">
        <ele>1195</ele>
        <time>2016-07-30T11:44:41Z</time>
      </trkpt>
      <trkpt lat="47.90771" lon="7.06935">
        <ele>1196</ele>
        <time>2016-07-30T11:44:48Z</time>
      </trkpt>
      <trkpt lat="47.90743" lon="7.07067">
        <ele>1200</ele>
        <time>2016-07-30T11:45:06Z</time>
      </trkpt>
      <trkpt lat="47.90728" lon="7.07123">
        <ele>1204</ele>
        <time>2016-07-30T11:45:14Z</time>
      </trkpt>
      <trkpt lat="47.90726" lon="7.07157">
        <ele>1204</ele>
        <time>2016-07-30T11:45:19Z</time>
      </trkpt>
      <trkpt lat="47.90725" lon="7.07176">
        <ele>1204</ele>
        <time>2016-07-30T11:45:22Z</time>
      </trkpt>
      <trkpt lat="47.90726" lon="7.07213">
        <ele>1205</ele>
        <time>2016-07-30T11:45:28Z</time>
      </trkpt>
      <trkpt lat="47.90722" lon="7.07254">
        <ele>1206</ele>
        <time>2016-07-30T11:45:34Z</time>
      </trkpt>
      <trkpt lat="47.90714" lon="7.07305">
        <ele>1209</ele>
        <time>2016-07-30T11:45:42Z</time>
      </trkpt>
      <trkpt lat="47.90711" lon="7.07333">
        <ele>1209</ele>
        <time>2016-07-30T11:45:46Z</time>
      </trkpt>
      <trkpt lat="47.9071" lon="7.07347">
        <ele>1212</ele>
        <time>2016-07-30T11:45:48Z</time>
      </trkpt>
      <trkpt lat="47.90712" lon="7.07393">
        <ele>1214</ele>
        <time>2016-07-30T11:45:55Z</time>
      </trkpt>
      <trkpt lat="47.90715" lon="7.0745">
        <ele>1218</ele>
        <time>2016-07-30T11:46:04Z</time>
      </trkpt>
      <trkpt lat="47.90723" lon="7.07501">
        <ele>1222</ele>
        <time>2016-07-30T11:46:12Z</time>
      </trkpt>
      <trkpt lat="47.90733" lon="7.07538">
        <ele>1224</ele>
        <time>2016-07-30T11:46:18Z</time>
      </trkpt>
      <trkpt lat="47.90746" lon="7.07578">
        <ele>1222</ele>
        <time>2016-07-30T11:46:25Z</time>
      </trkpt>
      <trkpt lat="47.90757" lon="7.07615">
        <ele>1214</ele>
        <time>2016-07-30T11:46:31Z</time>
      </trkpt>
      <trkpt lat="47.90758" lon="7.07621">
        <ele>1214</ele>
        <time>2016-07-30T11:46:32Z</time>
      </trkpt>
      <trkpt lat="47.90768" lon="7.07679">
        <ele>1222</ele>
        <time>2016-07-30T11:46:41Z</time>
      </trkpt>
      <trkpt lat="47.90772" lon="7.07705">
        <ele>1220</ele>
        <time>2016-07-30T11:46:45Z</time>
      </trkpt>
      <trkpt lat="47.90772" lon="7.07734">
        <ele>1223</ele>
        <time>2016-07-30T11:46:49Z</time>
      </trkpt>
      <trkpt lat="47.90771" lon="7.07748">
        <ele>1225</ele>
        <time>2016-07-30T11:46:51Z</time>
      </trkpt>
      <trkpt lat="47.90773" lon="7.07779">
        <ele>1226</ele>
        <time>2016-07-30T11:46:56Z</time>
      </trkpt>
      <trkpt lat="47.90774" lon="7.07843">
        <ele>1230</ele>
        <time>2016-07-30T11:47:06Z</time>
      </trkpt>
      <trkpt lat="47.90777" lon="7.07874">
        <ele>1228</ele>
        <time>2016-07-30T11:47:11Z</time>
      </trkpt>
      <trkpt lat="47.90779" lon="7.07886">
        <ele>1228</ele>
        <time>2016-07-30T11:47:13Z</time>
      </trkpt>
      <trkpt lat="47.90779" lon="7.07906">
        <ele>1229</ele>
        <time>2016-07-30T11:47:16Z</time>
      </trkpt>
      <trkpt lat="47.90778" lon="7.0794">
        <ele>1230</ele>
        <time>2016-07-30T11:47:21Z</time>
      </trkpt>
      <trkpt lat="47.90777" lon="7.07947">
        <ele>1230</ele>
        <time>2016-07-30T11:47:22Z</time>
      </trkpt>
      <trkpt lat="47.9076" lon="7.08016">
        <ele>1237</ele>
        <time>2016-07-30T11:47:33Z</time>
      </trkpt>
      <trkpt lat="47.90752" lon="7.08057">
        <ele>1234</ele>
        <time>2016-07-30T11:47:39Z</time>
      </trkpt>
      <trkpt lat="47.90749" lon="7.08114">
        <ele>1252</ele>
        <time>2016-07-30T11:47:46Z</time>
      </trkpt>
      <trkpt lat="47.90748" lon="7.08121">
        <ele>1252</ele>
        <time>2016-07-30T11:47:47Z</time>
      </trkpt>
      <trkpt lat="47.90747" lon="7.08162">
        <ele>1241</ele>
        <time>2016-07-30T11:47:52Z</time>
      </trkpt>
      <trkpt lat="47.90747" lon="7.08178">
        <ele>1245</ele>
        <time>2016-07-30T11:47:54Z</time>
      </trkpt>
      <trkpt lat="47.90746" lon="7.08215">
        <ele>1252</ele>
        <time>2016-07-30T11:47:59Z</time>
      </trkpt>
      <trkpt lat="47.90743" lon="7.08259">
        <ele>1250</ele>
        <time>2016-07-30T11:48:05Z</time>
      </trkpt>
      <trkpt lat="47.90747" lon="7.08325">
        <ele>1252</ele>
        <time>2016-07-30T11:48:14Z</time>
      </trkpt>
      <trkpt lat="47.90747" lon="7.08349">
        <ele>1256</ele>
        <time>2016-07-30T11:48:17Z</time>
      </trkpt>
      <trkpt lat="47.90747" lon="7.08391">
        <ele>1261</ele>
        <time>2016-07-30T11:48:23Z</time>
      </trkpt>
      <trkpt lat="47.90764" lon="7.08454">
        <ele>1243</ele>
        <time>2016-07-30T11:48:34Z</time>
      </trkpt>
      <trkpt lat="47.90763" lon="7.08482">
        <ele>1246</ele>
        <time>2016-07-30T11:48:39Z</time>
      </trkpt>
      <trkpt lat="47.90775" lon="7.08514">
        <ele>1244</ele>
        <time>2016-07-30T11:48:45Z</time>
      </trkpt>
      <trkpt lat="47.90781" lon="7.08523">
        <ele>1241</ele>
        <time>2016-07-30T11:48:47Z</time>
      </trkpt>
      <trkpt lat="47.9078" lon="7.08534">
        <ele>1241</ele>
        <time>2016-07-30T11:48:49Z</time>
      </trkpt>
      <trkpt lat="47.90781" lon="7.0854">
        <ele>1240</ele>
        <time>2016-07-30T11:48:50Z</time>
      </trkpt>
      <trkpt lat="47.90779" lon="7.08556">
        <ele>1240</ele>
        <time>2016-07-30T11:48:53Z</time>
      </trkpt>
      <trkpt lat="47.9077" lon="7.0859">
        <ele>1237</ele>
        <time>2016-07-30T11:48:59Z</time>
      </trkpt>
      <trkpt lat="47.90763" lon="7.08602">
        <ele>1236</ele>
        <time>2016-07-30T11:49:02Z</time>
      </trkpt>
      <trkpt lat="47.90752" lon="7.08608">
        <ele>1236</ele>
        <time>2016-07-30T11:49:06Z</time>
      </trkpt>
      <trkpt lat="47.90743" lon="7.08608">
        <ele>1246</ele>
        <time>2016-07-30T11:49:09Z</time>
      </trkpt>
      <trkpt lat="47.90739" lon="7.08607">
        <ele>1246</ele>
        <time>2016-07-30T11:49:10Z</time>
      </trkpt>
      <trkpt lat="47.90723" lon="7.08591">
        <ele>1248</ele>
        <time>2016-07-30T11:49:17Z</time>
      </trkpt>
      <trkpt lat="47.90718" lon="7.08588">
        <ele>1249</ele>
        <time>2016-07-30T11:49:19Z</time>
      </trkpt>
      <trkpt lat="47.90704" lon="7.08591">
        <ele>1251</ele>
        <time>2016-07-30T11:49:22Z</time>
      </trkpt>
      <trkpt lat="47.90677" lon="7.08609">
        <ele>1253</ele>
        <time>2016-07-30T11:49:28Z</time>
      </trkpt>
      <trkpt lat="47.9065" lon="7.08636">
        <ele>1258</ele>
        <time>2016-07-30T11:49:35Z</time>
      </trkpt>
      <trkpt lat="47.90636" lon="7.08651">
        <ele>1257</ele>
        <time>2016-07-30T11:49:39Z</time>
      </trkpt>
      <trkpt lat="47.90631" lon="7.08662">
        <ele>1257</ele>
        <time>2016-07-30T11:49:40Z</time>
      </trkpt>
      <trkpt lat="47.90617" lon="7.087">
        <ele>1243</ele>
        <time>2016-07-30T11:49:44Z</time>
      </trkpt>
      <trkpt lat="47.90608" lon="7.08732">
        <ele>1242</ele>
        <time>2016-07-30T11:49:47Z</time>
      </trkpt>
      <trkpt lat="47.90603" lon="7.08756">
        <ele>1236</ele>
        <time>2016-07-30T11:49:50Z</time>
      </trkpt>
      <trkpt lat="47.90596" lon="7.08824">
        <ele>1232</ele>
        <time>2016-07-30T11:50:00Z</time>
      </trkpt>
      <trkpt lat="47.90593" lon="7.08876">
        <ele>1220</ele>
        <time>2016-07-30T11:50:08Z</time>
      </trkpt>
      <trkpt lat="47.90589" lon="7.08925">
        <ele>1220</ele>
        <time>2016-07-30T11:50:15Z</time>
      </trkpt>
      <trkpt lat="47.9058" lon="7.08964">
        <ele>1224</ele>
        <time>2016-07-30T11:50:20Z</time>
      </trkpt>
      <trkpt lat="47.90577" lon="7.0897">
        <ele>1224</ele>
        <time>2016-07-30T11:50:21Z</time>
      </trkpt>
      <trkpt lat="47.9056" lon="7.0899">
        <ele>1223</ele>
        <time>2016-07-30T11:50:25Z</time>
      </trkpt>
      <trkpt lat="47.90545" lon="7.09002">
        <ele>1222</ele>
        <time>2016-07-30T11:50:30Z</time>
      </trkpt>
      <trkpt lat="47.90527" lon="7.09014">
        <ele>1223</ele>
        <time>2016-07-30T11:50:37Z</time>
      </trkpt>
      <trkpt lat="47.90517" lon="7.09024">
        <ele>1224</ele>
        <time>2016-07-30T11:50:44Z</time>
      </trkpt>
      <trkpt lat="47.90505" lon="7.09031">
        <ele>1224</ele>
        <time>2016-07-30T11:50:55Z</time>
      </trkpt>
      <trkpt lat="47.90503" lon="7.09036">
        <ele>1224</ele>
        <time>2016-07-30T11:51:01Z</time>
      </trkpt>
      <trkpt lat="47.90499" lon="7.09041">
        <ele>1226</ele>
        <time>2016-07-30T11:52:14Z</time>
      </trkpt>
      <trkpt lat="47.90484" lon="7.09065">
        <ele>1227</ele>
        <time>2016-07-30T11:52:22Z</time>
      </trkpt>
      <trkpt lat="47.9048" lon="7.09069">
        <ele>1227</ele>
        <time>2016-07-30T11:52:24Z</time>
      </trkpt>
      <trkpt lat="47.90464" lon="7.09091">
        <ele>1232</ele>
        <time>2016-07-30T11:52:33Z</time>
      </trkpt>
      <trkpt lat="47.90456" lon="7.09114">
        <ele>1233</ele>
        <time>2016-07-30T11:52:41Z</time>
      </trkpt>
      <trkpt lat="47.90454" lon="7.09123">
        <ele>1233</ele>
        <time>2016-07-30T11:52:44Z</time>
      </trkpt>
      <trkpt lat="47.90442" lon="7.09155">
        <ele>1236</ele>
        <time>2016-07-30T11:52:59Z</time>
      </trkpt>
      <trkpt lat="47.9044" lon="7.09169">
        <ele>1241</ele>
        <time>2016-07-30T11:53:08Z</time>
      </trkpt>
      <trkpt lat="47.90444" lon="7.09171">
        <ele>1241</ele>
        <time>2016-07-30T11:53:12Z</time>
      </trkpt>
      <trkpt lat="47.9045" lon="7.09171">
        <ele>1240</ele>
        <time>2016-07-30T11:53:18Z</time>
      </trkpt>
      <trkpt lat="47.90452" lon="7.09187">
        <ele>1241</ele>
        <time>2016-07-30T11:53:52Z</time>
      </trkpt>
      <trkpt lat="47.90452" lon="7.09188">
        <ele>1241</ele>
        <time>2016-07-30T11:53:54Z</time>
      </trkpt>
      <trkpt lat="47.90453" lon="7.09195">
        <ele>1241</ele>
        <time>2016-07-30T11:53:58Z</time>
      </trkpt>
      <trkpt lat="47.90453" lon="7.09211">
        <ele>1242</ele>
        <time>2016-07-30T11:54:05Z</time>
      </trkpt>
      <trkpt lat="47.90457" lon="7.09262">
        <ele>1249</ele>
        <time>2016-07-30T11:54:27Z</time>
      </trkpt>
      <trkpt lat="47.90459" lon="7.09268">
        <ele>1250</ele>
        <time>2016-07-30T11:54:30Z</time>
      </trkpt>
      <trkpt lat="47.9046" lon="7.09284">
        <ele>1251</ele>
        <time>2016-07-30T11:54:37Z</time>
      </trkpt>
      <trkpt lat="47.90466" lon="7.09318">
        <ele>1253</ele>
        <time>2016-07-30T11:54:54Z</time>
      </trkpt>
      <trkpt lat="47.9047" lon="7.09329">
        <ele>1253</ele>
        <time>2016-07-30T11:55:00Z</time>
      </trkpt>
      <trkpt lat="47.90474" lon="7.09341">
        <ele>1260</ele>
        <time>2016-07-30T11:55:06Z</time>
      </trkpt>
      <trkpt lat="47.90479" lon="7.09367">
        <ele>1263</ele>
        <time>2016-07-30T11:55:19Z</time>
      </trkpt>
      <trkpt lat="47.90478" lon="7.09376">
        <ele>1264</ele>
        <time>2016-07-30T11:55:23Z</time>
      </trkpt>
      <trkpt lat="47.90479" lon="7.09385">
        <ele>1264</ele>
        <time>2016-07-30T11:55:27Z</time>
      </trkpt>
      <trkpt lat="47.90482" lon="7.09391">
        <ele>1264</ele>
        <time>2016-07-30T11:55:30Z</time>
      </trkpt>
      <trkpt lat="47.90484" lon="7.09397">
        <ele>1264</ele>
        <time>2016-07-30T11:55:33Z</time>
      </trkpt>
      <trkpt lat="47.90486" lon="7.09423">
        <ele>1270</ele>
        <time>2016-07-30T11:55:46Z</time>
      </trkpt>
      <trkpt lat="47.9049" lon="7.09432">
        <ele>1271</ele>
        <time>2016-07-30T11:55:52Z</time>
      </trkpt>
      <trkpt lat="47.90496" lon="7.09458">
        <ele>1275</ele>
        <time>2016-07-30T11:56:05Z</time>
      </trkpt>
      <trkpt lat="47.90499" lon="7.09477">
        <ele>1277</ele>
        <time>2016-07-30T11:56:15Z</time>
      </trkpt>
      <trkpt lat="47.90507" lon="7.09496">
        <ele>1272</ele>
        <time>2016-07-30T11:56:27Z</time>
      </trkpt>
      <trkpt lat="47.90513" lon="7.09502">
        <ele>1275</ele>
        <time>2016-07-30T11:56:31Z</time>
      </trkpt>
      <trkpt lat="47.90519" lon="7.09519">
        <ele>1274</ele>
        <time>2016-07-30T11:56:39Z</time>
      </trkpt>
      <trkpt lat="47.90521" lon="7.09522">
        <ele>1274</ele>
        <time>2016-07-30T11:56:41Z</time>
      </trkpt>
      <trkpt lat="47.90523" lon="7.09534">
        <ele>1274</ele>
        <time>2016-07-30T11:56:47Z</time>
      </trkpt>
      <trkpt lat="47.90523" lon="7.09554">
        <ele>1276</ele>
        <time>2016-07-30T11:56:56Z</time>
      </trkpt>
      <trkpt lat="47.90525" lon="7.09569">
        <ele>1277</ele>
        <time>2016-07-30T11:57:02Z</time>
      </trkpt>
      <trkpt lat="47.90524" lon="7.09578">
        <ele>1278</ele>
        <time>2016-07-30T11:57:06Z</time>
      </trkpt>
      <trkpt lat="47.90524" lon="7.09585">
        <ele>1283</ele>
        <time>2016-07-30T11:57:09Z</time>
      </trkpt>
      <trkpt lat="47.90523" lon="7.09601">
        <ele>1283</ele>
        <time>2016-07-30T11:57:17Z</time>
      </trkpt>
      <trkpt lat="47.90526" lon="7.09623">
        <ele>1283</ele>
        <time>2016-07-30T11:57:28Z</time>
      </trkpt>
      <trkpt lat="47.90526" lon="7.09634">
        <ele>1283</ele>
        <time>2016-07-30T11:57:34Z</time>
      </trkpt>
      <trkpt lat="47.90528" lon="7.09642">
        <ele>1284</ele>
        <time>2016-07-30T11:57:38Z</time>
      </trkpt>
      <trkpt lat="47.90516" lon="7.09668">
        <ele>1292</ele>
        <time>2016-07-30T11:57:53Z</time>
      </trkpt>
      <trkpt lat="47.90515" lon="7.09678">
        <ele>1292</ele>
        <time>2016-07-30T11:57:57Z</time>
      </trkpt>
      <trkpt lat="47.90517" lon="7.09692">
        <ele>1291</ele>
        <time>2016-07-30T11:58:04Z</time>
      </trkpt>
      <trkpt lat="47.90522" lon="7.0971">
        <ele>1291</ele>
        <time>2016-07-30T11:58:12Z</time>
      </trkpt>
      <trkpt lat="47.90523" lon="7.09731">
        <ele>1293</ele>
        <time>2016-07-30T11:58:21Z</time>
      </trkpt>
      <trkpt lat="47.90522" lon="7.09747">
        <ele>1295</ele>
        <time>2016-07-30T11:58:29Z</time>
      </trkpt>
      <trkpt lat="47.90525" lon="7.09755">
        <ele>1299</ele>
        <time>2016-07-30T11:58:32Z</time>
      </trkpt>
      <trkpt lat="47.90527" lon="7.09769">
        <ele>1298</ele>
        <time>2016-07-30T11:58:38Z</time>
      </trkpt>
      <trkpt lat="47.90529" lon="7.09791">
        <ele>1298</ele>
        <time>2016-07-30T11:58:49Z</time>
      </trkpt>
      <trkpt lat="47.90529" lon="7.09815">
        <ele>1300</ele>
        <time>2016-07-30T11:59:00Z</time>
      </trkpt>
      <trkpt lat="47.90534" lon="7.09858">
        <ele>1304</ele>
        <time>2016-07-30T11:59:18Z</time>
      </trkpt>
      <trkpt lat="47.9053" lon="7.0989">
        <ele>1306</ele>
        <time>2016-07-30T11:59:32Z</time>
      </trkpt>
      <trkpt lat="47.90531" lon="7.09896">
        <ele>1307</ele>
        <time>2016-07-30T11:59:34Z</time>
      </trkpt>
      <trkpt lat="47.90527" lon="7.09909">
        <ele>1309</ele>
        <time>2016-07-30T11:59:40Z</time>
      </trkpt>
      <trkpt lat="47.90526" lon="7.09925">
        <ele>1311</ele>
        <time>2016-07-30T11:59:48Z</time>
      </trkpt>
      <trkpt lat="47.9052" lon="7.09952">
        <ele>1311</ele>
        <time>2016-07-30T12:00:01Z</time>
      </trkpt>
      <trkpt lat="47.90518" lon="7.09958">
        <ele>1312</ele>
        <time>2016-07-30T12:00:05Z</time>
      </trkpt>
      <trkpt lat="47.90517" lon="7.09971">
        <ele>1313</ele>
        <time>2016-07-30T12:00:10Z</time>
      </trkpt>
      <trkpt lat="47.90518" lon="7.09975">
        <ele>1313</ele>
        <time>2016-07-30T12:00:12Z</time>
      </trkpt>
      <trkpt lat="47.90514" lon="7.1001">
        <ele>1317</ele>
        <time>2016-07-30T12:00:27Z</time>
      </trkpt>
      <trkpt lat="47.90514" lon="7.1003">
        <ele>1315</ele>
        <time>2016-07-30T12:00:36Z</time>
      </trkpt>
      <trkpt lat="47.90511" lon="7.10041">
        <ele>1316</ele>
        <time>2016-07-30T12:00:41Z</time>
      </trkpt>
      <trkpt lat="47.9051" lon="7.10058">
        <ele>1317</ele>
        <time>2016-07-30T12:00:49Z</time>
      </trkpt>
      <trkpt lat="47.90511" lon="7.10062">
        <ele>1318</ele>
        <time>2016-07-30T12:00:51Z</time>
      </trkpt>
      <trkpt lat="47.90509" lon="7.10074">
        <ele>1321</ele>
        <time>2016-07-30T12:00:56Z</time>
      </trkpt>
      <trkpt lat="47.90507" lon="7.10098">
        <ele>1322</ele>
        <time>2016-07-30T12:01:06Z</time>
      </trkpt>
      <trkpt lat="47.90511" lon="7.10105">
        <ele>1320</ele>
        <time>2016-07-30T12:01:09Z</time>
      </trkpt>
      <trkpt lat="47.9051" lon="7.10124">
        <ele>1320</ele>
        <time>2016-07-30T12:01:17Z</time>
      </trkpt>
      <trkpt lat="47.90508" lon="7.10133">
        <ele>1320</ele>
        <time>2016-07-30T12:01:21Z</time>
      </trkpt>
      <trkpt lat="47.90506" lon="7.10154">
        <ele>1324</ele>
        <time>2016-07-30T12:01:31Z</time>
      </trkpt>
      <trkpt lat="47.905" lon="7.10184">
        <ele>1335</ele>
        <time>2016-07-30T12:01:45Z</time>
      </trkpt>
      <trkpt lat="47.905" lon="7.1019">
        <ele>1336</ele>
        <time>2016-07-30T12:01:48Z</time>
      </trkpt>
      <trkpt lat="47.90497" lon="7.10201">
        <ele>1337</ele>
        <time>2016-07-30T12:01:55Z</time>
      </trkpt>
      <trkpt lat="47.90455" lon="7.10183">
        <ele>1343</ele>
        <time>2016-07-30T12:06:09Z</time>
      </trkpt>
      <trkpt lat="47.90452" lon="7.10186">
        <ele>1343</ele>
        <time>2016-07-30T12:06:11Z</time>
      </trkpt>
      <trkpt lat="47.90448" lon="7.10191">
        <ele>1344</ele>
        <time>2016-07-30T12:06:14Z</time>
      </trkpt>
      <trkpt lat="47.90442" lon="7.10194">
        <ele>1344</ele>
        <time>2016-07-30T12:06:19Z</time>
      </trkpt>
      <trkpt lat="47.90431" lon="7.10202">
        <ele>1345</ele>
        <time>2016-07-30T12:06:25Z</time>
      </trkpt>
      <trkpt lat="47.90422" lon="7.10219">
        <ele>1345</ele>
        <time>2016-07-30T12:06:32Z</time>
      </trkpt>
      <trkpt lat="47.90416" lon="7.10233">
        <ele>1353</ele>
        <time>2016-07-30T12:06:42Z</time>
      </trkpt>
      <trkpt lat="47.90418" lon="7.10246">
        <ele>1347</ele>
        <time>2016-07-30T12:06:49Z</time>
      </trkpt>
      <trkpt lat="47.90413" lon="7.10256">
        <ele>1347</ele>
        <time>2016-07-30T12:06:56Z</time>
      </trkpt>
      <trkpt lat="47.9041" lon="7.10255">
        <ele>1347</ele>
        <time>2016-07-30T12:06:59Z</time>
      </trkpt>
      <trkpt lat="47.9042" lon="7.10251">
        <ele>1346</ele>
        <time>2016-07-30T12:07:22Z</time>
      </trkpt>
      <trkpt lat="47.90418" lon="7.10244">
        <ele>1347</ele>
        <time>2016-07-30T12:07:26Z</time>
      </trkpt>
      <trkpt lat="47.9041" lon="7.1023">
        <ele>1354</ele>
        <time>2016-07-30T12:07:34Z</time>
      </trkpt>
      <trkpt lat="47.90401" lon="7.10224">
        <ele>1356</ele>
        <time>2016-07-30T12:07:47Z</time>
      </trkpt>
      <trkpt lat="47.90343" lon="7.10226">
        <ele>1358</ele>
        <time>2016-07-30T12:08:36Z</time>
      </trkpt>
      <trkpt lat="47.90331" lon="7.10218">
        <ele>1361</ele>
        <time>2016-07-30T12:08:47Z</time>
      </trkpt>
      <trkpt lat="47.90317" lon="7.10214">
        <ele>1362</ele>
        <time>2016-07-30T12:09:00Z</time>
      </trkpt>
      <trkpt lat="47.90301" lon="7.10201">
        <ele>1364</ele>
        <time>2016-07-30T12:09:15Z</time>
      </trkpt>
      <trkpt lat="47.90293" lon="7.10196">
        <ele>1364</ele>
        <time>2016-07-30T12:09:22Z</time>
      </trkpt>
      <trkpt lat="47.90271" lon="7.10167">
        <ele>1366</ele>
        <time>2016-07-30T12:09:45Z</time>
      </trkpt>
      <trkpt lat="47.90268" lon="7.10158">
        <ele>1376</ele>
        <time>2016-07-30T12:09:50Z</time>
      </trkpt>
      <trkpt lat="47.90265" lon="7.10137">
        <ele>1379</ele>
        <time>2016-07-30T12:10:03Z</time>
      </trkpt>
      <trkpt lat="47.90262" lon="7.10114">
        <ele>1382</ele>
        <time>2016-07-30T12:10:14Z</time>
      </trkpt>
      <trkpt lat="47.9026" lon="7.1011">
        <ele>1383</ele>
        <time>2016-07-30T12:10:16Z</time>
      </trkpt>
      <trkpt lat="47.90248" lon="7.10102">
        <ele>1379</ele>
        <time>2016-07-30T12:10:25Z</time>
      </trkpt>
      <trkpt lat="47.90225" lon="7.10073">
        <ele>1388</ele>
        <time>2016-07-30T12:10:46Z</time>
      </trkpt>
      <trkpt lat="47.90214" lon="7.10056">
        <ele>1389</ele>
        <time>2016-07-30T12:10:52Z</time>
      </trkpt>
      <trkpt lat="47.90205" lon="7.10048">
        <ele>1389</ele>
        <time>2016-07-30T12:10:59Z</time>
      </trkpt>
      <trkpt lat="47.90188" lon="7.10028">
        <ele>1391</ele>
        <time>2016-07-30T12:11:14Z</time>
      </trkpt>
      <trkpt lat="47.90183" lon="7.10023">
        <ele>1391</ele>
        <time>2016-07-30T12:11:18Z</time>
      </trkpt>
      <trkpt lat="47.90168" lon="7.10006">
        <ele>1395</ele>
        <time>2016-07-30T12:11:31Z</time>
      </trkpt>
      <trkpt lat="47.90137" lon="7.0999">
        <ele>1400</ele>
        <time>2016-07-30T12:11:51Z</time>
      </trkpt>
      <trkpt lat="47.90129" lon="7.09984">
        <ele>1401</ele>
        <time>2016-07-30T12:11:56Z</time>
      </trkpt>
      <trkpt lat="47.90119" lon="7.09978">
        <ele>1401</ele>
        <time>2016-07-30T12:12:03Z</time>
      </trkpt>
      <trkpt lat="47.90103" lon="7.09972">
        <ele>1401</ele>
        <time>2016-07-30T12:12:13Z</time>
      </trkpt>
      <trkpt lat="47.90084" lon="7.09961">
        <ele>1403</ele>
        <time>2016-07-30T12:12:25Z</time>
      </trkpt>
      <trkpt lat="47.90048" lon="7.09931">
        <ele>1401</ele>
        <time>2016-07-30T12:12:48Z</time>
      </trkpt>
      <trkpt lat="47.90043" lon="7.09918">
        <ele>1401</ele>
        <time>2016-07-30T12:12:55Z</time>
      </trkpt>
      <trkpt lat="47.90044" lon="7.09904">
        <ele>1404</ele>
        <time>2016-07-30T12:13:01Z</time>
      </trkpt>
      <trkpt lat="47.90051" lon="7.0989">
        <ele>1405</ele>
        <time>2016-07-30T12:13:09Z</time>
      </trkpt>
      <trkpt lat="47.90055" lon="7.09887">
        <ele>1405</ele>
        <time>2016-07-30T12:13:12Z</time>
      </trkpt>
      <trkpt lat="47.90072" lon="7.09882">
        <ele>1407</ele>
        <time>2016-07-30T12:13:22Z</time>
      </trkpt>
      <trkpt lat="47.90077" lon="7.09879">
        <ele>1407</ele>
        <time>2016-07-30T12:13:25Z</time>
      </trkpt>
      <trkpt lat="47.90083" lon="7.09868">
        <ele>1407</ele>
        <time>2016-07-30T12:13:31Z</time>
      </trkpt>
      <trkpt lat="47.90089" lon="7.09865">
        <ele>1411</ele>
        <time>2016-07-30T12:13:35Z</time>
      </trkpt>
      <trkpt lat="47.90096" lon="7.09852">
        <ele>1411</ele>
        <time>2016-07-30T12:13:43Z</time>
      </trkpt>
      <trkpt lat="47.90101" lon="7.09846">
        <ele>1411</ele>
        <time>2016-07-30T12:13:47Z</time>
      </trkpt>
      <trkpt lat="47.90105" lon="7.09844">
        <ele>1411</ele>
        <time>2016-07-30T12:13:50Z</time>
      </trkpt>
      <trkpt lat="47.90108" lon="7.09845">
        <ele>1411</ele>
        <time>2016-07-30T12:13:52Z</time>
      </trkpt>
      <trkpt lat="47.90118" lon="7.09843">
        <ele>1410</ele>
        <time>2016-07-30T12:14:00Z</time>
      </trkpt>
      <trkpt lat="47.90119" lon="7.09835">
        <ele>1410</ele>
        <time>2016-07-30T12:14:07Z</time>
      </trkpt>
      <trkpt lat="47.90111" lon="7.0984">
        <ele>1411</ele>
        <time>2016-07-30T12:20:20Z</time>
      </trkpt>
      <trkpt lat="47.901" lon="7.09846">
        <ele>1411</ele>
        <time>2016-07-30T12:20:26Z</time>
      </trkpt>
      <trkpt lat="47.90096" lon="7.0985">
        <ele>1411</ele>
        <time>2016-07-30T12:20:38Z</time>
      </trkpt>
      <trkpt lat="47.90091" lon="7.09855">
        <ele>1411</ele>
        <time>2016-07-30T12:20:40Z</time>
      </trkpt>
      <trkpt lat="47.90076" lon="7.09875">
        <ele>1407</ele>
        <time>2016-07-30T12:20:45Z</time>
      </trkpt>
      <trkpt lat="47.90054" lon="7.0989">
        <ele>1405</ele>
        <time>2016-07-30T12:20:49Z</time>
      </trkpt>
      <trkpt lat="47.90049" lon="7.09896">
        <ele>1405</ele>
        <time>2016-07-30T12:20:50Z</time>
      </trkpt>
      <trkpt lat="47.90042" lon="7.09909">
        <ele>1404</ele>
        <time>2016-07-30T12:20:52Z</time>
      </trkpt>
      <trkpt lat="47.90041" lon="7.09916">
        <ele>1404</ele>
        <time>2016-07-30T12:20:53Z</time>
      </trkpt>
      <trkpt lat="47.90041" lon="7.09922">
        <ele>1401</ele>
        <time>2016-07-30T12:20:54Z</time>
      </trkpt>
      <trkpt lat="47.90043" lon="7.09927">
        <ele>1401</ele>
        <time>2016-07-30T12:20:55Z</time>
      </trkpt>
      <trkpt lat="47.90047" lon="7.09931">
        <ele>1401</ele>
        <time>2016-07-30T12:20:56Z</time>
      </trkpt>
      <trkpt lat="47.90074" lon="7.09953">
        <ele>1401</ele>
        <time>2016-07-30T12:21:02Z</time>
      </trkpt>
      <trkpt lat="47.90101" lon="7.0997">
        <ele>1401</ele>
        <time>2016-07-30T12:21:09Z</time>
      </trkpt>
      <trkpt lat="47.90115" lon="7.09974">
        <ele>1401</ele>
        <time>2016-07-30T12:21:14Z</time>
      </trkpt>
      <trkpt lat="47.90124" lon="7.0998">
        <ele>1401</ele>
        <time>2016-07-30T12:21:17Z</time>
      </trkpt>
      <trkpt lat="47.90141" lon="7.09993">
        <ele>1400</ele>
        <time>2016-07-30T12:21:23Z</time>
      </trkpt>
      <trkpt lat="47.90154" lon="7.10002">
        <ele>1391</ele>
        <time>2016-07-30T12:21:27Z</time>
      </trkpt>
      <trkpt lat="47.9017" lon="7.1001">
        <ele>1394</ele>
        <time>2016-07-30T12:21:31Z</time>
      </trkpt>
      <trkpt lat="47.9019" lon="7.1003">
        <ele>1391</ele>
        <time>2016-07-30T12:21:36Z</time>
      </trkpt>
      <trkpt lat="47.90204" lon="7.10047">
        <ele>1389</ele>
        <time>2016-07-30T12:21:39Z</time>
      </trkpt>
      <trkpt lat="47.90219" lon="7.10063">
        <ele>1388</ele>
        <time>2016-07-30T12:21:44Z</time>
      </trkpt>
      <trkpt lat="47.9022" lon="7.10066">
        <ele>1388</ele>
        <time>2016-07-30T12:21:45Z</time>
      </trkpt>
      <trkpt lat="47.90219" lon="7.10071">
        <ele>1388</ele>
        <time>2016-07-30T12:21:47Z</time>
      </trkpt>
      <trkpt lat="47.90216" lon="7.10072">
        <ele>1388</ele>
        <time>2016-07-30T12:21:48Z</time>
      </trkpt>
      <trkpt lat="47.90201" lon="7.10068">
        <ele>1386</ele>
        <time>2016-07-30T12:21:52Z</time>
      </trkpt>
      <trkpt lat="47.9019" lon="7.10067">
        <ele>1385</ele>
        <time>2016-07-30T12:21:54Z</time>
      </trkpt>
      <trkpt lat="47.90171" lon="7.10069">
        <ele>1381</ele>
        <time>2016-07-30T12:21:57Z</time>
      </trkpt>
      <trkpt lat="47.90149" lon="7.10075">
        <ele>1378</ele>
        <time>2016-07-30T12:22:01Z</time>
      </trkpt>
      <trkpt lat="47.90139" lon="7.10075">
        <ele>1379</ele>
        <time>2016-07-30T12:22:04Z</time>
      </trkpt>
      <trkpt lat="47.90137" lon="7.10077">
        <ele>1379</ele>
        <time>2016-07-30T12:22:05Z</time>
      </trkpt>
      <trkpt lat="47.90135" lon="7.1008">
        <ele>1379</ele>
        <time>2016-07-30T12:22:06Z</time>
      </trkpt>
      <trkpt lat="47.90135" lon="7.10084">
        <ele>1366</ele>
        <time>2016-07-30T12:22:07Z</time>
      </trkpt>
      <trkpt lat="47.90138" lon="7.10092">
        <ele>1366</ele>
        <time>2016-07-30T12:22:09Z</time>
      </trkpt>
      <trkpt lat="47.90144" lon="7.10098">
        <ele>1366</ele>
        <time>2016-07-30T12:22:11Z</time>
      </trkpt>
      <trkpt lat="47.90153" lon="7.10103">
        <ele>1366</ele>
        <time>2016-07-30T12:22:13Z</time>
      </trkpt>
      <trkpt lat="47.90189" lon="7.10114">
        <ele>1371</ele>
        <time>2016-07-30T12:22:19Z</time>
      </trkpt>
      <trkpt lat="47.90207" lon="7.10137">
        <ele>1369</ele>
        <time>2016-07-30T12:22:23Z</time>
      </trkpt>
      <trkpt lat="47.9022" lon="7.10157">
        <ele>1369</ele>
        <time>2016-07-30T12:22:26Z</time>
      </trkpt>
      <trkpt lat="47.90226" lon="7.10163">
        <ele>1369</ele>
        <time>2016-07-30T12:22:27Z</time>
      </trkpt>
      <trkpt lat="47.90259" lon="7.10214">
        <ele>1360</ele>
        <time>2016-07-30T12:22:33Z</time>
      </trkpt>
      <trkpt lat="47.90265" lon="7.1022">
        <ele>1359</ele>
        <time>2016-07-30T12:22:34Z</time>
      </trkpt>
      <trkpt lat="47.90283" lon="7.10231">
        <ele>1359</ele>
        <time>2016-07-30T12:22:37Z</time>
      </trkpt>
      <trkpt lat="47.90342" lon="7.10257">
        <ele>1349</ele>
        <time>2016-07-30T12:22:45Z</time>
      </trkpt>
      <trkpt lat="47.90349" lon="7.1026">
        <ele>1348</ele>
        <time>2016-07-30T12:22:46Z</time>
      </trkpt>
      <trkpt lat="47.90363" lon="7.1026">
        <ele>1347</ele>
        <time>2016-07-30T12:22:48Z</time>
      </trkpt>
      <trkpt lat="47.90381" lon="7.10258">
        <ele>1346</ele>
        <time>2016-07-30T12:22:52Z</time>
      </trkpt>
      <trkpt lat="47.9039" lon="7.10253">
        <ele>1346</ele>
        <time>2016-07-30T12:22:54Z</time>
      </trkpt>
      <trkpt lat="47.90395" lon="7.10253">
        <ele>1346</ele>
        <time>2016-07-30T12:22:55Z</time>
      </trkpt>
      <trkpt lat="47.90405" lon="7.10255">
        <ele>1346</ele>
        <time>2016-07-30T12:22:57Z</time>
      </trkpt>
      <trkpt lat="47.90414" lon="7.10255">
        <ele>1347</ele>
        <time>2016-07-30T12:22:59Z</time>
      </trkpt>
      <trkpt lat="47.90425" lon="7.10253">
        <ele>1345</ele>
        <time>2016-07-30T12:23:03Z</time>
      </trkpt>
      <trkpt lat="47.90431" lon="7.10254">
        <ele>1343</ele>
        <time>2016-07-30T12:23:05Z</time>
      </trkpt>
      <trkpt lat="47.90437" lon="7.10253">
        <ele>1342</ele>
        <time>2016-07-30T12:23:07Z</time>
      </trkpt>
      <trkpt lat="47.9044" lon="7.10251">
        <ele>1341</ele>
        <time>2016-07-30T12:23:08Z</time>
      </trkpt>
      <trkpt lat="47.90442" lon="7.10248">
        <ele>1343</ele>
        <time>2016-07-30T12:23:09Z</time>
      </trkpt>
      <trkpt lat="47.90445" lon="7.10238">
        <ele>1343</ele>
        <time>2016-07-30T12:23:13Z</time>
      </trkpt>
      <trkpt lat="47.90445" lon="7.1023">
        <ele>1343</ele>
        <time>2016-07-30T12:23:16Z</time>
      </trkpt>
      <trkpt lat="47.90444" lon="7.10227">
        <ele>1343</ele>
        <time>2016-07-30T12:23:17Z</time>
      </trkpt>
      <trkpt lat="47.90445" lon="7.10223">
        <ele>1343</ele>
        <time>2016-07-30T12:23:20Z</time>
      </trkpt>
      <trkpt lat="47.90454" lon="7.10232">
        <ele>1342</ele>
        <time>2016-07-30T12:23:30Z</time>
      </trkpt>
      <trkpt lat="47.90459" lon="7.10234">
        <ele>1341</ele>
        <time>2016-07-30T12:23:34Z</time>
      </trkpt>
      <trkpt lat="47.90459" lon="7.10234">
        <ele>1341</ele>
        <time>2016-07-30T12:45:25Z</time>
      </trkpt>
      <trkpt lat="47.90457" lon="7.10235">
        <ele>1341</ele>
        <time>2016-07-30T12:45:26Z</time>
      </trkpt>
      <trkpt lat="47.90446" lon="7.1025">
        <ele>1340</ele>
        <time>2016-07-30T12:45:34Z</time>
      </trkpt>
      <trkpt lat="47.90456" lon="7.10262">
        <ele>1338</ele>
        <time>2016-07-30T12:45:39Z</time>
      </trkpt>
      <trkpt lat="47.90462" lon="7.10266">
        <ele>1337</ele>
        <time>2016-07-30T12:45:42Z</time>
      </trkpt>
      <trkpt lat="47.90468" lon="7.10282">
        <ele>1337</ele>
        <time>2016-07-30T12:45:46Z</time>
      </trkpt>
      <trkpt lat="47.90479" lon="7.10302">
        <ele>1336</ele>
        <time>2016-07-30T12:45:50Z</time>
      </trkpt>
      <trkpt lat="47.90481" lon="7.1031">
        <ele>1335</ele>
        <time>2016-07-30T12:45:52Z</time>
      </trkpt>
      <trkpt lat="47.90476" lon="7.10331">
        <ele>1335</ele>
        <time>2016-07-30T12:45:58Z</time>
      </trkpt>
      <trkpt lat="47.90476" lon="7.10348">
        <ele>1333</ele>
        <time>2016-07-30T12:46:04Z</time>
      </trkpt>
      <trkpt lat="47.90479" lon="7.1037">
        <ele>1333</ele>
        <time>2016-07-30T12:46:13Z</time>
      </trkpt>
      <trkpt lat="47.90475" lon="7.10384">
        <ele>1333</ele>
        <time>2016-07-30T12:46:19Z</time>
      </trkpt>
      <trkpt lat="47.90475" lon="7.1039">
        <ele>1333</ele>
        <time>2016-07-30T12:46:24Z</time>
      </trkpt>
      <trkpt lat="47.90475" lon="7.10393">
        <ele>1333</ele>
        <time>2016-07-30T12:46:38Z</time>
      </trkpt>
      <trkpt lat="47.90473" lon="7.10395">
        <ele>1333</ele>
        <time>2016-07-30T12:46:39Z</time>
      </trkpt>
      <trkpt lat="47.90469" lon="7.10407">
        <ele>1333</ele>
        <time>2016-07-30T12:46:44Z</time>
      </trkpt>
      <trkpt lat="47.90469" lon="7.10407">
        <ele>1333</ele>
        <time>2016-07-30T12:46:45Z</time>
      </trkpt>
      <trkpt lat="47.90463" lon="7.1041">
        <ele>1332</ele>
        <time>2016-07-30T12:47:31Z</time>
      </trkpt>
      <trkpt lat="47.90449" lon="7.10426">
        <ele>1328</ele>
        <time>2016-07-30T12:47:36Z</time>
      </trkpt>
      <trkpt lat="47.90444" lon="7.10436">
        <ele>1328</ele>
        <time>2016-07-30T12:47:39Z</time>
      </trkpt>
      <trkpt lat="47.90436" lon="7.10446">
        <ele>1327</ele>
        <time>2016-07-30T12:47:42Z</time>
      </trkpt>
      <trkpt lat="47.90432" lon="7.10453">
        <ele>1327</ele>
        <time>2016-07-30T12:47:44Z</time>
      </trkpt>
      <trkpt lat="47.9043" lon="7.10466">
        <ele>1325</ele>
        <time>2016-07-30T12:47:47Z</time>
      </trkpt>
      <trkpt lat="47.90429" lon="7.10482">
        <ele>1323</ele>
        <time>2016-07-30T12:47:49Z</time>
      </trkpt>
      <trkpt lat="47.9043" lon="7.10494">
        <ele>1322</ele>
        <time>2016-07-30T12:47:51Z</time>
      </trkpt>
      <trkpt lat="47.90436" lon="7.10513">
        <ele>1318</ele>
        <time>2016-07-30T12:47:56Z</time>
      </trkpt>
      <trkpt lat="47.90454" lon="7.10552">
        <ele>1317</ele>
        <time>2016-07-30T12:48:02Z</time>
      </trkpt>
      <trkpt lat="47.9047" lon="7.10581">
        <ele>1317</ele>
        <time>2016-07-30T12:48:06Z</time>
      </trkpt>
      <trkpt lat="47.90475" lon="7.10592">
        <ele>1309</ele>
        <time>2016-07-30T12:48:07Z</time>
      </trkpt>
      <trkpt lat="47.90492" lon="7.10623">
        <ele>1306</ele>
        <time>2016-07-30T12:48:11Z</time>
      </trkpt>
      <trkpt lat="47.90497" lon="7.10627">
        <ele>1306</ele>
        <time>2016-07-30T12:48:12Z</time>
      </trkpt>
      <trkpt lat="47.90501" lon="7.10638">
        <ele>1311</ele>
        <time>2016-07-30T12:48:15Z</time>
      </trkpt>
      <trkpt lat="47.90499" lon="7.10643">
        <ele>1304</ele>
        <time>2016-07-30T12:48:17Z</time>
      </trkpt>
      <trkpt lat="47.90478" lon="7.10647">
        <ele>1303</ele>
        <time>2016-07-30T12:48:21Z</time>
      </trkpt>
      <trkpt lat="47.90472" lon="7.10647">
        <ele>1303</ele>
        <time>2016-07-30T12:48:22Z</time>
      </trkpt>
      <trkpt lat="47.90466" lon="7.10644">
        <ele>1303</ele>
        <time>2016-07-30T12:48:23Z</time>
      </trkpt>
      <trkpt lat="47.90446" lon="7.10644">
        <ele>1300</ele>
        <time>2016-07-30T12:48:26Z</time>
      </trkpt>
      <trkpt lat="47.90435" lon="7.10646">
        <ele>1299</ele>
        <time>2016-07-30T12:48:28Z</time>
      </trkpt>
      <trkpt lat="47.90389" lon="7.10637">
        <ele>1289</ele>
        <time>2016-07-30T12:48:35Z</time>
      </trkpt>
      <trkpt lat="47.90377" lon="7.10636">
        <ele>1288</ele>
        <time>2016-07-30T12:48:38Z</time>
      </trkpt>
      <trkpt lat="47.90372" lon="7.10638">
        <ele>1287</ele>
        <time>2016-07-30T12:48:39Z</time>
      </trkpt>
      <trkpt lat="47.90368" lon="7.10636">
        <ele>1287</ele>
        <time>2016-07-30T12:48:40Z</time>
      </trkpt>
      <trkpt lat="47.90359" lon="7.10639">
        <ele>1286</ele>
        <time>2016-07-30T12:48:43Z</time>
      </trkpt>
      <trkpt lat="47.90351" lon="7.10647">
        <ele>1283</ele>
        <time>2016-07-30T12:48:45Z</time>
      </trkpt>
      <trkpt lat="47.90344" lon="7.1065">
        <ele>1282</ele>
        <time>2016-07-30T12:48:47Z</time>
      </trkpt>
      <trkpt lat="47.90342" lon="7.10652">
        <ele>1281</ele>
        <time>2016-07-30T12:48:50Z</time>
      </trkpt>
      <trkpt lat="47.90315" lon="7.10664">
        <ele>1274</ele>
        <time>2016-07-30T13:00:22Z</time>
      </trkpt>
      <trkpt lat="47.90312" lon="7.10666">
        <ele>1274</ele>
        <time>2016-07-30T13:00:23Z</time>
      </trkpt>
      <trkpt lat="47.90294" lon="7.10672">
        <ele>1263</ele>
        <time>2016-07-30T13:00:27Z</time>
      </trkpt>
      <trkpt lat="47.90287" lon="7.10676">
        <ele>1262</ele>
        <time>2016-07-30T13:00:28Z</time>
      </trkpt>
      <trkpt lat="47.90278" lon="7.10682">
        <ele>1261</ele>
        <time>2016-07-30T13:00:30Z</time>
      </trkpt>
      <trkpt lat="47.90273" lon="7.10683">
        <ele>1260</ele>
        <time>2016-07-30T13:00:31Z</time>
      </trkpt>
      <trkpt lat="47.90266" lon="7.10687">
        <ele>1260</ele>
        <time>2016-07-30T13:00:33Z</time>
      </trkpt>
      <trkpt lat="47.90266" lon="7.10689">
        <ele>1260</ele>
        <time>2016-07-30T13:00:34Z</time>
      </trkpt>
      <trkpt lat="47.90268" lon="7.10705">
        <ele>1259</ele>
        <time>2016-07-30T13:00:37Z</time>
      </trkpt>
      <trkpt lat="47.9027" lon="7.1073">
        <ele>1256</ele>
        <time>2016-07-30T13:00:40Z</time>
      </trkpt>
      <trkpt lat="47.90274" lon="7.10741">
        <ele>1255</ele>
        <time>2016-07-30T13:00:44Z</time>
      </trkpt>
      <trkpt lat="47.90275" lon="7.10743">
        <ele>1255</ele>
        <time>2016-07-30T13:00:47Z</time>
      </trkpt>
      <trkpt lat="47.90274" lon="7.10752">
        <ele>1247</ele>
        <time>2016-07-30T13:01:15Z</time>
      </trkpt>
      <trkpt lat="47.90276" lon="7.10758">
        <ele>1247</ele>
        <time>2016-07-30T13:01:16Z</time>
      </trkpt>
      <trkpt lat="47.90286" lon="7.10781">
        <ele>1247</ele>
        <time>2016-07-30T13:01:18Z</time>
      </trkpt>
      <trkpt lat="47.90295" lon="7.10798">
        <ele>1246</ele>
        <time>2016-07-30T13:01:20Z</time>
      </trkpt>
      <trkpt lat="47.90299" lon="7.10812">
        <ele>1245</ele>
        <time>2016-07-30T13:01:23Z</time>
      </trkpt>
      <trkpt lat="47.90309" lon="7.10829">
        <ele>1244</ele>
        <time>2016-07-30T13:01:26Z</time>
      </trkpt>
      <trkpt lat="47.90315" lon="7.10849">
        <ele>1236</ele>
        <time>2016-07-30T13:01:30Z</time>
      </trkpt>
      <trkpt lat="47.90326" lon="7.10871">
        <ele>1234</ele>
        <time>2016-07-30T13:01:33Z</time>
      </trkpt>
      <trkpt lat="47.90331" lon="7.10888">
        <ele>1233</ele>
        <time>2016-07-30T13:01:36Z</time>
      </trkpt>
      <trkpt lat="47.90339" lon="7.10904">
        <ele>1235</ele>
        <time>2016-07-30T13:01:39Z</time>
      </trkpt>
      <trkpt lat="47.90345" lon="7.1092">
        <ele>1229</ele>
        <time>2016-07-30T13:01:42Z</time>
      </trkpt>
      <trkpt lat="47.90357" lon="7.10942">
        <ele>1227</ele>
        <time>2016-07-30T13:01:46Z</time>
      </trkpt>
      <trkpt lat="47.90368" lon="7.10975">
        <ele>1224</ele>
        <time>2016-07-30T13:01:50Z</time>
      </trkpt>
      <trkpt lat="47.9037" lon="7.10982">
        <ele>1224</ele>
        <time>2016-07-30T13:01:51Z</time>
      </trkpt>
      <trkpt lat="47.90375" lon="7.10988">
        <ele>1224</ele>
        <time>2016-07-30T13:01:54Z</time>
      </trkpt>
      <trkpt lat="47.90382" lon="7.10999">
        <ele>1224</ele>
        <time>2016-07-30T13:02:17Z</time>
      </trkpt>
      <trkpt lat="47.90385" lon="7.11005">
        <ele>1213</ele>
        <time>2016-07-30T13:02:18Z</time>
      </trkpt>
      <trkpt lat="47.90391" lon="7.11012">
        <ele>1213</ele>
        <time>2016-07-30T13:02:19Z</time>
      </trkpt>
      <trkpt lat="47.90395" lon="7.11023">
        <ele>1212</ele>
        <time>2016-07-30T13:02:20Z</time>
      </trkpt>
      <trkpt lat="47.90403" lon="7.11032">
        <ele>1211</ele>
        <time>2016-07-30T13:02:21Z</time>
      </trkpt>
      <trkpt lat="47.90417" lon="7.11054">
        <ele>1208</ele>
        <time>2016-07-30T13:02:24Z</time>
      </trkpt>
      <trkpt lat="47.90436" lon="7.11084">
        <ele>1202</ele>
        <time>2016-07-30T13:02:28Z</time>
      </trkpt>
      <trkpt lat="47.90444" lon="7.11102">
        <ele>1201</ele>
        <time>2016-07-30T13:02:31Z</time>
      </trkpt>
      <trkpt lat="47.90448" lon="7.11108">
        <ele>1200</ele>
        <time>2016-07-30T13:02:32Z</time>
      </trkpt>
      <trkpt lat="47.90455" lon="7.11119">
        <ele>1200</ele>
        <time>2016-07-30T13:02:34Z</time>
      </trkpt>
      <trkpt lat="47.90465" lon="7.11142">
        <ele>1198</ele>
        <time>2016-07-30T13:02:36Z</time>
      </trkpt>
      <trkpt lat="47.90482" lon="7.1117">
        <ele>1189</ele>
        <time>2016-07-30T13:02:39Z</time>
      </trkpt>
      <trkpt lat="47.90486" lon="7.1118">
        <ele>1189</ele>
        <time>2016-07-30T13:02:40Z</time>
      </trkpt>
      <trkpt lat="47.90492" lon="7.1119">
        <ele>1187</ele>
        <time>2016-07-30T13:02:41Z</time>
      </trkpt>
      <trkpt lat="47.90497" lon="7.11205">
        <ele>1184</ele>
        <time>2016-07-30T13:02:42Z</time>
      </trkpt>
      <trkpt lat="47.90501" lon="7.11213">
        <ele>1191</ele>
        <time>2016-07-30T13:02:43Z</time>
      </trkpt>
      <trkpt lat="47.90512" lon="7.11239">
        <ele>1186</ele>
        <time>2016-07-30T13:02:46Z</time>
      </trkpt>
      <trkpt lat="47.90522" lon="7.11274">
        <ele>1179</ele>
        <time>2016-07-30T13:02:52Z</time>
      </trkpt>
      <trkpt lat="47.90523" lon="7.1128">
        <ele>1178</ele>
        <time>2016-07-30T13:02:53Z</time>
      </trkpt>
      <trkpt lat="47.90522" lon="7.11303">
        <ele>1176</ele>
        <time>2016-07-30T13:02:57Z</time>
      </trkpt>
      <trkpt lat="47.90525" lon="7.11329">
        <ele>1173</ele>
        <time>2016-07-30T13:03:00Z</time>
      </trkpt>
      <trkpt lat="47.90519" lon="7.11364">
        <ele>1168</ele>
        <time>2016-07-30T13:03:04Z</time>
      </trkpt>
      <trkpt lat="47.90517" lon="7.11377">
        <ele>1167</ele>
        <time>2016-07-30T13:03:06Z</time>
      </trkpt>
      <trkpt lat="47.90516" lon="7.11384">
        <ele>1166</ele>
        <time>2016-07-30T13:03:07Z</time>
      </trkpt>
      <trkpt lat="47.90512" lon="7.11398">
        <ele>1163</ele>
        <time>2016-07-30T13:03:10Z</time>
      </trkpt>
      <trkpt lat="47.90512" lon="7.1142">
        <ele>1157</ele>
        <time>2016-07-30T13:03:15Z</time>
      </trkpt>
      <trkpt lat="47.90513" lon="7.11427">
        <ele>1158</ele>
        <time>2016-07-30T13:03:18Z</time>
      </trkpt>
      <trkpt lat="47.90507" lon="7.11462">
        <ele>1157</ele>
        <time>2016-07-30T13:03:26Z</time>
      </trkpt>
      <trkpt lat="47.90504" lon="7.11469">
        <ele>1156</ele>
        <time>2016-07-30T13:03:28Z</time>
      </trkpt>
      <trkpt lat="47.90502" lon="7.11481">
        <ele>1153</ele>
        <time>2016-07-30T13:03:30Z</time>
      </trkpt>
      <trkpt lat="47.90497" lon="7.11494">
        <ele>1141</ele>
        <time>2016-07-30T13:03:33Z</time>
      </trkpt>
      <trkpt lat="47.90493" lon="7.11516">
        <ele>1135</ele>
        <time>2016-07-30T13:03:35Z</time>
      </trkpt>
      <trkpt lat="47.90492" lon="7.11553">
        <ele>1130</ele>
        <time>2016-07-30T13:03:41Z</time>
      </trkpt>
      <trkpt lat="47.90493" lon="7.11562">
        <ele>1130</ele>
        <time>2016-07-30T13:03:42Z</time>
      </trkpt>
      <trkpt lat="47.9049" lon="7.11575">
        <ele>1130</ele>
        <time>2016-07-30T13:03:44Z</time>
      </trkpt>
      <trkpt lat="47.9049" lon="7.11579">
        <ele>1131</ele>
        <time>2016-07-30T13:03:45Z</time>
      </trkpt>
      <trkpt lat="47.90487" lon="7.11598">
        <ele>1125</ele>
        <time>2016-07-30T13:03:48Z</time>
      </trkpt>
      <trkpt lat="47.90484" lon="7.11608">
        <ele>1123</ele>
        <time>2016-07-30T13:03:49Z</time>
      </trkpt>
      <trkpt lat="47.90479" lon="7.11634">
        <ele>1121</ele>
        <time>2016-07-30T13:03:52Z</time>
      </trkpt>
      <trkpt lat="47.90479" lon="7.11641">
        <ele>1120</ele>
        <time>2016-07-30T13:03:53Z</time>
      </trkpt>
      <trkpt lat="47.90482" lon="7.11679">
        <ele>1115</ele>
        <time>2016-07-30T13:04:03Z</time>
      </trkpt>
      <trkpt lat="47.90484" lon="7.11692">
        <ele>1113</ele>
        <time>2016-07-30T13:04:31Z</time>
      </trkpt>
      <trkpt lat="47.90486" lon="7.11708">
        <ele>1111</ele>
        <time>2016-07-30T13:04:33Z</time>
      </trkpt>
      <trkpt lat="47.90488" lon="7.11717">
        <ele>1111</ele>
        <time>2016-07-30T13:04:34Z</time>
      </trkpt>
      <trkpt lat="47.90492" lon="7.11727">
        <ele>1111</ele>
        <time>2016-07-30T13:04:35Z</time>
      </trkpt>
      <trkpt lat="47.90496" lon="7.11743">
        <ele>1113</ele>
        <time>2016-07-30T13:04:36Z</time>
      </trkpt>
      <trkpt lat="47.90509" lon="7.11771">
        <ele>1116</ele>
        <time>2016-07-30T13:04:39Z</time>
      </trkpt>
      <trkpt lat="47.90515" lon="7.11789">
        <ele>1115</ele>
        <time>2016-07-30T13:04:41Z</time>
      </trkpt>
      <trkpt lat="47.90533" lon="7.11825">
        <ele>1113</ele>
        <time>2016-07-30T13:04:46Z</time>
      </trkpt>
      <trkpt lat="47.90543" lon="7.1185">
        <ele>1104</ele>
        <time>2016-07-30T13:04:49Z</time>
      </trkpt>
      <trkpt lat="47.9056" lon="7.11877">
        <ele>1104</ele>
        <time>2016-07-30T13:04:54Z</time>
      </trkpt>
      <trkpt lat="47.90564" lon="7.11891">
        <ele>1103</ele>
        <time>2016-07-30T13:05:00Z</time>
      </trkpt>
      <trkpt lat="47.90567" lon="7.11897">
        <ele>1103</ele>
        <time>2016-07-30T13:05:02Z</time>
      </trkpt>
      <trkpt lat="47.90572" lon="7.11922">
        <ele>1097</ele>
        <time>2016-07-30T13:05:10Z</time>
      </trkpt>
      <trkpt lat="47.90572" lon="7.11927">
        <ele>1095</ele>
        <time>2016-07-30T13:05:12Z</time>
      </trkpt>
      <trkpt lat="47.90575" lon="7.11941">
        <ele>1092</ele>
        <time>2016-07-30T13:05:16Z</time>
      </trkpt>
      <trkpt lat="47.90575" lon="7.11943">
        <ele>1091</ele>
        <time>2016-07-30T13:05:17Z</time>
      </trkpt>
      <trkpt lat="47.9058" lon="7.11957">
        <ele>1088</ele>
        <time>2016-07-30T13:05:22Z</time>
      </trkpt>
      <trkpt lat="47.90574" lon="7.1196">
        <ele>1087</ele>
        <time>2016-07-30T13:05:25Z</time>
      </trkpt>
      <trkpt lat="47.90572" lon="7.11961">
        <ele>1087</ele>
        <time>2016-07-30T13:05:26Z</time>
      </trkpt>
      <trkpt lat="47.9057" lon="7.11965">
        <ele>1086</ele>
        <time>2016-07-30T13:05:27Z</time>
      </trkpt>
      <trkpt lat="47.90567" lon="7.11966">
        <ele>1086</ele>
        <time>2016-07-30T13:05:30Z</time>
      </trkpt>
      <trkpt lat="47.90566" lon="7.1197">
        <ele>1085</ele>
        <time>2016-07-30T13:05:32Z</time>
      </trkpt>
      <trkpt lat="47.90576" lon="7.12011">
        <ele>1077</ele>
        <time>2016-07-30T13:05:40Z</time>
      </trkpt>
      <trkpt lat="47.90577" lon="7.12021">
        <ele>1073</ele>
        <time>2016-07-30T13:05:42Z</time>
      </trkpt>
      <trkpt lat="47.90576" lon="7.12028">
        <ele>1071</ele>
        <time>2016-07-30T13:05:44Z</time>
      </trkpt>
      <trkpt lat="47.90581" lon="7.12051">
        <ele>1067</ele>
        <time>2016-07-30T13:05:50Z</time>
      </trkpt>
      <trkpt lat="47.90586" lon="7.12064">
        <ele>1076</ele>
        <time>2016-07-30T13:05:53Z</time>
      </trkpt>
      <trkpt lat="47.90586" lon="7.12068">
        <ele>1075</ele>
        <time>2016-07-30T13:05:55Z</time>
      </trkpt>
      <trkpt lat="47.90589" lon="7.12073">
        <ele>1073</ele>
        <time>2016-07-30T13:05:57Z</time>
      </trkpt>
      <trkpt lat="47.90597" lon="7.12094">
        <ele>1066</ele>
        <time>2016-07-30T13:06:01Z</time>
      </trkpt>
      <trkpt lat="47.90602" lon="7.12104">
        <ele>1066</ele>
        <time>2016-07-30T13:06:04Z</time>
      </trkpt>
      <trkpt lat="47.90622" lon="7.12161">
        <ele>1063</ele>
        <time>2016-07-30T13:06:11Z</time>
      </trkpt>
      <trkpt lat="47.90627" lon="7.12167">
        <ele>1052</ele>
        <time>2016-07-30T13:06:12Z</time>
      </trkpt>
      <trkpt lat="47.90642" lon="7.12196">
        <ele>1052</ele>
        <time>2016-07-30T13:06:16Z</time>
      </trkpt>
      <trkpt lat="47.90652" lon="7.12213">
        <ele>1050</ele>
        <time>2016-07-30T13:06:18Z</time>
      </trkpt>
      <trkpt lat="47.90655" lon="7.12227">
        <ele>1049</ele>
        <time>2016-07-30T13:06:19Z</time>
      </trkpt>
      <trkpt lat="47.9066" lon="7.12235">
        <ele>1048</ele>
        <time>2016-07-30T13:06:20Z</time>
      </trkpt>
      <trkpt lat="47.90663" lon="7.12243">
        <ele>1047</ele>
        <time>2016-07-30T13:06:21Z</time>
      </trkpt>
      <trkpt lat="47.90672" lon="7.12258">
        <ele>1047</ele>
        <time>2016-07-30T13:06:23Z</time>
      </trkpt>
      <trkpt lat="47.90674" lon="7.12265">
        <ele>1046</ele>
        <time>2016-07-30T13:06:24Z</time>
      </trkpt>
      <trkpt lat="47.90681" lon="7.12297">
        <ele>1043</ele>
        <time>2016-07-30T13:06:28Z</time>
      </trkpt>
      <trkpt lat="47.90684" lon="7.12302">
        <ele>1042</ele>
        <time>2016-07-30T13:06:29Z</time>
      </trkpt>
      <trkpt lat="47.907" lon="7.12323">
        <ele>1042</ele>
        <time>2016-07-30T13:06:32Z</time>
      </trkpt>
      <trkpt lat="47.90708" lon="7.12346">
        <ele>1031</ele>
        <time>2016-07-30T13:06:35Z</time>
      </trkpt>
      <trkpt lat="47.90709" lon="7.12357">
        <ele>1031</ele>
        <time>2016-07-30T13:06:37Z</time>
      </trkpt>
      <trkpt lat="47.90709" lon="7.12366">
        <ele>1030</ele>
        <time>2016-07-30T13:06:38Z</time>
      </trkpt>
      <trkpt lat="47.90715" lon="7.1239">
        <ele>1028</ele>
        <time>2016-07-30T13:06:40Z</time>
      </trkpt>
      <trkpt lat="47.90724" lon="7.12417">
        <ele>1021</ele>
        <time>2016-07-30T13:06:43Z</time>
      </trkpt>
      <trkpt lat="47.90726" lon="7.12432">
        <ele>1020</ele>
        <time>2016-07-30T13:06:45Z</time>
      </trkpt>
      <trkpt lat="47.90724" lon="7.12447">
        <ele>1018</ele>
        <time>2016-07-30T13:06:47Z</time>
      </trkpt>
      <trkpt lat="47.90724" lon="7.12457">
        <ele>1017</ele>
        <time>2016-07-30T13:06:49Z</time>
      </trkpt>
      <trkpt lat="47.90728" lon="7.12495">
        <ele>1016</ele>
        <time>2016-07-30T13:06:55Z</time>
      </trkpt>
      <trkpt lat="47.90733" lon="7.12523">
        <ele>1009</ele>
        <time>2016-07-30T13:06:59Z</time>
      </trkpt>
      <trkpt lat="47.90735" lon="7.12546">
        <ele>1007</ele>
        <time>2016-07-30T13:07:02Z</time>
      </trkpt>
      <trkpt lat="47.90734" lon="7.12553">
        <ele>1006</ele>
        <time>2016-07-30T13:07:03Z</time>
      </trkpt>
      <trkpt lat="47.90736" lon="7.12581">
        <ele>1007</ele>
        <time>2016-07-30T13:07:08Z</time>
      </trkpt>
      <trkpt lat="47.90742" lon="7.12606">
        <ele>999</ele>
        <time>2016-07-30T13:07:12Z</time>
      </trkpt>
      <trkpt lat="47.90742" lon="7.12612">
        <ele>998</ele>
        <time>2016-07-30T13:07:13Z</time>
      </trkpt>
      <trkpt lat="47.90743" lon="7.12619">
        <ele>997</ele>
        <time>2016-07-30T13:07:14Z</time>
      </trkpt>
      <trkpt lat="47.90744" lon="7.12634">
        <ele>995</ele>
        <time>2016-07-30T13:07:16Z</time>
      </trkpt>
      <trkpt lat="47.90749" lon="7.12663">
        <ele>996</ele>
        <time>2016-07-30T13:07:21Z</time>
      </trkpt>
      <trkpt lat="47.90767" lon="7.12696">
        <ele>996</ele>
        <time>2016-07-30T13:07:28Z</time>
      </trkpt>
      <trkpt lat="47.90769" lon="7.12702">
        <ele>995</ele>
        <time>2016-07-30T13:07:29Z</time>
      </trkpt>
      <trkpt lat="47.9078" lon="7.12721">
        <ele>994</ele>
        <time>2016-07-30T13:07:32Z</time>
      </trkpt>
      <trkpt lat="47.90802" lon="7.12761">
        <ele>985</ele>
        <time>2016-07-30T13:07:39Z</time>
      </trkpt>
      <trkpt lat="47.90805" lon="7.1277">
        <ele>984</ele>
        <time>2016-07-30T13:07:40Z</time>
      </trkpt>
      <trkpt lat="47.90815" lon="7.12821">
        <ele>979</ele>
        <time>2016-07-30T13:07:43Z</time>
      </trkpt>
      <trkpt lat="47.90817" lon="7.12834">
        <ele>974</ele>
        <time>2016-07-30T13:07:44Z</time>
      </trkpt>
      <trkpt lat="47.90821" lon="7.12849">
        <ele>974</ele>
        <time>2016-07-30T13:07:46Z</time>
      </trkpt>
      <trkpt lat="47.90821" lon="7.12854">
        <ele>973</ele>
        <time>2016-07-30T13:07:47Z</time>
      </trkpt>
      <trkpt lat="47.90819" lon="7.12864">
        <ele>972</ele>
        <time>2016-07-30T13:07:50Z</time>
      </trkpt>
      <trkpt lat="47.90816" lon="7.12864">
        <ele>972</ele>
        <time>2016-07-30T13:07:52Z</time>
      </trkpt>
      <trkpt lat="47.90815" lon="7.12871">
        <ele>972</ele>
        <time>2016-07-30T13:08:59Z</time>
      </trkpt>
      <trkpt lat="47.90813" lon="7.12892">
        <ele>971</ele>
        <time>2016-07-30T13:09:02Z</time>
      </trkpt>
      <trkpt lat="47.90818" lon="7.12913">
        <ele>971</ele>
        <time>2016-07-30T13:09:05Z</time>
      </trkpt>
      <trkpt lat="47.90819" lon="7.12923">
        <ele>970</ele>
        <time>2016-07-30T13:09:07Z</time>
      </trkpt>
      <trkpt lat="47.90818" lon="7.12933">
        <ele>970</ele>
        <time>2016-07-30T13:09:09Z</time>
      </trkpt>
      <trkpt lat="47.90815" lon="7.12937">
        <ele>969</ele>
        <time>2016-07-30T13:09:10Z</time>
      </trkpt>
      <trkpt lat="47.90815" lon="7.1295">
        <ele>969</ele>
        <time>2016-07-30T13:09:13Z</time>
      </trkpt>
      <trkpt lat="47.90807" lon="7.12981">
        <ele>968</ele>
        <time>2016-07-30T13:09:19Z</time>
      </trkpt>
      <trkpt lat="47.90806" lon="7.12988">
        <ele>968</ele>
        <time>2016-07-30T13:09:20Z</time>
      </trkpt>
      <trkpt lat="47.90806" lon="7.12993">
        <ele>968</ele>
        <time>2016-07-30T13:09:21Z</time>
      </trkpt>
      <trkpt lat="47.90805" lon="7.13006">
        <ele>965</ele>
        <time>2016-07-30T13:09:23Z</time>
      </trkpt>
      <trkpt lat="47.90801" lon="7.13026">
        <ele>964</ele>
        <time>2016-07-30T13:09:26Z</time>
      </trkpt>
      <trkpt lat="47.90795" lon="7.1304">
        <ele>963</ele>
        <time>2016-07-30T13:09:28Z</time>
      </trkpt>
      <trkpt lat="47.9079" lon="7.13057">
        <ele>962</ele>
        <time>2016-07-30T13:09:30Z</time>
      </trkpt>
      <trkpt lat="47.90789" lon="7.13075">
        <ele>962</ele>
        <time>2016-07-30T13:09:32Z</time>
      </trkpt>
      <trkpt lat="47.90785" lon="7.13098">
        <ele>956</ele>
        <time>2016-07-30T13:09:35Z</time>
      </trkpt>
      <trkpt lat="47.90783" lon="7.13106">
        <ele>956</ele>
        <time>2016-07-30T13:09:36Z</time>
      </trkpt>
      <trkpt lat="47.90778" lon="7.13147">
        <ele>955</ele>
        <time>2016-07-30T13:09:40Z</time>
      </trkpt>
      <trkpt lat="47.90778" lon="7.13158">
        <ele>955</ele>
        <time>2016-07-30T13:09:41Z</time>
      </trkpt>
      <trkpt lat="47.90776" lon="7.13168">
        <ele>951</ele>
        <time>2016-07-30T13:09:42Z</time>
      </trkpt>
      <trkpt lat="47.90772" lon="7.13178">
        <ele>952</ele>
        <time>2016-07-30T13:09:43Z</time>
      </trkpt>
      <trkpt lat="47.90766" lon="7.13204">
        <ele>950</ele>
        <time>2016-07-30T13:09:46Z</time>
      </trkpt>
      <trkpt lat="47.90763" lon="7.13209">
        <ele>950</ele>
        <time>2016-07-30T13:09:47Z</time>
      </trkpt>
      <trkpt lat="47.90757" lon="7.13213">
        <ele>950</ele>
        <time>2016-07-30T13:09:49Z</time>
      </trkpt>
      <trkpt lat="47.90754" lon="7.13217">
        <ele>950</ele>
        <time>2016-07-30T13:09:51Z</time>
      </trkpt>
      <trkpt lat="47.90752" lon="7.13224">
        <ele>951</ele>
        <time>2016-07-30T13:09:53Z</time>
      </trkpt>
      <trkpt lat="47.90744" lon="7.13244">
        <ele>957</ele>
        <time>2016-07-30T13:10:01Z</time>
      </trkpt>
      <trkpt lat="47.90742" lon="7.13256">
        <ele>957</ele>
        <time>2016-07-30T13:10:06Z</time>
      </trkpt>
      <trkpt lat="47.90743" lon="7.1326">
        <ele>957</ele>
        <time>2016-07-30T13:10:07Z</time>
      </trkpt>
      <trkpt lat="47.90738" lon="7.1327">
        <ele>958</ele>
        <time>2016-07-30T13:10:11Z</time>
      </trkpt>
      <trkpt lat="47.90739" lon="7.13274">
        <ele>958</ele>
        <time>2016-07-30T13:10:12Z</time>
      </trkpt>
      <trkpt lat="47.90733" lon="7.13315">
        <ele>957</ele>
        <time>2016-07-30T13:10:28Z</time>
      </trkpt>
      <trkpt lat="47.90732" lon="7.13315">
        <ele>957</ele>
        <time>2016-07-30T13:10:29Z</time>
      </trkpt>
      <trkpt lat="47.90732" lon="7.13326">
        <ele>956</ele>
        <time>2016-07-30T13:10:33Z</time>
      </trkpt>
      <trkpt lat="47.90729" lon="7.13335">
        <ele>953</ele>
        <time>2016-07-30T13:10:36Z</time>
      </trkpt>
      <trkpt lat="47.90728" lon="7.13344">
        <ele>953</ele>
        <time>2016-07-30T13:10:39Z</time>
      </trkpt>
      <trkpt lat="47.90721" lon="7.13361">
        <ele>953</ele>
        <time>2016-07-30T13:10:49Z</time>
      </trkpt>
      <trkpt lat="47.90716" lon="7.13379">
        <ele>953</ele>
        <time>2016-07-30T13:10:54Z</time>
      </trkpt>
      <trkpt lat="47.90715" lon="7.13387">
        <ele>952</ele>
        <time>2016-07-30T13:10:55Z</time>
      </trkpt>
      <trkpt lat="47.90709" lon="7.13416">
        <ele>952</ele>
        <time>2016-07-30T13:10:59Z</time>
      </trkpt>
      <trkpt lat="47.90709" lon="7.13427">
        <ele>943</ele>
        <time>2016-07-30T13:11:00Z</time>
      </trkpt>
      <trkpt lat="47.90707" lon="7.13444">
        <ele>941</ele>
        <time>2016-07-30T13:11:02Z</time>
      </trkpt>
      <trkpt lat="47.90701" lon="7.1346">
        <ele>940</ele>
        <time>2016-07-30T13:11:05Z</time>
      </trkpt>
      <trkpt lat="47.90701" lon="7.1347">
        <ele>939</ele>
        <time>2016-07-30T13:11:09Z</time>
      </trkpt>
      <trkpt lat="47.90701" lon="7.13474">
        <ele>939</ele>
        <time>2016-07-30T13:11:10Z</time>
      </trkpt>
      <trkpt lat="47.90689" lon="7.13497">
        <ele>938</ele>
        <time>2016-07-30T13:11:15Z</time>
      </trkpt>
      <trkpt lat="47.9069" lon="7.13504">
        <ele>928</ele>
        <time>2016-07-30T13:11:17Z</time>
      </trkpt>
      <trkpt lat="47.90689" lon="7.13509">
        <ele>928</ele>
        <time>2016-07-30T13:11:19Z</time>
      </trkpt>
      <trkpt lat="47.90674" lon="7.13544">
        <ele>924</ele>
        <time>2016-07-30T13:11:25Z</time>
      </trkpt>
      <trkpt lat="47.90671" lon="7.1356">
        <ele>922</ele>
        <time>2016-07-30T13:11:27Z</time>
      </trkpt>
      <trkpt lat="47.90666" lon="7.13597">
        <ele>921</ele>
        <time>2016-07-30T13:11:30Z</time>
      </trkpt>
      <trkpt lat="47.90661" lon="7.13623">
        <ele>920</ele>
        <time>2016-07-30T13:11:32Z</time>
      </trkpt>
      <trkpt lat="47.9066" lon="7.13637">
        <ele>920</ele>
        <time>2016-07-30T13:11:33Z</time>
      </trkpt>
      <trkpt lat="47.90661" lon="7.13649">
        <ele>920</ele>
        <time>2016-07-30T13:11:34Z</time>
      </trkpt>
      <trkpt lat="47.9066" lon="7.13671">
        <ele>922</ele>
        <time>2016-07-30T13:11:36Z</time>
      </trkpt>
      <trkpt lat="47.90664" lon="7.13681">
        <ele>923</ele>
        <time>2016-07-30T13:11:37Z</time>
      </trkpt>
      <trkpt lat="47.90673" lon="7.13683">
        <ele>916</ele>
        <time>2016-07-30T13:11:38Z</time>
      </trkpt>
      <trkpt lat="47.9068" lon="7.13697">
        <ele>914</ele>
        <time>2016-07-30T13:11:40Z</time>
      </trkpt>
      <trkpt lat="47.90686" lon="7.13701">
        <ele>914</ele>
        <time>2016-07-30T13:11:41Z</time>
      </trkpt>
      <trkpt lat="47.90695" lon="7.13716">
        <ele>913</ele>
        <time>2016-07-30T13:11:44Z</time>
      </trkpt>
      <trkpt lat="47.90705" lon="7.13727">
        <ele>912</ele>
        <time>2016-07-30T13:11:46Z</time>
      </trkpt>
      <trkpt lat="47.90712" lon="7.13741">
        <ele>910</ele>
        <time>2016-07-30T13:11:48Z</time>
      </trkpt>
      <trkpt lat="47.90714" lon="7.13752">
        <ele>914</ele>
        <time>2016-07-30T13:11:50Z</time>
      </trkpt>
      <trkpt lat="47.90714" lon="7.13759">
        <ele>914</ele>
        <time>2016-07-30T13:11:51Z</time>
      </trkpt>
      <trkpt lat="47.90723" lon="7.13813">
        <ele>913</ele>
        <time>2016-07-30T13:11:59Z</time>
      </trkpt>
      <trkpt lat="47.90723" lon="7.13845">
        <ele>915</ele>
        <time>2016-07-30T13:12:05Z</time>
      </trkpt>
      <trkpt lat="47.9072" lon="7.13854">
        <ele>917</ele>
        <time>2016-07-30T13:12:06Z</time>
      </trkpt>
      <trkpt lat="47.90718" lon="7.13866">
        <ele>918</ele>
        <time>2016-07-30T13:12:07Z</time>
      </trkpt>
      <trkpt lat="47.90721" lon="7.13887">
        <ele>918</ele>
        <time>2016-07-30T13:12:09Z</time>
      </trkpt>
      <trkpt lat="47.90725" lon="7.139">
        <ele>917</ele>
        <time>2016-07-30T13:12:10Z</time>
      </trkpt>
      <trkpt lat="47.90727" lon="7.13914">
        <ele>916</ele>
        <time>2016-07-30T13:12:11Z</time>
      </trkpt>
      <trkpt lat="47.90731" lon="7.13924">
        <ele>916</ele>
        <time>2016-07-30T13:12:12Z</time>
      </trkpt>
      <trkpt lat="47.90732" lon="7.13933">
        <ele>916</ele>
        <time>2016-07-30T13:12:13Z</time>
      </trkpt>
      <trkpt lat="47.90732" lon="7.13958">
        <ele>918</ele>
        <time>2016-07-30T13:12:17Z</time>
      </trkpt>
      <trkpt lat="47.90734" lon="7.13967">
        <ele>918</ele>
        <time>2016-07-30T13:12:19Z</time>
      </trkpt>
      <trkpt lat="47.90733" lon="7.13975">
        <ele>917</ele>
        <time>2016-07-30T13:12:21Z</time>
      </trkpt>
      <trkpt lat="47.90743" lon="7.14019">
        <ele>914</ele>
        <time>2016-07-30T13:12:29Z</time>
      </trkpt>
      <trkpt lat="47.90743" lon="7.14027">
        <ele>915</ele>
        <time>2016-07-30T13:12:31Z</time>
      </trkpt>
      <trkpt lat="47.90744" lon="7.14036">
        <ele>915</ele>
        <time>2016-07-30T13:12:33Z</time>
      </trkpt>
      <trkpt lat="47.9075" lon="7.14051">
        <ele>905</ele>
        <time>2016-07-30T13:12:37Z</time>
      </trkpt>
      <trkpt lat="47.90755" lon="7.14054">
        <ele>905</ele>
        <time>2016-07-30T13:12:40Z</time>
      </trkpt>
      <trkpt lat="47.90769" lon="7.14061">
        <ele>905</ele>
        <time>2016-07-30T13:12:46Z</time>
      </trkpt>
      <trkpt lat="47.90783" lon="7.14071">
        <ele>904</ele>
        <time>2016-07-30T13:12:52Z</time>
      </trkpt>
      <trkpt lat="47.90795" lon="7.14076">
        <ele>904</ele>
        <time>2016-07-30T13:12:59Z</time>
      </trkpt>
      <trkpt lat="47.90795" lon="7.14075">
        <ele>903</ele>
        <time>2016-07-30T13:13:02Z</time>
      </trkpt>
      <trkpt lat="47.90799" lon="7.14074">
        <ele>903</ele>
        <time>2016-07-30T13:14:02Z</time>
      </trkpt>
      <trkpt lat="47.90815" lon="7.14082">
        <ele>903</ele>
        <time>2016-07-30T13:14:05Z</time>
      </trkpt>
      <trkpt lat="47.90843" lon="7.14105">
        <ele>896</ele>
        <time>2016-07-30T13:14:10Z</time>
      </trkpt>
      <trkpt lat="47.90854" lon="7.1412">
        <ele>894</ele>
        <time>2016-07-30T13:14:12Z</time>
      </trkpt>
      <trkpt lat="47.90864" lon="7.1413">
        <ele>893</ele>
        <time>2016-07-30T13:14:14Z</time>
      </trkpt>
      <trkpt lat="47.90862" lon="7.14129">
        <ele>894</ele>
        <time>2016-07-30T13:14:16Z</time>
      </trkpt>
      <trkpt lat="47.90865" lon="7.14144">
        <ele>894</ele>
        <time>2016-07-30T13:14:56Z</time>
      </trkpt>
      <trkpt lat="47.90866" lon="7.14146">
        <ele>894</ele>
        <time>2016-07-30T13:14:57Z</time>
      </trkpt>
      <trkpt lat="47.90865" lon="7.14152">
        <ele>894</ele>
        <time>2016-07-30T13:14:59Z</time>
      </trkpt>
      <trkpt lat="47.90857" lon="7.14184">
        <ele>892</ele>
        <time>2016-07-30T13:15:07Z</time>
      </trkpt>
      <trkpt lat="47.90852" lon="7.14198">
        <ele>891</ele>
        <time>2016-07-30T13:15:10Z</time>
      </trkpt>
      <trkpt lat="47.90846" lon="7.1421">
        <ele>890</ele>
        <time>2016-07-30T13:15:14Z</time>
      </trkpt>
      <trkpt lat="47.90846" lon="7.14213">
        <ele>889</ele>
        <time>2016-07-30T13:15:16Z</time>
      </trkpt>
      <trkpt lat="47.90844" lon="7.14227">
        <ele>888</ele>
        <time>2016-07-30T13:15:19Z</time>
      </trkpt>
      <trkpt lat="47.9084" lon="7.14237">
        <ele>886</ele>
        <time>2016-07-30T13:15:21Z</time>
      </trkpt>
      <trkpt lat="47.90836" lon="7.14249">
        <ele>883</ele>
        <time>2016-07-30T13:15:23Z</time>
      </trkpt>
      <trkpt lat="47.90834" lon="7.14272">
        <ele>879</ele>
        <time>2016-07-30T13:15:26Z</time>
      </trkpt>
      <trkpt lat="47.90831" lon="7.14283">
        <ele>872</ele>
        <time>2016-07-30T13:15:28Z</time>
      </trkpt>
      <trkpt lat="47.90829" lon="7.14294">
        <ele>870</ele>
        <time>2016-07-30T13:15:30Z</time>
      </trkpt>
      <trkpt lat="47.90826" lon="7.14299">
        <ele>869</ele>
        <time>2016-07-30T13:15:31Z</time>
      </trkpt>
      <trkpt lat="47.90825" lon="7.14304">
        <ele>868</ele>
        <time>2016-07-30T13:15:32Z</time>
      </trkpt>
      <trkpt lat="47.90826" lon="7.14312">
        <ele>867</ele>
        <time>2016-07-30T13:15:33Z</time>
      </trkpt>
      <trkpt lat="47.90827" lon="7.14318">
        <ele>866</ele>
        <time>2016-07-30T13:15:34Z</time>
      </trkpt>
      <trkpt lat="47.90833" lon="7.14334">
        <ele>863</ele>
        <time>2016-07-30T13:15:37Z</time>
      </trkpt>
      <trkpt lat="47.90832" lon="7.14344">
        <ele>858</ele>
        <time>2016-07-30T13:15:39Z</time>
      </trkpt>
      <trkpt lat="47.90834" lon="7.1436">
        <ele>862</ele>
        <time>2016-07-30T13:15:42Z</time>
      </trkpt>
      <trkpt lat="47.90839" lon="7.14371">
        <ele>860</ele>
        <time>2016-07-30T13:15:44Z</time>
      </trkpt>
      <trkpt lat="47.90842" lon="7.14373">
        <ele>860</ele>
        <time>2016-07-30T13:15:45Z</time>
      </trkpt>
      <trkpt lat="47.90846" lon="7.14381">
        <ele>859</ele>
        <time>2016-07-30T13:15:47Z</time>
      </trkpt>
      <trkpt lat="47.90846" lon="7.14381">
        <ele>859</ele>
        <time>2016-07-30T13:15:49Z</time>
      </trkpt>
      <trkpt lat="47.90846" lon="7.14386">
        <ele>858</ele>
        <time>2016-07-30T13:16:17Z</time>
      </trkpt>
      <trkpt lat="47.9085" lon="7.14407">
        <ele>853</ele>
        <time>2016-07-30T13:16:19Z</time>
      </trkpt>
      <trkpt lat="47.90855" lon="7.14421">
        <ele>846</ele>
        <time>2016-07-30T13:16:20Z</time>
      </trkpt>
      <trkpt lat="47.9086" lon="7.14438">
        <ele>846</ele>
        <time>2016-07-30T13:16:22Z</time>
      </trkpt>
      <trkpt lat="47.9088" lon="7.14484">
        <ele>846</ele>
        <time>2016-07-30T13:16:27Z</time>
      </trkpt>
      <trkpt lat="47.90882" lon="7.14494">
        <ele>846</ele>
        <time>2016-07-30T13:16:28Z</time>
      </trkpt>
      <trkpt lat="47.90886" lon="7.14536">
        <ele>836</ele>
        <time>2016-07-30T13:16:32Z</time>
      </trkpt>
      <trkpt lat="47.90883" lon="7.14558">
        <ele>834</ele>
        <time>2016-07-30T13:16:35Z</time>
      </trkpt>
      <trkpt lat="47.90883" lon="7.14566">
        <ele>833</ele>
        <time>2016-07-30T13:16:36Z</time>
      </trkpt>
      <trkpt lat="47.90884" lon="7.14573">
        <ele>833</ele>
        <time>2016-07-30T13:16:37Z</time>
      </trkpt>
      <trkpt lat="47.90891" lon="7.14598">
        <ele>826</ele>
        <time>2016-07-30T13:16:40Z</time>
      </trkpt>
      <trkpt lat="47.90894" lon="7.14617">
        <ele>825</ele>
        <time>2016-07-30T13:16:42Z</time>
      </trkpt>
      <trkpt lat="47.90898" lon="7.14659">
        <ele>824</ele>
        <time>2016-07-30T13:16:48Z</time>
      </trkpt>
      <trkpt lat="47.90898" lon="7.14662">
        <ele>824</ele>
        <time>2016-07-30T13:16:49Z</time>
      </trkpt>
      <trkpt lat="47.90898" lon="7.14671">
        <ele>821</ele>
        <time>2016-07-30T13:16:52Z</time>
      </trkpt>
      <trkpt lat="47.90903" lon="7.14684">
        <ele>820</ele>
        <time>2016-07-30T13:16:54Z</time>
      </trkpt>
      <trkpt lat="47.90906" lon="7.14701">
        <ele>819</ele>
        <time>2016-07-30T13:16:56Z</time>
      </trkpt>
      <trkpt lat="47.90905" lon="7.14715">
        <ele>818</ele>
        <time>2016-07-30T13:16:58Z</time>
      </trkpt>
      <trkpt lat="47.90884" lon="7.14718">
        <ele>817</ele>
        <time>2016-07-30T13:17:01Z</time>
      </trkpt>
      <trkpt lat="47.90878" lon="7.14725">
        <ele>816</ele>
        <time>2016-07-30T13:17:09Z</time>
      </trkpt>
      <trkpt lat="47.90866" lon="7.14733">
        <ele>814</ele>
        <time>2016-07-30T13:17:42Z</time>
      </trkpt>
      <trkpt lat="47.90862" lon="7.14736">
        <ele>813</ele>
        <time>2016-07-30T13:17:43Z</time>
      </trkpt>
      <trkpt lat="47.90855" lon="7.14742">
        <ele>812</ele>
        <time>2016-07-30T13:17:45Z</time>
      </trkpt>
      <trkpt lat="47.90851" lon="7.14749">
        <ele>811</ele>
        <time>2016-07-30T13:17:46Z</time>
      </trkpt>
      <trkpt lat="47.90833" lon="7.14767">
        <ele>800</ele>
        <time>2016-07-30T13:17:49Z</time>
      </trkpt>
      <trkpt lat="47.9082" lon="7.14779">
        <ele>798</ele>
        <time>2016-07-30T13:17:52Z</time>
      </trkpt>
      <trkpt lat="47.90811" lon="7.14791">
        <ele>797</ele>
        <time>2016-07-30T13:17:54Z</time>
      </trkpt>
      <trkpt lat="47.90806" lon="7.14807">
        <ele>797</ele>
        <time>2016-07-30T13:17:56Z</time>
      </trkpt>
      <trkpt lat="47.90802" lon="7.14826">
        <ele>796</ele>
        <time>2016-07-30T13:17:58Z</time>
      </trkpt>
      <trkpt lat="47.90795" lon="7.14869">
        <ele>793</ele>
        <time>2016-07-30T13:18:02Z</time>
      </trkpt>
      <trkpt lat="47.90793" lon="7.14875">
        <ele>793</ele>
        <time>2016-07-30T13:18:03Z</time>
      </trkpt>
      <trkpt lat="47.90792" lon="7.14909">
        <ele>793</ele>
        <time>2016-07-30T13:18:07Z</time>
      </trkpt>
      <trkpt lat="47.90787" lon="7.14948">
        <ele>790</ele>
        <time>2016-07-30T13:18:11Z</time>
      </trkpt>
      <trkpt lat="47.90787" lon="7.14961">
        <ele>790</ele>
        <time>2016-07-30T13:18:12Z</time>
      </trkpt>
      <trkpt lat="47.90788" lon="7.14982">
        <ele>789</ele>
        <time>2016-07-30T13:18:14Z</time>
      </trkpt>
      <trkpt lat="47.90787" lon="7.14992">
        <ele>789</ele>
        <time>2016-07-30T13:18:15Z</time>
      </trkpt>
      <trkpt lat="47.9079" lon="7.15034">
        <ele>786</ele>
        <time>2016-07-30T13:18:19Z</time>
      </trkpt>
      <trkpt lat="47.90792" lon="7.15043">
        <ele>786</ele>
        <time>2016-07-30T13:18:20Z</time>
      </trkpt>
      <trkpt lat="47.90796" lon="7.15115">
        <ele>781</ele>
        <time>2016-07-30T13:18:25Z</time>
      </trkpt>
      <trkpt lat="47.90796" lon="7.1513">
        <ele>781</ele>
        <time>2016-07-30T13:18:26Z</time>
      </trkpt>
      <trkpt lat="47.90792" lon="7.15157">
        <ele>779</ele>
        <time>2016-07-30T13:18:28Z</time>
      </trkpt>
      <trkpt lat="47.90789" lon="7.15192">
        <ele>773</ele>
        <time>2016-07-30T13:18:31Z</time>
      </trkpt>
      <trkpt lat="47.90794" lon="7.15207">
        <ele>773</ele>
        <time>2016-07-30T13:18:33Z</time>
      </trkpt>
      <trkpt lat="47.90809" lon="7.15234">
        <ele>773</ele>
        <time>2016-07-30T13:18:38Z</time>
      </trkpt>
      <trkpt lat="47.90811" lon="7.15238">
        <ele>773</ele>
        <time>2016-07-30T13:18:39Z</time>
      </trkpt>
      <trkpt lat="47.9082" lon="7.15252">
        <ele>767</ele>
        <time>2016-07-30T13:18:42Z</time>
      </trkpt>
      <trkpt lat="47.90833" lon="7.15261">
        <ele>767</ele>
        <time>2016-07-30T13:18:45Z</time>
      </trkpt>
      <trkpt lat="47.90838" lon="7.15261">
        <ele>770</ele>
        <time>2016-07-30T13:18:46Z</time>
      </trkpt>
      <trkpt lat="47.9085" lon="7.15268">
        <ele>768</ele>
        <time>2016-07-30T13:18:49Z</time>
      </trkpt>
      <trkpt lat="47.90853" lon="7.15271">
        <ele>767</ele>
        <time>2016-07-30T13:18:50Z</time>
      </trkpt>
      <trkpt lat="47.9086" lon="7.15271">
        <ele>767</ele>
        <time>2016-07-30T13:18:51Z</time>
      </trkpt>
      <trkpt lat="47.90865" lon="7.15272">
        <ele>767</ele>
        <time>2016-07-30T13:18:52Z</time>
      </trkpt>
      <trkpt lat="47.90868" lon="7.15275">
        <ele>767</ele>
        <time>2016-07-30T13:18:53Z</time>
      </trkpt>
      <trkpt lat="47.90883" lon="7.1528">
        <ele>767</ele>
        <time>2016-07-30T13:18:56Z</time>
      </trkpt>
      <trkpt lat="47.90891" lon="7.15285">
        <ele>766</ele>
        <time>2016-07-30T13:18:58Z</time>
      </trkpt>
      <trkpt lat="47.90903" lon="7.15302">
        <ele>763</ele>
        <time>2016-07-30T13:19:00Z</time>
      </trkpt>
      <trkpt lat="47.90908" lon="7.1531">
        <ele>762</ele>
        <time>2016-07-30T13:19:01Z</time>
      </trkpt>
      <trkpt lat="47.90915" lon="7.15327">
        <ele>757</ele>
        <time>2016-07-30T13:19:03Z</time>
      </trkpt>
      <trkpt lat="47.90918" lon="7.15345">
        <ele>754</ele>
        <time>2016-07-30T13:19:05Z</time>
      </trkpt>
      <trkpt lat="47.90921" lon="7.15364">
        <ele>752</ele>
        <time>2016-07-30T13:19:07Z</time>
      </trkpt>
      <trkpt lat="47.90924" lon="7.1538">
        <ele>749</ele>
        <time>2016-07-30T13:19:09Z</time>
      </trkpt>
      <trkpt lat="47.90926" lon="7.15395">
        <ele>744</ele>
        <time>2016-07-30T13:19:11Z</time>
      </trkpt>
      <trkpt lat="47.90926" lon="7.1542">
        <ele>731</ele>
        <time>2016-07-30T13:19:14Z</time>
      </trkpt>
      <trkpt lat="47.90924" lon="7.15426">
        <ele>731</ele>
        <time>2016-07-30T13:19:15Z</time>
      </trkpt>
      <trkpt lat="47.90927" lon="7.15446">
        <ele>729</ele>
        <time>2016-07-30T13:19:16Z</time>
      </trkpt>
      <trkpt lat="47.90926" lon="7.15452">
        <ele>728</ele>
        <time>2016-07-30T13:19:17Z</time>
      </trkpt>
      <trkpt lat="47.90928" lon="7.15462">
        <ele>727</ele>
        <time>2016-07-30T13:19:18Z</time>
      </trkpt>
      <trkpt lat="47.90928" lon="7.15472">
        <ele>725</ele>
        <time>2016-07-30T13:19:20Z</time>
      </trkpt>
      <trkpt lat="47.90933" lon="7.15482">
        <ele>723</ele>
        <time>2016-07-30T13:19:22Z</time>
      </trkpt>
      <trkpt lat="47.90934" lon="7.1549">
        <ele>722</ele>
        <time>2016-07-30T13:19:23Z</time>
      </trkpt>
      <trkpt lat="47.90939" lon="7.15504">
        <ele>711</ele>
        <time>2016-07-30T13:19:26Z</time>
      </trkpt>
      <trkpt lat="47.90943" lon="7.15523">
        <ele>711</ele>
        <time>2016-07-30T13:19:29Z</time>
      </trkpt>
      <trkpt lat="47.90945" lon="7.1553">
        <ele>710</ele>
        <time>2016-07-30T13:19:31Z</time>
      </trkpt>
      <trkpt lat="47.9095" lon="7.1555">
        <ele>708</ele>
        <time>2016-07-30T13:19:36Z</time>
      </trkpt>
      <trkpt lat="47.90955" lon="7.15557">
        <ele>708</ele>
        <time>2016-07-30T13:19:39Z</time>
      </trkpt>
      <trkpt lat="47.90967" lon="7.15588">
        <ele>695</ele>
        <time>2016-07-30T13:19:44Z</time>
      </trkpt>
      <trkpt lat="47.90973" lon="7.15615">
        <ele>692</ele>
        <time>2016-07-30T13:19:47Z</time>
      </trkpt>
      <trkpt lat="47.90973" lon="7.15623">
        <ele>691</ele>
        <time>2016-07-30T13:19:48Z</time>
      </trkpt>
      <trkpt lat="47.90978" lon="7.15647">
        <ele>690</ele>
        <time>2016-07-30T13:19:52Z</time>
      </trkpt>
      <trkpt lat="47.90979" lon="7.15661">
        <ele>689</ele>
        <time>2016-07-30T13:19:54Z</time>
      </trkpt>
      <trkpt lat="47.9098" lon="7.15668">
        <ele>679</ele>
        <time>2016-07-30T13:19:56Z</time>
      </trkpt>
      <trkpt lat="47.90983" lon="7.15674">
        <ele>680</ele>
        <time>2016-07-30T13:20:00Z</time>
      </trkpt>
      <trkpt lat="47.90986" lon="7.15686">
        <ele>677</ele>
        <time>2016-07-30T13:20:28Z</time>
      </trkpt>
      <trkpt lat="47.90987" lon="7.15694">
        <ele>675</ele>
        <time>2016-07-30T13:20:29Z</time>
      </trkpt>
      <trkpt lat="47.9099" lon="7.15707">
        <ele>672</ele>
        <time>2016-07-30T13:20:31Z</time>
      </trkpt>
      <trkpt lat="47.90993" lon="7.15732">
        <ele>670</ele>
        <time>2016-07-30T13:20:34Z</time>
      </trkpt>
      <trkpt lat="47.90995" lon="7.15741">
        <ele>670</ele>
        <time>2016-07-30T13:20:35Z</time>
      </trkpt>
      <trkpt lat="47.91002" lon="7.15762">
        <ele>670</ele>
        <time>2016-07-30T13:20:37Z</time>
      </trkpt>
      <trkpt lat="47.91003" lon="7.15769">
        <ele>669</ele>
        <time>2016-07-30T13:20:38Z</time>
      </trkpt>
      <trkpt lat="47.91011" lon="7.15783">
        <ele>667</ele>
        <time>2016-07-30T13:20:39Z</time>
      </trkpt>
      <trkpt lat="47.91017" lon="7.15803">
        <ele>665</ele>
        <time>2016-07-30T13:20:41Z</time>
      </trkpt>
      <trkpt lat="47.91027" lon="7.15833">
        <ele>663</ele>
        <time>2016-07-30T13:20:45Z</time>
      </trkpt>
      <trkpt lat="47.91027" lon="7.15865">
        <ele>654</ele>
        <time>2016-07-30T13:20:48Z</time>
      </trkpt>
      <trkpt lat="47.91029" lon="7.15877">
        <ele>654</ele>
        <time>2016-07-30T13:20:49Z</time>
      </trkpt>
      <trkpt lat="47.91028" lon="7.15902">
        <ele>653</ele>
        <time>2016-07-30T13:20:54Z</time>
      </trkpt>
      <trkpt lat="47.91029" lon="7.15901">
        <ele>653</ele>
        <time>2016-07-30T13:20:55Z</time>
      </trkpt>
      <trkpt lat="47.91027" lon="7.15905">
        <ele>652</ele>
        <time>2016-07-30T13:21:49Z</time>
      </trkpt>
      <trkpt lat="47.91017" lon="7.15927">
        <ele>650</ele>
        <time>2016-07-30T13:21:51Z</time>
      </trkpt>
      <trkpt lat="47.91014" lon="7.15937">
        <ele>650</ele>
        <time>2016-07-30T13:21:52Z</time>
      </trkpt>
      <trkpt lat="47.91009" lon="7.15961">
        <ele>649</ele>
        <time>2016-07-30T13:21:55Z</time>
      </trkpt>
      <trkpt lat="47.9101" lon="7.15971">
        <ele>649</ele>
        <time>2016-07-30T13:21:56Z</time>
      </trkpt>
      <trkpt lat="47.9101" lon="7.15987">
        <ele>648</ele>
        <time>2016-07-30T13:21:58Z</time>
      </trkpt>
      <trkpt lat="47.91016" lon="7.15998">
        <ele>648</ele>
        <time>2016-07-30T13:21:59Z</time>
      </trkpt>
      <trkpt lat="47.91022" lon="7.16013">
        <ele>650</ele>
        <time>2016-07-30T13:22:01Z</time>
      </trkpt>
      <trkpt lat="47.91022" lon="7.1602">
        <ele>650</ele>
        <time>2016-07-30T13:22:02Z</time>
      </trkpt>
      <trkpt lat="47.91027" lon="7.16028">
        <ele>650</ele>
        <time>2016-07-30T13:22:03Z</time>
      </trkpt>
      <trkpt lat="47.91029" lon="7.16035">
        <ele>651</ele>
        <time>2016-07-30T13:22:04Z</time>
      </trkpt>
      <trkpt lat="47.9103" lon="7.16042">
        <ele>651</ele>
        <time>2016-07-30T13:22:05Z</time>
      </trkpt>
      <trkpt lat="47.91034" lon="7.1605">
        <ele>651</ele>
        <time>2016-07-30T13:22:06Z</time>
      </trkpt>
      <trkpt lat="47.91036" lon="7.16057">
        <ele>651</ele>
        <time>2016-07-30T13:22:07Z</time>
      </trkpt>
      <trkpt lat="47.91036" lon="7.16066">
        <ele>651</ele>
        <time>2016-07-30T13:22:08Z</time>
      </trkpt>
      <trkpt lat="47.91034" lon="7.1608">
        <ele>652</ele>
        <time>2016-07-30T13:22:10Z</time>
      </trkpt>
      <trkpt lat="47.91029" lon="7.16091">
        <ele>659</ele>
        <time>2016-07-30T13:22:12Z</time>
      </trkpt>
      <trkpt lat="47.91022" lon="7.16093">
        <ele>659</ele>
        <time>2016-07-30T13:22:13Z</time>
      </trkpt>
      <trkpt lat="47.91018" lon="7.16096">
        <ele>659</ele>
        <time>2016-07-30T13:22:14Z</time>
      </trkpt>
      <trkpt lat="47.90953" lon="7.16122">
        <ele>652</ele>
        <time>2016-07-30T13:22:25Z</time>
      </trkpt>
      <trkpt lat="47.90936" lon="7.16129">
        <ele>651</ele>
        <time>2016-07-30T13:22:28Z</time>
      </trkpt>
      <trkpt lat="47.9093" lon="7.16134">
        <ele>651</ele>
        <time>2016-07-30T13:22:29Z</time>
      </trkpt>
      <trkpt lat="47.90922" lon="7.16143">
        <ele>651</ele>
        <time>2016-07-30T13:22:31Z</time>
      </trkpt>
      <trkpt lat="47.90911" lon="7.16169">
        <ele>648</ele>
        <time>2016-07-30T13:22:34Z</time>
      </trkpt>
      <trkpt lat="47.90908" lon="7.16178">
        <ele>646</ele>
        <time>2016-07-30T13:22:35Z</time>
      </trkpt>
      <trkpt lat="47.90906" lon="7.16205">
        <ele>644</ele>
        <time>2016-07-30T13:22:38Z</time>
      </trkpt>
      <trkpt lat="47.90906" lon="7.16222">
        <ele>646</ele>
        <time>2016-07-30T13:22:40Z</time>
      </trkpt>
      <trkpt lat="47.90908" lon="7.16238">
        <ele>650</ele>
        <time>2016-07-30T13:22:42Z</time>
      </trkpt>
      <trkpt lat="47.90912" lon="7.16278">
        <ele>646</ele>
        <time>2016-07-30T13:22:48Z</time>
      </trkpt>
      <trkpt lat="47.9091" lon="7.16327">
        <ele>651</ele>
        <time>2016-07-30T13:22:55Z</time>
      </trkpt>
      <trkpt lat="47.90907" lon="7.16351">
        <ele>646</ele>
        <time>2016-07-30T13:22:58Z</time>
      </trkpt>
      <trkpt lat="47.90907" lon="7.1638">
        <ele>642</ele>
        <time>2016-07-30T13:23:02Z</time>
      </trkpt>
      <trkpt lat="47.90909" lon="7.16401">
        <ele>646</ele>
        <time>2016-07-30T13:23:05Z</time>
      </trkpt>
      <trkpt lat="47.90906" lon="7.1645">
        <ele>639</ele>
        <time>2016-07-30T13:23:09Z</time>
      </trkpt>
      <trkpt lat="47.90905" lon="7.1649">
        <ele>641</ele>
        <time>2016-07-30T13:23:12Z</time>
      </trkpt>
      <trkpt lat="47.90907" lon="7.16523">
        <ele>634</ele>
        <time>2016-07-30T13:23:15Z</time>
      </trkpt>
      <trkpt lat="47.90907" lon="7.16544">
        <ele>631</ele>
        <time>2016-07-30T13:23:17Z</time>
      </trkpt>
      <trkpt lat="47.90906" lon="7.16554">
        <ele>631</ele>
        <time>2016-07-30T13:23:18Z</time>
      </trkpt>
      <trkpt lat="47.90904" lon="7.16565">
        <ele>632</ele>
        <time>2016-07-30T13:23:19Z</time>
      </trkpt>
      <trkpt lat="47.90901" lon="7.16587">
        <ele>629</ele>
        <time>2016-07-30T13:23:21Z</time>
      </trkpt>
      <trkpt lat="47.90901" lon="7.16597">
        <ele>626</ele>
        <time>2016-07-30T13:23:22Z</time>
      </trkpt>
      <trkpt lat="47.90903" lon="7.16608">
        <ele>623</ele>
        <time>2016-07-30T13:23:23Z</time>
      </trkpt>
      <trkpt lat="47.90908" lon="7.16626">
        <ele>620</ele>
        <time>2016-07-30T13:23:25Z</time>
      </trkpt>
      <trkpt lat="47.90921" lon="7.16653">
        <ele>638</ele>
        <time>2016-07-30T13:23:28Z</time>
      </trkpt>
      <trkpt lat="47.90932" lon="7.16674">
        <ele>632</ele>
        <time>2016-07-30T13:23:30Z</time>
      </trkpt>
      <trkpt lat="47.90942" lon="7.16696">
        <ele>635</ele>
        <time>2016-07-30T13:23:32Z</time>
      </trkpt>
      <trkpt lat="47.90946" lon="7.16707">
        <ele>635</ele>
        <time>2016-07-30T13:23:33Z</time>
      </trkpt>
      <trkpt lat="47.90946" lon="7.16719">
        <ele>633</ele>
        <time>2016-07-30T13:23:34Z</time>
      </trkpt>
      <trkpt lat="47.90945" lon="7.1673">
        <ele>632</ele>
        <time>2016-07-30T13:23:35Z</time>
      </trkpt>
      <trkpt lat="47.90935" lon="7.16747">
        <ele>626</ele>
        <time>2016-07-30T13:23:37Z</time>
      </trkpt>
      <trkpt lat="47.90924" lon="7.16763">
        <ele>621</ele>
        <time>2016-07-30T13:23:39Z</time>
      </trkpt>
      <trkpt lat="47.90919" lon="7.1678">
        <ele>625</ele>
        <time>2016-07-30T13:23:41Z</time>
      </trkpt>
      <trkpt lat="47.90916" lon="7.16797">
        <ele>604</ele>
        <time>2016-07-30T13:23:43Z</time>
      </trkpt>
      <trkpt lat="47.90899" lon="7.16848">
        <ele>608</ele>
        <time>2016-07-30T13:23:48Z</time>
      </trkpt>
      <trkpt lat="47.90894" lon="7.16872">
        <ele>605</ele>
        <time>2016-07-30T13:23:50Z</time>
      </trkpt>
      <trkpt lat="47.90884" lon="7.16902">
        <ele>604</ele>
        <time>2016-07-30T13:23:53Z</time>
      </trkpt>
      <trkpt lat="47.90883" lon="7.16925">
        <ele>603</ele>
        <time>2016-07-30T13:23:55Z</time>
      </trkpt>
      <trkpt lat="47.90886" lon="7.16951">
        <ele>602</ele>
        <time>2016-07-30T13:23:57Z</time>
      </trkpt>
      <trkpt lat="47.90897" lon="7.17">
        <ele>606</ele>
        <time>2016-07-30T13:24:01Z</time>
      </trkpt>
      <trkpt lat="47.90902" lon="7.17071">
        <ele>599</ele>
        <time>2016-07-30T13:24:07Z</time>
      </trkpt>
      <trkpt lat="47.90901" lon="7.17093">
        <ele>595</ele>
        <time>2016-07-30T13:24:09Z</time>
      </trkpt>
      <trkpt lat="47.90897" lon="7.17134">
        <ele>589</ele>
        <time>2016-07-30T13:24:12Z</time>
      </trkpt>
      <trkpt lat="47.90897" lon="7.17149">
        <ele>591</ele>
        <time>2016-07-30T13:24:13Z</time>
      </trkpt>
      <trkpt lat="47.9089" lon="7.17207">
        <ele>585</ele>
        <time>2016-07-30T13:24:18Z</time>
      </trkpt>
      <trkpt lat="47.90889" lon="7.1723">
        <ele>586</ele>
        <time>2016-07-30T13:24:20Z</time>
      </trkpt>
      <trkpt lat="47.90885" lon="7.17256">
        <ele>585</ele>
        <time>2016-07-30T13:24:22Z</time>
      </trkpt>
      <trkpt lat="47.90884" lon="7.17272">
        <ele>584</ele>
        <time>2016-07-30T13:24:23Z</time>
      </trkpt>
      <trkpt lat="47.90884" lon="7.17317">
        <ele>584</ele>
        <time>2016-07-30T13:24:26Z</time>
      </trkpt>
      <trkpt lat="47.90883" lon="7.17329">
        <ele>583</ele>
        <time>2016-07-30T13:24:27Z</time>
      </trkpt>
      <trkpt lat="47.90883" lon="7.1734">
        <ele>581</ele>
        <time>2016-07-30T13:24:28Z</time>
      </trkpt>
      <trkpt lat="47.90886" lon="7.17349">
        <ele>581</ele>
        <time>2016-07-30T13:24:29Z</time>
      </trkpt>
      <trkpt lat="47.90895" lon="7.1737">
        <ele>581</ele>
        <time>2016-07-30T13:24:31Z</time>
      </trkpt>
      <trkpt lat="47.90906" lon="7.17387">
        <ele>580</ele>
        <time>2016-07-30T13:24:33Z</time>
      </trkpt>
      <trkpt lat="47.9091" lon="7.17398">
        <ele>580</ele>
        <time>2016-07-30T13:24:34Z</time>
      </trkpt>
      <trkpt lat="47.90912" lon="7.17427">
        <ele>578</ele>
        <time>2016-07-30T13:24:36Z</time>
      </trkpt>
      <trkpt lat="47.90913" lon="7.17441">
        <ele>577</ele>
        <time>2016-07-30T13:24:37Z</time>
      </trkpt>
      <trkpt lat="47.9091" lon="7.17468">
        <ele>576</ele>
        <time>2016-07-30T13:24:39Z</time>
      </trkpt>
      <trkpt lat="47.90901" lon="7.17495">
        <ele>576</ele>
        <time>2016-07-30T13:24:41Z</time>
      </trkpt>
      <trkpt lat="47.90895" lon="7.17518">
        <ele>574</ele>
        <time>2016-07-30T13:24:43Z</time>
      </trkpt>
      <trkpt lat="47.90893" lon="7.1754">
        <ele>574</ele>
        <time>2016-07-30T13:24:45Z</time>
      </trkpt>
      <trkpt lat="47.90894" lon="7.17562">
        <ele>574</ele>
        <time>2016-07-30T13:24:47Z</time>
      </trkpt>
      <trkpt lat="47.90902" lon="7.1761">
        <ele>569</ele>
        <time>2016-07-30T13:24:51Z</time>
      </trkpt>
      <trkpt lat="47.90909" lon="7.17633">
        <ele>568</ele>
        <time>2016-07-30T13:24:53Z</time>
      </trkpt>
      <trkpt lat="47.90926" lon="7.17669">
        <ele>567</ele>
        <time>2016-07-30T13:24:56Z</time>
      </trkpt>
      <trkpt lat="47.90934" lon="7.17683">
        <ele>566</ele>
        <time>2016-07-30T13:24:58Z</time>
      </trkpt>
      <trkpt lat="47.90955" lon="7.17724">
        <ele>566</ele>
        <time>2016-07-30T13:25:07Z</time>
      </trkpt>
      <trkpt lat="47.90961" lon="7.17726">
        <ele>566</ele>
        <time>2016-07-30T13:27:49Z</time>
      </trkpt>
      <trkpt lat="47.90968" lon="7.17729">
        <ele>566</ele>
        <time>2016-07-30T13:27:52Z</time>
      </trkpt>
      <trkpt lat="47.90995" lon="7.17756">
        <ele>569</ele>
        <time>2016-07-30T13:27:58Z</time>
      </trkpt>
      <trkpt lat="47.91001" lon="7.17757">
        <ele>565</ele>
        <time>2016-07-30T13:27:59Z</time>
      </trkpt>
      <trkpt lat="47.91008" lon="7.17763">
        <ele>563</ele>
        <time>2016-07-30T13:28:00Z</time>
      </trkpt>
      <trkpt lat="47.91017" lon="7.17776">
        <ele>560</ele>
        <time>2016-07-30T13:28:02Z</time>
      </trkpt>
      <trkpt lat="47.91031" lon="7.178">
        <ele>559</ele>
        <time>2016-07-30T13:28:06Z</time>
      </trkpt>
      <trkpt lat="47.91051" lon="7.17853">
        <ele>565</ele>
        <time>2016-07-30T13:28:15Z</time>
      </trkpt>
      <trkpt lat="47.91057" lon="7.17864">
        <ele>565</ele>
        <time>2016-07-30T13:28:17Z</time>
      </trkpt>
      <trkpt lat="47.91064" lon="7.17871">
        <ele>565</ele>
        <time>2016-07-30T13:28:19Z</time>
      </trkpt>
      <trkpt lat="47.9107" lon="7.1788">
        <ele>565</ele>
        <time>2016-07-30T13:28:20Z</time>
      </trkpt>
      <trkpt lat="47.9109" lon="7.17899">
        <ele>550</ele>
        <time>2016-07-30T13:28:25Z</time>
      </trkpt>
      <trkpt lat="47.91093" lon="7.17901">
        <ele>550</ele>
        <time>2016-07-30T13:28:26Z</time>
      </trkpt>
      <trkpt lat="47.91116" lon="7.17925">
        <ele>556</ele>
        <time>2016-07-30T13:28:33Z</time>
      </trkpt>
      <trkpt lat="47.91145" lon="7.17964">
        <ele>554</ele>
        <time>2016-07-30T13:28:40Z</time>
      </trkpt>
      <trkpt lat="47.91162" lon="7.1798">
        <ele>554</ele>
        <time>2016-07-30T13:28:44Z</time>
      </trkpt>
      <trkpt lat="47.91171" lon="7.17991">
        <ele>547</ele>
        <time>2016-07-30T13:28:48Z</time>
      </trkpt>
      <trkpt lat="47.91175" lon="7.17993">
        <ele>547</ele>
        <time>2016-07-30T13:28:53Z</time>
      </trkpt>
      <trkpt lat="47.9118" lon="7.17992">
        <ele>545</ele>
        <time>2016-07-30T13:28:57Z</time>
      </trkpt>
      <trkpt lat="47.91186" lon="7.17988">
        <ele>543</ele>
        <time>2016-07-30T13:30:05Z</time>
      </trkpt>
      <trkpt lat="47.91188" lon="7.17986">
        <ele>542</ele>
        <time>2016-07-30T13:30:06Z</time>
      </trkpt>
      <trkpt lat="47.91198" lon="7.17984">
        <ele>540</ele>
        <time>2016-07-30T13:30:08Z</time>
      </trkpt>
      <trkpt lat="47.91207" lon="7.17987">
        <ele>539</ele>
        <time>2016-07-30T13:30:09Z</time>
      </trkpt>
      <trkpt lat="47.91231" lon="7.17993">
        <ele>537</ele>
        <time>2016-07-30T13:30:13Z</time>
      </trkpt>
      <trkpt lat="47.91247" lon="7.18001">
        <ele>538</ele>
        <time>2016-07-30T13:30:16Z</time>
      </trkpt>
      <trkpt lat="47.91278" lon="7.1802">
        <ele>534</ele>
        <time>2016-07-30T13:30:21Z</time>
      </trkpt>
      <trkpt lat="47.91302" lon="7.18032">
        <ele>532</ele>
        <time>2016-07-30T13:30:24Z</time>
      </trkpt>
      <trkpt lat="47.91318" lon="7.18042">
        <ele>531</ele>
        <time>2016-07-30T13:30:26Z</time>
      </trkpt>
      <trkpt lat="47.9134" lon="7.18061">
        <ele>522</ele>
        <time>2016-07-30T13:30:29Z</time>
      </trkpt>
      <trkpt lat="47.91384" lon="7.18103">
        <ele>522</ele>
        <time>2016-07-30T13:30:36Z</time>
      </trkpt>
      <trkpt lat="47.91408" lon="7.18137">
        <ele>520</ele>
        <time>2016-07-30T13:30:41Z</time>
      </trkpt>
      <trkpt lat="47.91423" lon="7.18154">
        <ele>514</ele>
        <time>2016-07-30T13:30:44Z</time>
      </trkpt>
      <trkpt lat="47.91432" lon="7.18167">
        <ele>512</ele>
        <time>2016-07-30T13:30:46Z</time>
      </trkpt>
      <trkpt lat="47.91447" lon="7.18194">
        <ele>510</ele>
        <time>2016-07-30T13:30:49Z</time>
      </trkpt>
      <trkpt lat="47.91479" lon="7.18241">
        <ele>507</ele>
        <time>2016-07-30T13:30:54Z</time>
      </trkpt>
      <trkpt lat="47.91494" lon="7.18259">
        <ele>501</ele>
        <time>2016-07-30T13:30:56Z</time>
      </trkpt>
      <trkpt lat="47.91506" lon="7.18276">
        <ele>507</ele>
        <time>2016-07-30T13:30:58Z</time>
      </trkpt>
      <trkpt lat="47.91515" lon="7.18295">
        <ele>505</ele>
        <time>2016-07-30T13:31:00Z</time>
      </trkpt>
      <trkpt lat="47.91523" lon="7.18327">
        <ele>502</ele>
        <time>2016-07-30T13:31:03Z</time>
      </trkpt>
      <trkpt lat="47.91529" lon="7.18373">
        <ele>494</ele>
        <time>2016-07-30T13:31:06Z</time>
      </trkpt>
      <trkpt lat="47.91538" lon="7.18414">
        <ele>493</ele>
        <time>2016-07-30T13:31:09Z</time>
      </trkpt>
      <trkpt lat="47.91546" lon="7.18438">
        <ele>485</ele>
        <time>2016-07-30T13:31:11Z</time>
      </trkpt>
      <trkpt lat="47.91571" lon="7.18532">
        <ele>470</ele>
        <time>2016-07-30T13:31:19Z</time>
      </trkpt>
      <trkpt lat="47.91575" lon="7.18543">
        <ele>468</ele>
        <time>2016-07-30T13:31:23Z</time>
      </trkpt>
      <trkpt lat="47.91575" lon="7.1855">
        <ele>467</ele>
        <time>2016-07-30T13:31:27Z</time>
      </trkpt>
      <trkpt lat="47.91585" lon="7.18564">
        <ele>476</ele>
        <time>2016-07-30T13:31:31Z</time>
      </trkpt>
      <trkpt lat="47.91601" lon="7.18579">
        <ele>475</ele>
        <time>2016-07-30T13:31:35Z</time>
      </trkpt>
      <trkpt lat="47.91611" lon="7.18584">
        <ele>464</ele>
        <time>2016-07-30T13:31:37Z</time>
      </trkpt>
      <trkpt lat="47.91648" lon="7.18592">
        <ele>469</ele>
        <time>2016-07-30T13:31:42Z</time>
      </trkpt>
      <trkpt lat="47.91656" lon="7.18596">
        <ele>471</ele>
        <time>2016-07-30T13:31:43Z</time>
      </trkpt>
      <trkpt lat="47.91678" lon="7.18618">
        <ele>475</ele>
        <time>2016-07-30T13:31:46Z</time>
      </trkpt>
      <trkpt lat="47.91687" lon="7.18626">
        <ele>475</ele>
        <time>2016-07-30T13:31:47Z</time>
      </trkpt>
      <trkpt lat="47.917" lon="7.18642">
        <ele>473</ele>
        <time>2016-07-30T13:31:49Z</time>
      </trkpt>
      <trkpt lat="47.91708" lon="7.1865">
        <ele>474</ele>
        <time>2016-07-30T13:31:50Z</time>
      </trkpt>
      <trkpt lat="47.91724" lon="7.18662">
        <ele>475</ele>
        <time>2016-07-30T13:31:52Z</time>
      </trkpt>
      <trkpt lat="47.91741" lon="7.18674">
        <ele>468</ele>
        <time>2016-07-30T13:31:54Z</time>
      </trkpt>
      <trkpt lat="47.9175" lon="7.18684">
        <ele>465</ele>
        <time>2016-07-30T13:31:55Z</time>
      </trkpt>
      <trkpt lat="47.91762" lon="7.18705">
        <ele>473</ele>
        <time>2016-07-30T13:31:57Z</time>
      </trkpt>
      <trkpt lat="47.91765" lon="7.18729">
        <ele>469</ele>
        <time>2016-07-30T13:31:59Z</time>
      </trkpt>
      <trkpt lat="47.91766" lon="7.18769">
        <ele>460</ele>
        <time>2016-07-30T13:32:03Z</time>
      </trkpt>
      <trkpt lat="47.91767" lon="7.18802">
        <ele>458</ele>
        <time>2016-07-30T13:32:07Z</time>
      </trkpt>
      <trkpt lat="47.91772" lon="7.18824">
        <ele>456</ele>
        <time>2016-07-30T13:32:10Z</time>
      </trkpt>
      <trkpt lat="47.91772" lon="7.18827">
        <ele>456</ele>
        <time>2016-07-30T13:32:11Z</time>
      </trkpt>
      <trkpt lat="47.91769" lon="7.18838">
        <ele>448</ele>
        <time>2016-07-30T13:32:23Z</time>
      </trkpt>
      <trkpt lat="47.9177" lon="7.18844">
        <ele>448</ele>
        <time>2016-07-30T13:32:25Z</time>
      </trkpt>
      <trkpt lat="47.91771" lon="7.18851">
        <ele>448</ele>
        <time>2016-07-30T13:32:27Z</time>
      </trkpt>
      <trkpt lat="47.91784" lon="7.18891">
        <ele>446</ele>
        <time>2016-07-30T13:32:34Z</time>
      </trkpt>
      <trkpt lat="47.91793" lon="7.18906">
        <ele>446</ele>
        <time>2016-07-30T13:32:37Z</time>
      </trkpt>
      <trkpt lat="47.91797" lon="7.18913">
        <ele>446</ele>
        <time>2016-07-30T13:32:38Z</time>
      </trkpt>
      <trkpt lat="47.91827" lon="7.18959">
        <ele>431</ele>
        <time>2016-07-30T13:32:46Z</time>
      </trkpt>
      <trkpt lat="47.91848" lon="7.18982">
        <ele>432</ele>
        <time>2016-07-30T13:32:50Z</time>
      </trkpt>
      <trkpt lat="47.91862" lon="7.18994">
        <ele>432</ele>
        <time>2016-07-30T13:32:53Z</time>
      </trkpt>
      <trkpt lat="47.91872" lon="7.19005">
        <ele>414</ele>
        <time>2016-07-30T13:32:55Z</time>
      </trkpt>
      <trkpt lat="47.9188" lon="7.19012">
        <ele>413</ele>
        <time>2016-07-30T13:32:57Z</time>
      </trkpt>
      <trkpt lat="47.91909" lon="7.19027">
        <ele>413</ele>
        <time>2016-07-30T13:33:02Z</time>
      </trkpt>
      <trkpt lat="47.9194" lon="7.19051">
        <ele>409</ele>
        <time>2016-07-30T13:33:08Z</time>
      </trkpt>
      <trkpt lat="47.91986" lon="7.19081">
        <ele>404</ele>
        <time>2016-07-30T13:33:14Z</time>
      </trkpt>
      <trkpt lat="47.91997" lon="7.19084">
        <ele>398</ele>
        <time>2016-07-30T13:33:16Z</time>
      </trkpt>
      <trkpt lat="47.92004" lon="7.19083">
        <ele>398</ele>
        <time>2016-07-30T13:33:19Z</time>
      </trkpt>
      <trkpt lat="47.92005" lon="7.19084">
        <ele>397</ele>
        <time>2016-07-30T13:33:20Z</time>
      </trkpt>
      <trkpt lat="47.92013" lon="7.19086">
        <ele>394</ele>
        <time>2016-07-30T13:33:35Z</time>
      </trkpt>
      <trkpt lat="47.92021" lon="7.19092">
        <ele>391</ele>
        <time>2016-07-30T13:33:38Z</time>
      </trkpt>
      <trkpt lat="47.92023" lon="7.19095">
        <ele>390</ele>
        <time>2016-07-30T13:33:39Z</time>
      </trkpt>
      <trkpt lat="47.92027" lon="7.19099">
        <ele>389</ele>
        <time>2016-07-30T13:33:40Z</time>
      </trkpt>
      <trkpt lat="47.92035" lon="7.19108">
        <ele>387</ele>
        <time>2016-07-30T13:33:42Z</time>
      </trkpt>
      <trkpt lat="47.92041" lon="7.1912">
        <ele>386</ele>
        <time>2016-07-30T13:33:44Z</time>
      </trkpt>
      <trkpt lat="47.92049" lon="7.19143">
        <ele>383</ele>
        <time>2016-07-30T13:33:47Z</time>
      </trkpt>
      <trkpt lat="47.92053" lon="7.19152">
        <ele>382</ele>
        <time>2016-07-30T13:33:49Z</time>
      </trkpt>
      <trkpt lat="47.92055" lon="7.19152">
        <ele>382</ele>
        <time>2016-07-30T13:33:50Z</time>
      </trkpt>
      <trkpt lat="47.92055" lon="7.19161">
        <ele>382</ele>
        <time>2016-07-30T13:33:56Z</time>
      </trkpt>
      <trkpt lat="47.92053" lon="7.19166">
        <ele>381</ele>
        <time>2016-07-30T13:33:58Z</time>
      </trkpt>
      <trkpt lat="47.92047" lon="7.19172">
        <ele>372</ele>
        <time>2016-07-30T13:34:00Z</time>
      </trkpt>
      <trkpt lat="47.92029" lon="7.19179">
        <ele>371</ele>
        <time>2016-07-30T13:34:03Z</time>
      </trkpt>
      <trkpt lat="47.92015" lon="7.19175">
        <ele>372</ele>
        <time>2016-07-30T13:34:06Z</time>
      </trkpt>
      <trkpt lat="47.9201" lon="7.19176">
        <ele>373</ele>
        <time>2016-07-30T13:34:07Z</time>
      </trkpt>
      <trkpt lat="47.91978" lon="7.19172">
        <ele>370</ele>
        <time>2016-07-30T13:34:13Z</time>
      </trkpt>
      <trkpt lat="47.91952" lon="7.19178">
        <ele>368</ele>
        <time>2016-07-30T13:34:17Z</time>
      </trkpt>
      <trkpt lat="47.91931" lon="7.19202">
        <ele>366</ele>
        <time>2016-07-30T13:34:25Z</time>
      </trkpt>
      <trkpt lat="47.91926" lon="7.19214">
        <ele>365</ele>
        <time>2016-07-30T13:34:28Z</time>
      </trkpt>
      <trkpt lat="47.9192" lon="7.19243">
        <ele>360</ele>
        <time>2016-07-30T13:34:34Z</time>
      </trkpt>
      <trkpt lat="47.91917" lon="7.19272">
        <ele>356</ele>
        <time>2016-07-30T13:34:37Z</time>
      </trkpt>
      <trkpt lat="47.91918" lon="7.19292">
        <ele>355</ele>
        <time>2016-07-30T13:34:39Z</time>
      </trkpt>
      <trkpt lat="47.91925" lon="7.19327">
        <ele>354</ele>
        <time>2016-07-30T13:34:43Z</time>
      </trkpt>
      <trkpt lat="47.9193" lon="7.19345">
        <ele>351</ele>
        <time>2016-07-30T13:34:46Z</time>
      </trkpt>
      <trkpt lat="47.91938" lon="7.19357">
        <ele>349</ele>
        <time>2016-07-30T13:34:48Z</time>
      </trkpt>
      <trkpt lat="47.91946" lon="7.19376">
        <ele>348</ele>
        <time>2016-07-30T13:34:51Z</time>
      </trkpt>
      <trkpt lat="47.9195" lon="7.19383">
        <ele>348</ele>
        <time>2016-07-30T13:34:53Z</time>
      </trkpt>
      <trkpt lat="47.91952" lon="7.19387">
        <ele>347</ele>
        <time>2016-07-30T13:34:54Z</time>
      </trkpt>
      <trkpt lat="47.91955" lon="7.19394">
        <ele>347</ele>
        <time>2016-07-30T13:34:56Z</time>
      </trkpt>
      <trkpt lat="47.91963" lon="7.19424">
        <ele>342</ele>
        <time>2016-07-30T13:35:02Z</time>
      </trkpt>
      <trkpt lat="47.91959" lon="7.19463">
        <ele>342</ele>
        <time>2016-07-30T13:35:07Z</time>
      </trkpt>
      <trkpt lat="47.91955" lon="7.19477">
        <ele>343</ele>
        <time>2016-07-30T13:35:08Z</time>
      </trkpt>
      <trkpt lat="47.91953" lon="7.195">
        <ele>343</ele>
        <time>2016-07-30T13:35:10Z</time>
      </trkpt>
      <trkpt lat="47.91954" lon="7.19507">
        <ele>338</ele>
        <time>2016-07-30T13:35:11Z</time>
      </trkpt>
      <trkpt lat="47.91952" lon="7.19528">
        <ele>337</ele>
        <time>2016-07-30T13:35:14Z</time>
      </trkpt>
      <trkpt lat="47.91953" lon="7.19547">
        <ele>335</ele>
        <time>2016-07-30T13:35:16Z</time>
      </trkpt>
      <trkpt lat="47.91952" lon="7.19556">
        <ele>334</ele>
        <time>2016-07-30T13:35:17Z</time>
      </trkpt>
      <trkpt lat="47.9195" lon="7.19563">
        <ele>334</ele>
        <time>2016-07-30T13:35:18Z</time>
      </trkpt>
      <trkpt lat="47.91944" lon="7.19579">
        <ele>334</ele>
        <time>2016-07-30T13:35:22Z</time>
      </trkpt>
      <trkpt lat="47.91931" lon="7.19647">
        <ele>325</ele>
        <time>2016-07-30T13:35:39Z</time>
      </trkpt>
      <trkpt lat="47.91926" lon="7.19662">
        <ele>324</ele>
        <time>2016-07-30T13:35:45Z</time>
      </trkpt>
      <trkpt lat="47.91928" lon="7.19665">
        <ele>324</ele>
        <time>2016-07-30T13:37:49Z</time>
      </trkpt>
      <trkpt lat="47.91932" lon="7.19663">
        <ele>324</ele>
        <time>2016-07-30T13:37:52Z</time>
      </trkpt>
      <trkpt lat="47.91934" lon="7.19626">
        <ele>326</ele>
        <time>2016-07-30T13:38:06Z</time>
      </trkpt>
      <trkpt lat="47.91932" lon="7.19619">
        <ele>327</ele>
        <time>2016-07-30T13:38:12Z</time>
      </trkpt>
      <trkpt lat="47.91932" lon="7.1962">
        <ele>327</ele>
        <time>2016-07-30T13:38:13Z</time>
      </trkpt>
      <trkpt lat="47.91925" lon="7.19655">
        <ele>324</ele>
        <time>2016-07-30T13:38:25Z</time>
      </trkpt>
      <trkpt lat="47.91925" lon="7.19666">
        <ele>324</ele>
        <time>2016-07-30T13:39:42Z</time>
      </trkpt>
      <trkpt lat="47.91926" lon="7.19669">
        <ele>323</ele>
        <time>2016-07-30T13:39:44Z</time>
      </trkpt>
      <trkpt lat="47.91926" lon="7.19687">
        <ele>321</ele>
        <time>2016-07-30T13:39:56Z</time>
      </trkpt>
      <trkpt lat="47.91928" lon="7.19679">
        <ele>322</ele>
        <time>2016-07-30T13:40:12Z</time>
      </trkpt>
      <trkpt lat="47.91938" lon="7.19663">
        <ele>324</ele>
        <time>2016-07-30T13:40:17Z</time>
      </trkpt>
      <trkpt lat="47.91945" lon="7.19666">
        <ele>324</ele>
        <time>2016-07-30T13:40:20Z</time>
      </trkpt>
      <trkpt lat="47.91961" lon="7.19679">
        <ele>320</ele>
        <time>2016-07-30T13:40:26Z</time>
      </trkpt>
      <trkpt lat="47.9199" lon="7.19699">
        <ele>319</ele>
        <time>2016-07-30T13:40:33Z</time>
      </trkpt>
      <trkpt lat="47.92005" lon="7.1971">
        <ele>317</ele>
        <time>2016-07-30T13:40:36Z</time>
      </trkpt>
      <trkpt lat="47.92015" lon="7.19713">
        <ele>317</ele>
        <time>2016-07-30T13:40:38Z</time>
      </trkpt>
      <trkpt lat="47.92052" lon="7.19718">
        <ele>317</ele>
        <time>2016-07-30T13:40:48Z</time>
      </trkpt>
      <trkpt lat="47.92058" lon="7.19721">
        <ele>317</ele>
        <time>2016-07-30T13:40:51Z</time>
      </trkpt>
      <trkpt lat="47.92061" lon="7.1972">
        <ele>317</ele>
        <time>2016-07-30T13:40:53Z</time>
      </trkpt>
      <trkpt lat="47.9206" lon="7.19717">
        <ele>317</ele>
        <time>2016-07-30T13:41:03Z</time>
      </trkpt>
      <trkpt lat="47.92055" lon="7.19715">
        <ele>317</ele>
        <time>2016-07-30T13:41:05Z</time>
      </trkpt>
      <trkpt lat="47.92048" lon="7.19716">
        <ele>317</ele>
        <time>2016-07-30T13:41:07Z</time>
      </trkpt>
      <trkpt lat="47.92033" lon="7.19715">
        <ele>317</ele>
        <time>2016-07-30T13:41:11Z</time>
      </trkpt>
      <trkpt lat="47.92005" lon="7.19706">
        <ele>317</ele>
        <time>2016-07-30T13:41:18Z</time>
      </trkpt>
      <trkpt lat="47.91982" lon="7.19692">
        <ele>319</ele>
        <time>2016-07-30T13:41:25Z</time>
      </trkpt>
      <trkpt lat="47.91941" lon="7.19668">
        <ele>321</ele>
        <time>2016-07-30T13:41:38Z</time>
      </trkpt>
      <trkpt lat="47.9192" lon="7.19712">
        <ele>320</ele>
        <time>2016-07-30T13:41:48Z</time>
      </trkpt>
      <trkpt lat="47.91909" lon="7.19724">
        <ele>326</ele>
        <time>2016-07-30T13:41:50Z</time>
      </trkpt>
      <trkpt lat="47.91901" lon="7.19738">
        <ele>325</ele>
        <time>2016-07-30T13:41:52Z</time>
      </trkpt>
      <trkpt lat="47.91895" lon="7.19745">
        <ele>325</ele>
        <time>2016-07-30T13:41:53Z</time>
      </trkpt>
      <trkpt lat="47.91875" lon="7.19776">
        <ele>322</ele>
        <time>2016-07-30T13:41:57Z</time>
      </trkpt>
      <trkpt lat="47.9186" lon="7.19796">
        <ele>321</ele>
        <time>2016-07-30T13:42:00Z</time>
      </trkpt>
      <trkpt lat="47.91833" lon="7.19838">
        <ele>317</ele>
        <time>2016-07-30T13:42:06Z</time>
      </trkpt>
      <trkpt lat="47.91826" lon="7.19852">
        <ele>317</ele>
        <time>2016-07-30T13:42:08Z</time>
      </trkpt>
      <trkpt lat="47.91819" lon="7.19869">
        <ele>316</ele>
        <time>2016-07-30T13:42:10Z</time>
      </trkpt>
      <trkpt lat="47.91809" lon="7.19887">
        <ele>316</ele>
        <time>2016-07-30T13:42:13Z</time>
      </trkpt>
      <trkpt lat="47.91719" lon="7.20051">
        <ele>315</ele>
        <time>2016-07-30T13:42:37Z</time>
      </trkpt>
      <trkpt lat="47.91711" lon="7.20071">
        <ele>315</ele>
        <time>2016-07-30T13:42:40Z</time>
      </trkpt>
      <trkpt lat="47.91685" lon="7.20122">
        <ele>313</ele>
        <time>2016-07-30T13:42:48Z</time>
      </trkpt>
      <trkpt lat="47.9168" lon="7.20128">
        <ele>313</ele>
        <time>2016-07-30T13:42:49Z</time>
      </trkpt>
      <trkpt lat="47.91644" lon="7.20197">
        <ele>310</ele>
        <time>2016-07-30T13:42:59Z</time>
      </trkpt>
      <trkpt lat="47.91635" lon="7.20207">
        <ele>310</ele>
        <time>2016-07-30T13:43:01Z</time>
      </trkpt>
      <trkpt lat="47.91616" lon="7.20236">
        <ele>310</ele>
        <time>2016-07-30T13:43:06Z</time>
      </trkpt>
      <trkpt lat="47.91602" lon="7.2025">
        <ele>309</ele>
        <time>2016-07-30T13:43:09Z</time>
      </trkpt>
      <trkpt lat="47.91545" lon="7.20349">
        <ele>308</ele>
        <time>2016-07-30T13:43:24Z</time>
      </trkpt>
      <trkpt lat="47.91533" lon="7.20374">
        <ele>308</ele>
        <time>2016-07-30T13:43:28Z</time>
      </trkpt>
      <trkpt lat="47.91495" lon="7.20441">
        <ele>307</ele>
        <time>2016-07-30T13:43:40Z</time>
      </trkpt>
      <trkpt lat="47.91499" lon="7.20446">
        <ele>307</ele>
        <time>2016-07-30T13:43:43Z</time>
      </trkpt>
      <trkpt lat="47.91511" lon="7.20418">
        <ele>308</ele>
        <time>2016-07-30T13:43:50Z</time>
      </trkpt>
      <trkpt lat="47.91535" lon="7.20376">
        <ele>308</ele>
        <time>2016-07-30T13:43:58Z</time>
      </trkpt>
      <trkpt lat="47.91559" lon="7.20338">
        <ele>307</ele>
        <time>2016-07-30T13:44:06Z</time>
      </trkpt>
      <trkpt lat="47.91567" lon="7.20339">
        <ele>307</ele>
        <time>2016-07-30T13:44:08Z</time>
      </trkpt>
      <trkpt lat="47.91578" lon="7.20352">
        <ele>307</ele>
        <time>2016-07-30T13:44:11Z</time>
      </trkpt>
      <trkpt lat="47.91601" lon="7.20382">
        <ele>308</ele>
        <time>2016-07-30T13:44:17Z</time>
      </trkpt>
      <trkpt lat="47.91633" lon="7.20425">
        <ele>307</ele>
        <time>2016-07-30T13:44:25Z</time>
      </trkpt>
      <trkpt lat="47.91666" lon="7.20466">
        <ele>307</ele>
        <time>2016-07-30T13:44:33Z</time>
      </trkpt>
      <trkpt lat="47.91674" lon="7.20469">
        <ele>310</ele>
        <time>2016-07-30T13:44:35Z</time>
      </trkpt>
      <trkpt lat="47.91684" lon="7.20477">
        <ele>310</ele>
        <time>2016-07-30T13:44:39Z</time>
      </trkpt>
      <trkpt lat="47.91688" lon="7.20475">
        <ele>310</ele>
        <time>2016-07-30T13:44:41Z</time>
      </trkpt>
      <trkpt lat="47.91696" lon="7.20464">
        <ele>310</ele>
        <time>2016-07-30T13:44:45Z</time>
      </trkpt>
      <trkpt lat="47.91703" lon="7.20448">
        <ele>310</ele>
        <time>2016-07-30T13:44:51Z</time>
      </trkpt>
    </trkseg>
  </trk>
</gpx>